<?xml version="1.0" encoding="UTF-8" standalone="no" ?>
<gpx xmlns="http://www.topografix.com/GPX/1/1" xmlns:xsi="http://www.w3.org/2001/XMLSchema-instance" xsi:schemaLocation="http://www.topografix.com/GPX/1/1 http://www.topografix.com/GPX/1/1/gpx.xsd" version="1.1" creator="VisuGPX - https://www.visugpx.com">
  <metadata>
    <name>38 - Vercors Montchardon : 2021-07-11</name>
  </metadata>
  <trk>
    <name><![CDATA[38 - Vercors Montchardon : 2021-07-11_1]]></name>
    <trkseg>
      <trkpt lat="45.20731" lon="5.46667">
        <ele>168.2</ele>
        <time>2021-07-03T06:47:03Z</time>
      </trkpt>
      <trkpt lat="45.20735" lon="5.46649">
        <ele>168.4</ele>
        <time>2021-07-03T06:47:07Z</time>
      </trkpt>
      <trkpt lat="45.20725" lon="5.46631">
        <ele>168.6</ele>
        <time>2021-07-03T06:47:11Z</time>
      </trkpt>
      <trkpt lat="45.20724" lon="5.46614">
        <ele>168.6</ele>
        <time>2021-07-03T06:47:15Z</time>
      </trkpt>
      <trkpt lat="45.20718" lon="5.46602">
        <ele>169</ele>
        <time>2021-07-03T06:47:19Z</time>
      </trkpt>
      <trkpt lat="45.20715" lon="5.46583">
        <ele>169.2</ele>
        <time>2021-07-03T06:47:23Z</time>
      </trkpt>
      <trkpt lat="45.20708" lon="5.46567">
        <ele>169.6</ele>
        <time>2021-07-03T06:47:27Z</time>
      </trkpt>
      <trkpt lat="45.20696" lon="5.46549">
        <ele>169</ele>
        <time>2021-07-03T06:47:31Z</time>
      </trkpt>
      <trkpt lat="45.2068" lon="5.46536">
        <ele>169</ele>
        <time>2021-07-03T06:47:35Z</time>
      </trkpt>
      <trkpt lat="45.20673" lon="5.46519">
        <ele>168.4</ele>
        <time>2021-07-03T06:47:39Z</time>
      </trkpt>
      <trkpt lat="45.20672" lon="5.46496">
        <ele>168.2</ele>
        <time>2021-07-03T06:47:43Z</time>
      </trkpt>
      <trkpt lat="45.20678" lon="5.4647">
        <ele>168</ele>
        <time>2021-07-03T06:47:47Z</time>
      </trkpt>
      <trkpt lat="45.20677" lon="5.46444">
        <ele>168</ele>
        <time>2021-07-03T06:47:51Z</time>
      </trkpt>
      <trkpt lat="45.20671" lon="5.46421">
        <ele>168.2</ele>
        <time>2021-07-03T06:47:55Z</time>
      </trkpt>
      <trkpt lat="45.20667" lon="5.46403">
        <ele>168</ele>
        <time>2021-07-03T06:47:59Z</time>
      </trkpt>
      <trkpt lat="45.20636" lon="5.46388">
        <ele>168.4</ele>
        <time>2021-07-03T06:48:03Z</time>
      </trkpt>
      <trkpt lat="45.20625" lon="5.46372">
        <ele>169</ele>
        <time>2021-07-03T06:48:07Z</time>
      </trkpt>
      <trkpt lat="45.20611" lon="5.46361">
        <ele>169.2</ele>
        <time>2021-07-03T06:48:11Z</time>
      </trkpt>
      <trkpt lat="45.206" lon="5.46357">
        <ele>170</ele>
        <time>2021-07-03T06:48:15Z</time>
      </trkpt>
      <trkpt lat="45.20594" lon="5.4636">
        <ele>169.6</ele>
        <time>2021-07-03T06:48:19Z</time>
      </trkpt>
      <trkpt lat="45.20587" lon="5.46376">
        <ele>169</ele>
        <time>2021-07-03T06:48:23Z</time>
      </trkpt>
      <trkpt lat="45.20585" lon="5.46396">
        <ele>168.4</ele>
        <time>2021-07-03T06:48:27Z</time>
      </trkpt>
      <trkpt lat="45.20567" lon="5.46415">
        <ele>168.6</ele>
        <time>2021-07-03T06:48:31Z</time>
      </trkpt>
      <trkpt lat="45.20551" lon="5.46429">
        <ele>169.4</ele>
        <time>2021-07-03T06:48:35Z</time>
      </trkpt>
      <trkpt lat="45.20538" lon="5.46441">
        <ele>170.2</ele>
        <time>2021-07-03T06:48:39Z</time>
      </trkpt>
      <trkpt lat="45.20528" lon="5.46451">
        <ele>171</ele>
        <time>2021-07-03T06:48:43Z</time>
      </trkpt>
      <trkpt lat="45.20517" lon="5.4646">
        <ele>171.2</ele>
        <time>2021-07-03T06:48:47Z</time>
      </trkpt>
      <trkpt lat="45.20505" lon="5.46471">
        <ele>172.2</ele>
        <time>2021-07-03T06:48:51Z</time>
      </trkpt>
      <trkpt lat="45.20493" lon="5.46479">
        <ele>172.2</ele>
        <time>2021-07-03T06:48:55Z</time>
      </trkpt>
      <trkpt lat="45.20482" lon="5.46488">
        <ele>172.6</ele>
        <time>2021-07-03T06:48:59Z</time>
      </trkpt>
      <trkpt lat="45.20469" lon="5.46492">
        <ele>173</ele>
        <time>2021-07-03T06:49:03Z</time>
      </trkpt>
      <trkpt lat="45.20457" lon="5.46496">
        <ele>173.8</ele>
        <time>2021-07-03T06:49:07Z</time>
      </trkpt>
      <trkpt lat="45.20445" lon="5.46497">
        <ele>174</ele>
        <time>2021-07-03T06:49:11Z</time>
      </trkpt>
      <trkpt lat="45.20433" lon="5.46495">
        <ele>174.6</ele>
        <time>2021-07-03T06:49:15Z</time>
      </trkpt>
      <trkpt lat="45.20423" lon="5.46488">
        <ele>175.2</ele>
        <time>2021-07-03T06:49:19Z</time>
      </trkpt>
      <trkpt lat="45.20414" lon="5.46481">
        <ele>176.8</ele>
        <time>2021-07-03T06:49:23Z</time>
      </trkpt>
      <trkpt lat="45.20405" lon="5.4648">
        <ele>177.4</ele>
        <time>2021-07-03T06:49:27Z</time>
      </trkpt>
      <trkpt lat="45.20397" lon="5.46476">
        <ele>178</ele>
        <time>2021-07-03T06:49:31Z</time>
      </trkpt>
      <trkpt lat="45.20387" lon="5.46475">
        <ele>177.8</ele>
        <time>2021-07-03T06:49:35Z</time>
      </trkpt>
      <trkpt lat="45.20375" lon="5.46474">
        <ele>177.6</ele>
        <time>2021-07-03T06:49:39Z</time>
      </trkpt>
      <trkpt lat="45.20362" lon="5.46472">
        <ele>178.6</ele>
        <time>2021-07-03T06:49:43Z</time>
      </trkpt>
      <trkpt lat="45.20352" lon="5.46465">
        <ele>179.2</ele>
        <time>2021-07-03T06:49:47Z</time>
      </trkpt>
      <trkpt lat="45.20339" lon="5.46463">
        <ele>180.4</ele>
        <time>2021-07-03T06:49:51Z</time>
      </trkpt>
      <trkpt lat="45.20328" lon="5.46461">
        <ele>181.2</ele>
        <time>2021-07-03T06:49:55Z</time>
      </trkpt>
      <trkpt lat="45.20318" lon="5.46459">
        <ele>181.8</ele>
        <time>2021-07-03T06:49:59Z</time>
      </trkpt>
      <trkpt lat="45.20309" lon="5.46456">
        <ele>182.2</ele>
        <time>2021-07-03T06:50:03Z</time>
      </trkpt>
      <trkpt lat="45.20299" lon="5.46452">
        <ele>182.6</ele>
        <time>2021-07-03T06:50:07Z</time>
      </trkpt>
      <trkpt lat="45.20289" lon="5.46447">
        <ele>183.2</ele>
        <time>2021-07-03T06:50:11Z</time>
      </trkpt>
      <trkpt lat="45.2028" lon="5.46442">
        <ele>184.2</ele>
        <time>2021-07-03T06:50:15Z</time>
      </trkpt>
      <trkpt lat="45.20269" lon="5.46438">
        <ele>184.6</ele>
        <time>2021-07-03T06:50:19Z</time>
      </trkpt>
      <trkpt lat="45.2026" lon="5.46432">
        <ele>184.8</ele>
        <time>2021-07-03T06:50:23Z</time>
      </trkpt>
      <trkpt lat="45.2025" lon="5.46427">
        <ele>185.8</ele>
        <time>2021-07-03T06:50:27Z</time>
      </trkpt>
      <trkpt lat="45.20241" lon="5.46422">
        <ele>186.6</ele>
        <time>2021-07-03T06:50:31Z</time>
      </trkpt>
      <trkpt lat="45.20233" lon="5.46416">
        <ele>187.2</ele>
        <time>2021-07-03T06:50:35Z</time>
      </trkpt>
      <trkpt lat="45.20226" lon="5.46409">
        <ele>188</ele>
        <time>2021-07-03T06:50:39Z</time>
      </trkpt>
      <trkpt lat="45.20219" lon="5.46399">
        <ele>188.4</ele>
        <time>2021-07-03T06:50:43Z</time>
      </trkpt>
      <trkpt lat="45.20214" lon="5.4639">
        <ele>189.2</ele>
        <time>2021-07-03T06:50:47Z</time>
      </trkpt>
      <trkpt lat="45.20209" lon="5.4638">
        <ele>189.8</ele>
        <time>2021-07-03T06:50:51Z</time>
      </trkpt>
      <trkpt lat="45.20203" lon="5.46369">
        <ele>190.2</ele>
        <time>2021-07-03T06:50:55Z</time>
      </trkpt>
      <trkpt lat="45.20198" lon="5.46359">
        <ele>191.2</ele>
        <time>2021-07-03T06:50:59Z</time>
      </trkpt>
      <trkpt lat="45.20192" lon="5.46349">
        <ele>191.8</ele>
        <time>2021-07-03T06:51:03Z</time>
      </trkpt>
      <trkpt lat="45.20184" lon="5.46338">
        <ele>192.4</ele>
        <time>2021-07-03T06:51:07Z</time>
      </trkpt>
      <trkpt lat="45.20178" lon="5.46329">
        <ele>193.6</ele>
        <time>2021-07-03T06:51:11Z</time>
      </trkpt>
      <trkpt lat="45.20172" lon="5.46319">
        <ele>194.4</ele>
        <time>2021-07-03T06:51:15Z</time>
      </trkpt>
      <trkpt lat="45.20166" lon="5.46307">
        <ele>194.8</ele>
        <time>2021-07-03T06:51:19Z</time>
      </trkpt>
      <trkpt lat="45.20161" lon="5.46296">
        <ele>195.2</ele>
        <time>2021-07-03T06:51:23Z</time>
      </trkpt>
      <trkpt lat="45.20156" lon="5.46286">
        <ele>196</ele>
        <time>2021-07-03T06:51:27Z</time>
      </trkpt>
      <trkpt lat="45.2015" lon="5.46278">
        <ele>196.8</ele>
        <time>2021-07-03T06:51:31Z</time>
      </trkpt>
      <trkpt lat="45.20144" lon="5.46268">
        <ele>197.4</ele>
        <time>2021-07-03T06:51:35Z</time>
      </trkpt>
      <trkpt lat="45.20138" lon="5.46258">
        <ele>197.8</ele>
        <time>2021-07-03T06:51:39Z</time>
      </trkpt>
      <trkpt lat="45.2013" lon="5.46247">
        <ele>198.4</ele>
        <time>2021-07-03T06:51:43Z</time>
      </trkpt>
      <trkpt lat="45.20124" lon="5.46236">
        <ele>199.2</ele>
        <time>2021-07-03T06:51:47Z</time>
      </trkpt>
      <trkpt lat="45.20116" lon="5.46225">
        <ele>200</ele>
        <time>2021-07-03T06:51:51Z</time>
      </trkpt>
      <trkpt lat="45.20109" lon="5.46214">
        <ele>200.8</ele>
        <time>2021-07-03T06:51:55Z</time>
      </trkpt>
      <trkpt lat="45.20103" lon="5.46204">
        <ele>201.4</ele>
        <time>2021-07-03T06:51:59Z</time>
      </trkpt>
      <trkpt lat="45.20097" lon="5.46193">
        <ele>201.8</ele>
        <time>2021-07-03T06:52:03Z</time>
      </trkpt>
      <trkpt lat="45.20091" lon="5.46184">
        <ele>202.6</ele>
        <time>2021-07-03T06:52:07Z</time>
      </trkpt>
      <trkpt lat="45.20085" lon="5.46173">
        <ele>203.4</ele>
        <time>2021-07-03T06:52:11Z</time>
      </trkpt>
      <trkpt lat="45.20079" lon="5.46163">
        <ele>204</ele>
        <time>2021-07-03T06:52:15Z</time>
      </trkpt>
      <trkpt lat="45.20074" lon="5.46152">
        <ele>204.2</ele>
        <time>2021-07-03T06:52:19Z</time>
      </trkpt>
      <trkpt lat="45.20068" lon="5.46142">
        <ele>205</ele>
        <time>2021-07-03T06:52:23Z</time>
      </trkpt>
      <trkpt lat="45.20062" lon="5.46132">
        <ele>204.8</ele>
        <time>2021-07-03T06:52:27Z</time>
      </trkpt>
      <trkpt lat="45.20055" lon="5.46121">
        <ele>205.8</ele>
        <time>2021-07-03T06:52:31Z</time>
      </trkpt>
      <trkpt lat="45.20051" lon="5.46107">
        <ele>206.2</ele>
        <time>2021-07-03T06:52:35Z</time>
      </trkpt>
      <trkpt lat="45.2005" lon="5.46089">
        <ele>206</ele>
        <time>2021-07-03T06:52:39Z</time>
      </trkpt>
      <trkpt lat="45.20051" lon="5.46071">
        <ele>206.8</ele>
        <time>2021-07-03T06:52:43Z</time>
      </trkpt>
      <trkpt lat="45.20052" lon="5.46052">
        <ele>206.6</ele>
        <time>2021-07-03T06:52:47Z</time>
      </trkpt>
      <trkpt lat="45.20054" lon="5.46034">
        <ele>206.8</ele>
        <time>2021-07-03T06:52:51Z</time>
      </trkpt>
      <trkpt lat="45.20055" lon="5.46015">
        <ele>206.8</ele>
        <time>2021-07-03T06:52:55Z</time>
      </trkpt>
      <trkpt lat="45.20058" lon="5.45996">
        <ele>207</ele>
        <time>2021-07-03T06:52:59Z</time>
      </trkpt>
      <trkpt lat="45.20057" lon="5.45976">
        <ele>207</ele>
        <time>2021-07-03T06:53:03Z</time>
      </trkpt>
      <trkpt lat="45.20051" lon="5.45956">
        <ele>207.2</ele>
        <time>2021-07-03T06:53:07Z</time>
      </trkpt>
      <trkpt lat="45.20046" lon="5.45937">
        <ele>207.4</ele>
        <time>2021-07-03T06:53:11Z</time>
      </trkpt>
      <trkpt lat="45.20043" lon="5.45919">
        <ele>208.8</ele>
        <time>2021-07-03T06:53:15Z</time>
      </trkpt>
      <trkpt lat="45.2004" lon="5.45902">
        <ele>208.8</ele>
        <time>2021-07-03T06:53:19Z</time>
      </trkpt>
      <trkpt lat="45.20034" lon="5.45885">
        <ele>209.8</ele>
        <time>2021-07-03T06:53:23Z</time>
      </trkpt>
      <trkpt lat="45.20027" lon="5.45869">
        <ele>210.2</ele>
        <time>2021-07-03T06:53:27Z</time>
      </trkpt>
      <trkpt lat="45.20018" lon="5.45853">
        <ele>210.8</ele>
        <time>2021-07-03T06:53:31Z</time>
      </trkpt>
      <trkpt lat="45.20009" lon="5.45837">
        <ele>211.4</ele>
        <time>2021-07-03T06:53:35Z</time>
      </trkpt>
      <trkpt lat="45.2" lon="5.45821">
        <ele>211.6</ele>
        <time>2021-07-03T06:53:39Z</time>
      </trkpt>
      <trkpt lat="45.19992" lon="5.45804">
        <ele>211.8</ele>
        <time>2021-07-03T06:53:43Z</time>
      </trkpt>
      <trkpt lat="45.19983" lon="5.45787">
        <ele>212.4</ele>
        <time>2021-07-03T06:53:47Z</time>
      </trkpt>
      <trkpt lat="45.19973" lon="5.4577">
        <ele>212.6</ele>
        <time>2021-07-03T06:53:51Z</time>
      </trkpt>
      <trkpt lat="45.19966" lon="5.45757">
        <ele>213</ele>
        <time>2021-07-03T06:53:55Z</time>
      </trkpt>
      <trkpt lat="45.19962" lon="5.45743">
        <ele>212.6</ele>
        <time>2021-07-03T06:53:59Z</time>
      </trkpt>
      <trkpt lat="45.19956" lon="5.45725">
        <ele>212</ele>
        <time>2021-07-03T06:54:03Z</time>
      </trkpt>
      <trkpt lat="45.19949" lon="5.45703">
        <ele>210.8</ele>
        <time>2021-07-03T06:54:07Z</time>
      </trkpt>
      <trkpt lat="45.19939" lon="5.45673">
        <ele>210.4</ele>
        <time>2021-07-03T06:54:11Z</time>
      </trkpt>
      <trkpt lat="45.1993" lon="5.45647">
        <ele>208.4</ele>
        <time>2021-07-03T06:54:15Z</time>
      </trkpt>
      <trkpt lat="45.19919" lon="5.4562">
        <ele>208.2</ele>
        <time>2021-07-03T06:54:19Z</time>
      </trkpt>
      <trkpt lat="45.19908" lon="5.45591">
        <ele>208.2</ele>
        <time>2021-07-03T06:54:23Z</time>
      </trkpt>
      <trkpt lat="45.19897" lon="5.45562">
        <ele>207.4</ele>
        <time>2021-07-03T06:54:27Z</time>
      </trkpt>
      <trkpt lat="45.19888" lon="5.4553">
        <ele>207</ele>
        <time>2021-07-03T06:54:31Z</time>
      </trkpt>
      <trkpt lat="45.19886" lon="5.455">
        <ele>205.6</ele>
        <time>2021-07-03T06:54:35Z</time>
      </trkpt>
      <trkpt lat="45.19874" lon="5.4546">
        <ele>205</ele>
        <time>2021-07-03T06:54:39Z</time>
      </trkpt>
      <trkpt lat="45.19865" lon="5.45423">
        <ele>204.4</ele>
        <time>2021-07-03T06:54:43Z</time>
      </trkpt>
      <trkpt lat="45.19862" lon="5.45396">
        <ele>204.8</ele>
        <time>2021-07-03T06:54:47Z</time>
      </trkpt>
      <trkpt lat="45.19862" lon="5.45374">
        <ele>204.4</ele>
        <time>2021-07-03T06:54:51Z</time>
      </trkpt>
      <trkpt lat="45.19853" lon="5.45352">
        <ele>204.2</ele>
        <time>2021-07-03T06:54:55Z</time>
      </trkpt>
      <trkpt lat="45.19842" lon="5.45326">
        <ele>203.8</ele>
        <time>2021-07-03T06:54:59Z</time>
      </trkpt>
      <trkpt lat="45.19828" lon="5.45295">
        <ele>202.8</ele>
        <time>2021-07-03T06:55:03Z</time>
      </trkpt>
      <trkpt lat="45.1982" lon="5.45267">
        <ele>203.2</ele>
        <time>2021-07-03T06:55:07Z</time>
      </trkpt>
      <trkpt lat="45.19811" lon="5.45237">
        <ele>202</ele>
        <time>2021-07-03T06:55:11Z</time>
      </trkpt>
      <trkpt lat="45.19802" lon="5.45207">
        <ele>202.6</ele>
        <time>2021-07-03T06:55:15Z</time>
      </trkpt>
      <trkpt lat="45.198" lon="5.45183">
        <ele>202.6</ele>
        <time>2021-07-03T06:55:19Z</time>
      </trkpt>
      <trkpt lat="45.1979" lon="5.45169">
        <ele>202.4</ele>
        <time>2021-07-03T06:55:23Z</time>
      </trkpt>
      <trkpt lat="45.19781" lon="5.45168">
        <ele>202.8</ele>
        <time>2021-07-03T06:55:27Z</time>
      </trkpt>
      <trkpt lat="45.19769" lon="5.45174">
        <ele>203</ele>
        <time>2021-07-03T06:55:31Z</time>
      </trkpt>
      <trkpt lat="45.19757" lon="5.45179">
        <ele>204</ele>
        <time>2021-07-03T06:55:35Z</time>
      </trkpt>
      <trkpt lat="45.19746" lon="5.45182">
        <ele>204.4</ele>
        <time>2021-07-03T06:55:39Z</time>
      </trkpt>
      <trkpt lat="45.19739" lon="5.45189">
        <ele>205.4</ele>
        <time>2021-07-03T06:55:43Z</time>
      </trkpt>
      <trkpt lat="45.19728" lon="5.45193">
        <ele>206</ele>
        <time>2021-07-03T06:55:47Z</time>
      </trkpt>
      <trkpt lat="45.19716" lon="5.45197">
        <ele>206.8</ele>
        <time>2021-07-03T06:55:51Z</time>
      </trkpt>
      <trkpt lat="45.19708" lon="5.45202">
        <ele>207.8</ele>
        <time>2021-07-03T06:55:55Z</time>
      </trkpt>
      <trkpt lat="45.19703" lon="5.45205">
        <ele>208.6</ele>
        <time>2021-07-03T06:55:59Z</time>
      </trkpt>
      <trkpt lat="45.19699" lon="5.4521">
        <ele>209.2</ele>
        <time>2021-07-03T06:56:03Z</time>
      </trkpt>
      <trkpt lat="45.197" lon="5.45215">
        <ele>210</ele>
        <time>2021-07-03T06:56:07Z</time>
      </trkpt>
      <trkpt lat="45.197" lon="5.45215">
        <ele>210.6</ele>
        <time>2021-07-03T06:56:11Z</time>
      </trkpt>
      <trkpt lat="45.1968" lon="5.45219">
        <ele>211.2</ele>
        <time>2021-07-03T06:56:15Z</time>
      </trkpt>
      <trkpt lat="45.19673" lon="5.45226">
        <ele>212.2</ele>
        <time>2021-07-03T06:56:19Z</time>
      </trkpt>
      <trkpt lat="45.19668" lon="5.45231">
        <ele>212.2</ele>
        <time>2021-07-03T06:56:23Z</time>
      </trkpt>
      <trkpt lat="45.19661" lon="5.45238">
        <ele>212.6</ele>
        <time>2021-07-03T06:56:27Z</time>
      </trkpt>
      <trkpt lat="45.19648" lon="5.45247">
        <ele>213.6</ele>
        <time>2021-07-03T06:56:31Z</time>
      </trkpt>
      <trkpt lat="45.19639" lon="5.45259">
        <ele>213.8</ele>
        <time>2021-07-03T06:56:35Z</time>
      </trkpt>
      <trkpt lat="45.19629" lon="5.45268">
        <ele>214.4</ele>
        <time>2021-07-03T06:56:39Z</time>
      </trkpt>
      <trkpt lat="45.19621" lon="5.45279">
        <ele>215</ele>
        <time>2021-07-03T06:56:43Z</time>
      </trkpt>
      <trkpt lat="45.19612" lon="5.45289">
        <ele>214.6</ele>
        <time>2021-07-03T06:56:47Z</time>
      </trkpt>
      <trkpt lat="45.19604" lon="5.45301">
        <ele>215.4</ele>
        <time>2021-07-03T06:56:51Z</time>
      </trkpt>
      <trkpt lat="45.196" lon="5.45309">
        <ele>215.4</ele>
        <time>2021-07-03T06:56:55Z</time>
      </trkpt>
      <trkpt lat="45.19594" lon="5.45305">
        <ele>215.2</ele>
        <time>2021-07-03T06:56:59Z</time>
      </trkpt>
      <trkpt lat="45.19584" lon="5.45292">
        <ele>214.4</ele>
        <time>2021-07-03T06:57:03Z</time>
      </trkpt>
      <trkpt lat="45.19575" lon="5.45279">
        <ele>213.6</ele>
        <time>2021-07-03T06:57:07Z</time>
      </trkpt>
      <trkpt lat="45.19564" lon="5.45266">
        <ele>214</ele>
        <time>2021-07-03T06:57:11Z</time>
      </trkpt>
      <trkpt lat="45.19554" lon="5.45255">
        <ele>213.8</ele>
        <time>2021-07-03T06:57:15Z</time>
      </trkpt>
      <trkpt lat="45.19547" lon="5.45246">
        <ele>213.6</ele>
        <time>2021-07-03T06:57:19Z</time>
      </trkpt>
      <trkpt lat="45.19553" lon="5.4524">
        <ele>213.6</ele>
        <time>2021-07-03T06:57:23Z</time>
      </trkpt>
      <trkpt lat="45.19551" lon="5.45233">
        <ele>213.8</ele>
        <time>2021-07-03T06:57:27Z</time>
      </trkpt>
      <trkpt lat="45.19547" lon="5.45225">
        <ele>213</ele>
        <time>2021-07-03T06:57:31Z</time>
      </trkpt>
      <trkpt lat="45.19535" lon="5.45213">
        <ele>213.6</ele>
        <time>2021-07-03T06:57:35Z</time>
      </trkpt>
      <trkpt lat="45.19528" lon="5.452">
        <ele>213.8</ele>
        <time>2021-07-03T06:57:39Z</time>
      </trkpt>
      <trkpt lat="45.19508" lon="5.45182">
        <ele>213</ele>
        <time>2021-07-03T06:57:43Z</time>
      </trkpt>
      <trkpt lat="45.19496" lon="5.4516">
        <ele>213.2</ele>
        <time>2021-07-03T06:57:47Z</time>
      </trkpt>
      <trkpt lat="45.19489" lon="5.45144">
        <ele>213.4</ele>
        <time>2021-07-03T06:57:51Z</time>
      </trkpt>
      <trkpt lat="45.19479" lon="5.45127">
        <ele>213.8</ele>
        <time>2021-07-03T06:57:55Z</time>
      </trkpt>
      <trkpt lat="45.19463" lon="5.45102">
        <ele>213.4</ele>
        <time>2021-07-03T06:57:59Z</time>
      </trkpt>
      <trkpt lat="45.19451" lon="5.45081">
        <ele>214.8</ele>
        <time>2021-07-03T06:58:03Z</time>
      </trkpt>
      <trkpt lat="45.19435" lon="5.45055">
        <ele>214.2</ele>
        <time>2021-07-03T06:58:07Z</time>
      </trkpt>
      <trkpt lat="45.19429" lon="5.45033">
        <ele>214.4</ele>
        <time>2021-07-03T06:58:11Z</time>
      </trkpt>
      <trkpt lat="45.19415" lon="5.4501">
        <ele>214.2</ele>
        <time>2021-07-03T06:58:15Z</time>
      </trkpt>
      <trkpt lat="45.19407" lon="5.44986">
        <ele>215.6</ele>
        <time>2021-07-03T06:58:19Z</time>
      </trkpt>
      <trkpt lat="45.19399" lon="5.44962">
        <ele>215</ele>
        <time>2021-07-03T06:58:23Z</time>
      </trkpt>
      <trkpt lat="45.19392" lon="5.44936">
        <ele>215.6</ele>
        <time>2021-07-03T06:58:27Z</time>
      </trkpt>
      <trkpt lat="45.19389" lon="5.44914">
        <ele>215.4</ele>
        <time>2021-07-03T06:58:31Z</time>
      </trkpt>
      <trkpt lat="45.19386" lon="5.44891">
        <ele>216</ele>
        <time>2021-07-03T06:58:35Z</time>
      </trkpt>
      <trkpt lat="45.19377" lon="5.44867">
        <ele>215.6</ele>
        <time>2021-07-03T06:58:39Z</time>
      </trkpt>
      <trkpt lat="45.19377" lon="5.4485">
        <ele>216</ele>
        <time>2021-07-03T06:58:43Z</time>
      </trkpt>
      <trkpt lat="45.19367" lon="5.44822">
        <ele>215.8</ele>
        <time>2021-07-03T06:58:47Z</time>
      </trkpt>
      <trkpt lat="45.19351" lon="5.44794">
        <ele>215.6</ele>
        <time>2021-07-03T06:58:51Z</time>
      </trkpt>
      <trkpt lat="45.19339" lon="5.44771">
        <ele>216</ele>
        <time>2021-07-03T06:58:55Z</time>
      </trkpt>
      <trkpt lat="45.19331" lon="5.44749">
        <ele>216.6</ele>
        <time>2021-07-03T06:58:59Z</time>
      </trkpt>
      <trkpt lat="45.19316" lon="5.44726">
        <ele>216.4</ele>
        <time>2021-07-03T06:59:03Z</time>
      </trkpt>
      <trkpt lat="45.19306" lon="5.44705">
        <ele>216.4</ele>
        <time>2021-07-03T06:59:07Z</time>
      </trkpt>
      <trkpt lat="45.19298" lon="5.44684">
        <ele>217.2</ele>
        <time>2021-07-03T06:59:11Z</time>
      </trkpt>
      <trkpt lat="45.19291" lon="5.44664">
        <ele>217.4</ele>
        <time>2021-07-03T06:59:15Z</time>
      </trkpt>
      <trkpt lat="45.19285" lon="5.44644">
        <ele>218.2</ele>
        <time>2021-07-03T06:59:19Z</time>
      </trkpt>
      <trkpt lat="45.19285" lon="5.44626">
        <ele>218</ele>
        <time>2021-07-03T06:59:23Z</time>
      </trkpt>
      <trkpt lat="45.19281" lon="5.44606">
        <ele>217.8</ele>
        <time>2021-07-03T06:59:27Z</time>
      </trkpt>
      <trkpt lat="45.19267" lon="5.44582">
        <ele>218.6</ele>
        <time>2021-07-03T06:59:31Z</time>
      </trkpt>
      <trkpt lat="45.19264" lon="5.44561">
        <ele>219.2</ele>
        <time>2021-07-03T06:59:35Z</time>
      </trkpt>
      <trkpt lat="45.19264" lon="5.44543">
        <ele>219</ele>
        <time>2021-07-03T06:59:39Z</time>
      </trkpt>
      <trkpt lat="45.19264" lon="5.44527">
        <ele>219.2</ele>
        <time>2021-07-03T06:59:43Z</time>
      </trkpt>
      <trkpt lat="45.19265" lon="5.44503">
        <ele>219.2</ele>
        <time>2021-07-03T06:59:47Z</time>
      </trkpt>
      <trkpt lat="45.19267" lon="5.44487">
        <ele>219</ele>
        <time>2021-07-03T06:59:51Z</time>
      </trkpt>
      <trkpt lat="45.19266" lon="5.44471">
        <ele>219.2</ele>
        <time>2021-07-03T06:59:55Z</time>
      </trkpt>
      <trkpt lat="45.19252" lon="5.44447">
        <ele>219.6</ele>
        <time>2021-07-03T06:59:59Z</time>
      </trkpt>
      <trkpt lat="45.19256" lon="5.44423">
        <ele>219.8</ele>
        <time>2021-07-03T07:00:03Z</time>
      </trkpt>
      <trkpt lat="45.19243" lon="5.44402">
        <ele>220</ele>
        <time>2021-07-03T07:00:07Z</time>
      </trkpt>
      <trkpt lat="45.19224" lon="5.44379">
        <ele>220.6</ele>
        <time>2021-07-03T07:00:11Z</time>
      </trkpt>
      <trkpt lat="45.19209" lon="5.44354">
        <ele>220.8</ele>
        <time>2021-07-03T07:00:15Z</time>
      </trkpt>
      <trkpt lat="45.19198" lon="5.44334">
        <ele>221.6</ele>
        <time>2021-07-03T07:00:19Z</time>
      </trkpt>
      <trkpt lat="45.19186" lon="5.44318">
        <ele>221.6</ele>
        <time>2021-07-03T07:00:23Z</time>
      </trkpt>
      <trkpt lat="45.19174" lon="5.44296">
        <ele>222.2</ele>
        <time>2021-07-03T07:00:27Z</time>
      </trkpt>
      <trkpt lat="45.1916" lon="5.4428">
        <ele>222.2</ele>
        <time>2021-07-03T07:00:31Z</time>
      </trkpt>
      <trkpt lat="45.19147" lon="5.44264">
        <ele>222.8</ele>
        <time>2021-07-03T07:00:35Z</time>
      </trkpt>
      <trkpt lat="45.19138" lon="5.4425">
        <ele>223.4</ele>
        <time>2021-07-03T07:00:39Z</time>
      </trkpt>
      <trkpt lat="45.19131" lon="5.44235">
        <ele>223.6</ele>
        <time>2021-07-03T07:00:43Z</time>
      </trkpt>
      <trkpt lat="45.19124" lon="5.4422">
        <ele>224.2</ele>
        <time>2021-07-03T07:00:47Z</time>
      </trkpt>
      <trkpt lat="45.1911" lon="5.44205">
        <ele>224.2</ele>
        <time>2021-07-03T07:00:51Z</time>
      </trkpt>
      <trkpt lat="45.19096" lon="5.44191">
        <ele>224.6</ele>
        <time>2021-07-03T07:00:55Z</time>
      </trkpt>
      <trkpt lat="45.19084" lon="5.44181">
        <ele>225.2</ele>
        <time>2021-07-03T07:00:59Z</time>
      </trkpt>
      <trkpt lat="45.19073" lon="5.44168">
        <ele>225.4</ele>
        <time>2021-07-03T07:01:03Z</time>
      </trkpt>
      <trkpt lat="45.19045" lon="5.44151">
        <ele>225</ele>
        <time>2021-07-03T07:01:07Z</time>
      </trkpt>
      <trkpt lat="45.19023" lon="5.44136">
        <ele>224.2</ele>
        <time>2021-07-03T07:01:11Z</time>
      </trkpt>
      <trkpt lat="45.19003" lon="5.44114">
        <ele>222.4</ele>
        <time>2021-07-03T07:01:15Z</time>
      </trkpt>
      <trkpt lat="45.18991" lon="5.4409">
        <ele>220.2</ele>
        <time>2021-07-03T07:01:19Z</time>
      </trkpt>
      <trkpt lat="45.18984" lon="5.44056">
        <ele>219</ele>
        <time>2021-07-03T07:01:23Z</time>
      </trkpt>
      <trkpt lat="45.1898" lon="5.44023">
        <ele>218.6</ele>
        <time>2021-07-03T07:01:27Z</time>
      </trkpt>
      <trkpt lat="45.18979" lon="5.4399">
        <ele>219.2</ele>
        <time>2021-07-03T07:01:31Z</time>
      </trkpt>
      <trkpt lat="45.18968" lon="5.4396">
        <ele>219.8</ele>
        <time>2021-07-03T07:01:35Z</time>
      </trkpt>
      <trkpt lat="45.18956" lon="5.4393">
        <ele>219.4</ele>
        <time>2021-07-03T07:01:39Z</time>
      </trkpt>
      <trkpt lat="45.18934" lon="5.43907">
        <ele>219.4</ele>
        <time>2021-07-03T07:01:43Z</time>
      </trkpt>
      <trkpt lat="45.18907" lon="5.43879">
        <ele>217.4</ele>
        <time>2021-07-03T07:01:47Z</time>
      </trkpt>
      <trkpt lat="45.18881" lon="5.43857">
        <ele>216.2</ele>
        <time>2021-07-03T07:01:51Z</time>
      </trkpt>
      <trkpt lat="45.18854" lon="5.43833">
        <ele>215.8</ele>
        <time>2021-07-03T07:01:55Z</time>
      </trkpt>
      <trkpt lat="45.18838" lon="5.43807">
        <ele>214.4</ele>
        <time>2021-07-03T07:01:59Z</time>
      </trkpt>
      <trkpt lat="45.18822" lon="5.43773">
        <ele>213.6</ele>
        <time>2021-07-03T07:02:03Z</time>
      </trkpt>
      <trkpt lat="45.18808" lon="5.43741">
        <ele>213.8</ele>
        <time>2021-07-03T07:02:07Z</time>
      </trkpt>
      <trkpt lat="45.18792" lon="5.43711">
        <ele>214.2</ele>
        <time>2021-07-03T07:02:11Z</time>
      </trkpt>
      <trkpt lat="45.18781" lon="5.43682">
        <ele>214.2</ele>
        <time>2021-07-03T07:02:15Z</time>
      </trkpt>
      <trkpt lat="45.18771" lon="5.43655">
        <ele>214.6</ele>
        <time>2021-07-03T07:02:19Z</time>
      </trkpt>
      <trkpt lat="45.18761" lon="5.43628">
        <ele>213.8</ele>
        <time>2021-07-03T07:02:23Z</time>
      </trkpt>
      <trkpt lat="45.18751" lon="5.436">
        <ele>214.2</ele>
        <time>2021-07-03T07:02:27Z</time>
      </trkpt>
      <trkpt lat="45.18738" lon="5.43575">
        <ele>214.4</ele>
        <time>2021-07-03T07:02:31Z</time>
      </trkpt>
      <trkpt lat="45.18721" lon="5.43553">
        <ele>214.2</ele>
        <time>2021-07-03T07:02:35Z</time>
      </trkpt>
      <trkpt lat="45.18701" lon="5.43537">
        <ele>214.6</ele>
        <time>2021-07-03T07:02:39Z</time>
      </trkpt>
      <trkpt lat="45.1868" lon="5.43526">
        <ele>214.2</ele>
        <time>2021-07-03T07:02:43Z</time>
      </trkpt>
      <trkpt lat="45.1866" lon="5.43513">
        <ele>214.4</ele>
        <time>2021-07-03T07:02:47Z</time>
      </trkpt>
      <trkpt lat="45.18644" lon="5.43494">
        <ele>214.2</ele>
        <time>2021-07-03T07:02:51Z</time>
      </trkpt>
      <trkpt lat="45.18635" lon="5.43469">
        <ele>214</ele>
        <time>2021-07-03T07:02:55Z</time>
      </trkpt>
      <trkpt lat="45.18629" lon="5.43442">
        <ele>214.4</ele>
        <time>2021-07-03T07:02:59Z</time>
      </trkpt>
      <trkpt lat="45.18623" lon="5.43415">
        <ele>213.8</ele>
        <time>2021-07-03T07:03:03Z</time>
      </trkpt>
      <trkpt lat="45.1862" lon="5.43391">
        <ele>213.6</ele>
        <time>2021-07-03T07:03:07Z</time>
      </trkpt>
      <trkpt lat="45.18611" lon="5.43366">
        <ele>214</ele>
        <time>2021-07-03T07:03:11Z</time>
      </trkpt>
      <trkpt lat="45.18605" lon="5.43339">
        <ele>213.8</ele>
        <time>2021-07-03T07:03:15Z</time>
      </trkpt>
      <trkpt lat="45.18599" lon="5.43315">
        <ele>213.6</ele>
        <time>2021-07-03T07:03:19Z</time>
      </trkpt>
      <trkpt lat="45.18588" lon="5.43289">
        <ele>213.4</ele>
        <time>2021-07-03T07:03:23Z</time>
      </trkpt>
      <trkpt lat="45.18575" lon="5.43263">
        <ele>214.4</ele>
        <time>2021-07-03T07:03:27Z</time>
      </trkpt>
      <trkpt lat="45.18566" lon="5.43241">
        <ele>213.2</ele>
        <time>2021-07-03T07:03:31Z</time>
      </trkpt>
      <trkpt lat="45.18557" lon="5.4322">
        <ele>213.2</ele>
        <time>2021-07-03T07:03:35Z</time>
      </trkpt>
      <trkpt lat="45.18548" lon="5.43202">
        <ele>213.6</ele>
        <time>2021-07-03T07:03:39Z</time>
      </trkpt>
      <trkpt lat="45.18533" lon="5.43188">
        <ele>214.2</ele>
        <time>2021-07-03T07:03:43Z</time>
      </trkpt>
      <trkpt lat="45.18518" lon="5.43175">
        <ele>214</ele>
        <time>2021-07-03T07:03:47Z</time>
      </trkpt>
      <trkpt lat="45.18509" lon="5.43163">
        <ele>214.4</ele>
        <time>2021-07-03T07:03:51Z</time>
      </trkpt>
      <trkpt lat="45.18498" lon="5.43143">
        <ele>214.8</ele>
        <time>2021-07-03T07:03:55Z</time>
      </trkpt>
      <trkpt lat="45.18489" lon="5.43121">
        <ele>215.2</ele>
        <time>2021-07-03T07:03:59Z</time>
      </trkpt>
      <trkpt lat="45.1848" lon="5.43101">
        <ele>215</ele>
        <time>2021-07-03T07:04:03Z</time>
      </trkpt>
      <trkpt lat="45.18472" lon="5.43081">
        <ele>216</ele>
        <time>2021-07-03T07:04:07Z</time>
      </trkpt>
      <trkpt lat="45.18467" lon="5.43063">
        <ele>215.8</ele>
        <time>2021-07-03T07:04:11Z</time>
      </trkpt>
      <trkpt lat="45.18462" lon="5.43042">
        <ele>216.4</ele>
        <time>2021-07-03T07:04:15Z</time>
      </trkpt>
      <trkpt lat="45.18453" lon="5.43023">
        <ele>215.8</ele>
        <time>2021-07-03T07:04:19Z</time>
      </trkpt>
      <trkpt lat="45.18448" lon="5.42999">
        <ele>215.4</ele>
        <time>2021-07-03T07:04:23Z</time>
      </trkpt>
      <trkpt lat="45.18439" lon="5.42977">
        <ele>215.6</ele>
        <time>2021-07-03T07:04:27Z</time>
      </trkpt>
      <trkpt lat="45.18431" lon="5.42948">
        <ele>215.6</ele>
        <time>2021-07-03T07:04:31Z</time>
      </trkpt>
      <trkpt lat="45.18423" lon="5.42924">
        <ele>215.8</ele>
        <time>2021-07-03T07:04:35Z</time>
      </trkpt>
      <trkpt lat="45.18409" lon="5.42896">
        <ele>216</ele>
        <time>2021-07-03T07:04:39Z</time>
      </trkpt>
      <trkpt lat="45.18402" lon="5.42869">
        <ele>216</ele>
        <time>2021-07-03T07:04:43Z</time>
      </trkpt>
      <trkpt lat="45.18396" lon="5.42846">
        <ele>215.6</ele>
        <time>2021-07-03T07:04:47Z</time>
      </trkpt>
      <trkpt lat="45.18394" lon="5.42824">
        <ele>216</ele>
        <time>2021-07-03T07:04:51Z</time>
      </trkpt>
      <trkpt lat="45.1839" lon="5.42798">
        <ele>215.4</ele>
        <time>2021-07-03T07:04:55Z</time>
      </trkpt>
      <trkpt lat="45.18385" lon="5.42776">
        <ele>215.6</ele>
        <time>2021-07-03T07:04:59Z</time>
      </trkpt>
      <trkpt lat="45.18374" lon="5.42752">
        <ele>215.2</ele>
        <time>2021-07-03T07:05:03Z</time>
      </trkpt>
      <trkpt lat="45.18366" lon="5.4273">
        <ele>215.6</ele>
        <time>2021-07-03T07:05:07Z</time>
      </trkpt>
      <trkpt lat="45.18341" lon="5.42701">
        <ele>215.2</ele>
        <time>2021-07-03T07:05:11Z</time>
      </trkpt>
      <trkpt lat="45.1832" lon="5.42668">
        <ele>216</ele>
        <time>2021-07-03T07:05:15Z</time>
      </trkpt>
      <trkpt lat="45.18335" lon="5.42639">
        <ele>216.6</ele>
        <time>2021-07-03T07:05:19Z</time>
      </trkpt>
      <trkpt lat="45.18335" lon="5.42621">
        <ele>217.4</ele>
        <time>2021-07-03T07:05:23Z</time>
      </trkpt>
      <trkpt lat="45.18336" lon="5.42609">
        <ele>218.2</ele>
        <time>2021-07-03T07:05:27Z</time>
      </trkpt>
      <trkpt lat="45.18335" lon="5.42601">
        <ele>219</ele>
        <time>2021-07-03T07:05:31Z</time>
      </trkpt>
      <trkpt lat="45.18332" lon="5.42592">
        <ele>219.6</ele>
        <time>2021-07-03T07:05:35Z</time>
      </trkpt>
      <trkpt lat="45.18327" lon="5.42584">
        <ele>220.6</ele>
        <time>2021-07-03T07:05:39Z</time>
      </trkpt>
      <trkpt lat="45.18322" lon="5.42578">
        <ele>221.6</ele>
        <time>2021-07-03T07:05:43Z</time>
      </trkpt>
      <trkpt lat="45.18317" lon="5.42572">
        <ele>221.8</ele>
        <time>2021-07-03T07:05:47Z</time>
      </trkpt>
      <trkpt lat="45.18313" lon="5.42565">
        <ele>222.6</ele>
        <time>2021-07-03T07:05:51Z</time>
      </trkpt>
      <trkpt lat="45.1831" lon="5.42559">
        <ele>223.2</ele>
        <time>2021-07-03T07:05:55Z</time>
      </trkpt>
      <trkpt lat="45.18307" lon="5.42552">
        <ele>223.6</ele>
        <time>2021-07-03T07:05:59Z</time>
      </trkpt>
      <trkpt lat="45.18305" lon="5.42546">
        <ele>224.4</ele>
        <time>2021-07-03T07:06:03Z</time>
      </trkpt>
      <trkpt lat="45.18302" lon="5.42539">
        <ele>224.8</ele>
        <time>2021-07-03T07:06:07Z</time>
      </trkpt>
      <trkpt lat="45.183" lon="5.42532">
        <ele>225.8</ele>
        <time>2021-07-03T07:06:11Z</time>
      </trkpt>
      <trkpt lat="45.18298" lon="5.42524">
        <ele>226.6</ele>
        <time>2021-07-03T07:06:15Z</time>
      </trkpt>
      <trkpt lat="45.18295" lon="5.42516">
        <ele>227.2</ele>
        <time>2021-07-03T07:06:19Z</time>
      </trkpt>
      <trkpt lat="45.18292" lon="5.42508">
        <ele>228</ele>
        <time>2021-07-03T07:06:23Z</time>
      </trkpt>
      <trkpt lat="45.18289" lon="5.42501">
        <ele>228.6</ele>
        <time>2021-07-03T07:06:27Z</time>
      </trkpt>
      <trkpt lat="45.18287" lon="5.42495">
        <ele>229.4</ele>
        <time>2021-07-03T07:06:31Z</time>
      </trkpt>
      <trkpt lat="45.18286" lon="5.42489">
        <ele>230</ele>
        <time>2021-07-03T07:06:35Z</time>
      </trkpt>
      <trkpt lat="45.18281" lon="5.42481">
        <ele>230.8</ele>
        <time>2021-07-03T07:06:39Z</time>
      </trkpt>
      <trkpt lat="45.18276" lon="5.42474">
        <ele>231.4</ele>
        <time>2021-07-03T07:06:43Z</time>
      </trkpt>
      <trkpt lat="45.18271" lon="5.42468">
        <ele>232</ele>
        <time>2021-07-03T07:06:47Z</time>
      </trkpt>
      <trkpt lat="45.18269" lon="5.42461">
        <ele>233</ele>
        <time>2021-07-03T07:06:51Z</time>
      </trkpt>
      <trkpt lat="45.18258" lon="5.42453">
        <ele>234</ele>
        <time>2021-07-03T07:06:55Z</time>
      </trkpt>
      <trkpt lat="45.18241" lon="5.42447">
        <ele>235</ele>
        <time>2021-07-03T07:06:59Z</time>
      </trkpt>
      <trkpt lat="45.18234" lon="5.42444">
        <ele>235.8</ele>
        <time>2021-07-03T07:07:03Z</time>
      </trkpt>
      <trkpt lat="45.18228" lon="5.42441">
        <ele>236.2</ele>
        <time>2021-07-03T07:07:07Z</time>
      </trkpt>
      <trkpt lat="45.18222" lon="5.4244">
        <ele>236.8</ele>
        <time>2021-07-03T07:07:11Z</time>
      </trkpt>
      <trkpt lat="45.18217" lon="5.42441">
        <ele>237.6</ele>
        <time>2021-07-03T07:07:15Z</time>
      </trkpt>
      <trkpt lat="45.18211" lon="5.42442">
        <ele>238.8</ele>
        <time>2021-07-03T07:07:19Z</time>
      </trkpt>
      <trkpt lat="45.18205" lon="5.42442">
        <ele>239.4</ele>
        <time>2021-07-03T07:07:23Z</time>
      </trkpt>
      <trkpt lat="45.18201" lon="5.42446">
        <ele>240.2</ele>
        <time>2021-07-03T07:07:27Z</time>
      </trkpt>
      <trkpt lat="45.18196" lon="5.4245">
        <ele>241.2</ele>
        <time>2021-07-03T07:07:31Z</time>
      </trkpt>
      <trkpt lat="45.18193" lon="5.42456">
        <ele>242</ele>
        <time>2021-07-03T07:07:35Z</time>
      </trkpt>
      <trkpt lat="45.18186" lon="5.42461">
        <ele>242.4</ele>
        <time>2021-07-03T07:07:39Z</time>
      </trkpt>
      <trkpt lat="45.18182" lon="5.42469">
        <ele>242.4</ele>
        <time>2021-07-03T07:07:43Z</time>
      </trkpt>
      <trkpt lat="45.18174" lon="5.42475">
        <ele>243</ele>
        <time>2021-07-03T07:07:47Z</time>
      </trkpt>
      <trkpt lat="45.18163" lon="5.42479">
        <ele>244</ele>
        <time>2021-07-03T07:07:51Z</time>
      </trkpt>
      <trkpt lat="45.18155" lon="5.42476">
        <ele>243.8</ele>
        <time>2021-07-03T07:07:55Z</time>
      </trkpt>
      <trkpt lat="45.18144" lon="5.42467">
        <ele>244.6</ele>
        <time>2021-07-03T07:07:59Z</time>
      </trkpt>
      <trkpt lat="45.18134" lon="5.42457">
        <ele>244.4</ele>
        <time>2021-07-03T07:08:03Z</time>
      </trkpt>
      <trkpt lat="45.18124" lon="5.42446">
        <ele>244.4</ele>
        <time>2021-07-03T07:08:07Z</time>
      </trkpt>
      <trkpt lat="45.18114" lon="5.42436">
        <ele>245</ele>
        <time>2021-07-03T07:08:11Z</time>
      </trkpt>
      <trkpt lat="45.18105" lon="5.42424">
        <ele>244.8</ele>
        <time>2021-07-03T07:08:15Z</time>
      </trkpt>
      <trkpt lat="45.18099" lon="5.42412">
        <ele>245.2</ele>
        <time>2021-07-03T07:08:19Z</time>
      </trkpt>
      <trkpt lat="45.18087" lon="5.42403">
        <ele>244.8</ele>
        <time>2021-07-03T07:08:23Z</time>
      </trkpt>
      <trkpt lat="45.18072" lon="5.42409">
        <ele>245.2</ele>
        <time>2021-07-03T07:08:27Z</time>
      </trkpt>
      <trkpt lat="45.18056" lon="5.42416">
        <ele>245.2</ele>
        <time>2021-07-03T07:08:31Z</time>
      </trkpt>
      <trkpt lat="45.18042" lon="5.42425">
        <ele>245.8</ele>
        <time>2021-07-03T07:08:35Z</time>
      </trkpt>
      <trkpt lat="45.18029" lon="5.42437">
        <ele>246</ele>
        <time>2021-07-03T07:08:39Z</time>
      </trkpt>
      <trkpt lat="45.18016" lon="5.42449">
        <ele>245.8</ele>
        <time>2021-07-03T07:08:43Z</time>
      </trkpt>
      <trkpt lat="45.18002" lon="5.42455">
        <ele>246.8</ele>
        <time>2021-07-03T07:08:47Z</time>
      </trkpt>
      <trkpt lat="45.1799" lon="5.42459">
        <ele>247</ele>
        <time>2021-07-03T07:08:51Z</time>
      </trkpt>
      <trkpt lat="45.17978" lon="5.42462">
        <ele>247</ele>
        <time>2021-07-03T07:08:55Z</time>
      </trkpt>
      <trkpt lat="45.17965" lon="5.42467">
        <ele>247</ele>
        <time>2021-07-03T07:08:59Z</time>
      </trkpt>
      <trkpt lat="45.17954" lon="5.42475">
        <ele>247.4</ele>
        <time>2021-07-03T07:09:03Z</time>
      </trkpt>
      <trkpt lat="45.17941" lon="5.4248">
        <ele>247</ele>
        <time>2021-07-03T07:09:07Z</time>
      </trkpt>
      <trkpt lat="45.17928" lon="5.42487">
        <ele>247.4</ele>
        <time>2021-07-03T07:09:11Z</time>
      </trkpt>
      <trkpt lat="45.17916" lon="5.42483">
        <ele>246.8</ele>
        <time>2021-07-03T07:09:15Z</time>
      </trkpt>
      <trkpt lat="45.17905" lon="5.42477">
        <ele>247.4</ele>
        <time>2021-07-03T07:09:19Z</time>
      </trkpt>
      <trkpt lat="45.17893" lon="5.42458">
        <ele>247</ele>
        <time>2021-07-03T07:09:23Z</time>
      </trkpt>
      <trkpt lat="45.17882" lon="5.42446">
        <ele>247.2</ele>
        <time>2021-07-03T07:09:27Z</time>
      </trkpt>
      <trkpt lat="45.17875" lon="5.42426">
        <ele>247.2</ele>
        <time>2021-07-03T07:09:31Z</time>
      </trkpt>
      <trkpt lat="45.17867" lon="5.42403">
        <ele>247.2</ele>
        <time>2021-07-03T07:09:35Z</time>
      </trkpt>
      <trkpt lat="45.1786" lon="5.4238">
        <ele>247.2</ele>
        <time>2021-07-03T07:09:39Z</time>
      </trkpt>
      <trkpt lat="45.17855" lon="5.42356">
        <ele>246.8</ele>
        <time>2021-07-03T07:09:43Z</time>
      </trkpt>
      <trkpt lat="45.17845" lon="5.42339">
        <ele>246.8</ele>
        <time>2021-07-03T07:09:47Z</time>
      </trkpt>
      <trkpt lat="45.17831" lon="5.42326">
        <ele>246.8</ele>
        <time>2021-07-03T07:09:51Z</time>
      </trkpt>
      <trkpt lat="45.17817" lon="5.4231">
        <ele>246.8</ele>
        <time>2021-07-03T07:09:55Z</time>
      </trkpt>
      <trkpt lat="45.17802" lon="5.42292">
        <ele>246.8</ele>
        <time>2021-07-03T07:09:59Z</time>
      </trkpt>
      <trkpt lat="45.17785" lon="5.42277">
        <ele>246.6</ele>
        <time>2021-07-03T07:10:03Z</time>
      </trkpt>
      <trkpt lat="45.17769" lon="5.42264">
        <ele>247</ele>
        <time>2021-07-03T07:10:07Z</time>
      </trkpt>
      <trkpt lat="45.17753" lon="5.4225">
        <ele>246.8</ele>
        <time>2021-07-03T07:10:11Z</time>
      </trkpt>
      <trkpt lat="45.17739" lon="5.42235">
        <ele>247</ele>
        <time>2021-07-03T07:10:15Z</time>
      </trkpt>
      <trkpt lat="45.17724" lon="5.4222">
        <ele>247.4</ele>
        <time>2021-07-03T07:10:19Z</time>
      </trkpt>
      <trkpt lat="45.17708" lon="5.42207">
        <ele>246.8</ele>
        <time>2021-07-03T07:10:23Z</time>
      </trkpt>
      <trkpt lat="45.17691" lon="5.42195">
        <ele>246.8</ele>
        <time>2021-07-03T07:10:27Z</time>
      </trkpt>
      <trkpt lat="45.17674" lon="5.42185">
        <ele>246.8</ele>
        <time>2021-07-03T07:10:31Z</time>
      </trkpt>
      <trkpt lat="45.17657" lon="5.42175">
        <ele>247</ele>
        <time>2021-07-03T07:10:35Z</time>
      </trkpt>
      <trkpt lat="45.1764" lon="5.42164">
        <ele>246.8</ele>
        <time>2021-07-03T07:10:39Z</time>
      </trkpt>
      <trkpt lat="45.17623" lon="5.42153">
        <ele>246.6</ele>
        <time>2021-07-03T07:10:43Z</time>
      </trkpt>
      <trkpt lat="45.17606" lon="5.42141">
        <ele>246.6</ele>
        <time>2021-07-03T07:10:47Z</time>
      </trkpt>
      <trkpt lat="45.17589" lon="5.42128">
        <ele>246.6</ele>
        <time>2021-07-03T07:10:51Z</time>
      </trkpt>
      <trkpt lat="45.17572" lon="5.42114">
        <ele>247.2</ele>
        <time>2021-07-03T07:10:55Z</time>
      </trkpt>
      <trkpt lat="45.17556" lon="5.42099">
        <ele>247</ele>
        <time>2021-07-03T07:10:59Z</time>
      </trkpt>
      <trkpt lat="45.17542" lon="5.42083">
        <ele>247.2</ele>
        <time>2021-07-03T07:11:03Z</time>
      </trkpt>
      <trkpt lat="45.17528" lon="5.42067">
        <ele>247.4</ele>
        <time>2021-07-03T07:11:07Z</time>
      </trkpt>
      <trkpt lat="45.1752" lon="5.42053">
        <ele>247.6</ele>
        <time>2021-07-03T07:11:11Z</time>
      </trkpt>
      <trkpt lat="45.17511" lon="5.42035">
        <ele>247</ele>
        <time>2021-07-03T07:11:15Z</time>
      </trkpt>
      <trkpt lat="45.175" lon="5.42015">
        <ele>247.6</ele>
        <time>2021-07-03T07:11:19Z</time>
      </trkpt>
      <trkpt lat="45.17496" lon="5.41996">
        <ele>248.2</ele>
        <time>2021-07-03T07:11:23Z</time>
      </trkpt>
      <trkpt lat="45.17491" lon="5.41986">
        <ele>248.2</ele>
        <time>2021-07-03T07:11:27Z</time>
      </trkpt>
      <trkpt lat="45.17483" lon="5.41972">
        <ele>248.2</ele>
        <time>2021-07-03T07:11:31Z</time>
      </trkpt>
      <trkpt lat="45.17477" lon="5.41957">
        <ele>248.8</ele>
        <time>2021-07-03T07:11:35Z</time>
      </trkpt>
      <trkpt lat="45.17467" lon="5.41945">
        <ele>249</ele>
        <time>2021-07-03T07:11:39Z</time>
      </trkpt>
      <trkpt lat="45.17456" lon="5.4193">
        <ele>249.4</ele>
        <time>2021-07-03T07:11:43Z</time>
      </trkpt>
      <trkpt lat="45.17445" lon="5.41916">
        <ele>249.8</ele>
        <time>2021-07-03T07:11:47Z</time>
      </trkpt>
      <trkpt lat="45.17433" lon="5.41893">
        <ele>250</ele>
        <time>2021-07-03T07:11:51Z</time>
      </trkpt>
      <trkpt lat="45.17423" lon="5.41877">
        <ele>250.8</ele>
        <time>2021-07-03T07:11:55Z</time>
      </trkpt>
      <trkpt lat="45.17406" lon="5.41855">
        <ele>250.8</ele>
        <time>2021-07-03T07:11:59Z</time>
      </trkpt>
      <trkpt lat="45.17396" lon="5.41837">
        <ele>250.8</ele>
        <time>2021-07-03T07:12:03Z</time>
      </trkpt>
      <trkpt lat="45.17372" lon="5.4182">
        <ele>251.4</ele>
        <time>2021-07-03T07:12:07Z</time>
      </trkpt>
      <trkpt lat="45.17355" lon="5.41801">
        <ele>251</ele>
        <time>2021-07-03T07:12:11Z</time>
      </trkpt>
      <trkpt lat="45.1734" lon="5.41783">
        <ele>251.4</ele>
        <time>2021-07-03T07:12:15Z</time>
      </trkpt>
      <trkpt lat="45.17333" lon="5.41768">
        <ele>252</ele>
        <time>2021-07-03T07:12:19Z</time>
      </trkpt>
      <trkpt lat="45.17319" lon="5.41752">
        <ele>251.8</ele>
        <time>2021-07-03T07:12:23Z</time>
      </trkpt>
      <trkpt lat="45.17301" lon="5.41736">
        <ele>252.6</ele>
        <time>2021-07-03T07:12:27Z</time>
      </trkpt>
      <trkpt lat="45.17286" lon="5.41719">
        <ele>252.4</ele>
        <time>2021-07-03T07:12:31Z</time>
      </trkpt>
      <trkpt lat="45.17267" lon="5.41705">
        <ele>253</ele>
        <time>2021-07-03T07:12:35Z</time>
      </trkpt>
      <trkpt lat="45.17252" lon="5.41691">
        <ele>252.8</ele>
        <time>2021-07-03T07:12:39Z</time>
      </trkpt>
      <trkpt lat="45.17239" lon="5.41677">
        <ele>253.2</ele>
        <time>2021-07-03T07:12:43Z</time>
      </trkpt>
      <trkpt lat="45.17224" lon="5.41659">
        <ele>253.2</ele>
        <time>2021-07-03T07:12:47Z</time>
      </trkpt>
      <trkpt lat="45.1721" lon="5.41639">
        <ele>253.2</ele>
        <time>2021-07-03T07:12:51Z</time>
      </trkpt>
      <trkpt lat="45.17198" lon="5.4162">
        <ele>253.6</ele>
        <time>2021-07-03T07:12:55Z</time>
      </trkpt>
      <trkpt lat="45.17186" lon="5.41603">
        <ele>254</ele>
        <time>2021-07-03T07:12:59Z</time>
      </trkpt>
      <trkpt lat="45.17174" lon="5.41585">
        <ele>254.6</ele>
        <time>2021-07-03T07:13:03Z</time>
      </trkpt>
      <trkpt lat="45.17162" lon="5.41568">
        <ele>254.6</ele>
        <time>2021-07-03T07:13:07Z</time>
      </trkpt>
      <trkpt lat="45.17151" lon="5.4155">
        <ele>255.2</ele>
        <time>2021-07-03T07:13:11Z</time>
      </trkpt>
      <trkpt lat="45.17141" lon="5.41532">
        <ele>254.8</ele>
        <time>2021-07-03T07:13:15Z</time>
      </trkpt>
      <trkpt lat="45.17134" lon="5.41515">
        <ele>255.4</ele>
        <time>2021-07-03T07:13:19Z</time>
      </trkpt>
      <trkpt lat="45.17125" lon="5.41496">
        <ele>255.4</ele>
        <time>2021-07-03T07:13:23Z</time>
      </trkpt>
      <trkpt lat="45.17115" lon="5.41478">
        <ele>256.2</ele>
        <time>2021-07-03T07:13:27Z</time>
      </trkpt>
      <trkpt lat="45.17104" lon="5.4146">
        <ele>256.2</ele>
        <time>2021-07-03T07:13:31Z</time>
      </trkpt>
      <trkpt lat="45.17093" lon="5.41443">
        <ele>256.2</ele>
        <time>2021-07-03T07:13:35Z</time>
      </trkpt>
      <trkpt lat="45.17082" lon="5.41426">
        <ele>256.6</ele>
        <time>2021-07-03T07:13:39Z</time>
      </trkpt>
      <trkpt lat="45.17072" lon="5.41408">
        <ele>256.6</ele>
        <time>2021-07-03T07:13:43Z</time>
      </trkpt>
      <trkpt lat="45.17062" lon="5.41389">
        <ele>256.8</ele>
        <time>2021-07-03T07:13:47Z</time>
      </trkpt>
      <trkpt lat="45.17052" lon="5.41369">
        <ele>256.2</ele>
        <time>2021-07-03T07:13:51Z</time>
      </trkpt>
      <trkpt lat="45.17043" lon="5.4135">
        <ele>257.2</ele>
        <time>2021-07-03T07:13:55Z</time>
      </trkpt>
      <trkpt lat="45.17033" lon="5.41331">
        <ele>257.2</ele>
        <time>2021-07-03T07:13:59Z</time>
      </trkpt>
      <trkpt lat="45.17025" lon="5.41313">
        <ele>257.2</ele>
        <time>2021-07-03T07:14:03Z</time>
      </trkpt>
      <trkpt lat="45.17016" lon="5.41295">
        <ele>257.6</ele>
        <time>2021-07-03T07:14:07Z</time>
      </trkpt>
      <trkpt lat="45.17015" lon="5.41283">
        <ele>257</ele>
        <time>2021-07-03T07:14:11Z</time>
      </trkpt>
      <trkpt lat="45.1701" lon="5.41277">
        <ele>257.4</ele>
        <time>2021-07-03T07:14:15Z</time>
      </trkpt>
      <trkpt lat="45.17003" lon="5.41262">
        <ele>257.4</ele>
        <time>2021-07-03T07:14:19Z</time>
      </trkpt>
      <trkpt lat="45.16995" lon="5.41243">
        <ele>256.4</ele>
        <time>2021-07-03T07:14:23Z</time>
      </trkpt>
      <trkpt lat="45.16993" lon="5.41234">
        <ele>256</ele>
        <time>2021-07-03T07:14:27Z</time>
      </trkpt>
      <trkpt lat="45.16989" lon="5.41221">
        <ele>254.6</ele>
        <time>2021-07-03T07:14:31Z</time>
      </trkpt>
      <trkpt lat="45.1698" lon="5.41195">
        <ele>251.4</ele>
        <time>2021-07-03T07:14:35Z</time>
      </trkpt>
      <trkpt lat="45.16978" lon="5.41155">
        <ele>247.4</ele>
        <time>2021-07-03T07:14:39Z</time>
      </trkpt>
      <trkpt lat="45.16977" lon="5.41115">
        <ele>248</ele>
        <time>2021-07-03T07:14:43Z</time>
      </trkpt>
      <trkpt lat="45.16971" lon="5.41085">
        <ele>248.6</ele>
        <time>2021-07-03T07:14:56Z</time>
      </trkpt>
      <trkpt lat="45.16958" lon="5.41064">
        <ele>247.4</ele>
        <time>2021-07-03T07:15:00Z</time>
      </trkpt>
      <trkpt lat="45.16938" lon="5.4104">
        <ele>246.2</ele>
        <time>2021-07-03T07:15:04Z</time>
      </trkpt>
      <trkpt lat="45.16917" lon="5.41014">
        <ele>244.2</ele>
        <time>2021-07-03T07:15:08Z</time>
      </trkpt>
      <trkpt lat="45.16897" lon="5.40987">
        <ele>244.4</ele>
        <time>2021-07-03T07:15:12Z</time>
      </trkpt>
      <trkpt lat="45.16881" lon="5.40956">
        <ele>243.8</ele>
        <time>2021-07-03T07:15:16Z</time>
      </trkpt>
      <trkpt lat="45.16869" lon="5.40924">
        <ele>243.4</ele>
        <time>2021-07-03T07:15:20Z</time>
      </trkpt>
      <trkpt lat="45.16862" lon="5.40893">
        <ele>243.4</ele>
        <time>2021-07-03T07:15:24Z</time>
      </trkpt>
      <trkpt lat="45.16858" lon="5.40863">
        <ele>243.4</ele>
        <time>2021-07-03T07:15:28Z</time>
      </trkpt>
      <trkpt lat="45.16855" lon="5.40836">
        <ele>244.4</ele>
        <time>2021-07-03T07:15:32Z</time>
      </trkpt>
      <trkpt lat="45.16853" lon="5.40808">
        <ele>244.2</ele>
        <time>2021-07-03T07:15:36Z</time>
      </trkpt>
      <trkpt lat="45.16851" lon="5.40781">
        <ele>244.8</ele>
        <time>2021-07-03T07:15:40Z</time>
      </trkpt>
      <trkpt lat="45.1685" lon="5.40754">
        <ele>244.8</ele>
        <time>2021-07-03T07:15:44Z</time>
      </trkpt>
      <trkpt lat="45.16849" lon="5.40731">
        <ele>245</ele>
        <time>2021-07-03T07:15:48Z</time>
      </trkpt>
      <trkpt lat="45.16847" lon="5.4071">
        <ele>245.8</ele>
        <time>2021-07-03T07:15:52Z</time>
      </trkpt>
      <trkpt lat="45.1684" lon="5.40693">
        <ele>245.6</ele>
        <time>2021-07-03T07:15:56Z</time>
      </trkpt>
      <trkpt lat="45.16829" lon="5.40697">
        <ele>245.8</ele>
        <time>2021-07-03T07:16:00Z</time>
      </trkpt>
      <trkpt lat="45.16821" lon="5.40703">
        <ele>246.8</ele>
        <time>2021-07-03T07:16:04Z</time>
      </trkpt>
      <trkpt lat="45.16812" lon="5.40705">
        <ele>247.8</ele>
        <time>2021-07-03T07:16:08Z</time>
      </trkpt>
      <trkpt lat="45.16808" lon="5.40697">
        <ele>248.8</ele>
        <time>2021-07-03T07:16:12Z</time>
      </trkpt>
      <trkpt lat="45.16804" lon="5.40682">
        <ele>248.2</ele>
        <time>2021-07-03T07:16:16Z</time>
      </trkpt>
      <trkpt lat="45.16802" lon="5.40665">
        <ele>248</ele>
        <time>2021-07-03T07:16:20Z</time>
      </trkpt>
      <trkpt lat="45.16797" lon="5.40648">
        <ele>247.6</ele>
        <time>2021-07-03T07:16:24Z</time>
      </trkpt>
      <trkpt lat="45.1679" lon="5.40632">
        <ele>247.6</ele>
        <time>2021-07-03T07:16:28Z</time>
      </trkpt>
      <trkpt lat="45.16778" lon="5.40616">
        <ele>247.4</ele>
        <time>2021-07-03T07:16:32Z</time>
      </trkpt>
      <trkpt lat="45.16765" lon="5.40604">
        <ele>247.4</ele>
        <time>2021-07-03T07:16:36Z</time>
      </trkpt>
      <trkpt lat="45.16753" lon="5.40591">
        <ele>247.6</ele>
        <time>2021-07-03T07:16:40Z</time>
      </trkpt>
      <trkpt lat="45.16741" lon="5.40581">
        <ele>247.2</ele>
        <time>2021-07-03T07:16:44Z</time>
      </trkpt>
      <trkpt lat="45.16727" lon="5.4057">
        <ele>247.4</ele>
        <time>2021-07-03T07:16:48Z</time>
      </trkpt>
      <trkpt lat="45.16712" lon="5.4057">
        <ele>247</ele>
        <time>2021-07-03T07:16:52Z</time>
      </trkpt>
      <trkpt lat="45.16696" lon="5.40572">
        <ele>247.4</ele>
        <time>2021-07-03T07:16:56Z</time>
      </trkpt>
      <trkpt lat="45.16681" lon="5.40575">
        <ele>247.6</ele>
        <time>2021-07-03T07:17:00Z</time>
      </trkpt>
      <trkpt lat="45.16667" lon="5.40585">
        <ele>247.8</ele>
        <time>2021-07-03T07:17:04Z</time>
      </trkpt>
      <trkpt lat="45.16656" lon="5.40595">
        <ele>248.6</ele>
        <time>2021-07-03T07:17:08Z</time>
      </trkpt>
      <trkpt lat="45.16647" lon="5.40605">
        <ele>249</ele>
        <time>2021-07-03T07:17:12Z</time>
      </trkpt>
      <trkpt lat="45.16639" lon="5.40611">
        <ele>249.6</ele>
        <time>2021-07-03T07:17:16Z</time>
      </trkpt>
      <trkpt lat="45.16632" lon="5.40618">
        <ele>250.4</ele>
        <time>2021-07-03T07:17:20Z</time>
      </trkpt>
      <trkpt lat="45.16626" lon="5.40627">
        <ele>251.2</ele>
        <time>2021-07-03T07:17:24Z</time>
      </trkpt>
      <trkpt lat="45.16621" lon="5.40634">
        <ele>252</ele>
        <time>2021-07-03T07:17:28Z</time>
      </trkpt>
      <trkpt lat="45.16616" lon="5.40641">
        <ele>252.6</ele>
        <time>2021-07-03T07:17:32Z</time>
      </trkpt>
      <trkpt lat="45.16611" lon="5.40647">
        <ele>253.6</ele>
        <time>2021-07-03T07:17:36Z</time>
      </trkpt>
      <trkpt lat="45.16604" lon="5.40653">
        <ele>253.6</ele>
        <time>2021-07-03T07:17:40Z</time>
      </trkpt>
      <trkpt lat="45.16597" lon="5.40659">
        <ele>254.8</ele>
        <time>2021-07-03T07:17:44Z</time>
      </trkpt>
      <trkpt lat="45.16589" lon="5.40662">
        <ele>255.2</ele>
        <time>2021-07-03T07:17:48Z</time>
      </trkpt>
      <trkpt lat="45.16583" lon="5.40663">
        <ele>256.2</ele>
        <time>2021-07-03T07:17:52Z</time>
      </trkpt>
      <trkpt lat="45.16578" lon="5.40662">
        <ele>256.6</ele>
        <time>2021-07-03T07:17:56Z</time>
      </trkpt>
      <trkpt lat="45.16572" lon="5.4066">
        <ele>257.6</ele>
        <time>2021-07-03T07:18:00Z</time>
      </trkpt>
      <trkpt lat="45.16566" lon="5.4066">
        <ele>258</ele>
        <time>2021-07-03T07:18:04Z</time>
      </trkpt>
      <trkpt lat="45.16558" lon="5.40664">
        <ele>258.4</ele>
        <time>2021-07-03T07:18:08Z</time>
      </trkpt>
      <trkpt lat="45.16553" lon="5.40671">
        <ele>259.4</ele>
        <time>2021-07-03T07:18:12Z</time>
      </trkpt>
      <trkpt lat="45.16552" lon="5.4068">
        <ele>260</ele>
        <time>2021-07-03T07:18:16Z</time>
      </trkpt>
      <trkpt lat="45.1655" lon="5.40689">
        <ele>260.8</ele>
        <time>2021-07-03T07:18:20Z</time>
      </trkpt>
      <trkpt lat="45.16549" lon="5.40698">
        <ele>261.6</ele>
        <time>2021-07-03T07:18:24Z</time>
      </trkpt>
      <trkpt lat="45.1655" lon="5.40706">
        <ele>261.6</ele>
        <time>2021-07-03T07:18:28Z</time>
      </trkpt>
      <trkpt lat="45.16553" lon="5.40715">
        <ele>262.8</ele>
        <time>2021-07-03T07:18:32Z</time>
      </trkpt>
      <trkpt lat="45.16554" lon="5.40724">
        <ele>263.2</ele>
        <time>2021-07-03T07:18:36Z</time>
      </trkpt>
      <trkpt lat="45.16554" lon="5.40733">
        <ele>264.2</ele>
        <time>2021-07-03T07:18:40Z</time>
      </trkpt>
      <trkpt lat="45.16553" lon="5.40742">
        <ele>265</ele>
        <time>2021-07-03T07:18:44Z</time>
      </trkpt>
      <trkpt lat="45.16553" lon="5.40751">
        <ele>265.2</ele>
        <time>2021-07-03T07:18:48Z</time>
      </trkpt>
      <trkpt lat="45.16553" lon="5.4076">
        <ele>266.2</ele>
        <time>2021-07-03T07:18:52Z</time>
      </trkpt>
      <trkpt lat="45.16551" lon="5.40768">
        <ele>267.2</ele>
        <time>2021-07-03T07:18:56Z</time>
      </trkpt>
      <trkpt lat="45.1655" lon="5.40777">
        <ele>267.2</ele>
        <time>2021-07-03T07:19:00Z</time>
      </trkpt>
      <trkpt lat="45.16548" lon="5.40786">
        <ele>267.8</ele>
        <time>2021-07-03T07:19:04Z</time>
      </trkpt>
      <trkpt lat="45.16548" lon="5.40795">
        <ele>268.6</ele>
        <time>2021-07-03T07:19:08Z</time>
      </trkpt>
      <trkpt lat="45.16548" lon="5.40805">
        <ele>269.4</ele>
        <time>2021-07-03T07:19:12Z</time>
      </trkpt>
      <trkpt lat="45.16549" lon="5.40814">
        <ele>270.2</ele>
        <time>2021-07-03T07:19:16Z</time>
      </trkpt>
      <trkpt lat="45.1655" lon="5.40822">
        <ele>270.8</ele>
        <time>2021-07-03T07:19:20Z</time>
      </trkpt>
      <trkpt lat="45.16552" lon="5.40831">
        <ele>271.4</ele>
        <time>2021-07-03T07:19:24Z</time>
      </trkpt>
      <trkpt lat="45.16555" lon="5.4084">
        <ele>272</ele>
        <time>2021-07-03T07:19:28Z</time>
      </trkpt>
      <trkpt lat="45.1656" lon="5.40848">
        <ele>273.2</ele>
        <time>2021-07-03T07:19:32Z</time>
      </trkpt>
      <trkpt lat="45.16565" lon="5.40855">
        <ele>273.6</ele>
        <time>2021-07-03T07:19:36Z</time>
      </trkpt>
      <trkpt lat="45.1657" lon="5.40861">
        <ele>274.6</ele>
        <time>2021-07-03T07:19:40Z</time>
      </trkpt>
      <trkpt lat="45.16575" lon="5.40866">
        <ele>274.8</ele>
        <time>2021-07-03T07:19:44Z</time>
      </trkpt>
      <trkpt lat="45.16581" lon="5.40871">
        <ele>275.2</ele>
        <time>2021-07-03T07:19:48Z</time>
      </trkpt>
      <trkpt lat="45.16586" lon="5.40876">
        <ele>275.8</ele>
        <time>2021-07-03T07:19:52Z</time>
      </trkpt>
      <trkpt lat="45.1659" lon="5.40882">
        <ele>277</ele>
        <time>2021-07-03T07:19:56Z</time>
      </trkpt>
      <trkpt lat="45.16592" lon="5.4089">
        <ele>277.8</ele>
        <time>2021-07-03T07:20:00Z</time>
      </trkpt>
      <trkpt lat="45.16594" lon="5.40897">
        <ele>278.4</ele>
        <time>2021-07-03T07:20:04Z</time>
      </trkpt>
      <trkpt lat="45.16595" lon="5.40905">
        <ele>278.8</ele>
        <time>2021-07-03T07:20:08Z</time>
      </trkpt>
      <trkpt lat="45.16597" lon="5.40914">
        <ele>280</ele>
        <time>2021-07-03T07:20:12Z</time>
      </trkpt>
      <trkpt lat="45.16598" lon="5.40922">
        <ele>280.2</ele>
        <time>2021-07-03T07:20:16Z</time>
      </trkpt>
      <trkpt lat="45.16599" lon="5.4093">
        <ele>281</ele>
        <time>2021-07-03T07:20:20Z</time>
      </trkpt>
      <trkpt lat="45.16599" lon="5.40939">
        <ele>281.8</ele>
        <time>2021-07-03T07:20:24Z</time>
      </trkpt>
      <trkpt lat="45.166" lon="5.40948">
        <ele>282.4</ele>
        <time>2021-07-03T07:20:28Z</time>
      </trkpt>
      <trkpt lat="45.16601" lon="5.40957">
        <ele>283</ele>
        <time>2021-07-03T07:20:32Z</time>
      </trkpt>
      <trkpt lat="45.16603" lon="5.40965">
        <ele>283.8</ele>
        <time>2021-07-03T07:20:36Z</time>
      </trkpt>
      <trkpt lat="45.16607" lon="5.40972">
        <ele>284.6</ele>
        <time>2021-07-03T07:20:40Z</time>
      </trkpt>
      <trkpt lat="45.16608" lon="5.40981">
        <ele>285.2</ele>
        <time>2021-07-03T07:20:44Z</time>
      </trkpt>
      <trkpt lat="45.16608" lon="5.4099">
        <ele>286.2</ele>
        <time>2021-07-03T07:20:48Z</time>
      </trkpt>
      <trkpt lat="45.16611" lon="5.40997">
        <ele>286.4</ele>
        <time>2021-07-03T07:20:52Z</time>
      </trkpt>
      <trkpt lat="45.1661" lon="5.41006">
        <ele>286.8</ele>
        <time>2021-07-03T07:20:56Z</time>
      </trkpt>
      <trkpt lat="45.16613" lon="5.41016">
        <ele>288.2</ele>
        <time>2021-07-03T07:21:00Z</time>
      </trkpt>
      <trkpt lat="45.16614" lon="5.41025">
        <ele>288.2</ele>
        <time>2021-07-03T07:21:04Z</time>
      </trkpt>
      <trkpt lat="45.16615" lon="5.41033">
        <ele>289.2</ele>
        <time>2021-07-03T07:21:08Z</time>
      </trkpt>
      <trkpt lat="45.16617" lon="5.41041">
        <ele>290</ele>
        <time>2021-07-03T07:21:12Z</time>
      </trkpt>
      <trkpt lat="45.1662" lon="5.41048">
        <ele>290.6</ele>
        <time>2021-07-03T07:21:16Z</time>
      </trkpt>
      <trkpt lat="45.16624" lon="5.41054">
        <ele>291.2</ele>
        <time>2021-07-03T07:21:20Z</time>
      </trkpt>
      <trkpt lat="45.16626" lon="5.41062">
        <ele>292.2</ele>
        <time>2021-07-03T07:21:24Z</time>
      </trkpt>
      <trkpt lat="45.16624" lon="5.41068">
        <ele>293.2</ele>
        <time>2021-07-03T07:21:28Z</time>
      </trkpt>
      <trkpt lat="45.16624" lon="5.41079">
        <ele>293.6</ele>
        <time>2021-07-03T07:21:32Z</time>
      </trkpt>
      <trkpt lat="45.16626" lon="5.41086">
        <ele>294.4</ele>
        <time>2021-07-03T07:21:36Z</time>
      </trkpt>
      <trkpt lat="45.16628" lon="5.41094">
        <ele>294.8</ele>
        <time>2021-07-03T07:21:40Z</time>
      </trkpt>
      <trkpt lat="45.16629" lon="5.41102">
        <ele>295.6</ele>
        <time>2021-07-03T07:21:44Z</time>
      </trkpt>
      <trkpt lat="45.1663" lon="5.41112">
        <ele>296</ele>
        <time>2021-07-03T07:21:48Z</time>
      </trkpt>
      <trkpt lat="45.16631" lon="5.41119">
        <ele>296.4</ele>
        <time>2021-07-03T07:21:52Z</time>
      </trkpt>
      <trkpt lat="45.16634" lon="5.41127">
        <ele>297.2</ele>
        <time>2021-07-03T07:21:56Z</time>
      </trkpt>
      <trkpt lat="45.16636" lon="5.41136">
        <ele>298.2</ele>
        <time>2021-07-03T07:22:00Z</time>
      </trkpt>
      <trkpt lat="45.16637" lon="5.41143">
        <ele>298.2</ele>
        <time>2021-07-03T07:22:04Z</time>
      </trkpt>
      <trkpt lat="45.16639" lon="5.41151">
        <ele>299.4</ele>
        <time>2021-07-03T07:22:08Z</time>
      </trkpt>
      <trkpt lat="45.16641" lon="5.41157">
        <ele>300</ele>
        <time>2021-07-03T07:22:12Z</time>
      </trkpt>
      <trkpt lat="45.16638" lon="5.41156">
        <ele>301</ele>
        <time>2021-07-03T07:22:16Z</time>
      </trkpt>
      <trkpt lat="45.16634" lon="5.41149">
        <ele>301.6</ele>
        <time>2021-07-03T07:22:20Z</time>
      </trkpt>
      <trkpt lat="45.16625" lon="5.41143">
        <ele>302.2</ele>
        <time>2021-07-03T07:22:24Z</time>
      </trkpt>
      <trkpt lat="45.16624" lon="5.41136">
        <ele>302.6</ele>
        <time>2021-07-03T07:22:28Z</time>
      </trkpt>
      <trkpt lat="45.16621" lon="5.41128">
        <ele>303</ele>
        <time>2021-07-03T07:22:32Z</time>
      </trkpt>
      <trkpt lat="45.16621" lon="5.41122">
        <ele>304.2</ele>
        <time>2021-07-03T07:22:36Z</time>
      </trkpt>
      <trkpt lat="45.16623" lon="5.41115">
        <ele>304.4</ele>
        <time>2021-07-03T07:22:40Z</time>
      </trkpt>
      <trkpt lat="45.16621" lon="5.41107">
        <ele>305</ele>
        <time>2021-07-03T07:22:44Z</time>
      </trkpt>
      <trkpt lat="45.16614" lon="5.411">
        <ele>305.6</ele>
        <time>2021-07-03T07:22:48Z</time>
      </trkpt>
      <trkpt lat="45.16608" lon="5.41092">
        <ele>306.4</ele>
        <time>2021-07-03T07:22:52Z</time>
      </trkpt>
      <trkpt lat="45.16603" lon="5.41087">
        <ele>307.4</ele>
        <time>2021-07-03T07:22:56Z</time>
      </trkpt>
      <trkpt lat="45.16595" lon="5.4108">
        <ele>307.6</ele>
        <time>2021-07-03T07:23:00Z</time>
      </trkpt>
      <trkpt lat="45.16589" lon="5.41073">
        <ele>308.2</ele>
        <time>2021-07-03T07:23:04Z</time>
      </trkpt>
      <trkpt lat="45.16585" lon="5.41067">
        <ele>309</ele>
        <time>2021-07-03T07:23:08Z</time>
      </trkpt>
      <trkpt lat="45.16581" lon="5.4106">
        <ele>310</ele>
        <time>2021-07-03T07:23:12Z</time>
      </trkpt>
      <trkpt lat="45.16578" lon="5.41053">
        <ele>310.4</ele>
        <time>2021-07-03T07:23:16Z</time>
      </trkpt>
      <trkpt lat="45.16574" lon="5.41046">
        <ele>310.4</ele>
        <time>2021-07-03T07:23:20Z</time>
      </trkpt>
      <trkpt lat="45.16568" lon="5.41039">
        <ele>311.6</ele>
        <time>2021-07-03T07:23:24Z</time>
      </trkpt>
      <trkpt lat="45.16564" lon="5.41031">
        <ele>312</ele>
        <time>2021-07-03T07:23:28Z</time>
      </trkpt>
      <trkpt lat="45.16561" lon="5.41024">
        <ele>313.6</ele>
        <time>2021-07-03T07:23:32Z</time>
      </trkpt>
      <trkpt lat="45.16559" lon="5.41017">
        <ele>313.8</ele>
        <time>2021-07-03T07:23:36Z</time>
      </trkpt>
      <trkpt lat="45.16555" lon="5.4101">
        <ele>314</ele>
        <time>2021-07-03T07:23:40Z</time>
      </trkpt>
      <trkpt lat="45.16564" lon="5.40996">
        <ele>314.8</ele>
        <time>2021-07-03T07:23:44Z</time>
      </trkpt>
      <trkpt lat="45.16562" lon="5.40988">
        <ele>315.8</ele>
        <time>2021-07-03T07:23:48Z</time>
      </trkpt>
      <trkpt lat="45.16552" lon="5.40984">
        <ele>316.4</ele>
        <time>2021-07-03T07:23:52Z</time>
      </trkpt>
      <trkpt lat="45.16546" lon="5.40979">
        <ele>316.8</ele>
        <time>2021-07-03T07:23:56Z</time>
      </trkpt>
      <trkpt lat="45.16541" lon="5.40972">
        <ele>317.6</ele>
        <time>2021-07-03T07:24:00Z</time>
      </trkpt>
      <trkpt lat="45.16541" lon="5.40966">
        <ele>318.2</ele>
        <time>2021-07-03T07:24:04Z</time>
      </trkpt>
      <trkpt lat="45.16537" lon="5.40957">
        <ele>319</ele>
        <time>2021-07-03T07:24:08Z</time>
      </trkpt>
      <trkpt lat="45.16532" lon="5.40948">
        <ele>319.2</ele>
        <time>2021-07-03T07:24:12Z</time>
      </trkpt>
      <trkpt lat="45.16527" lon="5.40938">
        <ele>320.2</ele>
        <time>2021-07-03T07:24:16Z</time>
      </trkpt>
      <trkpt lat="45.16523" lon="5.4093">
        <ele>321</ele>
        <time>2021-07-03T07:24:20Z</time>
      </trkpt>
      <trkpt lat="45.16519" lon="5.40922">
        <ele>321.2</ele>
        <time>2021-07-03T07:24:24Z</time>
      </trkpt>
      <trkpt lat="45.16515" lon="5.40915">
        <ele>322</ele>
        <time>2021-07-03T07:24:28Z</time>
      </trkpt>
      <trkpt lat="45.1651" lon="5.40908">
        <ele>322.6</ele>
        <time>2021-07-03T07:24:32Z</time>
      </trkpt>
      <trkpt lat="45.16504" lon="5.40901">
        <ele>323.6</ele>
        <time>2021-07-03T07:24:36Z</time>
      </trkpt>
      <trkpt lat="45.165" lon="5.40894">
        <ele>323.8</ele>
        <time>2021-07-03T07:24:40Z</time>
      </trkpt>
      <trkpt lat="45.16498" lon="5.40887">
        <ele>324.8</ele>
        <time>2021-07-03T07:24:44Z</time>
      </trkpt>
      <trkpt lat="45.16496" lon="5.40879">
        <ele>325.2</ele>
        <time>2021-07-03T07:24:48Z</time>
      </trkpt>
      <trkpt lat="45.16492" lon="5.40872">
        <ele>325.8</ele>
        <time>2021-07-03T07:24:52Z</time>
      </trkpt>
      <trkpt lat="45.16488" lon="5.40865">
        <ele>326.2</ele>
        <time>2021-07-03T07:24:56Z</time>
      </trkpt>
      <trkpt lat="45.16483" lon="5.40858">
        <ele>327.2</ele>
        <time>2021-07-03T07:25:00Z</time>
      </trkpt>
      <trkpt lat="45.16479" lon="5.40852">
        <ele>328</ele>
        <time>2021-07-03T07:25:04Z</time>
      </trkpt>
      <trkpt lat="45.16474" lon="5.40846">
        <ele>328</ele>
        <time>2021-07-03T07:25:08Z</time>
      </trkpt>
      <trkpt lat="45.1647" lon="5.40838">
        <ele>328.8</ele>
        <time>2021-07-03T07:25:12Z</time>
      </trkpt>
      <trkpt lat="45.16466" lon="5.40831">
        <ele>329</ele>
        <time>2021-07-03T07:25:16Z</time>
      </trkpt>
      <trkpt lat="45.16463" lon="5.40823">
        <ele>330</ele>
        <time>2021-07-03T07:25:20Z</time>
      </trkpt>
      <trkpt lat="45.1646" lon="5.40814">
        <ele>330.6</ele>
        <time>2021-07-03T07:25:24Z</time>
      </trkpt>
      <trkpt lat="45.16455" lon="5.40808">
        <ele>330.8</ele>
        <time>2021-07-03T07:25:28Z</time>
      </trkpt>
      <trkpt lat="45.16449" lon="5.40805">
        <ele>332.4</ele>
        <time>2021-07-03T07:25:32Z</time>
      </trkpt>
      <trkpt lat="45.16442" lon="5.40808">
        <ele>332.4</ele>
        <time>2021-07-03T07:25:36Z</time>
      </trkpt>
      <trkpt lat="45.1644" lon="5.40818">
        <ele>333</ele>
        <time>2021-07-03T07:25:40Z</time>
      </trkpt>
      <trkpt lat="45.16446" lon="5.40827">
        <ele>332.8</ele>
        <time>2021-07-03T07:25:44Z</time>
      </trkpt>
      <trkpt lat="45.16452" lon="5.40837">
        <ele>332.8</ele>
        <time>2021-07-03T07:25:48Z</time>
      </trkpt>
      <trkpt lat="45.1646" lon="5.40847">
        <ele>332.8</ele>
        <time>2021-07-03T07:25:52Z</time>
      </trkpt>
      <trkpt lat="45.16468" lon="5.40858">
        <ele>333</ele>
        <time>2021-07-03T07:25:56Z</time>
      </trkpt>
      <trkpt lat="45.16474" lon="5.4087">
        <ele>333.6</ele>
        <time>2021-07-03T07:26:00Z</time>
      </trkpt>
      <trkpt lat="45.16478" lon="5.40882">
        <ele>333.2</ele>
        <time>2021-07-03T07:26:04Z</time>
      </trkpt>
      <trkpt lat="45.16482" lon="5.40893">
        <ele>333.6</ele>
        <time>2021-07-03T07:26:08Z</time>
      </trkpt>
      <trkpt lat="45.16487" lon="5.40902">
        <ele>334.8</ele>
        <time>2021-07-03T07:26:12Z</time>
      </trkpt>
      <trkpt lat="45.16491" lon="5.40911">
        <ele>335.2</ele>
        <time>2021-07-03T07:26:16Z</time>
      </trkpt>
      <trkpt lat="45.16495" lon="5.4092">
        <ele>336</ele>
        <time>2021-07-03T07:26:20Z</time>
      </trkpt>
      <trkpt lat="45.16497" lon="5.40929">
        <ele>336.4</ele>
        <time>2021-07-03T07:26:24Z</time>
      </trkpt>
      <trkpt lat="45.16499" lon="5.40939">
        <ele>337.6</ele>
        <time>2021-07-03T07:26:28Z</time>
      </trkpt>
      <trkpt lat="45.16501" lon="5.40948">
        <ele>338</ele>
        <time>2021-07-03T07:26:32Z</time>
      </trkpt>
      <trkpt lat="45.16503" lon="5.40957">
        <ele>338.2</ele>
        <time>2021-07-03T07:26:36Z</time>
      </trkpt>
      <trkpt lat="45.16504" lon="5.40967">
        <ele>339</ele>
        <time>2021-07-03T07:26:40Z</time>
      </trkpt>
      <trkpt lat="45.16504" lon="5.40976">
        <ele>340.2</ele>
        <time>2021-07-03T07:26:44Z</time>
      </trkpt>
      <trkpt lat="45.16504" lon="5.40985">
        <ele>340.8</ele>
        <time>2021-07-03T07:26:48Z</time>
      </trkpt>
      <trkpt lat="45.16504" lon="5.40994">
        <ele>341.6</ele>
        <time>2021-07-03T07:26:52Z</time>
      </trkpt>
      <trkpt lat="45.16505" lon="5.41002">
        <ele>342</ele>
        <time>2021-07-03T07:26:56Z</time>
      </trkpt>
      <trkpt lat="45.16508" lon="5.4101">
        <ele>343.2</ele>
        <time>2021-07-03T07:27:00Z</time>
      </trkpt>
      <trkpt lat="45.16512" lon="5.41015">
        <ele>343.6</ele>
        <time>2021-07-03T07:27:04Z</time>
      </trkpt>
      <trkpt lat="45.16517" lon="5.4102">
        <ele>344</ele>
        <time>2021-07-03T07:27:08Z</time>
      </trkpt>
      <trkpt lat="45.16522" lon="5.41025">
        <ele>345</ele>
        <time>2021-07-03T07:27:12Z</time>
      </trkpt>
      <trkpt lat="45.16527" lon="5.41031">
        <ele>345.6</ele>
        <time>2021-07-03T07:27:16Z</time>
      </trkpt>
      <trkpt lat="45.1653" lon="5.41037">
        <ele>346</ele>
        <time>2021-07-03T07:27:20Z</time>
      </trkpt>
      <trkpt lat="45.16535" lon="5.41043">
        <ele>346.4</ele>
        <time>2021-07-03T07:27:24Z</time>
      </trkpt>
      <trkpt lat="45.16538" lon="5.4105">
        <ele>347.2</ele>
        <time>2021-07-03T07:27:28Z</time>
      </trkpt>
      <trkpt lat="45.16542" lon="5.41057">
        <ele>347.8</ele>
        <time>2021-07-03T07:27:32Z</time>
      </trkpt>
      <trkpt lat="45.16546" lon="5.41065">
        <ele>348.4</ele>
        <time>2021-07-03T07:27:36Z</time>
      </trkpt>
      <trkpt lat="45.1655" lon="5.41072">
        <ele>349.8</ele>
        <time>2021-07-03T07:27:40Z</time>
      </trkpt>
      <trkpt lat="45.16556" lon="5.41078">
        <ele>350.2</ele>
        <time>2021-07-03T07:27:44Z</time>
      </trkpt>
      <trkpt lat="45.1656" lon="5.41086">
        <ele>351.2</ele>
        <time>2021-07-03T07:27:48Z</time>
      </trkpt>
      <trkpt lat="45.16564" lon="5.41094">
        <ele>351.8</ele>
        <time>2021-07-03T07:27:52Z</time>
      </trkpt>
      <trkpt lat="45.16567" lon="5.41101">
        <ele>352.6</ele>
        <time>2021-07-03T07:27:56Z</time>
      </trkpt>
      <trkpt lat="45.16571" lon="5.41109">
        <ele>353</ele>
        <time>2021-07-03T07:28:00Z</time>
      </trkpt>
      <trkpt lat="45.16575" lon="5.41118">
        <ele>353.4</ele>
        <time>2021-07-03T07:28:04Z</time>
      </trkpt>
      <trkpt lat="45.16572" lon="5.41131">
        <ele>354.4</ele>
        <time>2021-07-03T07:28:08Z</time>
      </trkpt>
      <trkpt lat="45.16572" lon="5.41142">
        <ele>355.2</ele>
        <time>2021-07-03T07:28:12Z</time>
      </trkpt>
      <trkpt lat="45.16572" lon="5.41152">
        <ele>355.6</ele>
        <time>2021-07-03T07:28:16Z</time>
      </trkpt>
      <trkpt lat="45.16572" lon="5.41162">
        <ele>355.8</ele>
        <time>2021-07-03T07:28:20Z</time>
      </trkpt>
      <trkpt lat="45.16572" lon="5.41171">
        <ele>357</ele>
        <time>2021-07-03T07:28:24Z</time>
      </trkpt>
      <trkpt lat="45.16571" lon="5.4118">
        <ele>357.6</ele>
        <time>2021-07-03T07:28:28Z</time>
      </trkpt>
      <trkpt lat="45.16571" lon="5.4119">
        <ele>358</ele>
        <time>2021-07-03T07:28:32Z</time>
      </trkpt>
      <trkpt lat="45.16571" lon="5.412">
        <ele>358.6</ele>
        <time>2021-07-03T07:28:36Z</time>
      </trkpt>
      <trkpt lat="45.16573" lon="5.41209">
        <ele>358.6</ele>
        <time>2021-07-03T07:28:40Z</time>
      </trkpt>
      <trkpt lat="45.16574" lon="5.41219">
        <ele>359.6</ele>
        <time>2021-07-03T07:28:44Z</time>
      </trkpt>
      <trkpt lat="45.16574" lon="5.41228">
        <ele>360.4</ele>
        <time>2021-07-03T07:28:48Z</time>
      </trkpt>
      <trkpt lat="45.16575" lon="5.41236">
        <ele>361.4</ele>
        <time>2021-07-03T07:28:52Z</time>
      </trkpt>
      <trkpt lat="45.16574" lon="5.41245">
        <ele>362</ele>
        <time>2021-07-03T07:28:56Z</time>
      </trkpt>
      <trkpt lat="45.16579" lon="5.41249">
        <ele>362.8</ele>
        <time>2021-07-03T07:29:00Z</time>
      </trkpt>
      <trkpt lat="45.16576" lon="5.41259">
        <ele>362.8</ele>
        <time>2021-07-03T07:29:04Z</time>
      </trkpt>
      <trkpt lat="45.16575" lon="5.41271">
        <ele>363.8</ele>
        <time>2021-07-03T07:29:08Z</time>
      </trkpt>
      <trkpt lat="45.16578" lon="5.41277">
        <ele>364</ele>
        <time>2021-07-03T07:29:12Z</time>
      </trkpt>
      <trkpt lat="45.16582" lon="5.41282">
        <ele>365</ele>
        <time>2021-07-03T07:29:16Z</time>
      </trkpt>
      <trkpt lat="45.16585" lon="5.41285">
        <ele>365.4</ele>
        <time>2021-07-03T07:29:20Z</time>
      </trkpt>
      <trkpt lat="45.16588" lon="5.4129">
        <ele>366.4</ele>
        <time>2021-07-03T07:29:24Z</time>
      </trkpt>
      <trkpt lat="45.16591" lon="5.41296">
        <ele>366.6</ele>
        <time>2021-07-03T07:29:28Z</time>
      </trkpt>
      <trkpt lat="45.16594" lon="5.413">
        <ele>367.6</ele>
        <time>2021-07-03T07:29:32Z</time>
      </trkpt>
      <trkpt lat="45.16606" lon="5.41319">
        <ele>370.2</ele>
        <time>2021-07-03T07:30:07Z</time>
      </trkpt>
      <trkpt lat="45.16608" lon="5.41325">
        <ele>371</ele>
        <time>2021-07-03T07:30:11Z</time>
      </trkpt>
      <trkpt lat="45.16612" lon="5.41332">
        <ele>372</ele>
        <time>2021-07-03T07:30:15Z</time>
      </trkpt>
      <trkpt lat="45.16613" lon="5.41337">
        <ele>372.8</ele>
        <time>2021-07-03T07:30:19Z</time>
      </trkpt>
      <trkpt lat="45.16616" lon="5.41342">
        <ele>373.2</ele>
        <time>2021-07-03T07:30:23Z</time>
      </trkpt>
      <trkpt lat="45.1662" lon="5.41349">
        <ele>374</ele>
        <time>2021-07-03T07:30:27Z</time>
      </trkpt>
      <trkpt lat="45.16621" lon="5.41355">
        <ele>374.8</ele>
        <time>2021-07-03T07:30:31Z</time>
      </trkpt>
      <trkpt lat="45.16625" lon="5.41362">
        <ele>375.2</ele>
        <time>2021-07-03T07:30:35Z</time>
      </trkpt>
      <trkpt lat="45.16626" lon="5.41369">
        <ele>376</ele>
        <time>2021-07-03T07:30:39Z</time>
      </trkpt>
      <trkpt lat="45.16627" lon="5.41374">
        <ele>376.6</ele>
        <time>2021-07-03T07:30:43Z</time>
      </trkpt>
      <trkpt lat="45.1663" lon="5.41378">
        <ele>377.4</ele>
        <time>2021-07-03T07:30:47Z</time>
      </trkpt>
      <trkpt lat="45.16633" lon="5.41385">
        <ele>378.2</ele>
        <time>2021-07-03T07:30:51Z</time>
      </trkpt>
      <trkpt lat="45.16634" lon="5.41391">
        <ele>379.2</ele>
        <time>2021-07-03T07:30:55Z</time>
      </trkpt>
      <trkpt lat="45.16635" lon="5.41396">
        <ele>379.6</ele>
        <time>2021-07-03T07:30:59Z</time>
      </trkpt>
      <trkpt lat="45.16637" lon="5.41401">
        <ele>380.6</ele>
        <time>2021-07-03T07:31:03Z</time>
      </trkpt>
      <trkpt lat="45.1664" lon="5.41406">
        <ele>381</ele>
        <time>2021-07-03T07:31:07Z</time>
      </trkpt>
      <trkpt lat="45.16642" lon="5.4141">
        <ele>381.8</ele>
        <time>2021-07-03T07:31:11Z</time>
      </trkpt>
      <trkpt lat="45.16644" lon="5.41415">
        <ele>382.4</ele>
        <time>2021-07-03T07:31:15Z</time>
      </trkpt>
      <trkpt lat="45.16644" lon="5.41421">
        <ele>383.6</ele>
        <time>2021-07-03T07:31:19Z</time>
      </trkpt>
      <trkpt lat="45.16646" lon="5.41426">
        <ele>383.8</ele>
        <time>2021-07-03T07:31:23Z</time>
      </trkpt>
      <trkpt lat="45.16649" lon="5.4143">
        <ele>384.6</ele>
        <time>2021-07-03T07:31:27Z</time>
      </trkpt>
      <trkpt lat="45.16652" lon="5.41433">
        <ele>385.2</ele>
        <time>2021-07-03T07:31:31Z</time>
      </trkpt>
      <trkpt lat="45.16655" lon="5.41437">
        <ele>386</ele>
        <time>2021-07-03T07:31:35Z</time>
      </trkpt>
      <trkpt lat="45.16658" lon="5.41444">
        <ele>386.8</ele>
        <time>2021-07-03T07:31:39Z</time>
      </trkpt>
      <trkpt lat="45.16662" lon="5.41451">
        <ele>386.8</ele>
        <time>2021-07-03T07:31:43Z</time>
      </trkpt>
      <trkpt lat="45.16662" lon="5.41454">
        <ele>387.8</ele>
        <time>2021-07-03T07:31:47Z</time>
      </trkpt>
      <trkpt lat="45.16657" lon="5.41451">
        <ele>388.2</ele>
        <time>2021-07-03T07:31:51Z</time>
      </trkpt>
      <trkpt lat="45.16654" lon="5.41447">
        <ele>389.2</ele>
        <time>2021-07-03T07:31:55Z</time>
      </trkpt>
      <trkpt lat="45.1665" lon="5.41443">
        <ele>390</ele>
        <time>2021-07-03T07:31:59Z</time>
      </trkpt>
      <trkpt lat="45.16646" lon="5.41439">
        <ele>390.8</ele>
        <time>2021-07-03T07:32:03Z</time>
      </trkpt>
      <trkpt lat="45.16641" lon="5.41436">
        <ele>391.2</ele>
        <time>2021-07-03T07:32:07Z</time>
      </trkpt>
      <trkpt lat="45.16637" lon="5.41434">
        <ele>392.4</ele>
        <time>2021-07-03T07:32:11Z</time>
      </trkpt>
      <trkpt lat="45.16632" lon="5.41431">
        <ele>393</ele>
        <time>2021-07-03T07:32:15Z</time>
      </trkpt>
      <trkpt lat="45.16628" lon="5.41426">
        <ele>393.4</ele>
        <time>2021-07-03T07:32:19Z</time>
      </trkpt>
      <trkpt lat="45.16622" lon="5.41423">
        <ele>394.2</ele>
        <time>2021-07-03T07:32:23Z</time>
      </trkpt>
      <trkpt lat="45.16619" lon="5.4142">
        <ele>394.4</ele>
        <time>2021-07-03T07:32:27Z</time>
      </trkpt>
      <trkpt lat="45.16616" lon="5.41417">
        <ele>394.8</ele>
        <time>2021-07-03T07:32:31Z</time>
      </trkpt>
      <trkpt lat="45.16611" lon="5.41414">
        <ele>396</ele>
        <time>2021-07-03T07:32:35Z</time>
      </trkpt>
      <trkpt lat="45.16607" lon="5.41412">
        <ele>396.4</ele>
        <time>2021-07-03T07:32:39Z</time>
      </trkpt>
      <trkpt lat="45.16603" lon="5.41408">
        <ele>396.8</ele>
        <time>2021-07-03T07:32:43Z</time>
      </trkpt>
      <trkpt lat="45.16497" lon="5.41339">
        <ele>416.8</ele>
        <time>2021-07-03T07:34:38Z</time>
      </trkpt>
      <trkpt lat="45.16496" lon="5.41332">
        <ele>417.6</ele>
        <time>2021-07-03T07:34:42Z</time>
      </trkpt>
      <trkpt lat="45.16497" lon="5.41325">
        <ele>418</ele>
        <time>2021-07-03T07:34:46Z</time>
      </trkpt>
      <trkpt lat="45.16497" lon="5.41318">
        <ele>419</ele>
        <time>2021-07-03T07:34:50Z</time>
      </trkpt>
      <trkpt lat="45.16497" lon="5.41312">
        <ele>419.4</ele>
        <time>2021-07-03T07:34:54Z</time>
      </trkpt>
      <trkpt lat="45.16495" lon="5.41304">
        <ele>420.4</ele>
        <time>2021-07-03T07:34:58Z</time>
      </trkpt>
      <trkpt lat="45.16492" lon="5.41298">
        <ele>421.2</ele>
        <time>2021-07-03T07:35:02Z</time>
      </trkpt>
      <trkpt lat="45.1649" lon="5.41292">
        <ele>421.8</ele>
        <time>2021-07-03T07:35:06Z</time>
      </trkpt>
      <trkpt lat="45.16491" lon="5.41285">
        <ele>422.4</ele>
        <time>2021-07-03T07:35:10Z</time>
      </trkpt>
      <trkpt lat="45.1649" lon="5.41277">
        <ele>423.2</ele>
        <time>2021-07-03T07:35:14Z</time>
      </trkpt>
      <trkpt lat="45.16489" lon="5.4127">
        <ele>423.8</ele>
        <time>2021-07-03T07:35:18Z</time>
      </trkpt>
      <trkpt lat="45.16489" lon="5.41263">
        <ele>424.6</ele>
        <time>2021-07-03T07:35:22Z</time>
      </trkpt>
      <trkpt lat="45.16487" lon="5.41256">
        <ele>425.4</ele>
        <time>2021-07-03T07:35:26Z</time>
      </trkpt>
      <trkpt lat="45.16483" lon="5.41256">
        <ele>425.8</ele>
        <time>2021-07-03T07:35:30Z</time>
      </trkpt>
      <trkpt lat="45.16482" lon="5.41262">
        <ele>426.4</ele>
        <time>2021-07-03T07:35:34Z</time>
      </trkpt>
      <trkpt lat="45.16482" lon="5.41271">
        <ele>427.2</ele>
        <time>2021-07-03T07:35:38Z</time>
      </trkpt>
      <trkpt lat="45.16481" lon="5.41277">
        <ele>427.6</ele>
        <time>2021-07-03T07:35:42Z</time>
      </trkpt>
      <trkpt lat="45.1648" lon="5.41282">
        <ele>428.4</ele>
        <time>2021-07-03T07:35:46Z</time>
      </trkpt>
      <trkpt lat="45.16478" lon="5.41287">
        <ele>429.4</ele>
        <time>2021-07-03T07:35:50Z</time>
      </trkpt>
      <trkpt lat="45.16475" lon="5.41292">
        <ele>430.2</ele>
        <time>2021-07-03T07:35:54Z</time>
      </trkpt>
      <trkpt lat="45.16473" lon="5.41296">
        <ele>431.2</ele>
        <time>2021-07-03T07:35:58Z</time>
      </trkpt>
      <trkpt lat="45.16472" lon="5.41302">
        <ele>431.8</ele>
        <time>2021-07-03T07:36:02Z</time>
      </trkpt>
      <trkpt lat="45.16471" lon="5.41305">
        <ele>432.2</ele>
        <time>2021-07-03T07:36:06Z</time>
      </trkpt>
      <trkpt lat="45.16469" lon="5.41312">
        <ele>433.2</ele>
        <time>2021-07-03T07:36:10Z</time>
      </trkpt>
      <trkpt lat="45.16466" lon="5.41315">
        <ele>433.4</ele>
        <time>2021-07-03T07:36:14Z</time>
      </trkpt>
      <trkpt lat="45.16463" lon="5.41324">
        <ele>434.4</ele>
        <time>2021-07-03T07:36:18Z</time>
      </trkpt>
      <trkpt lat="45.1646" lon="5.4133">
        <ele>435</ele>
        <time>2021-07-03T07:36:22Z</time>
      </trkpt>
      <trkpt lat="45.16457" lon="5.41336">
        <ele>436</ele>
        <time>2021-07-03T07:36:26Z</time>
      </trkpt>
      <trkpt lat="45.16455" lon="5.41343">
        <ele>436.6</ele>
        <time>2021-07-03T07:36:30Z</time>
      </trkpt>
      <trkpt lat="45.16452" lon="5.41346">
        <ele>437.2</ele>
        <time>2021-07-03T07:36:34Z</time>
      </trkpt>
      <trkpt lat="45.16449" lon="5.41405">
        <ele>442.8</ele>
        <time>2021-07-03T07:37:08Z</time>
      </trkpt>
      <trkpt lat="45.16448" lon="5.41412">
        <ele>443.6</ele>
        <time>2021-07-03T07:37:12Z</time>
      </trkpt>
      <trkpt lat="45.16446" lon="5.41418">
        <ele>444.4</ele>
        <time>2021-07-03T07:37:16Z</time>
      </trkpt>
      <trkpt lat="45.16482" lon="5.41525">
        <ele>459.6</ele>
        <time>2021-07-03T07:38:53Z</time>
      </trkpt>
      <trkpt lat="45.16487" lon="5.41529">
        <ele>460.8</ele>
        <time>2021-07-03T07:38:57Z</time>
      </trkpt>
      <trkpt lat="45.1649" lon="5.41533">
        <ele>461</ele>
        <time>2021-07-03T07:39:01Z</time>
      </trkpt>
      <trkpt lat="45.16495" lon="5.41537">
        <ele>462</ele>
        <time>2021-07-03T07:39:05Z</time>
      </trkpt>
      <trkpt lat="45.16498" lon="5.41542">
        <ele>462.6</ele>
        <time>2021-07-03T07:39:09Z</time>
      </trkpt>
      <trkpt lat="45.16501" lon="5.41547">
        <ele>463</ele>
        <time>2021-07-03T07:39:13Z</time>
      </trkpt>
      <trkpt lat="45.16504" lon="5.4155">
        <ele>463</ele>
        <time>2021-07-03T07:39:17Z</time>
      </trkpt>
      <trkpt lat="45.1651" lon="5.41558">
        <ele>464.4</ele>
        <time>2021-07-03T07:39:21Z</time>
      </trkpt>
      <trkpt lat="45.16516" lon="5.41564">
        <ele>464.8</ele>
        <time>2021-07-03T07:39:25Z</time>
      </trkpt>
      <trkpt lat="45.16521" lon="5.41572">
        <ele>465.6</ele>
        <time>2021-07-03T07:39:29Z</time>
      </trkpt>
      <trkpt lat="45.16524" lon="5.41574">
        <ele>466</ele>
        <time>2021-07-03T07:39:33Z</time>
      </trkpt>
      <trkpt lat="45.16528" lon="5.41577">
        <ele>466.6</ele>
        <time>2021-07-03T07:39:37Z</time>
      </trkpt>
      <trkpt lat="45.1653" lon="5.41582">
        <ele>467</ele>
        <time>2021-07-03T07:39:41Z</time>
      </trkpt>
      <trkpt lat="45.16534" lon="5.41592">
        <ele>468</ele>
        <time>2021-07-03T07:39:45Z</time>
      </trkpt>
      <trkpt lat="45.16538" lon="5.41599">
        <ele>468.2</ele>
        <time>2021-07-03T07:39:49Z</time>
      </trkpt>
      <trkpt lat="45.16539" lon="5.41604">
        <ele>468.8</ele>
        <time>2021-07-03T07:39:53Z</time>
      </trkpt>
      <trkpt lat="45.16541" lon="5.4161">
        <ele>470</ele>
        <time>2021-07-03T07:39:57Z</time>
      </trkpt>
      <trkpt lat="45.16544" lon="5.41617">
        <ele>470</ele>
        <time>2021-07-03T07:40:01Z</time>
      </trkpt>
      <trkpt lat="45.16549" lon="5.41625">
        <ele>471.2</ele>
        <time>2021-07-03T07:40:05Z</time>
      </trkpt>
      <trkpt lat="45.16552" lon="5.41633">
        <ele>471.6</ele>
        <time>2021-07-03T07:40:09Z</time>
      </trkpt>
      <trkpt lat="45.16553" lon="5.41639">
        <ele>472.6</ele>
        <time>2021-07-03T07:40:13Z</time>
      </trkpt>
      <trkpt lat="45.16555" lon="5.41644">
        <ele>473.2</ele>
        <time>2021-07-03T07:40:17Z</time>
      </trkpt>
      <trkpt lat="45.16557" lon="5.41651">
        <ele>473.8</ele>
        <time>2021-07-03T07:40:21Z</time>
      </trkpt>
      <trkpt lat="45.16556" lon="5.4166">
        <ele>474.6</ele>
        <time>2021-07-03T07:40:25Z</time>
      </trkpt>
      <trkpt lat="45.16557" lon="5.41667">
        <ele>475.4</ele>
        <time>2021-07-03T07:40:29Z</time>
      </trkpt>
      <trkpt lat="45.16558" lon="5.41676">
        <ele>476</ele>
        <time>2021-07-03T07:40:33Z</time>
      </trkpt>
      <trkpt lat="45.16561" lon="5.41684">
        <ele>476</ele>
        <time>2021-07-03T07:40:37Z</time>
      </trkpt>
      <trkpt lat="45.16563" lon="5.41691">
        <ele>477</ele>
        <time>2021-07-03T07:40:41Z</time>
      </trkpt>
      <trkpt lat="45.16565" lon="5.41696">
        <ele>477.4</ele>
        <time>2021-07-03T07:40:45Z</time>
      </trkpt>
      <trkpt lat="45.16568" lon="5.41703">
        <ele>478.2</ele>
        <time>2021-07-03T07:40:49Z</time>
      </trkpt>
      <trkpt lat="45.16568" lon="5.41711">
        <ele>479.2</ele>
        <time>2021-07-03T07:40:53Z</time>
      </trkpt>
      <trkpt lat="45.16569" lon="5.41717">
        <ele>479.2</ele>
        <time>2021-07-03T07:40:57Z</time>
      </trkpt>
      <trkpt lat="45.1657" lon="5.41722">
        <ele>480.4</ele>
        <time>2021-07-03T07:41:01Z</time>
      </trkpt>
      <trkpt lat="45.1657" lon="5.4173">
        <ele>480.8</ele>
        <time>2021-07-03T07:41:05Z</time>
      </trkpt>
      <trkpt lat="45.16575" lon="5.4174">
        <ele>481</ele>
        <time>2021-07-03T07:41:09Z</time>
      </trkpt>
      <trkpt lat="45.16576" lon="5.41749">
        <ele>481.6</ele>
        <time>2021-07-03T07:41:13Z</time>
      </trkpt>
      <trkpt lat="45.16574" lon="5.41754">
        <ele>482</ele>
        <time>2021-07-03T07:41:17Z</time>
      </trkpt>
      <trkpt lat="45.1657" lon="5.41751">
        <ele>482.6</ele>
        <time>2021-07-03T07:41:21Z</time>
      </trkpt>
      <trkpt lat="45.16568" lon="5.41747">
        <ele>483</ele>
        <time>2021-07-03T07:41:25Z</time>
      </trkpt>
      <trkpt lat="45.16565" lon="5.41743">
        <ele>483.8</ele>
        <time>2021-07-03T07:41:29Z</time>
      </trkpt>
      <trkpt lat="45.16562" lon="5.41739">
        <ele>484.2</ele>
        <time>2021-07-03T07:41:33Z</time>
      </trkpt>
      <trkpt lat="45.16559" lon="5.41734">
        <ele>484.6</ele>
        <time>2021-07-03T07:41:37Z</time>
      </trkpt>
      <trkpt lat="45.16557" lon="5.41729">
        <ele>485.6</ele>
        <time>2021-07-03T07:41:41Z</time>
      </trkpt>
      <trkpt lat="45.16553" lon="5.41726">
        <ele>486.8</ele>
        <time>2021-07-03T07:41:45Z</time>
      </trkpt>
      <trkpt lat="45.1655" lon="5.4172">
        <ele>487.4</ele>
        <time>2021-07-03T07:41:49Z</time>
      </trkpt>
      <trkpt lat="45.16548" lon="5.41716">
        <ele>488.2</ele>
        <time>2021-07-03T07:41:53Z</time>
      </trkpt>
      <trkpt lat="45.16546" lon="5.41711">
        <ele>488.8</ele>
        <time>2021-07-03T07:41:57Z</time>
      </trkpt>
      <trkpt lat="45.16542" lon="5.41704">
        <ele>489.4</ele>
        <time>2021-07-03T07:42:01Z</time>
      </trkpt>
      <trkpt lat="45.16539" lon="5.41697">
        <ele>489.8</ele>
        <time>2021-07-03T07:42:05Z</time>
      </trkpt>
      <trkpt lat="45.16536" lon="5.4169">
        <ele>490.2</ele>
        <time>2021-07-03T07:42:09Z</time>
      </trkpt>
      <trkpt lat="45.16531" lon="5.41684">
        <ele>490.8</ele>
        <time>2021-07-03T07:42:13Z</time>
      </trkpt>
      <trkpt lat="45.16528" lon="5.41678">
        <ele>491.2</ele>
        <time>2021-07-03T07:42:17Z</time>
      </trkpt>
      <trkpt lat="45.16525" lon="5.41675">
        <ele>492.4</ele>
        <time>2021-07-03T07:42:21Z</time>
      </trkpt>
      <trkpt lat="45.16523" lon="5.4167">
        <ele>492.8</ele>
        <time>2021-07-03T07:42:25Z</time>
      </trkpt>
      <trkpt lat="45.16518" lon="5.41664">
        <ele>493</ele>
        <time>2021-07-03T07:42:29Z</time>
      </trkpt>
      <trkpt lat="45.16513" lon="5.41661">
        <ele>494</ele>
        <time>2021-07-03T07:42:33Z</time>
      </trkpt>
      <trkpt lat="45.16507" lon="5.41656">
        <ele>494.6</ele>
        <time>2021-07-03T07:42:37Z</time>
      </trkpt>
      <trkpt lat="45.16503" lon="5.41654">
        <ele>495.4</ele>
        <time>2021-07-03T07:42:41Z</time>
      </trkpt>
      <trkpt lat="45.16499" lon="5.41652">
        <ele>496</ele>
        <time>2021-07-03T07:42:45Z</time>
      </trkpt>
      <trkpt lat="45.16495" lon="5.4165">
        <ele>496.4</ele>
        <time>2021-07-03T07:42:49Z</time>
      </trkpt>
      <trkpt lat="45.16491" lon="5.41648">
        <ele>497</ele>
        <time>2021-07-03T07:42:53Z</time>
      </trkpt>
      <trkpt lat="45.16488" lon="5.41646">
        <ele>497.8</ele>
        <time>2021-07-03T07:42:57Z</time>
      </trkpt>
      <trkpt lat="45.16365" lon="5.41622">
        <ele>513.8</ele>
        <time>2021-07-03T07:45:27Z</time>
      </trkpt>
      <trkpt lat="45.1636" lon="5.41624">
        <ele>514.4</ele>
        <time>2021-07-03T07:45:31Z</time>
      </trkpt>
      <trkpt lat="45.16355" lon="5.41624">
        <ele>514.8</ele>
        <time>2021-07-03T07:45:35Z</time>
      </trkpt>
      <trkpt lat="45.16349" lon="5.41623">
        <ele>515.8</ele>
        <time>2021-07-03T07:45:39Z</time>
      </trkpt>
      <trkpt lat="45.16345" lon="5.41621">
        <ele>516.6</ele>
        <time>2021-07-03T07:45:43Z</time>
      </trkpt>
      <trkpt lat="45.16342" lon="5.41617">
        <ele>517.4</ele>
        <time>2021-07-03T07:45:47Z</time>
      </trkpt>
      <trkpt lat="45.16337" lon="5.41614">
        <ele>517.8</ele>
        <time>2021-07-03T07:45:51Z</time>
      </trkpt>
      <trkpt lat="45.16336" lon="5.41609">
        <ele>518.8</ele>
        <time>2021-07-03T07:45:55Z</time>
      </trkpt>
      <trkpt lat="45.16334" lon="5.41605">
        <ele>519.2</ele>
        <time>2021-07-03T07:45:59Z</time>
      </trkpt>
      <trkpt lat="45.16333" lon="5.41598">
        <ele>519.8</ele>
        <time>2021-07-03T07:46:03Z</time>
      </trkpt>
      <trkpt lat="45.16332" lon="5.41592">
        <ele>521</ele>
        <time>2021-07-03T07:46:07Z</time>
      </trkpt>
      <trkpt lat="45.16331" lon="5.41588">
        <ele>521.4</ele>
        <time>2021-07-03T07:46:11Z</time>
      </trkpt>
      <trkpt lat="45.16331" lon="5.41581">
        <ele>522.2</ele>
        <time>2021-07-03T07:46:15Z</time>
      </trkpt>
      <trkpt lat="45.16329" lon="5.41573">
        <ele>522.8</ele>
        <time>2021-07-03T07:46:19Z</time>
      </trkpt>
      <trkpt lat="45.16327" lon="5.41567">
        <ele>523.4</ele>
        <time>2021-07-03T07:46:23Z</time>
      </trkpt>
      <trkpt lat="45.16326" lon="5.41561">
        <ele>524.2</ele>
        <time>2021-07-03T07:46:27Z</time>
      </trkpt>
      <trkpt lat="45.16326" lon="5.41556">
        <ele>525</ele>
        <time>2021-07-03T07:46:31Z</time>
      </trkpt>
      <trkpt lat="45.16325" lon="5.4155">
        <ele>525.4</ele>
        <time>2021-07-03T07:46:35Z</time>
      </trkpt>
      <trkpt lat="45.16312" lon="5.41494">
        <ele>530.8</ele>
        <time>2021-07-03T07:47:06Z</time>
      </trkpt>
      <trkpt lat="45.1631" lon="5.41488">
        <ele>531.2</ele>
        <time>2021-07-03T07:47:10Z</time>
      </trkpt>
      <trkpt lat="45.16308" lon="5.41481">
        <ele>532.2</ele>
        <time>2021-07-03T07:47:14Z</time>
      </trkpt>
      <trkpt lat="45.16304" lon="5.41473">
        <ele>532.2</ele>
        <time>2021-07-03T07:47:18Z</time>
      </trkpt>
      <trkpt lat="45.16301" lon="5.41464">
        <ele>532.8</ele>
        <time>2021-07-03T07:47:22Z</time>
      </trkpt>
      <trkpt lat="45.16296" lon="5.41459">
        <ele>533.8</ele>
        <time>2021-07-03T07:47:26Z</time>
      </trkpt>
      <trkpt lat="45.16292" lon="5.41454">
        <ele>533.8</ele>
        <time>2021-07-03T07:47:30Z</time>
      </trkpt>
      <trkpt lat="45.16288" lon="5.41451">
        <ele>534.6</ele>
        <time>2021-07-03T07:47:34Z</time>
      </trkpt>
      <trkpt lat="45.16283" lon="5.41447">
        <ele>535.8</ele>
        <time>2021-07-03T07:47:38Z</time>
      </trkpt>
      <trkpt lat="45.16281" lon="5.41444">
        <ele>536</ele>
        <time>2021-07-03T07:47:42Z</time>
      </trkpt>
      <trkpt lat="45.16275" lon="5.4144">
        <ele>537</ele>
        <time>2021-07-03T07:47:46Z</time>
      </trkpt>
      <trkpt lat="45.16271" lon="5.41439">
        <ele>537.2</ele>
        <time>2021-07-03T07:47:50Z</time>
      </trkpt>
      <trkpt lat="45.16265" lon="5.41438">
        <ele>537.8</ele>
        <time>2021-07-03T07:47:54Z</time>
      </trkpt>
      <trkpt lat="45.16261" lon="5.41439">
        <ele>538.6</ele>
        <time>2021-07-03T07:47:58Z</time>
      </trkpt>
      <trkpt lat="45.16256" lon="5.41439">
        <ele>538.8</ele>
        <time>2021-07-03T07:48:02Z</time>
      </trkpt>
      <trkpt lat="45.16252" lon="5.4144">
        <ele>539</ele>
        <time>2021-07-03T07:48:06Z</time>
      </trkpt>
      <trkpt lat="45.16247" lon="5.41441">
        <ele>540.2</ele>
        <time>2021-07-03T07:48:10Z</time>
      </trkpt>
      <trkpt lat="45.16242" lon="5.41441">
        <ele>540.8</ele>
        <time>2021-07-03T07:48:14Z</time>
      </trkpt>
      <trkpt lat="45.16237" lon="5.41442">
        <ele>541.8</ele>
        <time>2021-07-03T07:48:18Z</time>
      </trkpt>
      <trkpt lat="45.16233" lon="5.41439">
        <ele>542.2</ele>
        <time>2021-07-03T07:48:22Z</time>
      </trkpt>
      <trkpt lat="45.16229" lon="5.41439">
        <ele>543.2</ele>
        <time>2021-07-03T07:48:26Z</time>
      </trkpt>
      <trkpt lat="45.16225" lon="5.41436">
        <ele>543.6</ele>
        <time>2021-07-03T07:48:30Z</time>
      </trkpt>
      <trkpt lat="45.1622" lon="5.41432">
        <ele>544.6</ele>
        <time>2021-07-03T07:48:34Z</time>
      </trkpt>
      <trkpt lat="45.16216" lon="5.41428">
        <ele>545.4</ele>
        <time>2021-07-03T07:48:38Z</time>
      </trkpt>
      <trkpt lat="45.16212" lon="5.41425">
        <ele>545.6</ele>
        <time>2021-07-03T07:48:42Z</time>
      </trkpt>
      <trkpt lat="45.1621" lon="5.41422">
        <ele>546.4</ele>
        <time>2021-07-03T07:48:46Z</time>
      </trkpt>
      <trkpt lat="45.16206" lon="5.41418">
        <ele>547.2</ele>
        <time>2021-07-03T07:48:50Z</time>
      </trkpt>
      <trkpt lat="45.16202" lon="5.41415">
        <ele>547.6</ele>
        <time>2021-07-03T07:48:54Z</time>
      </trkpt>
      <trkpt lat="45.16198" lon="5.41412">
        <ele>548.2</ele>
        <time>2021-07-03T07:48:58Z</time>
      </trkpt>
      <trkpt lat="45.16192" lon="5.41408">
        <ele>549</ele>
        <time>2021-07-03T07:49:02Z</time>
      </trkpt>
      <trkpt lat="45.1602" lon="5.41198">
        <ele>580.8</ele>
        <time>2021-07-03T07:52:22Z</time>
      </trkpt>
      <trkpt lat="45.16017" lon="5.41191">
        <ele>581.2</ele>
        <time>2021-07-03T07:52:26Z</time>
      </trkpt>
      <trkpt lat="45.16015" lon="5.41186">
        <ele>581.8</ele>
        <time>2021-07-03T07:52:30Z</time>
      </trkpt>
      <trkpt lat="45.16011" lon="5.41182">
        <ele>582.4</ele>
        <time>2021-07-03T07:52:34Z</time>
      </trkpt>
      <trkpt lat="45.16007" lon="5.41183">
        <ele>582.8</ele>
        <time>2021-07-03T07:52:38Z</time>
      </trkpt>
      <trkpt lat="45.16005" lon="5.41187">
        <ele>583.4</ele>
        <time>2021-07-03T07:52:42Z</time>
      </trkpt>
      <trkpt lat="45.16008" lon="5.41195">
        <ele>583.6</ele>
        <time>2021-07-03T07:52:46Z</time>
      </trkpt>
      <trkpt lat="45.1601" lon="5.41201">
        <ele>584.4</ele>
        <time>2021-07-03T07:52:50Z</time>
      </trkpt>
      <trkpt lat="45.16013" lon="5.41208">
        <ele>584.6</ele>
        <time>2021-07-03T07:52:54Z</time>
      </trkpt>
      <trkpt lat="45.16015" lon="5.41215">
        <ele>585</ele>
        <time>2021-07-03T07:52:58Z</time>
      </trkpt>
      <trkpt lat="45.16016" lon="5.41222">
        <ele>586</ele>
        <time>2021-07-03T07:53:02Z</time>
      </trkpt>
      <trkpt lat="45.16018" lon="5.41229">
        <ele>586.6</ele>
        <time>2021-07-03T07:53:06Z</time>
      </trkpt>
      <trkpt lat="45.16019" lon="5.41236">
        <ele>587.2</ele>
        <time>2021-07-03T07:53:10Z</time>
      </trkpt>
      <trkpt lat="45.1602" lon="5.41242">
        <ele>588</ele>
        <time>2021-07-03T07:53:14Z</time>
      </trkpt>
      <trkpt lat="45.16022" lon="5.41249">
        <ele>588.4</ele>
        <time>2021-07-03T07:53:18Z</time>
      </trkpt>
      <trkpt lat="45.16024" lon="5.41258">
        <ele>588.8</ele>
        <time>2021-07-03T07:53:22Z</time>
      </trkpt>
      <trkpt lat="45.16024" lon="5.41265">
        <ele>589.6</ele>
        <time>2021-07-03T07:53:26Z</time>
      </trkpt>
      <trkpt lat="45.16025" lon="5.41273">
        <ele>590</ele>
        <time>2021-07-03T07:53:30Z</time>
      </trkpt>
      <trkpt lat="45.16027" lon="5.41282">
        <ele>591</ele>
        <time>2021-07-03T07:53:34Z</time>
      </trkpt>
      <trkpt lat="45.16027" lon="5.4129">
        <ele>591.8</ele>
        <time>2021-07-03T07:53:38Z</time>
      </trkpt>
      <trkpt lat="45.16027" lon="5.41298">
        <ele>591.4</ele>
        <time>2021-07-03T07:53:42Z</time>
      </trkpt>
      <trkpt lat="45.16028" lon="5.41305">
        <ele>592.8</ele>
        <time>2021-07-03T07:53:46Z</time>
      </trkpt>
      <trkpt lat="45.16027" lon="5.41314">
        <ele>593</ele>
        <time>2021-07-03T07:53:50Z</time>
      </trkpt>
      <trkpt lat="45.16028" lon="5.41321">
        <ele>593.6</ele>
        <time>2021-07-03T07:53:54Z</time>
      </trkpt>
      <trkpt lat="45.1603" lon="5.41329">
        <ele>594.4</ele>
        <time>2021-07-03T07:53:58Z</time>
      </trkpt>
      <trkpt lat="45.16033" lon="5.41337">
        <ele>595.2</ele>
        <time>2021-07-03T07:54:02Z</time>
      </trkpt>
      <trkpt lat="45.16034" lon="5.41342">
        <ele>595.6</ele>
        <time>2021-07-03T07:54:06Z</time>
      </trkpt>
      <trkpt lat="45.16037" lon="5.41349">
        <ele>596</ele>
        <time>2021-07-03T07:54:10Z</time>
      </trkpt>
      <trkpt lat="45.1604" lon="5.41357">
        <ele>596.4</ele>
        <time>2021-07-03T07:54:14Z</time>
      </trkpt>
      <trkpt lat="45.16045" lon="5.41364">
        <ele>597</ele>
        <time>2021-07-03T07:54:18Z</time>
      </trkpt>
      <trkpt lat="45.16049" lon="5.41371">
        <ele>597.4</ele>
        <time>2021-07-03T07:54:22Z</time>
      </trkpt>
      <trkpt lat="45.16052" lon="5.41379">
        <ele>598.2</ele>
        <time>2021-07-03T07:54:26Z</time>
      </trkpt>
      <trkpt lat="45.16056" lon="5.41385">
        <ele>598.8</ele>
        <time>2021-07-03T07:54:30Z</time>
      </trkpt>
      <trkpt lat="45.16061" lon="5.41394">
        <ele>600</ele>
        <time>2021-07-03T07:54:34Z</time>
      </trkpt>
      <trkpt lat="45.16065" lon="5.414">
        <ele>600.4</ele>
        <time>2021-07-03T07:54:38Z</time>
      </trkpt>
      <trkpt lat="45.16069" lon="5.41406">
        <ele>600.8</ele>
        <time>2021-07-03T07:54:42Z</time>
      </trkpt>
      <trkpt lat="45.16071" lon="5.41414">
        <ele>601.2</ele>
        <time>2021-07-03T07:54:46Z</time>
      </trkpt>
      <trkpt lat="45.16068" lon="5.41421">
        <ele>601.4</ele>
        <time>2021-07-03T07:54:50Z</time>
      </trkpt>
      <trkpt lat="45.16064" lon="5.41418">
        <ele>602.6</ele>
        <time>2021-07-03T07:54:54Z</time>
      </trkpt>
      <trkpt lat="45.16061" lon="5.41411">
        <ele>603.4</ele>
        <time>2021-07-03T07:54:58Z</time>
      </trkpt>
      <trkpt lat="45.16058" lon="5.41406">
        <ele>604.4</ele>
        <time>2021-07-03T07:55:02Z</time>
      </trkpt>
      <trkpt lat="45.16054" lon="5.414">
        <ele>604.8</ele>
        <time>2021-07-03T07:55:06Z</time>
      </trkpt>
      <trkpt lat="45.1605" lon="5.41394">
        <ele>605.6</ele>
        <time>2021-07-03T07:55:10Z</time>
      </trkpt>
      <trkpt lat="45.16045" lon="5.4139">
        <ele>606.4</ele>
        <time>2021-07-03T07:55:14Z</time>
      </trkpt>
      <trkpt lat="45.16041" lon="5.41387">
        <ele>607</ele>
        <time>2021-07-03T07:55:18Z</time>
      </trkpt>
      <trkpt lat="45.16036" lon="5.41383">
        <ele>607.6</ele>
        <time>2021-07-03T07:55:22Z</time>
      </trkpt>
      <trkpt lat="45.16031" lon="5.41382">
        <ele>607.8</ele>
        <time>2021-07-03T07:55:26Z</time>
      </trkpt>
      <trkpt lat="45.16028" lon="5.41378">
        <ele>608.8</ele>
        <time>2021-07-03T07:55:30Z</time>
      </trkpt>
      <trkpt lat="45.16024" lon="5.41373">
        <ele>609.2</ele>
        <time>2021-07-03T07:55:34Z</time>
      </trkpt>
      <trkpt lat="45.16019" lon="5.41363">
        <ele>610</ele>
        <time>2021-07-03T07:55:38Z</time>
      </trkpt>
      <trkpt lat="45.16014" lon="5.41355">
        <ele>610.8</ele>
        <time>2021-07-03T07:55:42Z</time>
      </trkpt>
      <trkpt lat="45.1601" lon="5.41349">
        <ele>611.4</ele>
        <time>2021-07-03T07:55:46Z</time>
      </trkpt>
      <trkpt lat="45.16005" lon="5.41343">
        <ele>612</ele>
        <time>2021-07-03T07:55:50Z</time>
      </trkpt>
      <trkpt lat="45.16" lon="5.41338">
        <ele>612.2</ele>
        <time>2021-07-03T07:55:54Z</time>
      </trkpt>
      <trkpt lat="45.15996" lon="5.41332">
        <ele>613</ele>
        <time>2021-07-03T07:55:58Z</time>
      </trkpt>
      <trkpt lat="45.15991" lon="5.41327">
        <ele>613.6</ele>
        <time>2021-07-03T07:56:02Z</time>
      </trkpt>
      <trkpt lat="45.15987" lon="5.41321">
        <ele>613.8</ele>
        <time>2021-07-03T07:56:06Z</time>
      </trkpt>
      <trkpt lat="45.15984" lon="5.41315">
        <ele>614.6</ele>
        <time>2021-07-03T07:56:10Z</time>
      </trkpt>
      <trkpt lat="45.15979" lon="5.41309">
        <ele>615</ele>
        <time>2021-07-03T07:56:14Z</time>
      </trkpt>
      <trkpt lat="45.15974" lon="5.41306">
        <ele>615.2</ele>
        <time>2021-07-03T07:56:18Z</time>
      </trkpt>
      <trkpt lat="45.15968" lon="5.41304">
        <ele>615.8</ele>
        <time>2021-07-03T07:56:22Z</time>
      </trkpt>
      <trkpt lat="45.15962" lon="5.41305">
        <ele>616.4</ele>
        <time>2021-07-03T07:56:26Z</time>
      </trkpt>
      <trkpt lat="45.15957" lon="5.4131">
        <ele>616.8</ele>
        <time>2021-07-03T07:56:30Z</time>
      </trkpt>
      <trkpt lat="45.15952" lon="5.41313">
        <ele>617.2</ele>
        <time>2021-07-03T07:56:34Z</time>
      </trkpt>
      <trkpt lat="45.15947" lon="5.41314">
        <ele>617.6</ele>
        <time>2021-07-03T07:56:38Z</time>
      </trkpt>
      <trkpt lat="45.15941" lon="5.41316">
        <ele>618.4</ele>
        <time>2021-07-03T07:56:42Z</time>
      </trkpt>
      <trkpt lat="45.15935" lon="5.41317">
        <ele>618.8</ele>
        <time>2021-07-03T07:56:46Z</time>
      </trkpt>
      <trkpt lat="45.15932" lon="5.41312">
        <ele>619.4</ele>
        <time>2021-07-03T07:56:50Z</time>
      </trkpt>
      <trkpt lat="45.1593" lon="5.41307">
        <ele>620.4</ele>
        <time>2021-07-03T07:56:54Z</time>
      </trkpt>
      <trkpt lat="45.1593" lon="5.413">
        <ele>621</ele>
        <time>2021-07-03T07:56:58Z</time>
      </trkpt>
      <trkpt lat="45.1593" lon="5.41293">
        <ele>621.6</ele>
        <time>2021-07-03T07:57:02Z</time>
      </trkpt>
      <trkpt lat="45.1593" lon="5.41283">
        <ele>621.8</ele>
        <time>2021-07-03T07:57:06Z</time>
      </trkpt>
      <trkpt lat="45.15931" lon="5.41276">
        <ele>622.6</ele>
        <time>2021-07-03T07:57:10Z</time>
      </trkpt>
      <trkpt lat="45.15931" lon="5.41269">
        <ele>623.2</ele>
        <time>2021-07-03T07:57:14Z</time>
      </trkpt>
      <trkpt lat="45.15932" lon="5.41262">
        <ele>624</ele>
        <time>2021-07-03T07:57:18Z</time>
      </trkpt>
      <trkpt lat="45.15932" lon="5.41254">
        <ele>624.6</ele>
        <time>2021-07-03T07:57:22Z</time>
      </trkpt>
      <trkpt lat="45.15934" lon="5.41244">
        <ele>625.4</ele>
        <time>2021-07-03T07:57:26Z</time>
      </trkpt>
      <trkpt lat="45.15935" lon="5.41237">
        <ele>625.8</ele>
        <time>2021-07-03T07:57:30Z</time>
      </trkpt>
      <trkpt lat="45.15937" lon="5.4123">
        <ele>626.2</ele>
        <time>2021-07-03T07:57:34Z</time>
      </trkpt>
      <trkpt lat="45.1594" lon="5.41224">
        <ele>627.2</ele>
        <time>2021-07-03T07:57:38Z</time>
      </trkpt>
      <trkpt lat="45.15941" lon="5.41216">
        <ele>627.8</ele>
        <time>2021-07-03T07:57:42Z</time>
      </trkpt>
      <trkpt lat="45.1594" lon="5.41209">
        <ele>628.2</ele>
        <time>2021-07-03T07:57:46Z</time>
      </trkpt>
      <trkpt lat="45.15938" lon="5.41203">
        <ele>629.2</ele>
        <time>2021-07-03T07:57:50Z</time>
      </trkpt>
      <trkpt lat="45.15934" lon="5.41198">
        <ele>629.4</ele>
        <time>2021-07-03T07:57:54Z</time>
      </trkpt>
      <trkpt lat="45.15928" lon="5.41194">
        <ele>630</ele>
        <time>2021-07-03T07:57:58Z</time>
      </trkpt>
      <trkpt lat="45.15925" lon="5.4119">
        <ele>631.2</ele>
        <time>2021-07-03T07:58:02Z</time>
      </trkpt>
      <trkpt lat="45.15919" lon="5.41188">
        <ele>631.8</ele>
        <time>2021-07-03T07:58:06Z</time>
      </trkpt>
      <trkpt lat="45.15915" lon="5.41185">
        <ele>632.6</ele>
        <time>2021-07-03T07:58:10Z</time>
      </trkpt>
      <trkpt lat="45.1591" lon="5.41182">
        <ele>633</ele>
        <time>2021-07-03T07:58:14Z</time>
      </trkpt>
      <trkpt lat="45.15906" lon="5.41179">
        <ele>633.8</ele>
        <time>2021-07-03T07:58:18Z</time>
      </trkpt>
      <trkpt lat="45.15901" lon="5.41178">
        <ele>634.6</ele>
        <time>2021-07-03T07:58:22Z</time>
      </trkpt>
      <trkpt lat="45.15897" lon="5.41176">
        <ele>635.2</ele>
        <time>2021-07-03T07:58:26Z</time>
      </trkpt>
      <trkpt lat="45.15894" lon="5.41176">
        <ele>635.8</ele>
        <time>2021-07-03T07:58:30Z</time>
      </trkpt>
      <trkpt lat="45.15889" lon="5.41171">
        <ele>636</ele>
        <time>2021-07-03T07:58:34Z</time>
      </trkpt>
      <trkpt lat="45.15886" lon="5.41167">
        <ele>636.8</ele>
        <time>2021-07-03T07:58:38Z</time>
      </trkpt>
      <trkpt lat="45.15882" lon="5.41161">
        <ele>637.6</ele>
        <time>2021-07-03T07:58:42Z</time>
      </trkpt>
      <trkpt lat="45.15878" lon="5.41156">
        <ele>638.2</ele>
        <time>2021-07-03T07:58:46Z</time>
      </trkpt>
      <trkpt lat="45.15875" lon="5.41151">
        <ele>638.6</ele>
        <time>2021-07-03T07:58:50Z</time>
      </trkpt>
      <trkpt lat="45.15873" lon="5.41147">
        <ele>639.4</ele>
        <time>2021-07-03T07:58:54Z</time>
      </trkpt>
      <trkpt lat="45.1587" lon="5.41142">
        <ele>640</ele>
        <time>2021-07-03T07:58:58Z</time>
      </trkpt>
      <trkpt lat="45.15867" lon="5.41137">
        <ele>641.4</ele>
        <time>2021-07-03T07:59:02Z</time>
      </trkpt>
      <trkpt lat="45.15864" lon="5.41132">
        <ele>641.8</ele>
        <time>2021-07-03T07:59:06Z</time>
      </trkpt>
      <trkpt lat="45.15861" lon="5.41127">
        <ele>642.8</ele>
        <time>2021-07-03T07:59:10Z</time>
      </trkpt>
      <trkpt lat="45.15858" lon="5.41123">
        <ele>643.6</ele>
        <time>2021-07-03T07:59:14Z</time>
      </trkpt>
      <trkpt lat="45.15854" lon="5.41121">
        <ele>643</ele>
        <time>2021-07-03T07:59:18Z</time>
      </trkpt>
      <trkpt lat="45.1585" lon="5.41118">
        <ele>644.2</ele>
        <time>2021-07-03T07:59:22Z</time>
      </trkpt>
      <trkpt lat="45.15844" lon="5.41116">
        <ele>644.6</ele>
        <time>2021-07-03T07:59:26Z</time>
      </trkpt>
      <trkpt lat="45.1584" lon="5.41113">
        <ele>645.6</ele>
        <time>2021-07-03T07:59:30Z</time>
      </trkpt>
      <trkpt lat="45.15835" lon="5.41107">
        <ele>646.2</ele>
        <time>2021-07-03T07:59:34Z</time>
      </trkpt>
      <trkpt lat="45.1583" lon="5.41104">
        <ele>647.2</ele>
        <time>2021-07-03T07:59:38Z</time>
      </trkpt>
      <trkpt lat="45.15825" lon="5.411">
        <ele>647.8</ele>
        <time>2021-07-03T07:59:42Z</time>
      </trkpt>
      <trkpt lat="45.15821" lon="5.41097">
        <ele>648.2</ele>
        <time>2021-07-03T07:59:46Z</time>
      </trkpt>
      <trkpt lat="45.15816" lon="5.41094">
        <ele>649</ele>
        <time>2021-07-03T07:59:50Z</time>
      </trkpt>
      <trkpt lat="45.15811" lon="5.41091">
        <ele>649.6</ele>
        <time>2021-07-03T07:59:54Z</time>
      </trkpt>
      <trkpt lat="45.15807" lon="5.41089">
        <ele>649.8</ele>
        <time>2021-07-03T07:59:58Z</time>
      </trkpt>
      <trkpt lat="45.15802" lon="5.41085">
        <ele>651</ele>
        <time>2021-07-03T08:00:02Z</time>
      </trkpt>
      <trkpt lat="45.15797" lon="5.41079">
        <ele>651.2</ele>
        <time>2021-07-03T08:00:06Z</time>
      </trkpt>
      <trkpt lat="45.15793" lon="5.41074">
        <ele>651.6</ele>
        <time>2021-07-03T08:00:10Z</time>
      </trkpt>
      <trkpt lat="45.15788" lon="5.41071">
        <ele>653</ele>
        <time>2021-07-03T08:00:14Z</time>
      </trkpt>
      <trkpt lat="45.15782" lon="5.41068">
        <ele>652.8</ele>
        <time>2021-07-03T08:00:18Z</time>
      </trkpt>
      <trkpt lat="45.15777" lon="5.41064">
        <ele>653.6</ele>
        <time>2021-07-03T08:00:22Z</time>
      </trkpt>
      <trkpt lat="45.15773" lon="5.4106">
        <ele>654.4</ele>
        <time>2021-07-03T08:00:26Z</time>
      </trkpt>
      <trkpt lat="45.15768" lon="5.41057">
        <ele>654.6</ele>
        <time>2021-07-03T08:00:30Z</time>
      </trkpt>
      <trkpt lat="45.15763" lon="5.41054">
        <ele>655</ele>
        <time>2021-07-03T08:00:34Z</time>
      </trkpt>
      <trkpt lat="45.15758" lon="5.41052">
        <ele>655.4</ele>
        <time>2021-07-03T08:00:38Z</time>
      </trkpt>
      <trkpt lat="45.15758" lon="5.41052">
        <ele>656.2</ele>
        <time>2021-07-03T08:00:42Z</time>
      </trkpt>
      <trkpt lat="45.15733" lon="5.41043">
        <ele>658.6</ele>
        <time>2021-07-03T08:03:29Z</time>
      </trkpt>
      <trkpt lat="45.15727" lon="5.41041">
        <ele>660.2</ele>
        <time>2021-07-03T08:03:33Z</time>
      </trkpt>
      <trkpt lat="45.15722" lon="5.4104">
        <ele>660.6</ele>
        <time>2021-07-03T08:03:37Z</time>
      </trkpt>
      <trkpt lat="45.15717" lon="5.41039">
        <ele>661.2</ele>
        <time>2021-07-03T08:03:41Z</time>
      </trkpt>
      <trkpt lat="45.15712" lon="5.41038">
        <ele>662.2</ele>
        <time>2021-07-03T08:03:45Z</time>
      </trkpt>
      <trkpt lat="45.15707" lon="5.41036">
        <ele>663</ele>
        <time>2021-07-03T08:03:49Z</time>
      </trkpt>
      <trkpt lat="45.15702" lon="5.41037">
        <ele>663.4</ele>
        <time>2021-07-03T08:03:53Z</time>
      </trkpt>
      <trkpt lat="45.15697" lon="5.41035">
        <ele>663.8</ele>
        <time>2021-07-03T08:03:57Z</time>
      </trkpt>
      <trkpt lat="45.15692" lon="5.41035">
        <ele>664</ele>
        <time>2021-07-03T08:04:01Z</time>
      </trkpt>
      <trkpt lat="45.15687" lon="5.41034">
        <ele>665.2</ele>
        <time>2021-07-03T08:04:05Z</time>
      </trkpt>
      <trkpt lat="45.15683" lon="5.41033">
        <ele>666.2</ele>
        <time>2021-07-03T08:04:09Z</time>
      </trkpt>
      <trkpt lat="45.15678" lon="5.41032">
        <ele>666.8</ele>
        <time>2021-07-03T08:04:13Z</time>
      </trkpt>
      <trkpt lat="45.15673" lon="5.41031">
        <ele>667.4</ele>
        <time>2021-07-03T08:04:17Z</time>
      </trkpt>
      <trkpt lat="45.15668" lon="5.4103">
        <ele>668.2</ele>
        <time>2021-07-03T08:04:21Z</time>
      </trkpt>
      <trkpt lat="45.15663" lon="5.41031">
        <ele>669.2</ele>
        <time>2021-07-03T08:04:25Z</time>
      </trkpt>
      <trkpt lat="45.1566" lon="5.41037">
        <ele>669</ele>
        <time>2021-07-03T08:04:29Z</time>
      </trkpt>
      <trkpt lat="45.15657" lon="5.41041">
        <ele>670.2</ele>
        <time>2021-07-03T08:04:33Z</time>
      </trkpt>
      <trkpt lat="45.15653" lon="5.41047">
        <ele>671.4</ele>
        <time>2021-07-03T08:04:37Z</time>
      </trkpt>
      <trkpt lat="45.15651" lon="5.41054">
        <ele>671.8</ele>
        <time>2021-07-03T08:04:41Z</time>
      </trkpt>
      <trkpt lat="45.15651" lon="5.41058">
        <ele>672.6</ele>
        <time>2021-07-03T08:04:45Z</time>
      </trkpt>
      <trkpt lat="45.15652" lon="5.41065">
        <ele>673</ele>
        <time>2021-07-03T08:04:49Z</time>
      </trkpt>
      <trkpt lat="45.15652" lon="5.4107">
        <ele>674.2</ele>
        <time>2021-07-03T08:04:53Z</time>
      </trkpt>
      <trkpt lat="45.15652" lon="5.41076">
        <ele>674.2</ele>
        <time>2021-07-03T08:04:57Z</time>
      </trkpt>
      <trkpt lat="45.15654" lon="5.41082">
        <ele>675</ele>
        <time>2021-07-03T08:05:01Z</time>
      </trkpt>
      <trkpt lat="45.15653" lon="5.41089">
        <ele>675.2</ele>
        <time>2021-07-03T08:05:05Z</time>
      </trkpt>
      <trkpt lat="45.15651" lon="5.41096">
        <ele>676</ele>
        <time>2021-07-03T08:05:09Z</time>
      </trkpt>
      <trkpt lat="45.15651" lon="5.41102">
        <ele>677.2</ele>
        <time>2021-07-03T08:05:13Z</time>
      </trkpt>
      <trkpt lat="45.15652" lon="5.41109">
        <ele>677.2</ele>
        <time>2021-07-03T08:05:17Z</time>
      </trkpt>
      <trkpt lat="45.15651" lon="5.41115">
        <ele>678.6</ele>
        <time>2021-07-03T08:05:21Z</time>
      </trkpt>
      <trkpt lat="45.15648" lon="5.41123">
        <ele>679.2</ele>
        <time>2021-07-03T08:05:25Z</time>
      </trkpt>
      <trkpt lat="45.15602" lon="5.4123">
        <ele>690.2</ele>
        <time>2021-07-03T08:06:37Z</time>
      </trkpt>
      <trkpt lat="45.15596" lon="5.41229">
        <ele>690.4</ele>
        <time>2021-07-03T08:06:41Z</time>
      </trkpt>
      <trkpt lat="45.1559" lon="5.41226">
        <ele>691.4</ele>
        <time>2021-07-03T08:06:45Z</time>
      </trkpt>
      <trkpt lat="45.15586" lon="5.41223">
        <ele>692.2</ele>
        <time>2021-07-03T08:06:49Z</time>
      </trkpt>
      <trkpt lat="45.15582" lon="5.41218">
        <ele>692.2</ele>
        <time>2021-07-03T08:06:53Z</time>
      </trkpt>
      <trkpt lat="45.1558" lon="5.41213">
        <ele>693.2</ele>
        <time>2021-07-03T08:06:57Z</time>
      </trkpt>
      <trkpt lat="45.15579" lon="5.41208">
        <ele>694.2</ele>
        <time>2021-07-03T08:07:01Z</time>
      </trkpt>
      <trkpt lat="45.15578" lon="5.41203">
        <ele>694</ele>
        <time>2021-07-03T08:07:05Z</time>
      </trkpt>
      <trkpt lat="45.15579" lon="5.41199">
        <ele>695</ele>
        <time>2021-07-03T08:07:09Z</time>
      </trkpt>
      <trkpt lat="45.15578" lon="5.41194">
        <ele>696</ele>
        <time>2021-07-03T08:07:13Z</time>
      </trkpt>
      <trkpt lat="45.15577" lon="5.41187">
        <ele>696.2</ele>
        <time>2021-07-03T08:07:17Z</time>
      </trkpt>
      <trkpt lat="45.15575" lon="5.41179">
        <ele>697.4</ele>
        <time>2021-07-03T08:07:21Z</time>
      </trkpt>
      <trkpt lat="45.15574" lon="5.41169">
        <ele>697.8</ele>
        <time>2021-07-03T08:07:25Z</time>
      </trkpt>
      <trkpt lat="45.15571" lon="5.41161">
        <ele>698.4</ele>
        <time>2021-07-03T08:07:29Z</time>
      </trkpt>
      <trkpt lat="45.15566" lon="5.41152">
        <ele>698.2</ele>
        <time>2021-07-03T08:07:33Z</time>
      </trkpt>
      <trkpt lat="45.1556" lon="5.41147">
        <ele>699</ele>
        <time>2021-07-03T08:07:37Z</time>
      </trkpt>
      <trkpt lat="45.15556" lon="5.41148">
        <ele>699.4</ele>
        <time>2021-07-03T08:07:41Z</time>
      </trkpt>
      <trkpt lat="45.15552" lon="5.41151">
        <ele>700.6</ele>
        <time>2021-07-03T08:07:45Z</time>
      </trkpt>
      <trkpt lat="45.15547" lon="5.41151">
        <ele>700.8</ele>
        <time>2021-07-03T08:07:49Z</time>
      </trkpt>
      <trkpt lat="45.15541" lon="5.41153">
        <ele>701.2</ele>
        <time>2021-07-03T08:07:53Z</time>
      </trkpt>
      <trkpt lat="45.15535" lon="5.41153">
        <ele>702</ele>
        <time>2021-07-03T08:07:57Z</time>
      </trkpt>
      <trkpt lat="45.15529" lon="5.41154">
        <ele>702.6</ele>
        <time>2021-07-03T08:08:01Z</time>
      </trkpt>
      <trkpt lat="45.15522" lon="5.41156">
        <ele>703</ele>
        <time>2021-07-03T08:08:05Z</time>
      </trkpt>
      <trkpt lat="45.15516" lon="5.41159">
        <ele>704</ele>
        <time>2021-07-03T08:08:09Z</time>
      </trkpt>
      <trkpt lat="45.1551" lon="5.41162">
        <ele>703.8</ele>
        <time>2021-07-03T08:08:13Z</time>
      </trkpt>
      <trkpt lat="45.15506" lon="5.41167">
        <ele>703.8</ele>
        <time>2021-07-03T08:08:17Z</time>
      </trkpt>
      <trkpt lat="45.15498" lon="5.41166">
        <ele>704.6</ele>
        <time>2021-07-03T08:08:21Z</time>
      </trkpt>
      <trkpt lat="45.1549" lon="5.41169">
        <ele>705</ele>
        <time>2021-07-03T08:08:25Z</time>
      </trkpt>
      <trkpt lat="45.15481" lon="5.41174">
        <ele>705.8</ele>
        <time>2021-07-03T08:08:29Z</time>
      </trkpt>
      <trkpt lat="45.15468" lon="5.41174">
        <ele>706.2</ele>
        <time>2021-07-03T08:08:33Z</time>
      </trkpt>
      <trkpt lat="45.1546" lon="5.41178">
        <ele>706.6</ele>
        <time>2021-07-03T08:08:37Z</time>
      </trkpt>
      <trkpt lat="45.15454" lon="5.4118">
        <ele>707.2</ele>
        <time>2021-07-03T08:08:41Z</time>
      </trkpt>
      <trkpt lat="45.15446" lon="5.41181">
        <ele>707.8</ele>
        <time>2021-07-03T08:08:45Z</time>
      </trkpt>
      <trkpt lat="45.15439" lon="5.41185">
        <ele>708</ele>
        <time>2021-07-03T08:08:49Z</time>
      </trkpt>
      <trkpt lat="45.15432" lon="5.41187">
        <ele>708.8</ele>
        <time>2021-07-03T08:08:53Z</time>
      </trkpt>
      <trkpt lat="45.15425" lon="5.4119">
        <ele>709.6</ele>
        <time>2021-07-03T08:08:57Z</time>
      </trkpt>
      <trkpt lat="45.15416" lon="5.41193">
        <ele>709.6</ele>
        <time>2021-07-03T08:09:01Z</time>
      </trkpt>
      <trkpt lat="45.1541" lon="5.41191">
        <ele>710.4</ele>
        <time>2021-07-03T08:09:05Z</time>
      </trkpt>
      <trkpt lat="45.15404" lon="5.41192">
        <ele>711.2</ele>
        <time>2021-07-03T08:09:09Z</time>
      </trkpt>
      <trkpt lat="45.15398" lon="5.41191">
        <ele>711.8</ele>
        <time>2021-07-03T08:09:13Z</time>
      </trkpt>
      <trkpt lat="45.15393" lon="5.41189">
        <ele>712.4</ele>
        <time>2021-07-03T08:09:17Z</time>
      </trkpt>
      <trkpt lat="45.15388" lon="5.4119">
        <ele>712.6</ele>
        <time>2021-07-03T08:09:21Z</time>
      </trkpt>
      <trkpt lat="45.15383" lon="5.41191">
        <ele>713.4</ele>
        <time>2021-07-03T08:09:25Z</time>
      </trkpt>
      <trkpt lat="45.15377" lon="5.41191">
        <ele>714.2</ele>
        <time>2021-07-03T08:09:29Z</time>
      </trkpt>
      <trkpt lat="45.15371" lon="5.41191">
        <ele>715.2</ele>
        <time>2021-07-03T08:09:33Z</time>
      </trkpt>
      <trkpt lat="45.15365" lon="5.41193">
        <ele>715.4</ele>
        <time>2021-07-03T08:09:37Z</time>
      </trkpt>
      <trkpt lat="45.15358" lon="5.41192">
        <ele>715.8</ele>
        <time>2021-07-03T08:09:41Z</time>
      </trkpt>
      <trkpt lat="45.15353" lon="5.41192">
        <ele>716.2</ele>
        <time>2021-07-03T08:09:45Z</time>
      </trkpt>
      <trkpt lat="45.15347" lon="5.41193">
        <ele>717.2</ele>
        <time>2021-07-03T08:09:49Z</time>
      </trkpt>
      <trkpt lat="45.1534" lon="5.41192">
        <ele>717.4</ele>
        <time>2021-07-03T08:09:53Z</time>
      </trkpt>
      <trkpt lat="45.15335" lon="5.41192">
        <ele>717.8</ele>
        <time>2021-07-03T08:09:57Z</time>
      </trkpt>
      <trkpt lat="45.1533" lon="5.41192">
        <ele>718.2</ele>
        <time>2021-07-03T08:10:01Z</time>
      </trkpt>
      <trkpt lat="45.15325" lon="5.41191">
        <ele>718.8</ele>
        <time>2021-07-03T08:10:05Z</time>
      </trkpt>
      <trkpt lat="45.1532" lon="5.41192">
        <ele>719.6</ele>
        <time>2021-07-03T08:10:09Z</time>
      </trkpt>
      <trkpt lat="45.15315" lon="5.4119">
        <ele>720</ele>
        <time>2021-07-03T08:10:13Z</time>
      </trkpt>
      <trkpt lat="45.1531" lon="5.4119">
        <ele>721</ele>
        <time>2021-07-03T08:10:17Z</time>
      </trkpt>
      <trkpt lat="45.15305" lon="5.41192">
        <ele>721.4</ele>
        <time>2021-07-03T08:10:21Z</time>
      </trkpt>
      <trkpt lat="45.15299" lon="5.41193">
        <ele>722.2</ele>
        <time>2021-07-03T08:10:25Z</time>
      </trkpt>
      <trkpt lat="45.15296" lon="5.41193">
        <ele>722.4</ele>
        <time>2021-07-03T08:10:29Z</time>
      </trkpt>
      <trkpt lat="45.15291" lon="5.41191">
        <ele>722.2</ele>
        <time>2021-07-03T08:10:33Z</time>
      </trkpt>
      <trkpt lat="45.15283" lon="5.4119">
        <ele>722.6</ele>
        <time>2021-07-03T08:10:37Z</time>
      </trkpt>
      <trkpt lat="45.15276" lon="5.41186">
        <ele>723.2</ele>
        <time>2021-07-03T08:10:41Z</time>
      </trkpt>
      <trkpt lat="45.15271" lon="5.41177">
        <ele>723.2</ele>
        <time>2021-07-03T08:10:45Z</time>
      </trkpt>
      <trkpt lat="45.15266" lon="5.41168">
        <ele>723.8</ele>
        <time>2021-07-03T08:10:49Z</time>
      </trkpt>
      <trkpt lat="45.15263" lon="5.4116">
        <ele>724.4</ele>
        <time>2021-07-03T08:10:53Z</time>
      </trkpt>
      <trkpt lat="45.15261" lon="5.41152">
        <ele>725</ele>
        <time>2021-07-03T08:10:57Z</time>
      </trkpt>
      <trkpt lat="45.15259" lon="5.41144">
        <ele>725.8</ele>
        <time>2021-07-03T08:11:01Z</time>
      </trkpt>
      <trkpt lat="45.15258" lon="5.41136">
        <ele>726.8</ele>
        <time>2021-07-03T08:11:05Z</time>
      </trkpt>
      <trkpt lat="45.15257" lon="5.41129">
        <ele>727</ele>
        <time>2021-07-03T08:11:09Z</time>
      </trkpt>
      <trkpt lat="45.15255" lon="5.4112">
        <ele>727.4</ele>
        <time>2021-07-03T08:11:13Z</time>
      </trkpt>
      <trkpt lat="45.15253" lon="5.41108">
        <ele>727.8</ele>
        <time>2021-07-03T08:11:17Z</time>
      </trkpt>
      <trkpt lat="45.15249" lon="5.41097">
        <ele>728.2</ele>
        <time>2021-07-03T08:11:21Z</time>
      </trkpt>
      <trkpt lat="45.15244" lon="5.41084">
        <ele>728.4</ele>
        <time>2021-07-03T08:11:25Z</time>
      </trkpt>
      <trkpt lat="45.1524" lon="5.41071">
        <ele>729.4</ele>
        <time>2021-07-03T08:11:29Z</time>
      </trkpt>
      <trkpt lat="45.15237" lon="5.41061">
        <ele>729.6</ele>
        <time>2021-07-03T08:11:33Z</time>
      </trkpt>
      <trkpt lat="45.15234" lon="5.41053">
        <ele>730.6</ele>
        <time>2021-07-03T08:11:37Z</time>
      </trkpt>
      <trkpt lat="45.15232" lon="5.41045">
        <ele>731.2</ele>
        <time>2021-07-03T08:11:41Z</time>
      </trkpt>
      <trkpt lat="45.15229" lon="5.41037">
        <ele>732.2</ele>
        <time>2021-07-03T08:11:45Z</time>
      </trkpt>
      <trkpt lat="45.15228" lon="5.4103">
        <ele>732.8</ele>
        <time>2021-07-03T08:11:49Z</time>
      </trkpt>
      <trkpt lat="45.15225" lon="5.41022">
        <ele>733.6</ele>
        <time>2021-07-03T08:11:53Z</time>
      </trkpt>
      <trkpt lat="45.15222" lon="5.41014">
        <ele>733.6</ele>
        <time>2021-07-03T08:11:57Z</time>
      </trkpt>
      <trkpt lat="45.15219" lon="5.41007">
        <ele>734.8</ele>
        <time>2021-07-03T08:12:01Z</time>
      </trkpt>
      <trkpt lat="45.15213" lon="5.41006">
        <ele>735.8</ele>
        <time>2021-07-03T08:12:05Z</time>
      </trkpt>
      <trkpt lat="45.1521" lon="5.41008">
        <ele>736.6</ele>
        <time>2021-07-03T08:12:09Z</time>
      </trkpt>
      <trkpt lat="45.15206" lon="5.41013">
        <ele>737</ele>
        <time>2021-07-03T08:12:13Z</time>
      </trkpt>
      <trkpt lat="45.15205" lon="5.41019">
        <ele>737.2</ele>
        <time>2021-07-03T08:12:17Z</time>
      </trkpt>
      <trkpt lat="45.15203" lon="5.41026">
        <ele>738.4</ele>
        <time>2021-07-03T08:12:21Z</time>
      </trkpt>
      <trkpt lat="45.152" lon="5.4103">
        <ele>738.8</ele>
        <time>2021-07-03T08:12:25Z</time>
      </trkpt>
      <trkpt lat="45.15197" lon="5.41035">
        <ele>739.8</ele>
        <time>2021-07-03T08:12:29Z</time>
      </trkpt>
      <trkpt lat="45.15194" lon="5.41039">
        <ele>740.4</ele>
        <time>2021-07-03T08:12:33Z</time>
      </trkpt>
      <trkpt lat="45.1519" lon="5.41041">
        <ele>741.4</ele>
        <time>2021-07-03T08:12:37Z</time>
      </trkpt>
      <trkpt lat="45.15186" lon="5.41042">
        <ele>742.2</ele>
        <time>2021-07-03T08:12:41Z</time>
      </trkpt>
      <trkpt lat="45.15182" lon="5.41039">
        <ele>742.6</ele>
        <time>2021-07-03T08:12:45Z</time>
      </trkpt>
      <trkpt lat="45.15179" lon="5.41037">
        <ele>743.4</ele>
        <time>2021-07-03T08:12:49Z</time>
      </trkpt>
      <trkpt lat="45.15174" lon="5.41034">
        <ele>743.8</ele>
        <time>2021-07-03T08:12:53Z</time>
      </trkpt>
      <trkpt lat="45.15171" lon="5.41031">
        <ele>744.4</ele>
        <time>2021-07-03T08:12:57Z</time>
      </trkpt>
      <trkpt lat="45.15166" lon="5.4103">
        <ele>745.4</ele>
        <time>2021-07-03T08:13:01Z</time>
      </trkpt>
      <trkpt lat="45.15156" lon="5.41029">
        <ele>746.8</ele>
        <time>2021-07-03T08:13:43Z</time>
      </trkpt>
      <trkpt lat="45.15151" lon="5.41025">
        <ele>747.2</ele>
        <time>2021-07-03T08:13:47Z</time>
      </trkpt>
      <trkpt lat="45.15145" lon="5.41023">
        <ele>747.8</ele>
        <time>2021-07-03T08:13:51Z</time>
      </trkpt>
      <trkpt lat="45.1514" lon="5.41022">
        <ele>748</ele>
        <time>2021-07-03T08:13:55Z</time>
      </trkpt>
      <trkpt lat="45.15133" lon="5.4102">
        <ele>748.4</ele>
        <time>2021-07-03T08:13:59Z</time>
      </trkpt>
      <trkpt lat="45.15127" lon="5.41019">
        <ele>749</ele>
        <time>2021-07-03T08:14:03Z</time>
      </trkpt>
      <trkpt lat="45.1512" lon="5.41019">
        <ele>749.6</ele>
        <time>2021-07-03T08:14:07Z</time>
      </trkpt>
      <trkpt lat="45.15115" lon="5.41018">
        <ele>750.2</ele>
        <time>2021-07-03T08:14:11Z</time>
      </trkpt>
      <trkpt lat="45.1511" lon="5.41018">
        <ele>751.2</ele>
        <time>2021-07-03T08:14:15Z</time>
      </trkpt>
      <trkpt lat="45.15104" lon="5.41021">
        <ele>751.8</ele>
        <time>2021-07-03T08:14:19Z</time>
      </trkpt>
      <trkpt lat="45.15099" lon="5.41024">
        <ele>752</ele>
        <time>2021-07-03T08:14:23Z</time>
      </trkpt>
      <trkpt lat="45.15095" lon="5.41029">
        <ele>752.8</ele>
        <time>2021-07-03T08:14:27Z</time>
      </trkpt>
      <trkpt lat="45.15091" lon="5.41031">
        <ele>753.6</ele>
        <time>2021-07-03T08:14:31Z</time>
      </trkpt>
      <trkpt lat="45.15087" lon="5.41034">
        <ele>754.6</ele>
        <time>2021-07-03T08:14:35Z</time>
      </trkpt>
      <trkpt lat="45.15084" lon="5.41037">
        <ele>755.4</ele>
        <time>2021-07-03T08:14:39Z</time>
      </trkpt>
      <trkpt lat="45.15081" lon="5.4104">
        <ele>756.6</ele>
        <time>2021-07-03T08:14:43Z</time>
      </trkpt>
      <trkpt lat="45.15078" lon="5.41044">
        <ele>757</ele>
        <time>2021-07-03T08:14:47Z</time>
      </trkpt>
      <trkpt lat="45.15075" lon="5.41048">
        <ele>757.4</ele>
        <time>2021-07-03T08:14:51Z</time>
      </trkpt>
      <trkpt lat="45.1507" lon="5.41049">
        <ele>757</ele>
        <time>2021-07-03T08:14:55Z</time>
      </trkpt>
      <trkpt lat="45.15064" lon="5.41048">
        <ele>755.4</ele>
        <time>2021-07-03T08:14:59Z</time>
      </trkpt>
      <trkpt lat="45.15053" lon="5.4105">
        <ele>755.2</ele>
        <time>2021-07-03T08:15:03Z</time>
      </trkpt>
      <trkpt lat="45.15038" lon="5.41055">
        <ele>754.4</ele>
        <time>2021-07-03T08:15:07Z</time>
      </trkpt>
      <trkpt lat="45.15024" lon="5.41059">
        <ele>754.6</ele>
        <time>2021-07-03T08:15:11Z</time>
      </trkpt>
      <trkpt lat="45.15006" lon="5.41067">
        <ele>755.8</ele>
        <time>2021-07-03T08:15:15Z</time>
      </trkpt>
      <trkpt lat="45.14997" lon="5.41074">
        <ele>756</ele>
        <time>2021-07-03T08:15:19Z</time>
      </trkpt>
      <trkpt lat="45.14988" lon="5.41081">
        <ele>756.4</ele>
        <time>2021-07-03T08:15:23Z</time>
      </trkpt>
      <trkpt lat="45.1498" lon="5.41092">
        <ele>757.2</ele>
        <time>2021-07-03T08:15:27Z</time>
      </trkpt>
      <trkpt lat="45.14973" lon="5.41096">
        <ele>758</ele>
        <time>2021-07-03T08:15:31Z</time>
      </trkpt>
      <trkpt lat="45.14968" lon="5.411">
        <ele>758.8</ele>
        <time>2021-07-03T08:15:35Z</time>
      </trkpt>
      <trkpt lat="45.14963" lon="5.411">
        <ele>759</ele>
        <time>2021-07-03T08:15:39Z</time>
      </trkpt>
      <trkpt lat="45.14958" lon="5.41102">
        <ele>759</ele>
        <time>2021-07-03T08:15:43Z</time>
      </trkpt>
      <trkpt lat="45.14952" lon="5.41102">
        <ele>759.8</ele>
        <time>2021-07-03T08:15:47Z</time>
      </trkpt>
      <trkpt lat="45.14945" lon="5.41102">
        <ele>759.8</ele>
        <time>2021-07-03T08:15:51Z</time>
      </trkpt>
      <trkpt lat="45.14937" lon="5.41103">
        <ele>760.4</ele>
        <time>2021-07-03T08:15:55Z</time>
      </trkpt>
      <trkpt lat="45.1493" lon="5.41106">
        <ele>761</ele>
        <time>2021-07-03T08:15:59Z</time>
      </trkpt>
      <trkpt lat="45.14923" lon="5.41111">
        <ele>761.6</ele>
        <time>2021-07-03T08:16:03Z</time>
      </trkpt>
      <trkpt lat="45.14917" lon="5.41114">
        <ele>762</ele>
        <time>2021-07-03T08:16:07Z</time>
      </trkpt>
      <trkpt lat="45.14913" lon="5.41116">
        <ele>763</ele>
        <time>2021-07-03T08:16:11Z</time>
      </trkpt>
      <trkpt lat="45.14908" lon="5.41117">
        <ele>763.8</ele>
        <time>2021-07-03T08:16:15Z</time>
      </trkpt>
      <trkpt lat="45.14899" lon="5.41121">
        <ele>764.6</ele>
        <time>2021-07-03T08:16:19Z</time>
      </trkpt>
      <trkpt lat="45.14895" lon="5.41121">
        <ele>765</ele>
        <time>2021-07-03T08:16:23Z</time>
      </trkpt>
      <trkpt lat="45.14889" lon="5.4112">
        <ele>765.6</ele>
        <time>2021-07-03T08:16:27Z</time>
      </trkpt>
      <trkpt lat="45.14884" lon="5.41119">
        <ele>766.2</ele>
        <time>2021-07-03T08:16:31Z</time>
      </trkpt>
      <trkpt lat="45.14879" lon="5.41116">
        <ele>766.6</ele>
        <time>2021-07-03T08:16:35Z</time>
      </trkpt>
      <trkpt lat="45.14874" lon="5.41111">
        <ele>767.2</ele>
        <time>2021-07-03T08:16:39Z</time>
      </trkpt>
      <trkpt lat="45.14873" lon="5.41104">
        <ele>767.6</ele>
        <time>2021-07-03T08:16:43Z</time>
      </trkpt>
      <trkpt lat="45.14871" lon="5.411">
        <ele>768</ele>
        <time>2021-07-03T08:16:47Z</time>
      </trkpt>
      <trkpt lat="45.1487" lon="5.41092">
        <ele>768</ele>
        <time>2021-07-03T08:16:51Z</time>
      </trkpt>
      <trkpt lat="45.14871" lon="5.41086">
        <ele>768.6</ele>
        <time>2021-07-03T08:16:55Z</time>
      </trkpt>
      <trkpt lat="45.14872" lon="5.41078">
        <ele>769.4</ele>
        <time>2021-07-03T08:16:59Z</time>
      </trkpt>
      <trkpt lat="45.14871" lon="5.4107">
        <ele>768.8</ele>
        <time>2021-07-03T08:17:03Z</time>
      </trkpt>
      <trkpt lat="45.14874" lon="5.4106">
        <ele>769.2</ele>
        <time>2021-07-03T08:17:07Z</time>
      </trkpt>
      <trkpt lat="45.14873" lon="5.4105">
        <ele>770.2</ele>
        <time>2021-07-03T08:17:11Z</time>
      </trkpt>
      <trkpt lat="45.14874" lon="5.4104">
        <ele>770.6</ele>
        <time>2021-07-03T08:17:15Z</time>
      </trkpt>
      <trkpt lat="45.14874" lon="5.41028">
        <ele>771.4</ele>
        <time>2021-07-03T08:17:19Z</time>
      </trkpt>
      <trkpt lat="45.14874" lon="5.41014">
        <ele>771.4</ele>
        <time>2021-07-03T08:17:23Z</time>
      </trkpt>
      <trkpt lat="45.14876" lon="5.41">
        <ele>771.6</ele>
        <time>2021-07-03T08:17:27Z</time>
      </trkpt>
      <trkpt lat="45.14875" lon="5.40989">
        <ele>772.2</ele>
        <time>2021-07-03T08:17:31Z</time>
      </trkpt>
      <trkpt lat="45.14875" lon="5.40977">
        <ele>772.4</ele>
        <time>2021-07-03T08:17:35Z</time>
      </trkpt>
      <trkpt lat="45.14876" lon="5.40965">
        <ele>773.2</ele>
        <time>2021-07-03T08:17:39Z</time>
      </trkpt>
      <trkpt lat="45.14877" lon="5.40953">
        <ele>773.2</ele>
        <time>2021-07-03T08:17:43Z</time>
      </trkpt>
      <trkpt lat="45.14878" lon="5.40943">
        <ele>774.2</ele>
        <time>2021-07-03T08:17:47Z</time>
      </trkpt>
      <trkpt lat="45.14878" lon="5.40934">
        <ele>773.8</ele>
        <time>2021-07-03T08:17:51Z</time>
      </trkpt>
      <trkpt lat="45.14879" lon="5.40923">
        <ele>773.8</ele>
        <time>2021-07-03T08:17:55Z</time>
      </trkpt>
      <trkpt lat="45.1488" lon="5.40913">
        <ele>773.2</ele>
        <time>2021-07-03T08:17:59Z</time>
      </trkpt>
      <trkpt lat="45.14873" lon="5.40879">
        <ele>771.2</ele>
        <time>2021-07-03T08:18:46Z</time>
      </trkpt>
      <trkpt lat="45.14867" lon="5.40857">
        <ele>770</ele>
        <time>2021-07-03T08:18:50Z</time>
      </trkpt>
      <trkpt lat="45.14859" lon="5.40837">
        <ele>768.6</ele>
        <time>2021-07-03T08:18:54Z</time>
      </trkpt>
      <trkpt lat="45.14848" lon="5.40816">
        <ele>768.4</ele>
        <time>2021-07-03T08:18:58Z</time>
      </trkpt>
      <trkpt lat="45.14833" lon="5.40807">
        <ele>768.8</ele>
        <time>2021-07-03T08:19:02Z</time>
      </trkpt>
      <trkpt lat="45.14824" lon="5.40803">
        <ele>769.4</ele>
        <time>2021-07-03T08:19:06Z</time>
      </trkpt>
      <trkpt lat="45.14816" lon="5.40801">
        <ele>769.2</ele>
        <time>2021-07-03T08:19:10Z</time>
      </trkpt>
      <trkpt lat="45.14808" lon="5.40802">
        <ele>769.6</ele>
        <time>2021-07-03T08:19:14Z</time>
      </trkpt>
      <trkpt lat="45.14802" lon="5.40803">
        <ele>770.8</ele>
        <time>2021-07-03T08:19:18Z</time>
      </trkpt>
      <trkpt lat="45.14797" lon="5.40804">
        <ele>771.8</ele>
        <time>2021-07-03T08:19:22Z</time>
      </trkpt>
      <trkpt lat="45.14793" lon="5.40805">
        <ele>772</ele>
        <time>2021-07-03T08:19:26Z</time>
      </trkpt>
      <trkpt lat="45.14798" lon="5.40806">
        <ele>769.6</ele>
        <time>2021-07-03T08:21:39Z</time>
      </trkpt>
      <trkpt lat="45.14804" lon="5.40806">
        <ele>768.8</ele>
        <time>2021-07-03T08:21:43Z</time>
      </trkpt>
      <trkpt lat="45.14809" lon="5.40803">
        <ele>768.2</ele>
        <time>2021-07-03T08:21:47Z</time>
      </trkpt>
      <trkpt lat="45.14802" lon="5.40791">
        <ele>766.4</ele>
        <time>2021-07-03T08:22:08Z</time>
      </trkpt>
      <trkpt lat="45.14782" lon="5.40792">
        <ele>764.6</ele>
        <time>2021-07-03T08:22:12Z</time>
      </trkpt>
      <trkpt lat="45.14756" lon="5.40795">
        <ele>762.6</ele>
        <time>2021-07-03T08:22:16Z</time>
      </trkpt>
      <trkpt lat="45.14739" lon="5.40776">
        <ele>762.2</ele>
        <time>2021-07-03T08:22:20Z</time>
      </trkpt>
      <trkpt lat="45.14734" lon="5.40741">
        <ele>760.8</ele>
        <time>2021-07-03T08:22:24Z</time>
      </trkpt>
      <trkpt lat="45.14735" lon="5.40703">
        <ele>759.6</ele>
        <time>2021-07-03T08:22:28Z</time>
      </trkpt>
      <trkpt lat="45.14736" lon="5.40672">
        <ele>760</ele>
        <time>2021-07-03T08:22:32Z</time>
      </trkpt>
      <trkpt lat="45.14729" lon="5.40655">
        <ele>759.8</ele>
        <time>2021-07-03T08:22:36Z</time>
      </trkpt>
      <trkpt lat="45.14724" lon="5.40641">
        <ele>759.4</ele>
        <time>2021-07-03T08:22:40Z</time>
      </trkpt>
      <trkpt lat="45.14715" lon="5.40628">
        <ele>757.2</ele>
        <time>2021-07-03T08:22:44Z</time>
      </trkpt>
      <trkpt lat="45.14706" lon="5.40616">
        <ele>755.2</ele>
        <time>2021-07-03T08:22:48Z</time>
      </trkpt>
      <trkpt lat="45.14693" lon="5.40602">
        <ele>754.2</ele>
        <time>2021-07-03T08:22:52Z</time>
      </trkpt>
      <trkpt lat="45.14685" lon="5.40578">
        <ele>755.8</ele>
        <time>2021-07-03T08:22:56Z</time>
      </trkpt>
      <trkpt lat="45.14678" lon="5.40566">
        <ele>757.4</ele>
        <time>2021-07-03T08:23:00Z</time>
      </trkpt>
      <trkpt lat="45.1467" lon="5.40553">
        <ele>758.8</ele>
        <time>2021-07-03T08:23:04Z</time>
      </trkpt>
      <trkpt lat="45.14659" lon="5.40537">
        <ele>759.4</ele>
        <time>2021-07-03T08:23:08Z</time>
      </trkpt>
      <trkpt lat="45.1465" lon="5.40526">
        <ele>760.2</ele>
        <time>2021-07-03T08:23:12Z</time>
      </trkpt>
      <trkpt lat="45.14641" lon="5.40514">
        <ele>761</ele>
        <time>2021-07-03T08:23:16Z</time>
      </trkpt>
      <trkpt lat="45.14636" lon="5.40503">
        <ele>762</ele>
        <time>2021-07-03T08:23:20Z</time>
      </trkpt>
      <trkpt lat="45.14627" lon="5.40492">
        <ele>761.8</ele>
        <time>2021-07-03T08:23:24Z</time>
      </trkpt>
      <trkpt lat="45.1462" lon="5.40482">
        <ele>762</ele>
        <time>2021-07-03T08:23:28Z</time>
      </trkpt>
      <trkpt lat="45.14615" lon="5.40473">
        <ele>761.2</ele>
        <time>2021-07-03T08:23:32Z</time>
      </trkpt>
      <trkpt lat="45.14605" lon="5.40464">
        <ele>761.8</ele>
        <time>2021-07-03T08:23:36Z</time>
      </trkpt>
      <trkpt lat="45.14596" lon="5.40453">
        <ele>760.4</ele>
        <time>2021-07-03T08:23:40Z</time>
      </trkpt>
      <trkpt lat="45.14586" lon="5.40442">
        <ele>760.2</ele>
        <time>2021-07-03T08:23:44Z</time>
      </trkpt>
      <trkpt lat="45.1457" lon="5.40435">
        <ele>760.2</ele>
        <time>2021-07-03T08:23:48Z</time>
      </trkpt>
      <trkpt lat="45.14558" lon="5.40434">
        <ele>760.8</ele>
        <time>2021-07-03T08:23:52Z</time>
      </trkpt>
      <trkpt lat="45.14547" lon="5.4043">
        <ele>760.6</ele>
        <time>2021-07-03T08:23:56Z</time>
      </trkpt>
      <trkpt lat="45.14534" lon="5.40426">
        <ele>758.2</ele>
        <time>2021-07-03T08:24:00Z</time>
      </trkpt>
      <trkpt lat="45.14526" lon="5.40419">
        <ele>757</ele>
        <time>2021-07-03T08:24:04Z</time>
      </trkpt>
      <trkpt lat="45.14517" lon="5.40417">
        <ele>756.2</ele>
        <time>2021-07-03T08:24:08Z</time>
      </trkpt>
      <trkpt lat="45.145" lon="5.40435">
        <ele>758</ele>
        <time>2021-07-03T08:24:47Z</time>
      </trkpt>
      <trkpt lat="45.14497" lon="5.40443">
        <ele>759.4</ele>
        <time>2021-07-03T08:24:51Z</time>
      </trkpt>
      <trkpt lat="45.14495" lon="5.4045">
        <ele>759.2</ele>
        <time>2021-07-03T08:24:55Z</time>
      </trkpt>
      <trkpt lat="45.14492" lon="5.4046">
        <ele>759.2</ele>
        <time>2021-07-03T08:24:59Z</time>
      </trkpt>
      <trkpt lat="45.14488" lon="5.40469">
        <ele>759.4</ele>
        <time>2021-07-03T08:25:03Z</time>
      </trkpt>
      <trkpt lat="45.14483" lon="5.40478">
        <ele>758.2</ele>
        <time>2021-07-03T08:25:07Z</time>
      </trkpt>
      <trkpt lat="45.14478" lon="5.40491">
        <ele>757.4</ele>
        <time>2021-07-03T08:25:11Z</time>
      </trkpt>
      <trkpt lat="45.14469" lon="5.40506">
        <ele>757</ele>
        <time>2021-07-03T08:25:15Z</time>
      </trkpt>
      <trkpt lat="45.14465" lon="5.40525">
        <ele>756.4</ele>
        <time>2021-07-03T08:25:19Z</time>
      </trkpt>
      <trkpt lat="45.14463" lon="5.40536">
        <ele>755.8</ele>
        <time>2021-07-03T08:25:23Z</time>
      </trkpt>
      <trkpt lat="45.14457" lon="5.4055">
        <ele>757</ele>
        <time>2021-07-03T08:25:27Z</time>
      </trkpt>
      <trkpt lat="45.14441" lon="5.40565">
        <ele>757</ele>
        <time>2021-07-03T08:25:31Z</time>
      </trkpt>
      <trkpt lat="45.14435" lon="5.40568">
        <ele>758.2</ele>
        <time>2021-07-03T08:25:35Z</time>
      </trkpt>
      <trkpt lat="45.14427" lon="5.40572">
        <ele>758.4</ele>
        <time>2021-07-03T08:25:39Z</time>
      </trkpt>
      <trkpt lat="45.14423" lon="5.40566">
        <ele>759</ele>
        <time>2021-07-03T08:25:43Z</time>
      </trkpt>
      <trkpt lat="45.1442" lon="5.40562">
        <ele>760.2</ele>
        <time>2021-07-03T08:25:47Z</time>
      </trkpt>
      <trkpt lat="45.14404" lon="5.40516">
        <ele>763.2</ele>
        <time>2021-07-03T08:26:15Z</time>
      </trkpt>
      <trkpt lat="45.14399" lon="5.40506">
        <ele>763</ele>
        <time>2021-07-03T08:26:19Z</time>
      </trkpt>
      <trkpt lat="45.14393" lon="5.40499">
        <ele>762.4</ele>
        <time>2021-07-03T08:26:23Z</time>
      </trkpt>
      <trkpt lat="45.14388" lon="5.40492">
        <ele>764.4</ele>
        <time>2021-07-03T08:26:27Z</time>
      </trkpt>
      <trkpt lat="45.14383" lon="5.40487">
        <ele>764.4</ele>
        <time>2021-07-03T08:26:31Z</time>
      </trkpt>
      <trkpt lat="45.14379" lon="5.40481">
        <ele>765.4</ele>
        <time>2021-07-03T08:26:35Z</time>
      </trkpt>
      <trkpt lat="45.14374" lon="5.40472">
        <ele>765</ele>
        <time>2021-07-03T08:26:39Z</time>
      </trkpt>
      <trkpt lat="45.14368" lon="5.40463">
        <ele>765.6</ele>
        <time>2021-07-03T08:26:43Z</time>
      </trkpt>
      <trkpt lat="45.1436" lon="5.40452">
        <ele>766.2</ele>
        <time>2021-07-03T08:26:47Z</time>
      </trkpt>
      <trkpt lat="45.14358" lon="5.4044">
        <ele>765.4</ele>
        <time>2021-07-03T08:26:51Z</time>
      </trkpt>
      <trkpt lat="45.14352" lon="5.40424">
        <ele>764.2</ele>
        <time>2021-07-03T08:26:55Z</time>
      </trkpt>
      <trkpt lat="45.14347" lon="5.40411">
        <ele>763.8</ele>
        <time>2021-07-03T08:26:59Z</time>
      </trkpt>
      <trkpt lat="45.14339" lon="5.40398">
        <ele>763.8</ele>
        <time>2021-07-03T08:27:03Z</time>
      </trkpt>
      <trkpt lat="45.1433" lon="5.40389">
        <ele>763.6</ele>
        <time>2021-07-03T08:27:07Z</time>
      </trkpt>
      <trkpt lat="45.14319" lon="5.4038">
        <ele>764.6</ele>
        <time>2021-07-03T08:27:11Z</time>
      </trkpt>
      <trkpt lat="45.14311" lon="5.40373">
        <ele>765.2</ele>
        <time>2021-07-03T08:27:15Z</time>
      </trkpt>
      <trkpt lat="45.14304" lon="5.40366">
        <ele>764.6</ele>
        <time>2021-07-03T08:27:19Z</time>
      </trkpt>
      <trkpt lat="45.14297" lon="5.40363">
        <ele>765</ele>
        <time>2021-07-03T08:27:23Z</time>
      </trkpt>
      <trkpt lat="45.1429" lon="5.40356">
        <ele>766.2</ele>
        <time>2021-07-03T08:27:27Z</time>
      </trkpt>
      <trkpt lat="45.14285" lon="5.40352">
        <ele>766.6</ele>
        <time>2021-07-03T08:27:31Z</time>
      </trkpt>
      <trkpt lat="45.14282" lon="5.40348">
        <ele>766.6</ele>
        <time>2021-07-03T08:27:35Z</time>
      </trkpt>
      <trkpt lat="45.14274" lon="5.4034">
        <ele>767.4</ele>
        <time>2021-07-03T08:27:39Z</time>
      </trkpt>
      <trkpt lat="45.14266" lon="5.40336">
        <ele>768</ele>
        <time>2021-07-03T08:27:43Z</time>
      </trkpt>
      <trkpt lat="45.14258" lon="5.40335">
        <ele>768.8</ele>
        <time>2021-07-03T08:27:47Z</time>
      </trkpt>
      <trkpt lat="45.14253" lon="5.4033">
        <ele>769</ele>
        <time>2021-07-03T08:27:51Z</time>
      </trkpt>
      <trkpt lat="45.14248" lon="5.40328">
        <ele>770.6</ele>
        <time>2021-07-03T08:27:55Z</time>
      </trkpt>
      <trkpt lat="45.14244" lon="5.40328">
        <ele>771.4</ele>
        <time>2021-07-03T08:27:59Z</time>
      </trkpt>
      <trkpt lat="45.1424" lon="5.40328">
        <ele>771.4</ele>
        <time>2021-07-03T08:28:03Z</time>
      </trkpt>
      <trkpt lat="45.1424" lon="5.40328">
        <ele>772.2</ele>
        <time>2021-07-03T08:28:07Z</time>
      </trkpt>
      <trkpt lat="45.14235" lon="5.40325">
        <ele>772.2</ele>
        <time>2021-07-03T08:28:11Z</time>
      </trkpt>
      <trkpt lat="45.14231" lon="5.40324">
        <ele>773.2</ele>
        <time>2021-07-03T08:28:15Z</time>
      </trkpt>
      <trkpt lat="45.14227" lon="5.4032">
        <ele>774.4</ele>
        <time>2021-07-03T08:28:19Z</time>
      </trkpt>
      <trkpt lat="45.14222" lon="5.40321">
        <ele>774.6</ele>
        <time>2021-07-03T08:28:23Z</time>
      </trkpt>
      <trkpt lat="45.14218" lon="5.4032">
        <ele>775.6</ele>
        <time>2021-07-03T08:28:27Z</time>
      </trkpt>
      <trkpt lat="45.14214" lon="5.40319">
        <ele>776.8</ele>
        <time>2021-07-03T08:28:31Z</time>
      </trkpt>
      <trkpt lat="45.14209" lon="5.40319">
        <ele>776.6</ele>
        <time>2021-07-03T08:28:35Z</time>
      </trkpt>
      <trkpt lat="45.14206" lon="5.40316">
        <ele>777.4</ele>
        <time>2021-07-03T08:28:39Z</time>
      </trkpt>
      <trkpt lat="45.14201" lon="5.40316">
        <ele>777.8</ele>
        <time>2021-07-03T08:28:43Z</time>
      </trkpt>
      <trkpt lat="45.14197" lon="5.40313">
        <ele>778.2</ele>
        <time>2021-07-03T08:28:47Z</time>
      </trkpt>
      <trkpt lat="45.14192" lon="5.4031">
        <ele>778</ele>
        <time>2021-07-03T08:28:51Z</time>
      </trkpt>
      <trkpt lat="45.14186" lon="5.40306">
        <ele>778.4</ele>
        <time>2021-07-03T08:28:55Z</time>
      </trkpt>
      <trkpt lat="45.14181" lon="5.403">
        <ele>779</ele>
        <time>2021-07-03T08:28:59Z</time>
      </trkpt>
      <trkpt lat="45.14173" lon="5.40296">
        <ele>779.4</ele>
        <time>2021-07-03T08:29:03Z</time>
      </trkpt>
      <trkpt lat="45.14167" lon="5.40296">
        <ele>780.6</ele>
        <time>2021-07-03T08:29:07Z</time>
      </trkpt>
      <trkpt lat="45.14161" lon="5.40293">
        <ele>781.2</ele>
        <time>2021-07-03T08:29:11Z</time>
      </trkpt>
      <trkpt lat="45.14156" lon="5.40292">
        <ele>782</ele>
        <time>2021-07-03T08:29:15Z</time>
      </trkpt>
      <trkpt lat="45.14153" lon="5.4029">
        <ele>782</ele>
        <time>2021-07-03T08:29:19Z</time>
      </trkpt>
      <trkpt lat="45.14146" lon="5.40287">
        <ele>782.8</ele>
        <time>2021-07-03T08:29:23Z</time>
      </trkpt>
      <trkpt lat="45.14141" lon="5.40284">
        <ele>783.8</ele>
        <time>2021-07-03T08:29:27Z</time>
      </trkpt>
      <trkpt lat="45.14135" lon="5.40284">
        <ele>783.8</ele>
        <time>2021-07-03T08:29:31Z</time>
      </trkpt>
      <trkpt lat="45.14129" lon="5.40281">
        <ele>784.2</ele>
        <time>2021-07-03T08:29:35Z</time>
      </trkpt>
      <trkpt lat="45.14122" lon="5.40279">
        <ele>784.8</ele>
        <time>2021-07-03T08:29:39Z</time>
      </trkpt>
      <trkpt lat="45.14115" lon="5.40274">
        <ele>784.8</ele>
        <time>2021-07-03T08:29:43Z</time>
      </trkpt>
      <trkpt lat="45.14107" lon="5.40272">
        <ele>785.4</ele>
        <time>2021-07-03T08:29:47Z</time>
      </trkpt>
      <trkpt lat="45.14101" lon="5.40269">
        <ele>785.6</ele>
        <time>2021-07-03T08:29:51Z</time>
      </trkpt>
      <trkpt lat="45.14093" lon="5.40265">
        <ele>786.4</ele>
        <time>2021-07-03T08:29:55Z</time>
      </trkpt>
      <trkpt lat="45.14086" lon="5.40261">
        <ele>786.4</ele>
        <time>2021-07-03T08:29:59Z</time>
      </trkpt>
      <trkpt lat="45.1408" lon="5.40257">
        <ele>786.4</ele>
        <time>2021-07-03T08:30:03Z</time>
      </trkpt>
      <trkpt lat="45.14072" lon="5.40252">
        <ele>787</ele>
        <time>2021-07-03T08:30:07Z</time>
      </trkpt>
      <trkpt lat="45.14061" lon="5.40246">
        <ele>787.4</ele>
        <time>2021-07-03T08:30:11Z</time>
      </trkpt>
      <trkpt lat="45.14053" lon="5.40245">
        <ele>788.2</ele>
        <time>2021-07-03T08:30:15Z</time>
      </trkpt>
      <trkpt lat="45.14047" lon="5.40239">
        <ele>787.8</ele>
        <time>2021-07-03T08:30:19Z</time>
      </trkpt>
      <trkpt lat="45.14038" lon="5.40235">
        <ele>789.4</ele>
        <time>2021-07-03T08:30:23Z</time>
      </trkpt>
      <trkpt lat="45.14029" lon="5.4023">
        <ele>789.4</ele>
        <time>2021-07-03T08:30:27Z</time>
      </trkpt>
      <trkpt lat="45.1402" lon="5.40232">
        <ele>790.2</ele>
        <time>2021-07-03T08:30:31Z</time>
      </trkpt>
      <trkpt lat="45.14013" lon="5.40224">
        <ele>790.2</ele>
        <time>2021-07-03T08:30:35Z</time>
      </trkpt>
      <trkpt lat="45.14005" lon="5.4022">
        <ele>791.4</ele>
        <time>2021-07-03T08:30:39Z</time>
      </trkpt>
      <trkpt lat="45.13999" lon="5.40218">
        <ele>791.6</ele>
        <time>2021-07-03T08:30:43Z</time>
      </trkpt>
      <trkpt lat="45.13993" lon="5.40218">
        <ele>792.2</ele>
        <time>2021-07-03T08:30:47Z</time>
      </trkpt>
      <trkpt lat="45.13985" lon="5.40222">
        <ele>792</ele>
        <time>2021-07-03T08:30:51Z</time>
      </trkpt>
      <trkpt lat="45.13978" lon="5.40221">
        <ele>792.8</ele>
        <time>2021-07-03T08:30:55Z</time>
      </trkpt>
      <trkpt lat="45.13968" lon="5.40224">
        <ele>793.6</ele>
        <time>2021-07-03T08:30:59Z</time>
      </trkpt>
      <trkpt lat="45.13962" lon="5.4022">
        <ele>793.6</ele>
        <time>2021-07-03T08:31:03Z</time>
      </trkpt>
      <trkpt lat="45.13956" lon="5.40215">
        <ele>794.6</ele>
        <time>2021-07-03T08:31:07Z</time>
      </trkpt>
      <trkpt lat="45.1395" lon="5.40209">
        <ele>795</ele>
        <time>2021-07-03T08:31:11Z</time>
      </trkpt>
      <trkpt lat="45.13947" lon="5.40204">
        <ele>796.4</ele>
        <time>2021-07-03T08:31:15Z</time>
      </trkpt>
      <trkpt lat="45.1394" lon="5.40197">
        <ele>796.2</ele>
        <time>2021-07-03T08:31:19Z</time>
      </trkpt>
      <trkpt lat="45.13935" lon="5.40186">
        <ele>796.4</ele>
        <time>2021-07-03T08:31:23Z</time>
      </trkpt>
      <trkpt lat="45.1393" lon="5.40182">
        <ele>796</ele>
        <time>2021-07-03T08:31:27Z</time>
      </trkpt>
      <trkpt lat="45.13925" lon="5.40175">
        <ele>796.6</ele>
        <time>2021-07-03T08:31:31Z</time>
      </trkpt>
      <trkpt lat="45.13919" lon="5.40164">
        <ele>797.6</ele>
        <time>2021-07-03T08:31:35Z</time>
      </trkpt>
      <trkpt lat="45.13914" lon="5.40157">
        <ele>798</ele>
        <time>2021-07-03T08:31:39Z</time>
      </trkpt>
      <trkpt lat="45.13909" lon="5.40151">
        <ele>799</ele>
        <time>2021-07-03T08:31:43Z</time>
      </trkpt>
      <trkpt lat="45.13905" lon="5.40144">
        <ele>799.8</ele>
        <time>2021-07-03T08:31:47Z</time>
      </trkpt>
      <trkpt lat="45.13865" lon="5.40081">
        <ele>808</ele>
        <time>2021-07-03T08:32:34Z</time>
      </trkpt>
      <trkpt lat="45.1386" lon="5.40074">
        <ele>807.8</ele>
        <time>2021-07-03T08:32:38Z</time>
      </trkpt>
      <trkpt lat="45.13856" lon="5.40069">
        <ele>807.6</ele>
        <time>2021-07-03T08:32:42Z</time>
      </trkpt>
      <trkpt lat="45.1385" lon="5.40061">
        <ele>808.4</ele>
        <time>2021-07-03T08:32:46Z</time>
      </trkpt>
      <trkpt lat="45.13846" lon="5.40056">
        <ele>809.4</ele>
        <time>2021-07-03T08:32:50Z</time>
      </trkpt>
      <trkpt lat="45.13842" lon="5.40051">
        <ele>809.4</ele>
        <time>2021-07-03T08:32:54Z</time>
      </trkpt>
      <trkpt lat="45.13838" lon="5.40044">
        <ele>809.6</ele>
        <time>2021-07-03T08:32:58Z</time>
      </trkpt>
      <trkpt lat="45.13832" lon="5.40037">
        <ele>809.8</ele>
        <time>2021-07-03T08:33:02Z</time>
      </trkpt>
      <trkpt lat="45.13827" lon="5.4003">
        <ele>810.6</ele>
        <time>2021-07-03T08:33:06Z</time>
      </trkpt>
      <trkpt lat="45.13821" lon="5.40023">
        <ele>811.4</ele>
        <time>2021-07-03T08:33:10Z</time>
      </trkpt>
      <trkpt lat="45.13817" lon="5.40017">
        <ele>811.8</ele>
        <time>2021-07-03T08:33:14Z</time>
      </trkpt>
      <trkpt lat="45.13811" lon="5.40013">
        <ele>812.4</ele>
        <time>2021-07-03T08:33:18Z</time>
      </trkpt>
      <trkpt lat="45.13806" lon="5.40009">
        <ele>812.8</ele>
        <time>2021-07-03T08:33:22Z</time>
      </trkpt>
      <trkpt lat="45.13801" lon="5.40003">
        <ele>813.4</ele>
        <time>2021-07-03T08:33:26Z</time>
      </trkpt>
      <trkpt lat="45.13796" lon="5.4">
        <ele>814.4</ele>
        <time>2021-07-03T08:33:30Z</time>
      </trkpt>
      <trkpt lat="45.13791" lon="5.39995">
        <ele>815.6</ele>
        <time>2021-07-03T08:33:34Z</time>
      </trkpt>
      <trkpt lat="45.13786" lon="5.39993">
        <ele>815.4</ele>
        <time>2021-07-03T08:33:38Z</time>
      </trkpt>
      <trkpt lat="45.13781" lon="5.3999">
        <ele>816.4</ele>
        <time>2021-07-03T08:33:42Z</time>
      </trkpt>
      <trkpt lat="45.13778" lon="5.39986">
        <ele>816.4</ele>
        <time>2021-07-03T08:33:46Z</time>
      </trkpt>
      <trkpt lat="45.13774" lon="5.3998">
        <ele>816.8</ele>
        <time>2021-07-03T08:33:50Z</time>
      </trkpt>
      <trkpt lat="45.13768" lon="5.39971">
        <ele>816.6</ele>
        <time>2021-07-03T08:33:54Z</time>
      </trkpt>
      <trkpt lat="45.13763" lon="5.39964">
        <ele>817.2</ele>
        <time>2021-07-03T08:33:58Z</time>
      </trkpt>
      <trkpt lat="45.13758" lon="5.39957">
        <ele>818.2</ele>
        <time>2021-07-03T08:34:02Z</time>
      </trkpt>
      <trkpt lat="45.13751" lon="5.39951">
        <ele>817.8</ele>
        <time>2021-07-03T08:34:06Z</time>
      </trkpt>
      <trkpt lat="45.13744" lon="5.39945">
        <ele>817.6</ele>
        <time>2021-07-03T08:34:10Z</time>
      </trkpt>
      <trkpt lat="45.13737" lon="5.39941">
        <ele>819</ele>
        <time>2021-07-03T08:34:14Z</time>
      </trkpt>
      <trkpt lat="45.1373" lon="5.39936">
        <ele>819.2</ele>
        <time>2021-07-03T08:34:18Z</time>
      </trkpt>
      <trkpt lat="45.13724" lon="5.39932">
        <ele>820</ele>
        <time>2021-07-03T08:34:22Z</time>
      </trkpt>
      <trkpt lat="45.13717" lon="5.39927">
        <ele>820.4</ele>
        <time>2021-07-03T08:34:26Z</time>
      </trkpt>
      <trkpt lat="45.13712" lon="5.39923">
        <ele>821</ele>
        <time>2021-07-03T08:34:30Z</time>
      </trkpt>
      <trkpt lat="45.13704" lon="5.39921">
        <ele>821</ele>
        <time>2021-07-03T08:34:34Z</time>
      </trkpt>
      <trkpt lat="45.13698" lon="5.39915">
        <ele>821.4</ele>
        <time>2021-07-03T08:34:38Z</time>
      </trkpt>
      <trkpt lat="45.13689" lon="5.39911">
        <ele>821.4</ele>
        <time>2021-07-03T08:34:42Z</time>
      </trkpt>
      <trkpt lat="45.13681" lon="5.39908">
        <ele>820.8</ele>
        <time>2021-07-03T08:34:46Z</time>
      </trkpt>
      <trkpt lat="45.13671" lon="5.39901">
        <ele>820.6</ele>
        <time>2021-07-03T08:34:50Z</time>
      </trkpt>
      <trkpt lat="45.13663" lon="5.39896">
        <ele>821.4</ele>
        <time>2021-07-03T08:34:54Z</time>
      </trkpt>
      <trkpt lat="45.13655" lon="5.39886">
        <ele>821.2</ele>
        <time>2021-07-03T08:34:58Z</time>
      </trkpt>
      <trkpt lat="45.13647" lon="5.3987">
        <ele>821.6</ele>
        <time>2021-07-03T08:35:02Z</time>
      </trkpt>
      <trkpt lat="45.13639" lon="5.3986">
        <ele>821.8</ele>
        <time>2021-07-03T08:35:06Z</time>
      </trkpt>
      <trkpt lat="45.13632" lon="5.39846">
        <ele>818.6</ele>
        <time>2021-07-03T08:35:10Z</time>
      </trkpt>
      <trkpt lat="45.13617" lon="5.39828">
        <ele>818.6</ele>
        <time>2021-07-03T08:35:14Z</time>
      </trkpt>
      <trkpt lat="45.13602" lon="5.39811">
        <ele>819.2</ele>
        <time>2021-07-03T08:35:18Z</time>
      </trkpt>
      <trkpt lat="45.13591" lon="5.39793">
        <ele>819.6</ele>
        <time>2021-07-03T08:35:22Z</time>
      </trkpt>
      <trkpt lat="45.13583" lon="5.39781">
        <ele>820.6</ele>
        <time>2021-07-03T08:35:26Z</time>
      </trkpt>
      <trkpt lat="45.13577" lon="5.39773">
        <ele>821.6</ele>
        <time>2021-07-03T08:35:30Z</time>
      </trkpt>
      <trkpt lat="45.13569" lon="5.39762">
        <ele>821.8</ele>
        <time>2021-07-03T08:35:34Z</time>
      </trkpt>
      <trkpt lat="45.13563" lon="5.39755">
        <ele>822.6</ele>
        <time>2021-07-03T08:35:38Z</time>
      </trkpt>
      <trkpt lat="45.13556" lon="5.39749">
        <ele>823</ele>
        <time>2021-07-03T08:35:42Z</time>
      </trkpt>
      <trkpt lat="45.13551" lon="5.39744">
        <ele>824</ele>
        <time>2021-07-03T08:35:46Z</time>
      </trkpt>
      <trkpt lat="45.13546" lon="5.39741">
        <ele>824.2</ele>
        <time>2021-07-03T08:35:50Z</time>
      </trkpt>
      <trkpt lat="45.13542" lon="5.39738">
        <ele>824.6</ele>
        <time>2021-07-03T08:35:54Z</time>
      </trkpt>
      <trkpt lat="45.13253" lon="5.39627">
        <ele>866.2</ele>
        <time>2021-07-03T08:40:51Z</time>
      </trkpt>
      <trkpt lat="45.13248" lon="5.39623">
        <ele>867</ele>
        <time>2021-07-03T08:40:55Z</time>
      </trkpt>
      <trkpt lat="45.13243" lon="5.3962">
        <ele>867.2</ele>
        <time>2021-07-03T08:40:59Z</time>
      </trkpt>
      <trkpt lat="45.13238" lon="5.39618">
        <ele>868</ele>
        <time>2021-07-03T08:41:03Z</time>
      </trkpt>
      <trkpt lat="45.13232" lon="5.39618">
        <ele>868.4</ele>
        <time>2021-07-03T08:41:07Z</time>
      </trkpt>
      <trkpt lat="45.13227" lon="5.39618">
        <ele>869.4</ele>
        <time>2021-07-03T08:41:11Z</time>
      </trkpt>
      <trkpt lat="45.13222" lon="5.3962">
        <ele>870.2</ele>
        <time>2021-07-03T08:41:15Z</time>
      </trkpt>
      <trkpt lat="45.13217" lon="5.39624">
        <ele>869.6</ele>
        <time>2021-07-03T08:41:19Z</time>
      </trkpt>
      <trkpt lat="45.13213" lon="5.39629">
        <ele>869.8</ele>
        <time>2021-07-03T08:41:23Z</time>
      </trkpt>
      <trkpt lat="45.13209" lon="5.39634">
        <ele>871.6</ele>
        <time>2021-07-03T08:41:27Z</time>
      </trkpt>
      <trkpt lat="45.13206" lon="5.3964">
        <ele>872.2</ele>
        <time>2021-07-03T08:41:31Z</time>
      </trkpt>
      <trkpt lat="45.13204" lon="5.39647">
        <ele>873.2</ele>
        <time>2021-07-03T08:41:35Z</time>
      </trkpt>
      <trkpt lat="45.13203" lon="5.39654">
        <ele>873.2</ele>
        <time>2021-07-03T08:41:39Z</time>
      </trkpt>
      <trkpt lat="45.13202" lon="5.39661">
        <ele>873.8</ele>
        <time>2021-07-03T08:41:43Z</time>
      </trkpt>
      <trkpt lat="45.13201" lon="5.39667">
        <ele>874.6</ele>
        <time>2021-07-03T08:41:47Z</time>
      </trkpt>
      <trkpt lat="45.132" lon="5.39673">
        <ele>875.4</ele>
        <time>2021-07-03T08:41:51Z</time>
      </trkpt>
      <trkpt lat="45.13198" lon="5.39679">
        <ele>875.4</ele>
        <time>2021-07-03T08:41:55Z</time>
      </trkpt>
      <trkpt lat="45.13198" lon="5.39686">
        <ele>876</ele>
        <time>2021-07-03T08:41:59Z</time>
      </trkpt>
      <trkpt lat="45.13197" lon="5.39692">
        <ele>877</ele>
        <time>2021-07-03T08:42:03Z</time>
      </trkpt>
      <trkpt lat="45.13197" lon="5.39698">
        <ele>877.6</ele>
        <time>2021-07-03T08:42:07Z</time>
      </trkpt>
      <trkpt lat="45.13196" lon="5.39705">
        <ele>878</ele>
        <time>2021-07-03T08:42:11Z</time>
      </trkpt>
      <trkpt lat="45.13196" lon="5.39711">
        <ele>877.4</ele>
        <time>2021-07-03T08:42:15Z</time>
      </trkpt>
      <trkpt lat="45.13196" lon="5.39717">
        <ele>878.8</ele>
        <time>2021-07-03T08:42:19Z</time>
      </trkpt>
      <trkpt lat="45.13196" lon="5.39723">
        <ele>878.4</ele>
        <time>2021-07-03T08:42:23Z</time>
      </trkpt>
      <trkpt lat="45.13188" lon="5.39739">
        <ele>880.4</ele>
        <time>2021-07-03T08:42:53Z</time>
      </trkpt>
      <trkpt lat="45.13184" lon="5.39741">
        <ele>880.8</ele>
        <time>2021-07-03T08:42:57Z</time>
      </trkpt>
      <trkpt lat="45.13178" lon="5.39742">
        <ele>881.8</ele>
        <time>2021-07-03T08:43:01Z</time>
      </trkpt>
      <trkpt lat="45.13173" lon="5.3974">
        <ele>881.8</ele>
        <time>2021-07-03T08:43:05Z</time>
      </trkpt>
      <trkpt lat="45.13167" lon="5.39739">
        <ele>882.6</ele>
        <time>2021-07-03T08:43:09Z</time>
      </trkpt>
      <trkpt lat="45.13163" lon="5.39738">
        <ele>883.6</ele>
        <time>2021-07-03T08:43:13Z</time>
      </trkpt>
      <trkpt lat="45.13158" lon="5.39739">
        <ele>883.8</ele>
        <time>2021-07-03T08:43:17Z</time>
      </trkpt>
      <trkpt lat="45.13154" lon="5.39739">
        <ele>884.4</ele>
        <time>2021-07-03T08:43:21Z</time>
      </trkpt>
      <trkpt lat="45.13149" lon="5.39739">
        <ele>884.6</ele>
        <time>2021-07-03T08:43:25Z</time>
      </trkpt>
      <trkpt lat="45.13145" lon="5.3974">
        <ele>885.8</ele>
        <time>2021-07-03T08:43:29Z</time>
      </trkpt>
      <trkpt lat="45.1314" lon="5.3974">
        <ele>885.8</ele>
        <time>2021-07-03T08:43:33Z</time>
      </trkpt>
      <trkpt lat="45.13136" lon="5.39739">
        <ele>886.6</ele>
        <time>2021-07-03T08:43:37Z</time>
      </trkpt>
      <trkpt lat="45.13132" lon="5.39739">
        <ele>886.8</ele>
        <time>2021-07-03T08:43:41Z</time>
      </trkpt>
      <trkpt lat="45.13127" lon="5.39738">
        <ele>887.4</ele>
        <time>2021-07-03T08:43:45Z</time>
      </trkpt>
      <trkpt lat="45.13122" lon="5.39738">
        <ele>888.2</ele>
        <time>2021-07-03T08:43:49Z</time>
      </trkpt>
      <trkpt lat="45.13117" lon="5.39738">
        <ele>888.6</ele>
        <time>2021-07-03T08:43:53Z</time>
      </trkpt>
      <trkpt lat="45.13113" lon="5.39738">
        <ele>889.6</ele>
        <time>2021-07-03T08:43:57Z</time>
      </trkpt>
      <trkpt lat="45.13109" lon="5.39739">
        <ele>890.2</ele>
        <time>2021-07-03T08:44:01Z</time>
      </trkpt>
      <trkpt lat="45.13104" lon="5.39739">
        <ele>890.6</ele>
        <time>2021-07-03T08:44:05Z</time>
      </trkpt>
      <trkpt lat="45.131" lon="5.39738">
        <ele>891.2</ele>
        <time>2021-07-03T08:44:09Z</time>
      </trkpt>
      <trkpt lat="45.13095" lon="5.39737">
        <ele>891.6</ele>
        <time>2021-07-03T08:44:13Z</time>
      </trkpt>
      <trkpt lat="45.13091" lon="5.39736">
        <ele>893.2</ele>
        <time>2021-07-03T08:44:17Z</time>
      </trkpt>
      <trkpt lat="45.13087" lon="5.39736">
        <ele>893.2</ele>
        <time>2021-07-03T08:44:21Z</time>
      </trkpt>
      <trkpt lat="45.13082" lon="5.39735">
        <ele>893.8</ele>
        <time>2021-07-03T08:44:25Z</time>
      </trkpt>
      <trkpt lat="45.13077" lon="5.39736">
        <ele>893.8</ele>
        <time>2021-07-03T08:44:29Z</time>
      </trkpt>
      <trkpt lat="45.13071" lon="5.39734">
        <ele>894.2</ele>
        <time>2021-07-03T08:44:33Z</time>
      </trkpt>
      <trkpt lat="45.13066" lon="5.39735">
        <ele>895</ele>
        <time>2021-07-03T08:44:37Z</time>
      </trkpt>
      <trkpt lat="45.13061" lon="5.39736">
        <ele>894.8</ele>
        <time>2021-07-03T08:44:41Z</time>
      </trkpt>
      <trkpt lat="45.13055" lon="5.39738">
        <ele>896.2</ele>
        <time>2021-07-03T08:44:45Z</time>
      </trkpt>
      <trkpt lat="45.1305" lon="5.3974">
        <ele>896.2</ele>
        <time>2021-07-03T08:44:49Z</time>
      </trkpt>
      <trkpt lat="45.13047" lon="5.39741">
        <ele>896.8</ele>
        <time>2021-07-03T08:44:53Z</time>
      </trkpt>
      <trkpt lat="45.13042" lon="5.39743">
        <ele>896.6</ele>
        <time>2021-07-03T08:44:57Z</time>
      </trkpt>
      <trkpt lat="45.13038" lon="5.39745">
        <ele>897.6</ele>
        <time>2021-07-03T08:45:01Z</time>
      </trkpt>
      <trkpt lat="45.13034" lon="5.39748">
        <ele>898.4</ele>
        <time>2021-07-03T08:45:05Z</time>
      </trkpt>
      <trkpt lat="45.13031" lon="5.3975">
        <ele>898.2</ele>
        <time>2021-07-03T08:45:09Z</time>
      </trkpt>
      <trkpt lat="45.13029" lon="5.39754">
        <ele>898.6</ele>
        <time>2021-07-03T08:45:13Z</time>
      </trkpt>
      <trkpt lat="45.13019" lon="5.39765">
        <ele>900.2</ele>
        <time>2021-07-03T08:45:40Z</time>
      </trkpt>
      <trkpt lat="45.13016" lon="5.3977">
        <ele>900.6</ele>
        <time>2021-07-03T08:45:44Z</time>
      </trkpt>
      <trkpt lat="45.13012" lon="5.39775">
        <ele>901</ele>
        <time>2021-07-03T08:45:48Z</time>
      </trkpt>
      <trkpt lat="45.1301" lon="5.39779">
        <ele>901.8</ele>
        <time>2021-07-03T08:45:52Z</time>
      </trkpt>
      <trkpt lat="45.13006" lon="5.39785">
        <ele>901.6</ele>
        <time>2021-07-03T08:45:56Z</time>
      </trkpt>
      <trkpt lat="45.13003" lon="5.39791">
        <ele>902.2</ele>
        <time>2021-07-03T08:46:00Z</time>
      </trkpt>
      <trkpt lat="45.13" lon="5.39796">
        <ele>902.6</ele>
        <time>2021-07-03T08:46:04Z</time>
      </trkpt>
      <trkpt lat="45.12999" lon="5.39802">
        <ele>903</ele>
        <time>2021-07-03T08:46:08Z</time>
      </trkpt>
      <trkpt lat="45.12995" lon="5.39811">
        <ele>903.4</ele>
        <time>2021-07-03T08:46:12Z</time>
      </trkpt>
      <trkpt lat="45.12992" lon="5.39817">
        <ele>904.2</ele>
        <time>2021-07-03T08:46:16Z</time>
      </trkpt>
      <trkpt lat="45.12991" lon="5.39824">
        <ele>904</ele>
        <time>2021-07-03T08:46:20Z</time>
      </trkpt>
      <trkpt lat="45.12992" lon="5.39833">
        <ele>904.2</ele>
        <time>2021-07-03T08:46:24Z</time>
      </trkpt>
      <trkpt lat="45.12994" lon="5.39841">
        <ele>903.4</ele>
        <time>2021-07-03T08:46:28Z</time>
      </trkpt>
      <trkpt lat="45.12996" lon="5.39853">
        <ele>903.2</ele>
        <time>2021-07-03T08:46:32Z</time>
      </trkpt>
      <trkpt lat="45.12998" lon="5.39862">
        <ele>903.4</ele>
        <time>2021-07-03T08:46:36Z</time>
      </trkpt>
      <trkpt lat="45.12999" lon="5.39872">
        <ele>903</ele>
        <time>2021-07-03T08:46:40Z</time>
      </trkpt>
      <trkpt lat="45.12995" lon="5.39875">
        <ele>902</ele>
        <time>2021-07-03T08:46:44Z</time>
      </trkpt>
      <trkpt lat="45.12986" lon="5.39876">
        <ele>903.2</ele>
        <time>2021-07-03T08:46:48Z</time>
      </trkpt>
      <trkpt lat="45.12979" lon="5.39876">
        <ele>903</ele>
        <time>2021-07-03T08:46:52Z</time>
      </trkpt>
      <trkpt lat="45.12972" lon="5.39875">
        <ele>902.8</ele>
        <time>2021-07-03T08:46:56Z</time>
      </trkpt>
      <trkpt lat="45.12965" lon="5.39872">
        <ele>903</ele>
        <time>2021-07-03T08:47:00Z</time>
      </trkpt>
      <trkpt lat="45.1296" lon="5.39868">
        <ele>904.4</ele>
        <time>2021-07-03T08:47:04Z</time>
      </trkpt>
      <trkpt lat="45.12955" lon="5.39865">
        <ele>904.6</ele>
        <time>2021-07-03T08:47:08Z</time>
      </trkpt>
      <trkpt lat="45.1295" lon="5.39857">
        <ele>904.8</ele>
        <time>2021-07-03T08:47:12Z</time>
      </trkpt>
      <trkpt lat="45.12946" lon="5.39848">
        <ele>905</ele>
        <time>2021-07-03T08:47:16Z</time>
      </trkpt>
      <trkpt lat="45.12942" lon="5.39841">
        <ele>905</ele>
        <time>2021-07-03T08:47:20Z</time>
      </trkpt>
      <trkpt lat="45.12939" lon="5.3983">
        <ele>904.8</ele>
        <time>2021-07-03T08:47:24Z</time>
      </trkpt>
      <trkpt lat="45.12936" lon="5.3982">
        <ele>905</ele>
        <time>2021-07-03T08:47:28Z</time>
      </trkpt>
      <trkpt lat="45.12934" lon="5.39807">
        <ele>904</ele>
        <time>2021-07-03T08:47:32Z</time>
      </trkpt>
      <trkpt lat="45.12926" lon="5.39796">
        <ele>905</ele>
        <time>2021-07-03T08:47:36Z</time>
      </trkpt>
      <trkpt lat="45.12921" lon="5.39781">
        <ele>903.8</ele>
        <time>2021-07-03T08:47:40Z</time>
      </trkpt>
      <trkpt lat="45.12916" lon="5.39756">
        <ele>904.6</ele>
        <time>2021-07-03T08:47:44Z</time>
      </trkpt>
      <trkpt lat="45.12914" lon="5.3974">
        <ele>906.8</ele>
        <time>2021-07-03T08:47:48Z</time>
      </trkpt>
      <trkpt lat="45.1291" lon="5.39725">
        <ele>906</ele>
        <time>2021-07-03T08:47:52Z</time>
      </trkpt>
      <trkpt lat="45.12905" lon="5.39708">
        <ele>906.8</ele>
        <time>2021-07-03T08:47:56Z</time>
      </trkpt>
      <trkpt lat="45.12902" lon="5.39695">
        <ele>907.4</ele>
        <time>2021-07-03T08:48:00Z</time>
      </trkpt>
      <trkpt lat="45.129" lon="5.39688">
        <ele>907.8</ele>
        <time>2021-07-03T08:48:04Z</time>
      </trkpt>
      <trkpt lat="45.12899" lon="5.39678">
        <ele>908.8</ele>
        <time>2021-07-03T08:48:08Z</time>
      </trkpt>
      <trkpt lat="45.12896" lon="5.39671">
        <ele>909.8</ele>
        <time>2021-07-03T08:48:12Z</time>
      </trkpt>
      <trkpt lat="45.12892" lon="5.39663">
        <ele>910</ele>
        <time>2021-07-03T08:48:16Z</time>
      </trkpt>
      <trkpt lat="45.12887" lon="5.39655">
        <ele>910.2</ele>
        <time>2021-07-03T08:48:20Z</time>
      </trkpt>
      <trkpt lat="45.1288" lon="5.39648">
        <ele>910.2</ele>
        <time>2021-07-03T08:48:24Z</time>
      </trkpt>
      <trkpt lat="45.12874" lon="5.39641">
        <ele>911.6</ele>
        <time>2021-07-03T08:48:28Z</time>
      </trkpt>
      <trkpt lat="45.12838" lon="5.39961">
        <ele>955.2</ele>
        <time>2021-07-03T08:54:09Z</time>
      </trkpt>
      <trkpt lat="45.12839" lon="5.39974">
        <ele>955</ele>
        <time>2021-07-03T08:54:13Z</time>
      </trkpt>
      <trkpt lat="45.1284" lon="5.39993">
        <ele>952.6</ele>
        <time>2021-07-03T08:54:17Z</time>
      </trkpt>
      <trkpt lat="45.12841" lon="5.40016">
        <ele>950.8</ele>
        <time>2021-07-03T08:54:21Z</time>
      </trkpt>
      <trkpt lat="45.12838" lon="5.40037">
        <ele>950.6</ele>
        <time>2021-07-03T08:54:25Z</time>
      </trkpt>
      <trkpt lat="45.12833" lon="5.40058">
        <ele>950.8</ele>
        <time>2021-07-03T08:54:29Z</time>
      </trkpt>
      <trkpt lat="45.1283" lon="5.40073">
        <ele>952.2</ele>
        <time>2021-07-03T08:54:33Z</time>
      </trkpt>
      <trkpt lat="45.12826" lon="5.40087">
        <ele>952.6</ele>
        <time>2021-07-03T08:54:37Z</time>
      </trkpt>
      <trkpt lat="45.12823" lon="5.40101">
        <ele>952.2</ele>
        <time>2021-07-03T08:54:41Z</time>
      </trkpt>
      <trkpt lat="45.1282" lon="5.40115">
        <ele>953</ele>
        <time>2021-07-03T08:54:45Z</time>
      </trkpt>
      <trkpt lat="45.12816" lon="5.40129">
        <ele>953</ele>
        <time>2021-07-03T08:54:49Z</time>
      </trkpt>
      <trkpt lat="45.12811" lon="5.40143">
        <ele>952.8</ele>
        <time>2021-07-03T08:54:53Z</time>
      </trkpt>
      <trkpt lat="45.12806" lon="5.40156">
        <ele>953.4</ele>
        <time>2021-07-03T08:54:57Z</time>
      </trkpt>
      <trkpt lat="45.12802" lon="5.40163">
        <ele>952.8</ele>
        <time>2021-07-03T08:55:01Z</time>
      </trkpt>
      <trkpt lat="45.12798" lon="5.40168">
        <ele>954.4</ele>
        <time>2021-07-03T08:55:05Z</time>
      </trkpt>
      <trkpt lat="45.12791" lon="5.40173">
        <ele>954</ele>
        <time>2021-07-03T08:55:09Z</time>
      </trkpt>
      <trkpt lat="45.12784" lon="5.40178">
        <ele>955.4</ele>
        <time>2021-07-03T08:55:13Z</time>
      </trkpt>
      <trkpt lat="45.12776" lon="5.40185">
        <ele>955.8</ele>
        <time>2021-07-03T08:55:17Z</time>
      </trkpt>
      <trkpt lat="45.12767" lon="5.40193">
        <ele>956.8</ele>
        <time>2021-07-03T08:55:21Z</time>
      </trkpt>
      <trkpt lat="45.1276" lon="5.40199">
        <ele>957.4</ele>
        <time>2021-07-03T08:55:25Z</time>
      </trkpt>
      <trkpt lat="45.12752" lon="5.40204">
        <ele>956.6</ele>
        <time>2021-07-03T08:55:29Z</time>
      </trkpt>
      <trkpt lat="45.12744" lon="5.40209">
        <ele>957.6</ele>
        <time>2021-07-03T08:55:33Z</time>
      </trkpt>
      <trkpt lat="45.12737" lon="5.40213">
        <ele>958.2</ele>
        <time>2021-07-03T08:55:37Z</time>
      </trkpt>
      <trkpt lat="45.12729" lon="5.40215">
        <ele>958.8</ele>
        <time>2021-07-03T08:55:41Z</time>
      </trkpt>
      <trkpt lat="45.12722" lon="5.40217">
        <ele>959</ele>
        <time>2021-07-03T08:55:45Z</time>
      </trkpt>
      <trkpt lat="45.12714" lon="5.40217">
        <ele>959.4</ele>
        <time>2021-07-03T08:55:49Z</time>
      </trkpt>
      <trkpt lat="45.12706" lon="5.40218">
        <ele>960.4</ele>
        <time>2021-07-03T08:55:53Z</time>
      </trkpt>
      <trkpt lat="45.12699" lon="5.40219">
        <ele>960.6</ele>
        <time>2021-07-03T08:55:57Z</time>
      </trkpt>
      <trkpt lat="45.12691" lon="5.40217">
        <ele>961.4</ele>
        <time>2021-07-03T08:56:01Z</time>
      </trkpt>
      <trkpt lat="45.12685" lon="5.40216">
        <ele>961.8</ele>
        <time>2021-07-03T08:56:05Z</time>
      </trkpt>
      <trkpt lat="45.12679" lon="5.40219">
        <ele>962.6</ele>
        <time>2021-07-03T08:56:09Z</time>
      </trkpt>
      <trkpt lat="45.12678" lon="5.40229">
        <ele>962.8</ele>
        <time>2021-07-03T08:56:13Z</time>
      </trkpt>
      <trkpt lat="45.12683" lon="5.40238">
        <ele>962.6</ele>
        <time>2021-07-03T08:56:17Z</time>
      </trkpt>
      <trkpt lat="45.12687" lon="5.40246">
        <ele>963.2</ele>
        <time>2021-07-03T08:56:21Z</time>
      </trkpt>
      <trkpt lat="45.12692" lon="5.40253">
        <ele>963.8</ele>
        <time>2021-07-03T08:56:25Z</time>
      </trkpt>
      <trkpt lat="45.12697" lon="5.40262">
        <ele>964.4</ele>
        <time>2021-07-03T08:56:29Z</time>
      </trkpt>
      <trkpt lat="45.12702" lon="5.40271">
        <ele>963.6</ele>
        <time>2021-07-03T08:56:33Z</time>
      </trkpt>
      <trkpt lat="45.12708" lon="5.4028">
        <ele>964.6</ele>
        <time>2021-07-03T08:56:37Z</time>
      </trkpt>
      <trkpt lat="45.12714" lon="5.40289">
        <ele>965.4</ele>
        <time>2021-07-03T08:56:41Z</time>
      </trkpt>
      <trkpt lat="45.12719" lon="5.40299">
        <ele>965.8</ele>
        <time>2021-07-03T08:56:45Z</time>
      </trkpt>
      <trkpt lat="45.12725" lon="5.40307">
        <ele>965.8</ele>
        <time>2021-07-03T08:56:49Z</time>
      </trkpt>
      <trkpt lat="45.1273" lon="5.40316">
        <ele>965.8</ele>
        <time>2021-07-03T08:56:53Z</time>
      </trkpt>
      <trkpt lat="45.12736" lon="5.40324">
        <ele>966.8</ele>
        <time>2021-07-03T08:56:57Z</time>
      </trkpt>
      <trkpt lat="45.12742" lon="5.40333">
        <ele>966.8</ele>
        <time>2021-07-03T08:57:01Z</time>
      </trkpt>
      <trkpt lat="45.12747" lon="5.40341">
        <ele>967.6</ele>
        <time>2021-07-03T08:57:05Z</time>
      </trkpt>
      <trkpt lat="45.12753" lon="5.4035">
        <ele>967.8</ele>
        <time>2021-07-03T08:57:09Z</time>
      </trkpt>
      <trkpt lat="45.12759" lon="5.40361">
        <ele>967.6</ele>
        <time>2021-07-03T08:57:13Z</time>
      </trkpt>
      <trkpt lat="45.12767" lon="5.40377">
        <ele>967</ele>
        <time>2021-07-03T08:57:17Z</time>
      </trkpt>
      <trkpt lat="45.12776" lon="5.40396">
        <ele>966.8</ele>
        <time>2021-07-03T08:57:21Z</time>
      </trkpt>
      <trkpt lat="45.12783" lon="5.40413">
        <ele>966.4</ele>
        <time>2021-07-03T08:57:25Z</time>
      </trkpt>
      <trkpt lat="45.12787" lon="5.40428">
        <ele>966.2</ele>
        <time>2021-07-03T08:57:29Z</time>
      </trkpt>
      <trkpt lat="45.12791" lon="5.40445">
        <ele>966.6</ele>
        <time>2021-07-03T08:57:33Z</time>
      </trkpt>
      <trkpt lat="45.12796" lon="5.40465">
        <ele>965</ele>
        <time>2021-07-03T08:57:37Z</time>
      </trkpt>
      <trkpt lat="45.12799" lon="5.40492">
        <ele>964.4</ele>
        <time>2021-07-03T08:57:41Z</time>
      </trkpt>
      <trkpt lat="45.12803" lon="5.40519">
        <ele>963</ele>
        <time>2021-07-03T08:57:45Z</time>
      </trkpt>
      <trkpt lat="45.12804" lon="5.4054">
        <ele>963.2</ele>
        <time>2021-07-03T08:57:49Z</time>
      </trkpt>
      <trkpt lat="45.12804" lon="5.40555">
        <ele>964</ele>
        <time>2021-07-03T08:57:53Z</time>
      </trkpt>
      <trkpt lat="45.12802" lon="5.40571">
        <ele>963.6</ele>
        <time>2021-07-03T08:57:57Z</time>
      </trkpt>
      <trkpt lat="45.12796" lon="5.40583">
        <ele>962.2</ele>
        <time>2021-07-03T08:58:01Z</time>
      </trkpt>
      <trkpt lat="45.12794" lon="5.40599">
        <ele>961</ele>
        <time>2021-07-03T08:58:05Z</time>
      </trkpt>
      <trkpt lat="45.12791" lon="5.40613">
        <ele>960.4</ele>
        <time>2021-07-03T08:58:09Z</time>
      </trkpt>
      <trkpt lat="45.12788" lon="5.40629">
        <ele>959.6</ele>
        <time>2021-07-03T08:58:13Z</time>
      </trkpt>
      <trkpt lat="45.12786" lon="5.40649">
        <ele>957.2</ele>
        <time>2021-07-03T08:58:17Z</time>
      </trkpt>
      <trkpt lat="45.12784" lon="5.40671">
        <ele>956.2</ele>
        <time>2021-07-03T08:58:21Z</time>
      </trkpt>
      <trkpt lat="45.12781" lon="5.40694">
        <ele>954.6</ele>
        <time>2021-07-03T08:58:25Z</time>
      </trkpt>
      <trkpt lat="45.12777" lon="5.40712">
        <ele>955.2</ele>
        <time>2021-07-03T08:58:29Z</time>
      </trkpt>
      <trkpt lat="45.12769" lon="5.40727">
        <ele>952.8</ele>
        <time>2021-07-03T08:58:33Z</time>
      </trkpt>
      <trkpt lat="45.12758" lon="5.40737">
        <ele>951.4</ele>
        <time>2021-07-03T08:58:37Z</time>
      </trkpt>
      <trkpt lat="45.12747" lon="5.40736">
        <ele>951.4</ele>
        <time>2021-07-03T08:58:41Z</time>
      </trkpt>
      <trkpt lat="45.12733" lon="5.40741">
        <ele>949</ele>
        <time>2021-07-03T08:58:45Z</time>
      </trkpt>
      <trkpt lat="45.12717" lon="5.40743">
        <ele>947.6</ele>
        <time>2021-07-03T08:58:49Z</time>
      </trkpt>
      <trkpt lat="45.12704" lon="5.40737">
        <ele>946.6</ele>
        <time>2021-07-03T08:58:53Z</time>
      </trkpt>
      <trkpt lat="45.12694" lon="5.40731">
        <ele>945.8</ele>
        <time>2021-07-03T08:58:57Z</time>
      </trkpt>
      <trkpt lat="45.12683" lon="5.40729">
        <ele>945</ele>
        <time>2021-07-03T08:59:01Z</time>
      </trkpt>
      <trkpt lat="45.12672" lon="5.40726">
        <ele>944</ele>
        <time>2021-07-03T08:59:05Z</time>
      </trkpt>
      <trkpt lat="45.12661" lon="5.40724">
        <ele>942.8</ele>
        <time>2021-07-03T08:59:09Z</time>
      </trkpt>
      <trkpt lat="45.12647" lon="5.40723">
        <ele>940</ele>
        <time>2021-07-03T08:59:13Z</time>
      </trkpt>
      <trkpt lat="45.12637" lon="5.40718">
        <ele>938.8</ele>
        <time>2021-07-03T08:59:17Z</time>
      </trkpt>
      <trkpt lat="45.12622" lon="5.40709">
        <ele>937.2</ele>
        <time>2021-07-03T08:59:21Z</time>
      </trkpt>
      <trkpt lat="45.12609" lon="5.40705">
        <ele>935.8</ele>
        <time>2021-07-03T08:59:25Z</time>
      </trkpt>
      <trkpt lat="45.12592" lon="5.40694">
        <ele>935.6</ele>
        <time>2021-07-03T08:59:29Z</time>
      </trkpt>
      <trkpt lat="45.12575" lon="5.40685">
        <ele>935.4</ele>
        <time>2021-07-03T08:59:33Z</time>
      </trkpt>
      <trkpt lat="45.12559" lon="5.40678">
        <ele>934.8</ele>
        <time>2021-07-03T08:59:37Z</time>
      </trkpt>
      <trkpt lat="45.12546" lon="5.40671">
        <ele>934.6</ele>
        <time>2021-07-03T08:59:41Z</time>
      </trkpt>
      <trkpt lat="45.12534" lon="5.40667">
        <ele>935.6</ele>
        <time>2021-07-03T08:59:45Z</time>
      </trkpt>
      <trkpt lat="45.12524" lon="5.40666">
        <ele>934.8</ele>
        <time>2021-07-03T08:59:49Z</time>
      </trkpt>
      <trkpt lat="45.12514" lon="5.40664">
        <ele>935.2</ele>
        <time>2021-07-03T08:59:53Z</time>
      </trkpt>
      <trkpt lat="45.12508" lon="5.40662">
        <ele>935.4</ele>
        <time>2021-07-03T08:59:57Z</time>
      </trkpt>
      <trkpt lat="45.12498" lon="5.4066">
        <ele>936.8</ele>
        <time>2021-07-03T09:00:01Z</time>
      </trkpt>
      <trkpt lat="45.12491" lon="5.40659">
        <ele>936.8</ele>
        <time>2021-07-03T09:00:05Z</time>
      </trkpt>
      <trkpt lat="45.12483" lon="5.40655">
        <ele>936.2</ele>
        <time>2021-07-03T09:00:09Z</time>
      </trkpt>
      <trkpt lat="45.12473" lon="5.40652">
        <ele>936.8</ele>
        <time>2021-07-03T09:00:13Z</time>
      </trkpt>
      <trkpt lat="45.12466" lon="5.40648">
        <ele>938</ele>
        <time>2021-07-03T09:00:17Z</time>
      </trkpt>
      <trkpt lat="45.1246" lon="5.40645">
        <ele>938.6</ele>
        <time>2021-07-03T09:00:21Z</time>
      </trkpt>
      <trkpt lat="45.12455" lon="5.40642">
        <ele>939.2</ele>
        <time>2021-07-03T09:00:25Z</time>
      </trkpt>
      <trkpt lat="45.1245" lon="5.40639">
        <ele>939.6</ele>
        <time>2021-07-03T09:00:29Z</time>
      </trkpt>
      <trkpt lat="45.12446" lon="5.40638">
        <ele>940.4</ele>
        <time>2021-07-03T09:00:33Z</time>
      </trkpt>
      <trkpt lat="45.12439" lon="5.40636">
        <ele>940.2</ele>
        <time>2021-07-03T09:00:37Z</time>
      </trkpt>
      <trkpt lat="45.12433" lon="5.40633">
        <ele>941</ele>
        <time>2021-07-03T09:00:41Z</time>
      </trkpt>
      <trkpt lat="45.12426" lon="5.40632">
        <ele>941.2</ele>
        <time>2021-07-03T09:00:45Z</time>
      </trkpt>
      <trkpt lat="45.12422" lon="5.40629">
        <ele>942.2</ele>
        <time>2021-07-03T09:00:49Z</time>
      </trkpt>
      <trkpt lat="45.12417" lon="5.40625">
        <ele>942.8</ele>
        <time>2021-07-03T09:00:53Z</time>
      </trkpt>
      <trkpt lat="45.12411" lon="5.40623">
        <ele>942.6</ele>
        <time>2021-07-03T09:00:57Z</time>
      </trkpt>
      <trkpt lat="45.12404" lon="5.4062">
        <ele>944.2</ele>
        <time>2021-07-03T09:01:01Z</time>
      </trkpt>
      <trkpt lat="45.12399" lon="5.40617">
        <ele>944.8</ele>
        <time>2021-07-03T09:01:05Z</time>
      </trkpt>
      <trkpt lat="45.12391" lon="5.40615">
        <ele>944.2</ele>
        <time>2021-07-03T09:01:09Z</time>
      </trkpt>
      <trkpt lat="45.12383" lon="5.40613">
        <ele>944.4</ele>
        <time>2021-07-03T09:01:13Z</time>
      </trkpt>
      <trkpt lat="45.12376" lon="5.40612">
        <ele>943.8</ele>
        <time>2021-07-03T09:01:17Z</time>
      </trkpt>
      <trkpt lat="45.12369" lon="5.40611">
        <ele>945</ele>
        <time>2021-07-03T09:01:21Z</time>
      </trkpt>
      <trkpt lat="45.12362" lon="5.40609">
        <ele>945.2</ele>
        <time>2021-07-03T09:01:25Z</time>
      </trkpt>
      <trkpt lat="45.12356" lon="5.40607">
        <ele>946</ele>
        <time>2021-07-03T09:01:29Z</time>
      </trkpt>
      <trkpt lat="45.12346" lon="5.40606">
        <ele>946</ele>
        <time>2021-07-03T09:01:33Z</time>
      </trkpt>
      <trkpt lat="45.12338" lon="5.40601">
        <ele>946.8</ele>
        <time>2021-07-03T09:01:37Z</time>
      </trkpt>
      <trkpt lat="45.1233" lon="5.40597">
        <ele>947.4</ele>
        <time>2021-07-03T09:01:41Z</time>
      </trkpt>
      <trkpt lat="45.12323" lon="5.4059">
        <ele>947.4</ele>
        <time>2021-07-03T09:01:45Z</time>
      </trkpt>
      <trkpt lat="45.12314" lon="5.4058">
        <ele>947.4</ele>
        <time>2021-07-03T09:01:49Z</time>
      </trkpt>
      <trkpt lat="45.12307" lon="5.40573">
        <ele>947.8</ele>
        <time>2021-07-03T09:01:53Z</time>
      </trkpt>
      <trkpt lat="45.123" lon="5.40567">
        <ele>948.2</ele>
        <time>2021-07-03T09:01:57Z</time>
      </trkpt>
      <trkpt lat="45.12295" lon="5.40563">
        <ele>948</ele>
        <time>2021-07-03T09:02:01Z</time>
      </trkpt>
      <trkpt lat="45.12288" lon="5.40558">
        <ele>949.6</ele>
        <time>2021-07-03T09:02:05Z</time>
      </trkpt>
      <trkpt lat="45.12282" lon="5.40553">
        <ele>950.6</ele>
        <time>2021-07-03T09:02:09Z</time>
      </trkpt>
      <trkpt lat="45.12277" lon="5.40549">
        <ele>951.4</ele>
        <time>2021-07-03T09:02:13Z</time>
      </trkpt>
      <trkpt lat="45.12273" lon="5.40545">
        <ele>951.6</ele>
        <time>2021-07-03T09:02:17Z</time>
      </trkpt>
      <trkpt lat="45.12267" lon="5.40538">
        <ele>952.4</ele>
        <time>2021-07-03T09:02:21Z</time>
      </trkpt>
      <trkpt lat="45.1226" lon="5.40533">
        <ele>952.2</ele>
        <time>2021-07-03T09:02:25Z</time>
      </trkpt>
      <trkpt lat="45.12253" lon="5.40527">
        <ele>952.8</ele>
        <time>2021-07-03T09:02:29Z</time>
      </trkpt>
      <trkpt lat="45.12245" lon="5.40519">
        <ele>953.2</ele>
        <time>2021-07-03T09:02:33Z</time>
      </trkpt>
      <trkpt lat="45.12237" lon="5.40513">
        <ele>953.2</ele>
        <time>2021-07-03T09:02:37Z</time>
      </trkpt>
      <trkpt lat="45.12228" lon="5.40508">
        <ele>953.6</ele>
        <time>2021-07-03T09:02:41Z</time>
      </trkpt>
      <trkpt lat="45.12222" lon="5.40502">
        <ele>954.4</ele>
        <time>2021-07-03T09:02:45Z</time>
      </trkpt>
      <trkpt lat="45.12216" lon="5.40493">
        <ele>954.4</ele>
        <time>2021-07-03T09:02:49Z</time>
      </trkpt>
      <trkpt lat="45.12214" lon="5.40484">
        <ele>954.4</ele>
        <time>2021-07-03T09:02:53Z</time>
      </trkpt>
      <trkpt lat="45.1221" lon="5.40476">
        <ele>955.2</ele>
        <time>2021-07-03T09:02:57Z</time>
      </trkpt>
      <trkpt lat="45.12205" lon="5.40468">
        <ele>955.8</ele>
        <time>2021-07-03T09:03:01Z</time>
      </trkpt>
      <trkpt lat="45.12202" lon="5.40462">
        <ele>956</ele>
        <time>2021-07-03T09:03:05Z</time>
      </trkpt>
      <trkpt lat="45.12196" lon="5.40454">
        <ele>956.8</ele>
        <time>2021-07-03T09:03:09Z</time>
      </trkpt>
      <trkpt lat="45.12191" lon="5.40445">
        <ele>957.6</ele>
        <time>2021-07-03T09:03:13Z</time>
      </trkpt>
      <trkpt lat="45.12186" lon="5.40439">
        <ele>958.4</ele>
        <time>2021-07-03T09:03:17Z</time>
      </trkpt>
      <trkpt lat="45.12182" lon="5.40433">
        <ele>958.6</ele>
        <time>2021-07-03T09:03:21Z</time>
      </trkpt>
      <trkpt lat="45.12176" lon="5.40426">
        <ele>959.4</ele>
        <time>2021-07-03T09:03:25Z</time>
      </trkpt>
      <trkpt lat="45.12172" lon="5.40421">
        <ele>959.8</ele>
        <time>2021-07-03T09:03:29Z</time>
      </trkpt>
      <trkpt lat="45.12167" lon="5.40416">
        <ele>960.2</ele>
        <time>2021-07-03T09:03:33Z</time>
      </trkpt>
      <trkpt lat="45.12162" lon="5.40412">
        <ele>961.2</ele>
        <time>2021-07-03T09:03:37Z</time>
      </trkpt>
      <trkpt lat="45.12158" lon="5.40407">
        <ele>962</ele>
        <time>2021-07-03T09:03:41Z</time>
      </trkpt>
      <trkpt lat="45.12153" lon="5.40402">
        <ele>962.4</ele>
        <time>2021-07-03T09:03:45Z</time>
      </trkpt>
      <trkpt lat="45.12148" lon="5.40398">
        <ele>962.6</ele>
        <time>2021-07-03T09:03:49Z</time>
      </trkpt>
      <trkpt lat="45.12143" lon="5.40392">
        <ele>963.2</ele>
        <time>2021-07-03T09:03:53Z</time>
      </trkpt>
      <trkpt lat="45.12139" lon="5.40387">
        <ele>963.8</ele>
        <time>2021-07-03T09:03:57Z</time>
      </trkpt>
      <trkpt lat="45.12134" lon="5.40382">
        <ele>964.2</ele>
        <time>2021-07-03T09:04:01Z</time>
      </trkpt>
      <trkpt lat="45.12129" lon="5.40377">
        <ele>964.6</ele>
        <time>2021-07-03T09:04:05Z</time>
      </trkpt>
      <trkpt lat="45.12124" lon="5.40372">
        <ele>965.4</ele>
        <time>2021-07-03T09:04:09Z</time>
      </trkpt>
      <trkpt lat="45.12118" lon="5.40367">
        <ele>965.8</ele>
        <time>2021-07-03T09:04:13Z</time>
      </trkpt>
      <trkpt lat="45.12111" lon="5.40366">
        <ele>965.6</ele>
        <time>2021-07-03T09:04:17Z</time>
      </trkpt>
      <trkpt lat="45.121" lon="5.40368">
        <ele>965</ele>
        <time>2021-07-03T09:04:21Z</time>
      </trkpt>
      <trkpt lat="45.12089" lon="5.4037">
        <ele>965.4</ele>
        <time>2021-07-03T09:04:25Z</time>
      </trkpt>
      <trkpt lat="45.12078" lon="5.40372">
        <ele>964.4</ele>
        <time>2021-07-03T09:04:29Z</time>
      </trkpt>
      <trkpt lat="45.1207" lon="5.40374">
        <ele>964.6</ele>
        <time>2021-07-03T09:04:33Z</time>
      </trkpt>
      <trkpt lat="45.12064" lon="5.40375">
        <ele>964.8</ele>
        <time>2021-07-03T09:04:37Z</time>
      </trkpt>
      <trkpt lat="45.12057" lon="5.40376">
        <ele>964.6</ele>
        <time>2021-07-03T09:04:41Z</time>
      </trkpt>
      <trkpt lat="45.12049" lon="5.40373">
        <ele>965.2</ele>
        <time>2021-07-03T09:04:45Z</time>
      </trkpt>
      <trkpt lat="45.12042" lon="5.4037">
        <ele>965.6</ele>
        <time>2021-07-03T09:04:49Z</time>
      </trkpt>
      <trkpt lat="45.12027" lon="5.40367">
        <ele>966</ele>
        <time>2021-07-03T09:04:53Z</time>
      </trkpt>
      <trkpt lat="45.12017" lon="5.40361">
        <ele>966.4</ele>
        <time>2021-07-03T09:04:57Z</time>
      </trkpt>
      <trkpt lat="45.12013" lon="5.40352">
        <ele>966.6</ele>
        <time>2021-07-03T09:05:01Z</time>
      </trkpt>
      <trkpt lat="45.12008" lon="5.4034">
        <ele>967</ele>
        <time>2021-07-03T09:05:05Z</time>
      </trkpt>
      <trkpt lat="45.12004" lon="5.40331">
        <ele>967.2</ele>
        <time>2021-07-03T09:05:09Z</time>
      </trkpt>
      <trkpt lat="45.12001" lon="5.40317">
        <ele>966.6</ele>
        <time>2021-07-03T09:05:13Z</time>
      </trkpt>
      <trkpt lat="45.12001" lon="5.40306">
        <ele>968</ele>
        <time>2021-07-03T09:05:17Z</time>
      </trkpt>
      <trkpt lat="45.11996" lon="5.40296">
        <ele>968.8</ele>
        <time>2021-07-03T09:05:21Z</time>
      </trkpt>
      <trkpt lat="45.11992" lon="5.40281">
        <ele>968.6</ele>
        <time>2021-07-03T09:05:25Z</time>
      </trkpt>
      <trkpt lat="45.11992" lon="5.4027">
        <ele>969.2</ele>
        <time>2021-07-03T09:05:29Z</time>
      </trkpt>
      <trkpt lat="45.11989" lon="5.40259">
        <ele>969.6</ele>
        <time>2021-07-03T09:05:33Z</time>
      </trkpt>
      <trkpt lat="45.11986" lon="5.40249">
        <ele>969.2</ele>
        <time>2021-07-03T09:05:37Z</time>
      </trkpt>
      <trkpt lat="45.1198" lon="5.4024">
        <ele>970.8</ele>
        <time>2021-07-03T09:05:41Z</time>
      </trkpt>
      <trkpt lat="45.11971" lon="5.40233">
        <ele>970.8</ele>
        <time>2021-07-03T09:05:45Z</time>
      </trkpt>
      <trkpt lat="45.11964" lon="5.40226">
        <ele>971.4</ele>
        <time>2021-07-03T09:05:49Z</time>
      </trkpt>
      <trkpt lat="45.11957" lon="5.40217">
        <ele>971.4</ele>
        <time>2021-07-03T09:05:53Z</time>
      </trkpt>
      <trkpt lat="45.11952" lon="5.40208">
        <ele>973</ele>
        <time>2021-07-03T09:05:57Z</time>
      </trkpt>
      <trkpt lat="45.11946" lon="5.40199">
        <ele>972.8</ele>
        <time>2021-07-03T09:06:01Z</time>
      </trkpt>
      <trkpt lat="45.1194" lon="5.40191">
        <ele>972.6</ele>
        <time>2021-07-03T09:06:05Z</time>
      </trkpt>
      <trkpt lat="45.11934" lon="5.40183">
        <ele>973.6</ele>
        <time>2021-07-03T09:06:09Z</time>
      </trkpt>
      <trkpt lat="45.11927" lon="5.40167">
        <ele>973</ele>
        <time>2021-07-03T09:06:39Z</time>
      </trkpt>
      <trkpt lat="45.11924" lon="5.40154">
        <ele>974.2</ele>
        <time>2021-07-03T09:06:43Z</time>
      </trkpt>
      <trkpt lat="45.1192" lon="5.40139">
        <ele>974</ele>
        <time>2021-07-03T09:06:47Z</time>
      </trkpt>
      <trkpt lat="45.11915" lon="5.40126">
        <ele>974</ele>
        <time>2021-07-03T09:06:51Z</time>
      </trkpt>
      <trkpt lat="45.11909" lon="5.40115">
        <ele>974.2</ele>
        <time>2021-07-03T09:06:55Z</time>
      </trkpt>
      <trkpt lat="45.11904" lon="5.40105">
        <ele>975</ele>
        <time>2021-07-03T09:06:59Z</time>
      </trkpt>
      <trkpt lat="45.11899" lon="5.40095">
        <ele>975</ele>
        <time>2021-07-03T09:07:03Z</time>
      </trkpt>
      <trkpt lat="45.11896" lon="5.40085">
        <ele>975.4</ele>
        <time>2021-07-03T09:07:07Z</time>
      </trkpt>
      <trkpt lat="45.11892" lon="5.40078">
        <ele>976.6</ele>
        <time>2021-07-03T09:07:11Z</time>
      </trkpt>
      <trkpt lat="45.11887" lon="5.40071">
        <ele>977.2</ele>
        <time>2021-07-03T09:07:15Z</time>
      </trkpt>
      <trkpt lat="45.11882" lon="5.40066">
        <ele>977.6</ele>
        <time>2021-07-03T09:07:19Z</time>
      </trkpt>
      <trkpt lat="45.11876" lon="5.40062">
        <ele>978</ele>
        <time>2021-07-03T09:07:23Z</time>
      </trkpt>
      <trkpt lat="45.1187" lon="5.40057">
        <ele>978.4</ele>
        <time>2021-07-03T09:07:27Z</time>
      </trkpt>
      <trkpt lat="45.11864" lon="5.40053">
        <ele>980</ele>
        <time>2021-07-03T09:07:31Z</time>
      </trkpt>
      <trkpt lat="45.11858" lon="5.40048">
        <ele>980</ele>
        <time>2021-07-03T09:07:35Z</time>
      </trkpt>
      <trkpt lat="45.11852" lon="5.40041">
        <ele>979.4</ele>
        <time>2021-07-03T09:07:39Z</time>
      </trkpt>
      <trkpt lat="45.11846" lon="5.40035">
        <ele>980.4</ele>
        <time>2021-07-03T09:07:43Z</time>
      </trkpt>
      <trkpt lat="45.11841" lon="5.40026">
        <ele>981.4</ele>
        <time>2021-07-03T09:07:47Z</time>
      </trkpt>
      <trkpt lat="45.11836" lon="5.40017">
        <ele>981.8</ele>
        <time>2021-07-03T09:07:51Z</time>
      </trkpt>
      <trkpt lat="45.11833" lon="5.40009">
        <ele>982.2</ele>
        <time>2021-07-03T09:07:55Z</time>
      </trkpt>
      <trkpt lat="45.1183" lon="5.40001">
        <ele>982.6</ele>
        <time>2021-07-03T09:07:59Z</time>
      </trkpt>
      <trkpt lat="45.11826" lon="5.39991">
        <ele>983</ele>
        <time>2021-07-03T09:08:03Z</time>
      </trkpt>
      <trkpt lat="45.11823" lon="5.39982">
        <ele>983.2</ele>
        <time>2021-07-03T09:08:07Z</time>
      </trkpt>
      <trkpt lat="45.11821" lon="5.39973">
        <ele>984.2</ele>
        <time>2021-07-03T09:08:11Z</time>
      </trkpt>
      <trkpt lat="45.11818" lon="5.39962">
        <ele>983.8</ele>
        <time>2021-07-03T09:08:15Z</time>
      </trkpt>
      <trkpt lat="45.11812" lon="5.39946">
        <ele>983.2</ele>
        <time>2021-07-03T09:08:19Z</time>
      </trkpt>
      <trkpt lat="45.11806" lon="5.39926">
        <ele>981.2</ele>
        <time>2021-07-03T09:08:23Z</time>
      </trkpt>
      <trkpt lat="45.11797" lon="5.39905">
        <ele>980.4</ele>
        <time>2021-07-03T09:08:27Z</time>
      </trkpt>
      <trkpt lat="45.1179" lon="5.39882">
        <ele>980</ele>
        <time>2021-07-03T09:08:31Z</time>
      </trkpt>
      <trkpt lat="45.11783" lon="5.39859">
        <ele>977.4</ele>
        <time>2021-07-03T09:08:35Z</time>
      </trkpt>
      <trkpt lat="45.11776" lon="5.39838">
        <ele>975.8</ele>
        <time>2021-07-03T09:08:39Z</time>
      </trkpt>
      <trkpt lat="45.11766" lon="5.39815">
        <ele>973.6</ele>
        <time>2021-07-03T09:08:43Z</time>
      </trkpt>
      <trkpt lat="45.11758" lon="5.39796">
        <ele>971.2</ele>
        <time>2021-07-03T09:08:47Z</time>
      </trkpt>
      <trkpt lat="45.11747" lon="5.39772">
        <ele>969.2</ele>
        <time>2021-07-03T09:08:51Z</time>
      </trkpt>
      <trkpt lat="45.11738" lon="5.39752">
        <ele>969.2</ele>
        <time>2021-07-03T09:08:55Z</time>
      </trkpt>
      <trkpt lat="45.11725" lon="5.39733">
        <ele>966.6</ele>
        <time>2021-07-03T09:08:59Z</time>
      </trkpt>
      <trkpt lat="45.11708" lon="5.39719">
        <ele>966</ele>
        <time>2021-07-03T09:09:03Z</time>
      </trkpt>
      <trkpt lat="45.1169" lon="5.39705">
        <ele>965.2</ele>
        <time>2021-07-03T09:09:07Z</time>
      </trkpt>
      <trkpt lat="45.11673" lon="5.39683">
        <ele>963.2</ele>
        <time>2021-07-03T09:09:11Z</time>
      </trkpt>
      <trkpt lat="45.11659" lon="5.39662">
        <ele>962.4</ele>
        <time>2021-07-03T09:09:15Z</time>
      </trkpt>
      <trkpt lat="45.11651" lon="5.39642">
        <ele>962.6</ele>
        <time>2021-07-03T09:09:19Z</time>
      </trkpt>
      <trkpt lat="45.11645" lon="5.39626">
        <ele>962.4</ele>
        <time>2021-07-03T09:09:23Z</time>
      </trkpt>
      <trkpt lat="45.11633" lon="5.39619">
        <ele>962.6</ele>
        <time>2021-07-03T09:09:27Z</time>
      </trkpt>
      <trkpt lat="45.1163" lon="5.39633">
        <ele>963.2</ele>
        <time>2021-07-03T09:10:27Z</time>
      </trkpt>
      <trkpt lat="45.11628" lon="5.39645">
        <ele>963</ele>
        <time>2021-07-03T09:10:31Z</time>
      </trkpt>
      <trkpt lat="45.11627" lon="5.39661">
        <ele>962.6</ele>
        <time>2021-07-03T09:10:35Z</time>
      </trkpt>
      <trkpt lat="45.11627" lon="5.39685">
        <ele>962</ele>
        <time>2021-07-03T09:10:39Z</time>
      </trkpt>
      <trkpt lat="45.11627" lon="5.39718">
        <ele>960</ele>
        <time>2021-07-03T09:10:43Z</time>
      </trkpt>
      <trkpt lat="45.1162" lon="5.39756">
        <ele>958.8</ele>
        <time>2021-07-03T09:10:47Z</time>
      </trkpt>
      <trkpt lat="45.11604" lon="5.39787">
        <ele>959</ele>
        <time>2021-07-03T09:10:51Z</time>
      </trkpt>
      <trkpt lat="45.11587" lon="5.3981">
        <ele>959.2</ele>
        <time>2021-07-03T09:10:55Z</time>
      </trkpt>
      <trkpt lat="45.11571" lon="5.39833">
        <ele>958.6</ele>
        <time>2021-07-03T09:10:59Z</time>
      </trkpt>
      <trkpt lat="45.11559" lon="5.39862">
        <ele>957.4</ele>
        <time>2021-07-03T09:11:03Z</time>
      </trkpt>
      <trkpt lat="45.11556" lon="5.39901">
        <ele>956</ele>
        <time>2021-07-03T09:11:07Z</time>
      </trkpt>
      <trkpt lat="45.11554" lon="5.3994">
        <ele>955.8</ele>
        <time>2021-07-03T09:11:11Z</time>
      </trkpt>
      <trkpt lat="45.11554" lon="5.39978">
        <ele>955</ele>
        <time>2021-07-03T09:11:15Z</time>
      </trkpt>
      <trkpt lat="45.11555" lon="5.40011">
        <ele>955.6</ele>
        <time>2021-07-03T09:11:19Z</time>
      </trkpt>
      <trkpt lat="45.11558" lon="5.40032">
        <ele>957</ele>
        <time>2021-07-03T09:11:23Z</time>
      </trkpt>
      <trkpt lat="45.11562" lon="5.4005">
        <ele>958</ele>
        <time>2021-07-03T09:11:27Z</time>
      </trkpt>
      <trkpt lat="45.11567" lon="5.40069">
        <ele>958.2</ele>
        <time>2021-07-03T09:11:31Z</time>
      </trkpt>
      <trkpt lat="45.11572" lon="5.4009">
        <ele>958.8</ele>
        <time>2021-07-03T09:11:35Z</time>
      </trkpt>
      <trkpt lat="45.11581" lon="5.40112">
        <ele>958.2</ele>
        <time>2021-07-03T09:11:39Z</time>
      </trkpt>
      <trkpt lat="45.11597" lon="5.40134">
        <ele>957.2</ele>
        <time>2021-07-03T09:11:43Z</time>
      </trkpt>
      <trkpt lat="45.11614" lon="5.40159">
        <ele>956.4</ele>
        <time>2021-07-03T09:11:47Z</time>
      </trkpt>
      <trkpt lat="45.11628" lon="5.40185">
        <ele>956.6</ele>
        <time>2021-07-03T09:11:51Z</time>
      </trkpt>
      <trkpt lat="45.1164" lon="5.40208">
        <ele>956.6</ele>
        <time>2021-07-03T09:11:55Z</time>
      </trkpt>
      <trkpt lat="45.11651" lon="5.40233">
        <ele>956.4</ele>
        <time>2021-07-03T09:11:59Z</time>
      </trkpt>
      <trkpt lat="45.11662" lon="5.40258">
        <ele>956.6</ele>
        <time>2021-07-03T09:12:03Z</time>
      </trkpt>
      <trkpt lat="45.11664" lon="5.40285">
        <ele>957.6</ele>
        <time>2021-07-03T09:12:07Z</time>
      </trkpt>
      <trkpt lat="45.11656" lon="5.40305">
        <ele>958</ele>
        <time>2021-07-03T09:12:11Z</time>
      </trkpt>
      <trkpt lat="45.11647" lon="5.40318">
        <ele>958.8</ele>
        <time>2021-07-03T09:12:15Z</time>
      </trkpt>
      <trkpt lat="45.11641" lon="5.4033">
        <ele>959.6</ele>
        <time>2021-07-03T09:12:19Z</time>
      </trkpt>
      <trkpt lat="45.11639" lon="5.40344">
        <ele>960.2</ele>
        <time>2021-07-03T09:12:23Z</time>
      </trkpt>
      <trkpt lat="45.11642" lon="5.40357">
        <ele>960.8</ele>
        <time>2021-07-03T09:12:27Z</time>
      </trkpt>
      <trkpt lat="45.11648" lon="5.40367">
        <ele>961.4</ele>
        <time>2021-07-03T09:12:31Z</time>
      </trkpt>
      <trkpt lat="45.11654" lon="5.40376">
        <ele>962.6</ele>
        <time>2021-07-03T09:12:35Z</time>
      </trkpt>
      <trkpt lat="45.1166" lon="5.40384">
        <ele>963.4</ele>
        <time>2021-07-03T09:12:39Z</time>
      </trkpt>
      <trkpt lat="45.11666" lon="5.4039">
        <ele>964.4</ele>
        <time>2021-07-03T09:12:43Z</time>
      </trkpt>
      <trkpt lat="45.11673" lon="5.40397">
        <ele>965.2</ele>
        <time>2021-07-03T09:12:47Z</time>
      </trkpt>
      <trkpt lat="45.11679" lon="5.40402">
        <ele>966</ele>
        <time>2021-07-03T09:12:51Z</time>
      </trkpt>
      <trkpt lat="45.11685" lon="5.40409">
        <ele>966.8</ele>
        <time>2021-07-03T09:12:55Z</time>
      </trkpt>
      <trkpt lat="45.11691" lon="5.40413">
        <ele>967.8</ele>
        <time>2021-07-03T09:12:59Z</time>
      </trkpt>
      <trkpt lat="45.11697" lon="5.40419">
        <ele>968.4</ele>
        <time>2021-07-03T09:13:03Z</time>
      </trkpt>
      <trkpt lat="45.11702" lon="5.40426">
        <ele>968.8</ele>
        <time>2021-07-03T09:13:07Z</time>
      </trkpt>
      <trkpt lat="45.11708" lon="5.40432">
        <ele>969.8</ele>
        <time>2021-07-03T09:13:11Z</time>
      </trkpt>
      <trkpt lat="45.11712" lon="5.40439">
        <ele>970.4</ele>
        <time>2021-07-03T09:13:15Z</time>
      </trkpt>
      <trkpt lat="45.11716" lon="5.40446">
        <ele>971</ele>
        <time>2021-07-03T09:13:19Z</time>
      </trkpt>
      <trkpt lat="45.1172" lon="5.40454">
        <ele>972</ele>
        <time>2021-07-03T09:13:23Z</time>
      </trkpt>
      <trkpt lat="45.11723" lon="5.40462">
        <ele>972.4</ele>
        <time>2021-07-03T09:13:27Z</time>
      </trkpt>
      <trkpt lat="45.11725" lon="5.4047">
        <ele>973.2</ele>
        <time>2021-07-03T09:13:31Z</time>
      </trkpt>
      <trkpt lat="45.11725" lon="5.40479">
        <ele>973.4</ele>
        <time>2021-07-03T09:13:35Z</time>
      </trkpt>
      <trkpt lat="45.11726" lon="5.40487">
        <ele>974</ele>
        <time>2021-07-03T09:13:39Z</time>
      </trkpt>
      <trkpt lat="45.11727" lon="5.40495">
        <ele>975</ele>
        <time>2021-07-03T09:13:43Z</time>
      </trkpt>
      <trkpt lat="45.11729" lon="5.40504">
        <ele>975.6</ele>
        <time>2021-07-03T09:13:47Z</time>
      </trkpt>
      <trkpt lat="45.11731" lon="5.40513">
        <ele>976.6</ele>
        <time>2021-07-03T09:13:51Z</time>
      </trkpt>
      <trkpt lat="45.11733" lon="5.40521">
        <ele>977.2</ele>
        <time>2021-07-03T09:13:55Z</time>
      </trkpt>
      <trkpt lat="45.11735" lon="5.40528">
        <ele>977.6</ele>
        <time>2021-07-03T09:13:59Z</time>
      </trkpt>
      <trkpt lat="45.11737" lon="5.40535">
        <ele>978.4</ele>
        <time>2021-07-03T09:14:03Z</time>
      </trkpt>
      <trkpt lat="45.11739" lon="5.40543">
        <ele>979</ele>
        <time>2021-07-03T09:14:07Z</time>
      </trkpt>
      <trkpt lat="45.11742" lon="5.4055">
        <ele>979.8</ele>
        <time>2021-07-03T09:14:11Z</time>
      </trkpt>
      <trkpt lat="45.11745" lon="5.40558">
        <ele>980.2</ele>
        <time>2021-07-03T09:14:15Z</time>
      </trkpt>
      <trkpt lat="45.11748" lon="5.40565">
        <ele>981</ele>
        <time>2021-07-03T09:14:19Z</time>
      </trkpt>
      <trkpt lat="45.11752" lon="5.40573">
        <ele>981.8</ele>
        <time>2021-07-03T09:14:23Z</time>
      </trkpt>
      <trkpt lat="45.11756" lon="5.40581">
        <ele>982.4</ele>
        <time>2021-07-03T09:14:27Z</time>
      </trkpt>
      <trkpt lat="45.11759" lon="5.40588">
        <ele>983.4</ele>
        <time>2021-07-03T09:14:31Z</time>
      </trkpt>
      <trkpt lat="45.11762" lon="5.40596">
        <ele>983.8</ele>
        <time>2021-07-03T09:14:35Z</time>
      </trkpt>
      <trkpt lat="45.11765" lon="5.40604">
        <ele>984.8</ele>
        <time>2021-07-03T09:14:39Z</time>
      </trkpt>
      <trkpt lat="45.11766" lon="5.40613">
        <ele>985.6</ele>
        <time>2021-07-03T09:14:43Z</time>
      </trkpt>
      <trkpt lat="45.11765" lon="5.40621">
        <ele>986.2</ele>
        <time>2021-07-03T09:14:47Z</time>
      </trkpt>
      <trkpt lat="45.11763" lon="5.40629">
        <ele>986.2</ele>
        <time>2021-07-03T09:14:51Z</time>
      </trkpt>
      <trkpt lat="45.11762" lon="5.40637">
        <ele>987.4</ele>
        <time>2021-07-03T09:14:55Z</time>
      </trkpt>
      <trkpt lat="45.1176" lon="5.40646">
        <ele>987.6</ele>
        <time>2021-07-03T09:14:59Z</time>
      </trkpt>
      <trkpt lat="45.1176" lon="5.40655">
        <ele>988</ele>
        <time>2021-07-03T09:15:03Z</time>
      </trkpt>
      <trkpt lat="45.1176" lon="5.40665">
        <ele>988.8</ele>
        <time>2021-07-03T09:15:07Z</time>
      </trkpt>
      <trkpt lat="45.11763" lon="5.40673">
        <ele>989.8</ele>
        <time>2021-07-03T09:15:11Z</time>
      </trkpt>
      <trkpt lat="45.11766" lon="5.40682">
        <ele>990.6</ele>
        <time>2021-07-03T09:15:15Z</time>
      </trkpt>
      <trkpt lat="45.1177" lon="5.40689">
        <ele>991.2</ele>
        <time>2021-07-03T09:15:19Z</time>
      </trkpt>
      <trkpt lat="45.11774" lon="5.40695">
        <ele>991.4</ele>
        <time>2021-07-03T09:15:23Z</time>
      </trkpt>
      <trkpt lat="45.11778" lon="5.40701">
        <ele>992.4</ele>
        <time>2021-07-03T09:15:27Z</time>
      </trkpt>
      <trkpt lat="45.11783" lon="5.40706">
        <ele>993</ele>
        <time>2021-07-03T09:15:31Z</time>
      </trkpt>
      <trkpt lat="45.11789" lon="5.4071">
        <ele>993.6</ele>
        <time>2021-07-03T09:15:35Z</time>
      </trkpt>
      <trkpt lat="45.11794" lon="5.40714">
        <ele>994.4</ele>
        <time>2021-07-03T09:15:39Z</time>
      </trkpt>
      <trkpt lat="45.118" lon="5.40718">
        <ele>995</ele>
        <time>2021-07-03T09:15:43Z</time>
      </trkpt>
      <trkpt lat="45.11804" lon="5.4072">
        <ele>995.4</ele>
        <time>2021-07-03T09:15:47Z</time>
      </trkpt>
      <trkpt lat="45.11809" lon="5.40722">
        <ele>996.4</ele>
        <time>2021-07-03T09:15:51Z</time>
      </trkpt>
      <trkpt lat="45.11814" lon="5.40724">
        <ele>997.2</ele>
        <time>2021-07-03T09:15:55Z</time>
      </trkpt>
      <trkpt lat="45.11821" lon="5.40727">
        <ele>997.8</ele>
        <time>2021-07-03T09:15:59Z</time>
      </trkpt>
      <trkpt lat="45.11827" lon="5.40729">
        <ele>998</ele>
        <time>2021-07-03T09:16:03Z</time>
      </trkpt>
      <trkpt lat="45.11834" lon="5.4073">
        <ele>998.6</ele>
        <time>2021-07-03T09:16:07Z</time>
      </trkpt>
      <trkpt lat="45.11841" lon="5.40731">
        <ele>999.4</ele>
        <time>2021-07-03T09:16:11Z</time>
      </trkpt>
      <trkpt lat="45.11847" lon="5.40733">
        <ele>999.8</ele>
        <time>2021-07-03T09:16:15Z</time>
      </trkpt>
      <trkpt lat="45.11853" lon="5.40734">
        <ele>1001.4</ele>
        <time>2021-07-03T09:16:19Z</time>
      </trkpt>
      <trkpt lat="45.11858" lon="5.40734">
        <ele>1001.4</ele>
        <time>2021-07-03T09:16:23Z</time>
      </trkpt>
      <trkpt lat="45.11866" lon="5.40734">
        <ele>1002.2</ele>
        <time>2021-07-03T09:16:27Z</time>
      </trkpt>
      <trkpt lat="45.11872" lon="5.40734">
        <ele>1002.8</ele>
        <time>2021-07-03T09:16:31Z</time>
      </trkpt>
      <trkpt lat="45.11879" lon="5.40734">
        <ele>1003.6</ele>
        <time>2021-07-03T09:16:35Z</time>
      </trkpt>
      <trkpt lat="45.11885" lon="5.40735">
        <ele>1004.4</ele>
        <time>2021-07-03T09:16:39Z</time>
      </trkpt>
      <trkpt lat="45.11891" lon="5.40736">
        <ele>1005.6</ele>
        <time>2021-07-03T09:16:43Z</time>
      </trkpt>
      <trkpt lat="45.11899" lon="5.40735">
        <ele>1005.8</ele>
        <time>2021-07-03T09:16:47Z</time>
      </trkpt>
      <trkpt lat="45.11905" lon="5.40735">
        <ele>1007</ele>
        <time>2021-07-03T09:16:51Z</time>
      </trkpt>
      <trkpt lat="45.11912" lon="5.40735">
        <ele>1007.4</ele>
        <time>2021-07-03T09:16:55Z</time>
      </trkpt>
      <trkpt lat="45.11918" lon="5.40734">
        <ele>1008.2</ele>
        <time>2021-07-03T09:16:59Z</time>
      </trkpt>
      <trkpt lat="45.11926" lon="5.40734">
        <ele>1007.4</ele>
        <time>2021-07-03T09:17:03Z</time>
      </trkpt>
      <trkpt lat="45.11933" lon="5.40733">
        <ele>1009</ele>
        <time>2021-07-03T09:17:07Z</time>
      </trkpt>
      <trkpt lat="45.11939" lon="5.40732">
        <ele>1008.8</ele>
        <time>2021-07-03T09:17:11Z</time>
      </trkpt>
      <trkpt lat="45.11946" lon="5.40732">
        <ele>1010.8</ele>
        <time>2021-07-03T09:17:15Z</time>
      </trkpt>
      <trkpt lat="45.11953" lon="5.40732">
        <ele>1011.4</ele>
        <time>2021-07-03T09:17:19Z</time>
      </trkpt>
      <trkpt lat="45.1196" lon="5.40731">
        <ele>1011.6</ele>
        <time>2021-07-03T09:17:23Z</time>
      </trkpt>
      <trkpt lat="45.11965" lon="5.40733">
        <ele>1012.4</ele>
        <time>2021-07-03T09:17:27Z</time>
      </trkpt>
      <trkpt lat="45.1197" lon="5.40738">
        <ele>1013</ele>
        <time>2021-07-03T09:17:31Z</time>
      </trkpt>
      <trkpt lat="45.11974" lon="5.40748">
        <ele>1013.2</ele>
        <time>2021-07-03T09:17:35Z</time>
      </trkpt>
      <trkpt lat="45.11973" lon="5.40757">
        <ele>1013.4</ele>
        <time>2021-07-03T09:17:39Z</time>
      </trkpt>
      <trkpt lat="45.1197" lon="5.40767">
        <ele>1014.6</ele>
        <time>2021-07-03T09:17:43Z</time>
      </trkpt>
      <trkpt lat="45.11967" lon="5.40776">
        <ele>1014.6</ele>
        <time>2021-07-03T09:17:47Z</time>
      </trkpt>
      <trkpt lat="45.11964" lon="5.40785">
        <ele>1015.4</ele>
        <time>2021-07-03T09:17:51Z</time>
      </trkpt>
      <trkpt lat="45.11961" lon="5.40793">
        <ele>1015.6</ele>
        <time>2021-07-03T09:17:55Z</time>
      </trkpt>
      <trkpt lat="45.11958" lon="5.40802">
        <ele>1016.2</ele>
        <time>2021-07-03T09:17:59Z</time>
      </trkpt>
      <trkpt lat="45.11956" lon="5.40811">
        <ele>1015.8</ele>
        <time>2021-07-03T09:18:03Z</time>
      </trkpt>
      <trkpt lat="45.11954" lon="5.40821">
        <ele>1017</ele>
        <time>2021-07-03T09:18:07Z</time>
      </trkpt>
      <trkpt lat="45.11952" lon="5.40831">
        <ele>1017.8</ele>
        <time>2021-07-03T09:18:11Z</time>
      </trkpt>
      <trkpt lat="45.11951" lon="5.4084">
        <ele>1018.6</ele>
        <time>2021-07-03T09:18:15Z</time>
      </trkpt>
      <trkpt lat="45.1195" lon="5.40849">
        <ele>1018.6</ele>
        <time>2021-07-03T09:18:19Z</time>
      </trkpt>
      <trkpt lat="45.1195" lon="5.40859">
        <ele>1019.6</ele>
        <time>2021-07-03T09:18:23Z</time>
      </trkpt>
      <trkpt lat="45.11948" lon="5.40869">
        <ele>1020</ele>
        <time>2021-07-03T09:18:27Z</time>
      </trkpt>
      <trkpt lat="45.11948" lon="5.40878">
        <ele>1021.4</ele>
        <time>2021-07-03T09:18:31Z</time>
      </trkpt>
      <trkpt lat="45.11947" lon="5.40889">
        <ele>1021.6</ele>
        <time>2021-07-03T09:18:35Z</time>
      </trkpt>
      <trkpt lat="45.11948" lon="5.40898">
        <ele>1022.4</ele>
        <time>2021-07-03T09:18:39Z</time>
      </trkpt>
      <trkpt lat="45.11947" lon="5.40907">
        <ele>1023.2</ele>
        <time>2021-07-03T09:18:43Z</time>
      </trkpt>
      <trkpt lat="45.11945" lon="5.40918">
        <ele>1023.4</ele>
        <time>2021-07-03T09:18:47Z</time>
      </trkpt>
      <trkpt lat="45.11942" lon="5.40928">
        <ele>1024.4</ele>
        <time>2021-07-03T09:18:51Z</time>
      </trkpt>
      <trkpt lat="45.1194" lon="5.40936">
        <ele>1025.2</ele>
        <time>2021-07-03T09:18:55Z</time>
      </trkpt>
      <trkpt lat="45.11937" lon="5.40945">
        <ele>1025.4</ele>
        <time>2021-07-03T09:18:59Z</time>
      </trkpt>
      <trkpt lat="45.11933" lon="5.40955">
        <ele>1026</ele>
        <time>2021-07-03T09:19:03Z</time>
      </trkpt>
      <trkpt lat="45.1193" lon="5.40965">
        <ele>1026.2</ele>
        <time>2021-07-03T09:19:07Z</time>
      </trkpt>
      <trkpt lat="45.11929" lon="5.40976">
        <ele>1027.2</ele>
        <time>2021-07-03T09:19:11Z</time>
      </trkpt>
      <trkpt lat="45.11928" lon="5.40987">
        <ele>1028.2</ele>
        <time>2021-07-03T09:19:15Z</time>
      </trkpt>
      <trkpt lat="45.11928" lon="5.40997">
        <ele>1028.4</ele>
        <time>2021-07-03T09:19:19Z</time>
      </trkpt>
      <trkpt lat="45.11928" lon="5.41007">
        <ele>1029.4</ele>
        <time>2021-07-03T09:19:23Z</time>
      </trkpt>
      <trkpt lat="45.11929" lon="5.41015">
        <ele>1029.6</ele>
        <time>2021-07-03T09:19:27Z</time>
      </trkpt>
      <trkpt lat="45.11932" lon="5.41024">
        <ele>1030.4</ele>
        <time>2021-07-03T09:19:31Z</time>
      </trkpt>
      <trkpt lat="45.11934" lon="5.41033">
        <ele>1031</ele>
        <time>2021-07-03T09:19:35Z</time>
      </trkpt>
      <trkpt lat="45.11937" lon="5.41042">
        <ele>1032</ele>
        <time>2021-07-03T09:19:39Z</time>
      </trkpt>
      <trkpt lat="45.11939" lon="5.4105">
        <ele>1032.2</ele>
        <time>2021-07-03T09:19:43Z</time>
      </trkpt>
      <trkpt lat="45.11941" lon="5.4106">
        <ele>1033.2</ele>
        <time>2021-07-03T09:19:47Z</time>
      </trkpt>
      <trkpt lat="45.11945" lon="5.41068">
        <ele>1033.8</ele>
        <time>2021-07-03T09:19:51Z</time>
      </trkpt>
      <trkpt lat="45.11946" lon="5.41077">
        <ele>1033.8</ele>
        <time>2021-07-03T09:19:55Z</time>
      </trkpt>
      <trkpt lat="45.11949" lon="5.41086">
        <ele>1034.8</ele>
        <time>2021-07-03T09:19:59Z</time>
      </trkpt>
      <trkpt lat="45.11949" lon="5.41094">
        <ele>1035.4</ele>
        <time>2021-07-03T09:20:03Z</time>
      </trkpt>
      <trkpt lat="45.11947" lon="5.41101">
        <ele>1035.8</ele>
        <time>2021-07-03T09:20:07Z</time>
      </trkpt>
      <trkpt lat="45.11907" lon="5.41118">
        <ele>1040.8</ele>
        <time>2021-07-03T09:20:45Z</time>
      </trkpt>
      <trkpt lat="45.11901" lon="5.41119">
        <ele>1041.4</ele>
        <time>2021-07-03T09:20:49Z</time>
      </trkpt>
      <trkpt lat="45.11894" lon="5.41123">
        <ele>1042</ele>
        <time>2021-07-03T09:20:53Z</time>
      </trkpt>
      <trkpt lat="45.11886" lon="5.41129">
        <ele>1042.2</ele>
        <time>2021-07-03T09:20:57Z</time>
      </trkpt>
      <trkpt lat="45.11877" lon="5.41135">
        <ele>1043.6</ele>
        <time>2021-07-03T09:21:01Z</time>
      </trkpt>
      <trkpt lat="45.1187" lon="5.4114">
        <ele>1044</ele>
        <time>2021-07-03T09:21:05Z</time>
      </trkpt>
      <trkpt lat="45.11863" lon="5.41147">
        <ele>1044.4</ele>
        <time>2021-07-03T09:21:09Z</time>
      </trkpt>
      <trkpt lat="45.11855" lon="5.41154">
        <ele>1044.8</ele>
        <time>2021-07-03T09:21:13Z</time>
      </trkpt>
      <trkpt lat="45.11847" lon="5.41162">
        <ele>1045.8</ele>
        <time>2021-07-03T09:21:17Z</time>
      </trkpt>
      <trkpt lat="45.11841" lon="5.41171">
        <ele>1046.4</ele>
        <time>2021-07-03T09:21:21Z</time>
      </trkpt>
      <trkpt lat="45.11836" lon="5.4118">
        <ele>1046.6</ele>
        <time>2021-07-03T09:21:25Z</time>
      </trkpt>
      <trkpt lat="45.11831" lon="5.41188">
        <ele>1047.6</ele>
        <time>2021-07-03T09:21:29Z</time>
      </trkpt>
      <trkpt lat="45.11827" lon="5.41196">
        <ele>1048.4</ele>
        <time>2021-07-03T09:21:33Z</time>
      </trkpt>
      <trkpt lat="45.11825" lon="5.41203">
        <ele>1048.4</ele>
        <time>2021-07-03T09:21:37Z</time>
      </trkpt>
      <trkpt lat="45.1182" lon="5.41212">
        <ele>1049.8</ele>
        <time>2021-07-03T09:21:41Z</time>
      </trkpt>
      <trkpt lat="45.11814" lon="5.41221">
        <ele>1050.2</ele>
        <time>2021-07-03T09:21:45Z</time>
      </trkpt>
      <trkpt lat="45.11808" lon="5.41229">
        <ele>1051</ele>
        <time>2021-07-03T09:21:49Z</time>
      </trkpt>
      <trkpt lat="45.11802" lon="5.41236">
        <ele>1051.8</ele>
        <time>2021-07-03T09:21:53Z</time>
      </trkpt>
      <trkpt lat="45.11798" lon="5.41244">
        <ele>1052.4</ele>
        <time>2021-07-03T09:21:57Z</time>
      </trkpt>
      <trkpt lat="45.11792" lon="5.41255">
        <ele>1052.6</ele>
        <time>2021-07-03T09:22:01Z</time>
      </trkpt>
      <trkpt lat="45.11787" lon="5.41263">
        <ele>1053.2</ele>
        <time>2021-07-03T09:22:05Z</time>
      </trkpt>
      <trkpt lat="45.1178" lon="5.41271">
        <ele>1053.8</ele>
        <time>2021-07-03T09:22:09Z</time>
      </trkpt>
      <trkpt lat="45.11775" lon="5.41278">
        <ele>1054</ele>
        <time>2021-07-03T09:22:13Z</time>
      </trkpt>
      <trkpt lat="45.1177" lon="5.41286">
        <ele>1054.6</ele>
        <time>2021-07-03T09:22:17Z</time>
      </trkpt>
      <trkpt lat="45.11765" lon="5.41295">
        <ele>1055.4</ele>
        <time>2021-07-03T09:22:21Z</time>
      </trkpt>
      <trkpt lat="45.1176" lon="5.41304">
        <ele>1055.8</ele>
        <time>2021-07-03T09:22:25Z</time>
      </trkpt>
      <trkpt lat="45.11755" lon="5.41312">
        <ele>1056.8</ele>
        <time>2021-07-03T09:22:29Z</time>
      </trkpt>
      <trkpt lat="45.11752" lon="5.41322">
        <ele>1057.6</ele>
        <time>2021-07-03T09:22:33Z</time>
      </trkpt>
      <trkpt lat="45.1175" lon="5.41333">
        <ele>1058.2</ele>
        <time>2021-07-03T09:22:37Z</time>
      </trkpt>
      <trkpt lat="45.11749" lon="5.41344">
        <ele>1058.6</ele>
        <time>2021-07-03T09:22:41Z</time>
      </trkpt>
      <trkpt lat="45.11748" lon="5.41354">
        <ele>1059.6</ele>
        <time>2021-07-03T09:22:45Z</time>
      </trkpt>
      <trkpt lat="45.11747" lon="5.41365">
        <ele>1059.8</ele>
        <time>2021-07-03T09:22:49Z</time>
      </trkpt>
      <trkpt lat="45.11747" lon="5.41376">
        <ele>1060.4</ele>
        <time>2021-07-03T09:22:53Z</time>
      </trkpt>
      <trkpt lat="45.11753" lon="5.41399">
        <ele>1061.8</ele>
        <time>2021-07-03T09:25:48Z</time>
      </trkpt>
      <trkpt lat="45.11754" lon="5.41408">
        <ele>1062.6</ele>
        <time>2021-07-03T09:25:52Z</time>
      </trkpt>
      <trkpt lat="45.11754" lon="5.41418">
        <ele>1062.8</ele>
        <time>2021-07-03T09:25:56Z</time>
      </trkpt>
      <trkpt lat="45.11755" lon="5.41427">
        <ele>1063.6</ele>
        <time>2021-07-03T09:26:00Z</time>
      </trkpt>
      <trkpt lat="45.11757" lon="5.41436">
        <ele>1063.6</ele>
        <time>2021-07-03T09:26:04Z</time>
      </trkpt>
      <trkpt lat="45.1176" lon="5.41444">
        <ele>1064.4</ele>
        <time>2021-07-03T09:26:08Z</time>
      </trkpt>
      <trkpt lat="45.11763" lon="5.41453">
        <ele>1065.2</ele>
        <time>2021-07-03T09:26:12Z</time>
      </trkpt>
      <trkpt lat="45.11764" lon="5.41461">
        <ele>1065.6</ele>
        <time>2021-07-03T09:26:16Z</time>
      </trkpt>
      <trkpt lat="45.11766" lon="5.4147">
        <ele>1066.2</ele>
        <time>2021-07-03T09:26:20Z</time>
      </trkpt>
      <trkpt lat="45.11766" lon="5.41479">
        <ele>1066.8</ele>
        <time>2021-07-03T09:26:24Z</time>
      </trkpt>
      <trkpt lat="45.11768" lon="5.41489">
        <ele>1067.2</ele>
        <time>2021-07-03T09:26:28Z</time>
      </trkpt>
      <trkpt lat="45.11769" lon="5.41499">
        <ele>1068</ele>
        <time>2021-07-03T09:26:32Z</time>
      </trkpt>
      <trkpt lat="45.11771" lon="5.41508">
        <ele>1068.6</ele>
        <time>2021-07-03T09:26:36Z</time>
      </trkpt>
      <trkpt lat="45.11773" lon="5.41518">
        <ele>1069</ele>
        <time>2021-07-03T09:26:40Z</time>
      </trkpt>
      <trkpt lat="45.11774" lon="5.41527">
        <ele>1069.8</ele>
        <time>2021-07-03T09:26:44Z</time>
      </trkpt>
      <trkpt lat="45.11778" lon="5.41535">
        <ele>1070.6</ele>
        <time>2021-07-03T09:26:48Z</time>
      </trkpt>
      <trkpt lat="45.11781" lon="5.41543">
        <ele>1070.8</ele>
        <time>2021-07-03T09:26:52Z</time>
      </trkpt>
      <trkpt lat="45.11783" lon="5.41551">
        <ele>1071.8</ele>
        <time>2021-07-03T09:26:56Z</time>
      </trkpt>
      <trkpt lat="45.11786" lon="5.41559">
        <ele>1072</ele>
        <time>2021-07-03T09:27:00Z</time>
      </trkpt>
      <trkpt lat="45.1179" lon="5.41565">
        <ele>1072.6</ele>
        <time>2021-07-03T09:27:04Z</time>
      </trkpt>
      <trkpt lat="45.11792" lon="5.41571">
        <ele>1073</ele>
        <time>2021-07-03T09:27:08Z</time>
      </trkpt>
      <trkpt lat="45.11795" lon="5.4158">
        <ele>1073.8</ele>
        <time>2021-07-03T09:27:12Z</time>
      </trkpt>
      <trkpt lat="45.11799" lon="5.41587">
        <ele>1074.6</ele>
        <time>2021-07-03T09:27:16Z</time>
      </trkpt>
      <trkpt lat="45.11804" lon="5.41593">
        <ele>1074.8</ele>
        <time>2021-07-03T09:27:20Z</time>
      </trkpt>
      <trkpt lat="45.11809" lon="5.41602">
        <ele>1075.6</ele>
        <time>2021-07-03T09:27:24Z</time>
      </trkpt>
      <trkpt lat="45.11813" lon="5.41608">
        <ele>1076.4</ele>
        <time>2021-07-03T09:27:28Z</time>
      </trkpt>
      <trkpt lat="45.11818" lon="5.41615">
        <ele>1077.4</ele>
        <time>2021-07-03T09:27:32Z</time>
      </trkpt>
      <trkpt lat="45.11823" lon="5.41621">
        <ele>1077.8</ele>
        <time>2021-07-03T09:27:36Z</time>
      </trkpt>
      <trkpt lat="45.11829" lon="5.41626">
        <ele>1078.4</ele>
        <time>2021-07-03T09:27:40Z</time>
      </trkpt>
      <trkpt lat="45.11833" lon="5.4163">
        <ele>1079.2</ele>
        <time>2021-07-03T09:27:44Z</time>
      </trkpt>
      <trkpt lat="45.11839" lon="5.41633">
        <ele>1079.8</ele>
        <time>2021-07-03T09:27:48Z</time>
      </trkpt>
      <trkpt lat="45.11847" lon="5.41635">
        <ele>1080.4</ele>
        <time>2021-07-03T09:27:52Z</time>
      </trkpt>
      <trkpt lat="45.11851" lon="5.41637">
        <ele>1080.8</ele>
        <time>2021-07-03T09:27:56Z</time>
      </trkpt>
      <trkpt lat="45.11856" lon="5.41638">
        <ele>1081.4</ele>
        <time>2021-07-03T09:28:00Z</time>
      </trkpt>
      <trkpt lat="45.11862" lon="5.4164">
        <ele>1082</ele>
        <time>2021-07-03T09:28:04Z</time>
      </trkpt>
      <trkpt lat="45.11869" lon="5.4164">
        <ele>1082.8</ele>
        <time>2021-07-03T09:28:08Z</time>
      </trkpt>
      <trkpt lat="45.11877" lon="5.41639">
        <ele>1083.4</ele>
        <time>2021-07-03T09:28:12Z</time>
      </trkpt>
      <trkpt lat="45.11884" lon="5.41638">
        <ele>1083.8</ele>
        <time>2021-07-03T09:28:16Z</time>
      </trkpt>
      <trkpt lat="45.11891" lon="5.41637">
        <ele>1084.8</ele>
        <time>2021-07-03T09:28:20Z</time>
      </trkpt>
      <trkpt lat="45.11897" lon="5.41635">
        <ele>1085</ele>
        <time>2021-07-03T09:28:24Z</time>
      </trkpt>
      <trkpt lat="45.11904" lon="5.41634">
        <ele>1086</ele>
        <time>2021-07-03T09:28:28Z</time>
      </trkpt>
      <trkpt lat="45.11912" lon="5.41632">
        <ele>1086.2</ele>
        <time>2021-07-03T09:28:32Z</time>
      </trkpt>
      <trkpt lat="45.11919" lon="5.4163">
        <ele>1086.4</ele>
        <time>2021-07-03T09:28:36Z</time>
      </trkpt>
      <trkpt lat="45.11926" lon="5.41628">
        <ele>1087.8</ele>
        <time>2021-07-03T09:28:40Z</time>
      </trkpt>
      <trkpt lat="45.11933" lon="5.41624">
        <ele>1088.6</ele>
        <time>2021-07-03T09:28:44Z</time>
      </trkpt>
      <trkpt lat="45.1194" lon="5.4162">
        <ele>1088.8</ele>
        <time>2021-07-03T09:28:48Z</time>
      </trkpt>
      <trkpt lat="45.11946" lon="5.41616">
        <ele>1089.4</ele>
        <time>2021-07-03T09:28:52Z</time>
      </trkpt>
      <trkpt lat="45.11953" lon="5.41612">
        <ele>1090.4</ele>
        <time>2021-07-03T09:28:56Z</time>
      </trkpt>
      <trkpt lat="45.1196" lon="5.4161">
        <ele>1090.6</ele>
        <time>2021-07-03T09:29:00Z</time>
      </trkpt>
      <trkpt lat="45.11966" lon="5.41604">
        <ele>1091.2</ele>
        <time>2021-07-03T09:29:04Z</time>
      </trkpt>
      <trkpt lat="45.11972" lon="5.41602">
        <ele>1092</ele>
        <time>2021-07-03T09:29:08Z</time>
      </trkpt>
      <trkpt lat="45.11978" lon="5.41602">
        <ele>1092.2</ele>
        <time>2021-07-03T09:29:12Z</time>
      </trkpt>
      <trkpt lat="45.11985" lon="5.41605">
        <ele>1092.6</ele>
        <time>2021-07-03T09:29:16Z</time>
      </trkpt>
      <trkpt lat="45.11994" lon="5.4161">
        <ele>1093.4</ele>
        <time>2021-07-03T09:29:20Z</time>
      </trkpt>
      <trkpt lat="45.11998" lon="5.41617">
        <ele>1094.2</ele>
        <time>2021-07-03T09:29:24Z</time>
      </trkpt>
      <trkpt lat="45.12002" lon="5.41627">
        <ele>1094.8</ele>
        <time>2021-07-03T09:29:28Z</time>
      </trkpt>
      <trkpt lat="45.12006" lon="5.41637">
        <ele>1095</ele>
        <time>2021-07-03T09:29:32Z</time>
      </trkpt>
      <trkpt lat="45.12009" lon="5.41648">
        <ele>1095.8</ele>
        <time>2021-07-03T09:29:36Z</time>
      </trkpt>
      <trkpt lat="45.12012" lon="5.41659">
        <ele>1096</ele>
        <time>2021-07-03T09:29:40Z</time>
      </trkpt>
      <trkpt lat="45.12015" lon="5.4167">
        <ele>1096.4</ele>
        <time>2021-07-03T09:29:44Z</time>
      </trkpt>
      <trkpt lat="45.12015" lon="5.41681">
        <ele>1096.6</ele>
        <time>2021-07-03T09:29:48Z</time>
      </trkpt>
      <trkpt lat="45.12016" lon="5.41693">
        <ele>1097</ele>
        <time>2021-07-03T09:29:52Z</time>
      </trkpt>
      <trkpt lat="45.12016" lon="5.41705">
        <ele>1097.4</ele>
        <time>2021-07-03T09:29:56Z</time>
      </trkpt>
      <trkpt lat="45.12016" lon="5.41717">
        <ele>1098.2</ele>
        <time>2021-07-03T09:30:00Z</time>
      </trkpt>
      <trkpt lat="45.12015" lon="5.41729">
        <ele>1098.6</ele>
        <time>2021-07-03T09:30:04Z</time>
      </trkpt>
      <trkpt lat="45.12015" lon="5.41741">
        <ele>1099</ele>
        <time>2021-07-03T09:30:08Z</time>
      </trkpt>
      <trkpt lat="45.12015" lon="5.41752">
        <ele>1099</ele>
        <time>2021-07-03T09:30:12Z</time>
      </trkpt>
      <trkpt lat="45.12016" lon="5.41763">
        <ele>1100</ele>
        <time>2021-07-03T09:30:16Z</time>
      </trkpt>
      <trkpt lat="45.12019" lon="5.41773">
        <ele>1100.2</ele>
        <time>2021-07-03T09:30:20Z</time>
      </trkpt>
      <trkpt lat="45.12025" lon="5.41781">
        <ele>1101</ele>
        <time>2021-07-03T09:30:24Z</time>
      </trkpt>
      <trkpt lat="45.1203" lon="5.41788">
        <ele>1101.4</ele>
        <time>2021-07-03T09:30:28Z</time>
      </trkpt>
      <trkpt lat="45.12036" lon="5.41794">
        <ele>1101.6</ele>
        <time>2021-07-03T09:30:32Z</time>
      </trkpt>
      <trkpt lat="45.12043" lon="5.41798">
        <ele>1102.4</ele>
        <time>2021-07-03T09:30:36Z</time>
      </trkpt>
      <trkpt lat="45.1205" lon="5.41804">
        <ele>1102.8</ele>
        <time>2021-07-03T09:30:40Z</time>
      </trkpt>
      <trkpt lat="45.12058" lon="5.4181">
        <ele>1103.2</ele>
        <time>2021-07-03T09:30:44Z</time>
      </trkpt>
      <trkpt lat="45.12066" lon="5.41815">
        <ele>1103.8</ele>
        <time>2021-07-03T09:30:48Z</time>
      </trkpt>
      <trkpt lat="45.12074" lon="5.41818">
        <ele>1104.2</ele>
        <time>2021-07-03T09:30:52Z</time>
      </trkpt>
      <trkpt lat="45.12081" lon="5.41821">
        <ele>1104.6</ele>
        <time>2021-07-03T09:30:56Z</time>
      </trkpt>
      <trkpt lat="45.12089" lon="5.41824">
        <ele>1105.4</ele>
        <time>2021-07-03T09:31:00Z</time>
      </trkpt>
      <trkpt lat="45.12098" lon="5.41827">
        <ele>1105.8</ele>
        <time>2021-07-03T09:31:04Z</time>
      </trkpt>
      <trkpt lat="45.12107" lon="5.41829">
        <ele>1105.8</ele>
        <time>2021-07-03T09:31:08Z</time>
      </trkpt>
      <trkpt lat="45.12115" lon="5.41831">
        <ele>1106.6</ele>
        <time>2021-07-03T09:31:12Z</time>
      </trkpt>
      <trkpt lat="45.12124" lon="5.41832">
        <ele>1107.2</ele>
        <time>2021-07-03T09:31:16Z</time>
      </trkpt>
      <trkpt lat="45.12132" lon="5.41834">
        <ele>1107.8</ele>
        <time>2021-07-03T09:31:20Z</time>
      </trkpt>
      <trkpt lat="45.12143" lon="5.41832">
        <ele>1108</ele>
        <time>2021-07-03T09:31:24Z</time>
      </trkpt>
      <trkpt lat="45.12154" lon="5.4183">
        <ele>1108.6</ele>
        <time>2021-07-03T09:31:28Z</time>
      </trkpt>
      <trkpt lat="45.12162" lon="5.41829">
        <ele>1108.8</ele>
        <time>2021-07-03T09:31:32Z</time>
      </trkpt>
      <trkpt lat="45.12171" lon="5.41827">
        <ele>1108.8</ele>
        <time>2021-07-03T09:31:36Z</time>
      </trkpt>
      <trkpt lat="45.12181" lon="5.41826">
        <ele>1109.2</ele>
        <time>2021-07-03T09:31:40Z</time>
      </trkpt>
      <trkpt lat="45.12189" lon="5.41829">
        <ele>1109.4</ele>
        <time>2021-07-03T09:31:44Z</time>
      </trkpt>
      <trkpt lat="45.12198" lon="5.41835">
        <ele>1109.8</ele>
        <time>2021-07-03T09:31:48Z</time>
      </trkpt>
      <trkpt lat="45.12206" lon="5.41844">
        <ele>1110.2</ele>
        <time>2021-07-03T09:31:52Z</time>
      </trkpt>
      <trkpt lat="45.12214" lon="5.41855">
        <ele>1110.4</ele>
        <time>2021-07-03T09:31:56Z</time>
      </trkpt>
      <trkpt lat="45.12221" lon="5.41866">
        <ele>1111</ele>
        <time>2021-07-03T09:32:00Z</time>
      </trkpt>
      <trkpt lat="45.12224" lon="5.41877">
        <ele>1111.8</ele>
        <time>2021-07-03T09:32:04Z</time>
      </trkpt>
      <trkpt lat="45.12226" lon="5.41887">
        <ele>1112.4</ele>
        <time>2021-07-03T09:32:08Z</time>
      </trkpt>
      <trkpt lat="45.12229" lon="5.41895">
        <ele>1113.2</ele>
        <time>2021-07-03T09:32:12Z</time>
      </trkpt>
      <trkpt lat="45.12234" lon="5.41902">
        <ele>1113.6</ele>
        <time>2021-07-03T09:32:16Z</time>
      </trkpt>
      <trkpt lat="45.12238" lon="5.41909">
        <ele>1114.2</ele>
        <time>2021-07-03T09:32:20Z</time>
      </trkpt>
      <trkpt lat="45.12243" lon="5.41914">
        <ele>1115.2</ele>
        <time>2021-07-03T09:32:24Z</time>
      </trkpt>
      <trkpt lat="45.12248" lon="5.41919">
        <ele>1115.4</ele>
        <time>2021-07-03T09:32:28Z</time>
      </trkpt>
      <trkpt lat="45.12255" lon="5.41925">
        <ele>1116.2</ele>
        <time>2021-07-03T09:32:32Z</time>
      </trkpt>
      <trkpt lat="45.1226" lon="5.41929">
        <ele>1116.8</ele>
        <time>2021-07-03T09:32:36Z</time>
      </trkpt>
      <trkpt lat="45.12265" lon="5.41934">
        <ele>1117.2</ele>
        <time>2021-07-03T09:32:40Z</time>
      </trkpt>
      <trkpt lat="45.12272" lon="5.41938">
        <ele>1118.4</ele>
        <time>2021-07-03T09:32:44Z</time>
      </trkpt>
      <trkpt lat="45.12277" lon="5.41942">
        <ele>1119</ele>
        <time>2021-07-03T09:32:48Z</time>
      </trkpt>
      <trkpt lat="45.12282" lon="5.41946">
        <ele>1120.4</ele>
        <time>2021-07-03T09:32:52Z</time>
      </trkpt>
      <trkpt lat="45.12286" lon="5.4195">
        <ele>1120.8</ele>
        <time>2021-07-03T09:32:56Z</time>
      </trkpt>
      <trkpt lat="45.1229" lon="5.41953">
        <ele>1121.2</ele>
        <time>2021-07-03T09:33:00Z</time>
      </trkpt>
      <trkpt lat="45.12294" lon="5.41959">
        <ele>1122</ele>
        <time>2021-07-03T09:33:04Z</time>
      </trkpt>
      <trkpt lat="45.12299" lon="5.41965">
        <ele>1122.8</ele>
        <time>2021-07-03T09:33:08Z</time>
      </trkpt>
      <trkpt lat="45.12304" lon="5.41971">
        <ele>1123.4</ele>
        <time>2021-07-03T09:33:12Z</time>
      </trkpt>
      <trkpt lat="45.12307" lon="5.41977">
        <ele>1124.2</ele>
        <time>2021-07-03T09:33:16Z</time>
      </trkpt>
      <trkpt lat="45.12312" lon="5.41983">
        <ele>1124.6</ele>
        <time>2021-07-03T09:33:20Z</time>
      </trkpt>
      <trkpt lat="45.12317" lon="5.41987">
        <ele>1125.4</ele>
        <time>2021-07-03T09:33:24Z</time>
      </trkpt>
      <trkpt lat="45.12323" lon="5.41992">
        <ele>1126</ele>
        <time>2021-07-03T09:33:28Z</time>
      </trkpt>
      <trkpt lat="45.1233" lon="5.41992">
        <ele>1126.4</ele>
        <time>2021-07-03T09:33:32Z</time>
      </trkpt>
      <trkpt lat="45.12336" lon="5.4199">
        <ele>1127.2</ele>
        <time>2021-07-03T09:33:36Z</time>
      </trkpt>
      <trkpt lat="45.12342" lon="5.41986">
        <ele>1127.8</ele>
        <time>2021-07-03T09:33:40Z</time>
      </trkpt>
      <trkpt lat="45.12349" lon="5.41982">
        <ele>1128.2</ele>
        <time>2021-07-03T09:33:44Z</time>
      </trkpt>
      <trkpt lat="45.12354" lon="5.41976">
        <ele>1128.6</ele>
        <time>2021-07-03T09:33:48Z</time>
      </trkpt>
      <trkpt lat="45.12359" lon="5.41969">
        <ele>1128.8</ele>
        <time>2021-07-03T09:33:52Z</time>
      </trkpt>
      <trkpt lat="45.12363" lon="5.41962">
        <ele>1130.2</ele>
        <time>2021-07-03T09:33:56Z</time>
      </trkpt>
      <trkpt lat="45.12366" lon="5.41955">
        <ele>1130.6</ele>
        <time>2021-07-03T09:34:00Z</time>
      </trkpt>
      <trkpt lat="45.1237" lon="5.41946">
        <ele>1131.2</ele>
        <time>2021-07-03T09:34:04Z</time>
      </trkpt>
      <trkpt lat="45.12375" lon="5.41938">
        <ele>1131.6</ele>
        <time>2021-07-03T09:34:08Z</time>
      </trkpt>
      <trkpt lat="45.12381" lon="5.4193">
        <ele>1131.8</ele>
        <time>2021-07-03T09:34:12Z</time>
      </trkpt>
      <trkpt lat="45.12388" lon="5.41924">
        <ele>1132.6</ele>
        <time>2021-07-03T09:34:16Z</time>
      </trkpt>
      <trkpt lat="45.12394" lon="5.41919">
        <ele>1133.2</ele>
        <time>2021-07-03T09:34:20Z</time>
      </trkpt>
      <trkpt lat="45.124" lon="5.41916">
        <ele>1133.8</ele>
        <time>2021-07-03T09:34:24Z</time>
      </trkpt>
      <trkpt lat="45.12405" lon="5.4191">
        <ele>1134.4</ele>
        <time>2021-07-03T09:34:28Z</time>
      </trkpt>
      <trkpt lat="45.12411" lon="5.4191">
        <ele>1135</ele>
        <time>2021-07-03T09:34:32Z</time>
      </trkpt>
      <trkpt lat="45.12416" lon="5.41908">
        <ele>1135.8</ele>
        <time>2021-07-03T09:34:36Z</time>
      </trkpt>
      <trkpt lat="45.1242" lon="5.41907">
        <ele>1136.2</ele>
        <time>2021-07-03T09:34:40Z</time>
      </trkpt>
      <trkpt lat="45.12427" lon="5.41906">
        <ele>1136.6</ele>
        <time>2021-07-03T09:34:44Z</time>
      </trkpt>
      <trkpt lat="45.12433" lon="5.41905">
        <ele>1137.2</ele>
        <time>2021-07-03T09:34:48Z</time>
      </trkpt>
      <trkpt lat="45.12439" lon="5.41905">
        <ele>1138.2</ele>
        <time>2021-07-03T09:34:52Z</time>
      </trkpt>
      <trkpt lat="45.12445" lon="5.41903">
        <ele>1138.4</ele>
        <time>2021-07-03T09:34:56Z</time>
      </trkpt>
      <trkpt lat="45.12451" lon="5.41903">
        <ele>1139.4</ele>
        <time>2021-07-03T09:35:00Z</time>
      </trkpt>
      <trkpt lat="45.12456" lon="5.41902">
        <ele>1139.6</ele>
        <time>2021-07-03T09:35:04Z</time>
      </trkpt>
      <trkpt lat="45.12463" lon="5.41901">
        <ele>1140.4</ele>
        <time>2021-07-03T09:35:08Z</time>
      </trkpt>
      <trkpt lat="45.12471" lon="5.419">
        <ele>1141.6</ele>
        <time>2021-07-03T09:35:12Z</time>
      </trkpt>
      <trkpt lat="45.12477" lon="5.41896">
        <ele>1142</ele>
        <time>2021-07-03T09:35:16Z</time>
      </trkpt>
      <trkpt lat="45.12483" lon="5.4189">
        <ele>1143</ele>
        <time>2021-07-03T09:35:20Z</time>
      </trkpt>
      <trkpt lat="45.12491" lon="5.41887">
        <ele>1143.6</ele>
        <time>2021-07-03T09:35:24Z</time>
      </trkpt>
      <trkpt lat="45.12499" lon="5.41883">
        <ele>1144</ele>
        <time>2021-07-03T09:35:28Z</time>
      </trkpt>
      <trkpt lat="45.12506" lon="5.41881">
        <ele>1144.4</ele>
        <time>2021-07-03T09:35:32Z</time>
      </trkpt>
      <trkpt lat="45.12513" lon="5.4188">
        <ele>1145</ele>
        <time>2021-07-03T09:35:36Z</time>
      </trkpt>
      <trkpt lat="45.12521" lon="5.4188">
        <ele>1145.6</ele>
        <time>2021-07-03T09:35:40Z</time>
      </trkpt>
      <trkpt lat="45.1253" lon="5.41881">
        <ele>1146</ele>
        <time>2021-07-03T09:35:44Z</time>
      </trkpt>
      <trkpt lat="45.12539" lon="5.41886">
        <ele>1146.8</ele>
        <time>2021-07-03T09:35:48Z</time>
      </trkpt>
      <trkpt lat="45.12546" lon="5.41892">
        <ele>1147.2</ele>
        <time>2021-07-03T09:35:52Z</time>
      </trkpt>
      <trkpt lat="45.12548" lon="5.41903">
        <ele>1147.4</ele>
        <time>2021-07-03T09:35:56Z</time>
      </trkpt>
      <trkpt lat="45.12549" lon="5.41914">
        <ele>1147.8</ele>
        <time>2021-07-03T09:36:00Z</time>
      </trkpt>
      <trkpt lat="45.1255" lon="5.41926">
        <ele>1148.4</ele>
        <time>2021-07-03T09:36:04Z</time>
      </trkpt>
      <trkpt lat="45.12551" lon="5.41939">
        <ele>1148.8</ele>
        <time>2021-07-03T09:36:08Z</time>
      </trkpt>
      <trkpt lat="45.12554" lon="5.41951">
        <ele>1148.8</ele>
        <time>2021-07-03T09:36:12Z</time>
      </trkpt>
      <trkpt lat="45.12554" lon="5.41964">
        <ele>1149.4</ele>
        <time>2021-07-03T09:36:16Z</time>
      </trkpt>
      <trkpt lat="45.12556" lon="5.41977">
        <ele>1149.8</ele>
        <time>2021-07-03T09:36:20Z</time>
      </trkpt>
      <trkpt lat="45.12558" lon="5.41989">
        <ele>1149.8</ele>
        <time>2021-07-03T09:36:24Z</time>
      </trkpt>
      <trkpt lat="45.12561" lon="5.42002">
        <ele>1148.8</ele>
        <time>2021-07-03T09:36:28Z</time>
      </trkpt>
      <trkpt lat="45.12565" lon="5.42017">
        <ele>1150</ele>
        <time>2021-07-03T09:36:32Z</time>
      </trkpt>
      <trkpt lat="45.1257" lon="5.4203">
        <ele>1150</ele>
        <time>2021-07-03T09:36:36Z</time>
      </trkpt>
      <trkpt lat="45.12575" lon="5.42041">
        <ele>1150.4</ele>
        <time>2021-07-03T09:36:40Z</time>
      </trkpt>
      <trkpt lat="45.12582" lon="5.42054">
        <ele>1151</ele>
        <time>2021-07-03T09:36:44Z</time>
      </trkpt>
      <trkpt lat="45.12588" lon="5.42066">
        <ele>1150.6</ele>
        <time>2021-07-03T09:36:48Z</time>
      </trkpt>
      <trkpt lat="45.12593" lon="5.42079">
        <ele>1151.2</ele>
        <time>2021-07-03T09:36:52Z</time>
      </trkpt>
      <trkpt lat="45.12596" lon="5.42094">
        <ele>1151</ele>
        <time>2021-07-03T09:36:56Z</time>
      </trkpt>
      <trkpt lat="45.126" lon="5.42109">
        <ele>1151.4</ele>
        <time>2021-07-03T09:37:00Z</time>
      </trkpt>
      <trkpt lat="45.12602" lon="5.42124">
        <ele>1152</ele>
        <time>2021-07-03T09:37:04Z</time>
      </trkpt>
      <trkpt lat="45.12607" lon="5.4214">
        <ele>1151.6</ele>
        <time>2021-07-03T09:37:08Z</time>
      </trkpt>
      <trkpt lat="45.12611" lon="5.42157">
        <ele>1152</ele>
        <time>2021-07-03T09:37:12Z</time>
      </trkpt>
      <trkpt lat="45.12615" lon="5.42172">
        <ele>1152.2</ele>
        <time>2021-07-03T09:37:16Z</time>
      </trkpt>
      <trkpt lat="45.12622" lon="5.42187">
        <ele>1152.6</ele>
        <time>2021-07-03T09:37:20Z</time>
      </trkpt>
      <trkpt lat="45.12629" lon="5.42201">
        <ele>1152.8</ele>
        <time>2021-07-03T09:37:24Z</time>
      </trkpt>
      <trkpt lat="45.12637" lon="5.42217">
        <ele>1153.2</ele>
        <time>2021-07-03T09:37:28Z</time>
      </trkpt>
      <trkpt lat="45.12647" lon="5.42233">
        <ele>1153.2</ele>
        <time>2021-07-03T09:37:32Z</time>
      </trkpt>
      <trkpt lat="45.12654" lon="5.42251">
        <ele>1153.8</ele>
        <time>2021-07-03T09:37:36Z</time>
      </trkpt>
      <trkpt lat="45.12659" lon="5.42269">
        <ele>1153.4</ele>
        <time>2021-07-03T09:37:40Z</time>
      </trkpt>
      <trkpt lat="45.12664" lon="5.42288">
        <ele>1154.4</ele>
        <time>2021-07-03T09:37:44Z</time>
      </trkpt>
      <trkpt lat="45.12668" lon="5.42306">
        <ele>1154.4</ele>
        <time>2021-07-03T09:37:48Z</time>
      </trkpt>
      <trkpt lat="45.12668" lon="5.42324">
        <ele>1153.4</ele>
        <time>2021-07-03T09:37:52Z</time>
      </trkpt>
      <trkpt lat="45.12666" lon="5.42342">
        <ele>1155.2</ele>
        <time>2021-07-03T09:37:56Z</time>
      </trkpt>
      <trkpt lat="45.12665" lon="5.4236">
        <ele>1154.8</ele>
        <time>2021-07-03T09:38:00Z</time>
      </trkpt>
      <trkpt lat="45.12663" lon="5.42378">
        <ele>1155.4</ele>
        <time>2021-07-03T09:38:04Z</time>
      </trkpt>
      <trkpt lat="45.12662" lon="5.42397">
        <ele>1155.4</ele>
        <time>2021-07-03T09:38:08Z</time>
      </trkpt>
      <trkpt lat="45.12663" lon="5.42419">
        <ele>1155</ele>
        <time>2021-07-03T09:38:12Z</time>
      </trkpt>
      <trkpt lat="45.12662" lon="5.42441">
        <ele>1155</ele>
        <time>2021-07-03T09:38:16Z</time>
      </trkpt>
      <trkpt lat="45.1266" lon="5.42461">
        <ele>1155</ele>
        <time>2021-07-03T09:38:20Z</time>
      </trkpt>
      <trkpt lat="45.12659" lon="5.42483">
        <ele>1155.4</ele>
        <time>2021-07-03T09:38:24Z</time>
      </trkpt>
      <trkpt lat="45.12656" lon="5.42504">
        <ele>1155.4</ele>
        <time>2021-07-03T09:38:28Z</time>
      </trkpt>
      <trkpt lat="45.12651" lon="5.42521">
        <ele>1155.6</ele>
        <time>2021-07-03T09:38:32Z</time>
      </trkpt>
      <trkpt lat="45.12645" lon="5.42538">
        <ele>1156</ele>
        <time>2021-07-03T09:38:36Z</time>
      </trkpt>
      <trkpt lat="45.1264" lon="5.42554">
        <ele>1156</ele>
        <time>2021-07-03T09:38:40Z</time>
      </trkpt>
      <trkpt lat="45.12634" lon="5.42568">
        <ele>1157.2</ele>
        <time>2021-07-03T09:38:44Z</time>
      </trkpt>
      <trkpt lat="45.12629" lon="5.42586">
        <ele>1157.2</ele>
        <time>2021-07-03T09:38:48Z</time>
      </trkpt>
      <trkpt lat="45.12628" lon="5.426">
        <ele>1157.6</ele>
        <time>2021-07-03T09:38:52Z</time>
      </trkpt>
      <trkpt lat="45.12627" lon="5.42615">
        <ele>1158</ele>
        <time>2021-07-03T09:38:56Z</time>
      </trkpt>
      <trkpt lat="45.1263" lon="5.4263">
        <ele>1158.6</ele>
        <time>2021-07-03T09:39:00Z</time>
      </trkpt>
      <trkpt lat="45.12634" lon="5.42643">
        <ele>1158.8</ele>
        <time>2021-07-03T09:39:04Z</time>
      </trkpt>
      <trkpt lat="45.1264" lon="5.42653">
        <ele>1159.4</ele>
        <time>2021-07-03T09:39:08Z</time>
      </trkpt>
      <trkpt lat="45.12647" lon="5.4266">
        <ele>1160</ele>
        <time>2021-07-03T09:39:12Z</time>
      </trkpt>
      <trkpt lat="45.12655" lon="5.42666">
        <ele>1161.2</ele>
        <time>2021-07-03T09:39:16Z</time>
      </trkpt>
      <trkpt lat="45.12664" lon="5.42669">
        <ele>1162</ele>
        <time>2021-07-03T09:39:20Z</time>
      </trkpt>
      <trkpt lat="45.12673" lon="5.4267">
        <ele>1162.4</ele>
        <time>2021-07-03T09:39:24Z</time>
      </trkpt>
      <trkpt lat="45.12682" lon="5.42673">
        <ele>1162.8</ele>
        <time>2021-07-03T09:39:28Z</time>
      </trkpt>
      <trkpt lat="45.12689" lon="5.42675">
        <ele>1163.4</ele>
        <time>2021-07-03T09:39:32Z</time>
      </trkpt>
      <trkpt lat="45.12697" lon="5.42676">
        <ele>1163.6</ele>
        <time>2021-07-03T09:39:36Z</time>
      </trkpt>
      <trkpt lat="45.12703" lon="5.42677">
        <ele>1164.8</ele>
        <time>2021-07-03T09:39:40Z</time>
      </trkpt>
      <trkpt lat="45.12709" lon="5.42674">
        <ele>1165</ele>
        <time>2021-07-03T09:39:44Z</time>
      </trkpt>
      <trkpt lat="45.12715" lon="5.42672">
        <ele>1165.4</ele>
        <time>2021-07-03T09:39:48Z</time>
      </trkpt>
      <trkpt lat="45.12722" lon="5.42671">
        <ele>1166.2</ele>
        <time>2021-07-03T09:39:52Z</time>
      </trkpt>
      <trkpt lat="45.12729" lon="5.42671">
        <ele>1166</ele>
        <time>2021-07-03T09:39:56Z</time>
      </trkpt>
      <trkpt lat="45.12736" lon="5.42669">
        <ele>1167</ele>
        <time>2021-07-03T09:40:00Z</time>
      </trkpt>
      <trkpt lat="45.12743" lon="5.42666">
        <ele>1167.6</ele>
        <time>2021-07-03T09:40:04Z</time>
      </trkpt>
      <trkpt lat="45.1275" lon="5.42665">
        <ele>1168</ele>
        <time>2021-07-03T09:40:08Z</time>
      </trkpt>
      <trkpt lat="45.12755" lon="5.42661">
        <ele>1168.4</ele>
        <time>2021-07-03T09:40:12Z</time>
      </trkpt>
      <trkpt lat="45.12762" lon="5.42658">
        <ele>1169.2</ele>
        <time>2021-07-03T09:40:16Z</time>
      </trkpt>
      <trkpt lat="45.12769" lon="5.42656">
        <ele>1169.6</ele>
        <time>2021-07-03T09:40:20Z</time>
      </trkpt>
      <trkpt lat="45.12775" lon="5.42654">
        <ele>1170.2</ele>
        <time>2021-07-03T09:40:24Z</time>
      </trkpt>
      <trkpt lat="45.1278" lon="5.42651">
        <ele>1170.8</ele>
        <time>2021-07-03T09:40:28Z</time>
      </trkpt>
      <trkpt lat="45.12786" lon="5.4265">
        <ele>1171.8</ele>
        <time>2021-07-03T09:40:32Z</time>
      </trkpt>
      <trkpt lat="45.12792" lon="5.42649">
        <ele>1172.6</ele>
        <time>2021-07-03T09:40:36Z</time>
      </trkpt>
      <trkpt lat="45.12798" lon="5.42649">
        <ele>1172.8</ele>
        <time>2021-07-03T09:40:40Z</time>
      </trkpt>
      <trkpt lat="45.12805" lon="5.42649">
        <ele>1174</ele>
        <time>2021-07-03T09:40:44Z</time>
      </trkpt>
      <trkpt lat="45.12811" lon="5.42651">
        <ele>1174</ele>
        <time>2021-07-03T09:40:48Z</time>
      </trkpt>
      <trkpt lat="45.12817" lon="5.42652">
        <ele>1174.8</ele>
        <time>2021-07-03T09:40:52Z</time>
      </trkpt>
      <trkpt lat="45.12824" lon="5.42654">
        <ele>1175.6</ele>
        <time>2021-07-03T09:40:56Z</time>
      </trkpt>
      <trkpt lat="45.1283" lon="5.42655">
        <ele>1176.8</ele>
        <time>2021-07-03T09:41:00Z</time>
      </trkpt>
      <trkpt lat="45.12835" lon="5.42657">
        <ele>1176.6</ele>
        <time>2021-07-03T09:41:04Z</time>
      </trkpt>
      <trkpt lat="45.12842" lon="5.4266">
        <ele>1177.6</ele>
        <time>2021-07-03T09:41:08Z</time>
      </trkpt>
      <trkpt lat="45.12848" lon="5.42663">
        <ele>1178.4</ele>
        <time>2021-07-03T09:41:12Z</time>
      </trkpt>
      <trkpt lat="45.12854" lon="5.42666">
        <ele>1178.8</ele>
        <time>2021-07-03T09:41:16Z</time>
      </trkpt>
      <trkpt lat="45.1286" lon="5.42671">
        <ele>1179.6</ele>
        <time>2021-07-03T09:41:20Z</time>
      </trkpt>
      <trkpt lat="45.12866" lon="5.42676">
        <ele>1179.8</ele>
        <time>2021-07-03T09:41:24Z</time>
      </trkpt>
      <trkpt lat="45.12871" lon="5.4268">
        <ele>1180.8</ele>
        <time>2021-07-03T09:41:28Z</time>
      </trkpt>
      <trkpt lat="45.12877" lon="5.42686">
        <ele>1181.6</ele>
        <time>2021-07-03T09:41:32Z</time>
      </trkpt>
      <trkpt lat="45.12882" lon="5.42692">
        <ele>1181.8</ele>
        <time>2021-07-03T09:41:36Z</time>
      </trkpt>
      <trkpt lat="45.12887" lon="5.42698">
        <ele>1183</ele>
        <time>2021-07-03T09:41:40Z</time>
      </trkpt>
      <trkpt lat="45.12892" lon="5.42704">
        <ele>1183.2</ele>
        <time>2021-07-03T09:41:44Z</time>
      </trkpt>
      <trkpt lat="45.12896" lon="5.42711">
        <ele>1184.2</ele>
        <time>2021-07-03T09:41:48Z</time>
      </trkpt>
      <trkpt lat="45.12899" lon="5.42718">
        <ele>1184.4</ele>
        <time>2021-07-03T09:41:52Z</time>
      </trkpt>
      <trkpt lat="45.12902" lon="5.42725">
        <ele>1185.2</ele>
        <time>2021-07-03T09:41:56Z</time>
      </trkpt>
      <trkpt lat="45.12904" lon="5.42732">
        <ele>1186.2</ele>
        <time>2021-07-03T09:42:00Z</time>
      </trkpt>
      <trkpt lat="45.12907" lon="5.42739">
        <ele>1186.2</ele>
        <time>2021-07-03T09:42:04Z</time>
      </trkpt>
      <trkpt lat="45.12909" lon="5.42747">
        <ele>1187</ele>
        <time>2021-07-03T09:42:08Z</time>
      </trkpt>
      <trkpt lat="45.12914" lon="5.42762">
        <ele>1188.2</ele>
        <time>2021-07-03T09:42:22Z</time>
      </trkpt>
      <trkpt lat="45.12914" lon="5.42762">
        <ele>1188.8</ele>
        <time>2021-07-03T09:42:26Z</time>
      </trkpt>
      <trkpt lat="45.12922" lon="5.42779">
        <ele>1189.8</ele>
        <time>2021-07-03T09:42:55Z</time>
      </trkpt>
      <trkpt lat="45.12925" lon="5.42789">
        <ele>1190.2</ele>
        <time>2021-07-03T09:42:59Z</time>
      </trkpt>
      <trkpt lat="45.12927" lon="5.428">
        <ele>1190.6</ele>
        <time>2021-07-03T09:43:03Z</time>
      </trkpt>
      <trkpt lat="45.1293" lon="5.4281">
        <ele>1191.8</ele>
        <time>2021-07-03T09:43:07Z</time>
      </trkpt>
      <trkpt lat="45.12932" lon="5.42818">
        <ele>1192</ele>
        <time>2021-07-03T09:43:11Z</time>
      </trkpt>
      <trkpt lat="45.12933" lon="5.42828">
        <ele>1191.8</ele>
        <time>2021-07-03T09:43:15Z</time>
      </trkpt>
      <trkpt lat="45.12934" lon="5.42837">
        <ele>1193</ele>
        <time>2021-07-03T09:43:19Z</time>
      </trkpt>
      <trkpt lat="45.12935" lon="5.42845">
        <ele>1193.4</ele>
        <time>2021-07-03T09:43:23Z</time>
      </trkpt>
      <trkpt lat="45.12935" lon="5.42855">
        <ele>1194.6</ele>
        <time>2021-07-03T09:43:27Z</time>
      </trkpt>
      <trkpt lat="45.12935" lon="5.42864">
        <ele>1195</ele>
        <time>2021-07-03T09:43:31Z</time>
      </trkpt>
      <trkpt lat="45.12934" lon="5.42873">
        <ele>1195.8</ele>
        <time>2021-07-03T09:43:35Z</time>
      </trkpt>
      <trkpt lat="45.12932" lon="5.42882">
        <ele>1196.2</ele>
        <time>2021-07-03T09:43:39Z</time>
      </trkpt>
      <trkpt lat="45.12929" lon="5.4289">
        <ele>1196.4</ele>
        <time>2021-07-03T09:43:43Z</time>
      </trkpt>
      <trkpt lat="45.12924" lon="5.42899">
        <ele>1197.6</ele>
        <time>2021-07-03T09:43:47Z</time>
      </trkpt>
      <trkpt lat="45.1292" lon="5.42908">
        <ele>1198.2</ele>
        <time>2021-07-03T09:43:51Z</time>
      </trkpt>
      <trkpt lat="45.12916" lon="5.42917">
        <ele>1198.6</ele>
        <time>2021-07-03T09:43:55Z</time>
      </trkpt>
      <trkpt lat="45.12912" lon="5.42926">
        <ele>1199.8</ele>
        <time>2021-07-03T09:43:59Z</time>
      </trkpt>
      <trkpt lat="45.12907" lon="5.42934">
        <ele>1200.2</ele>
        <time>2021-07-03T09:44:03Z</time>
      </trkpt>
      <trkpt lat="45.12904" lon="5.42942">
        <ele>1201</ele>
        <time>2021-07-03T09:44:07Z</time>
      </trkpt>
      <trkpt lat="45.129" lon="5.42949">
        <ele>1201.4</ele>
        <time>2021-07-03T09:44:11Z</time>
      </trkpt>
      <trkpt lat="45.12896" lon="5.42958">
        <ele>1201.8</ele>
        <time>2021-07-03T09:44:15Z</time>
      </trkpt>
      <trkpt lat="45.12892" lon="5.42966">
        <ele>1202</ele>
        <time>2021-07-03T09:44:19Z</time>
      </trkpt>
      <trkpt lat="45.12888" lon="5.42974">
        <ele>1203</ele>
        <time>2021-07-03T09:44:23Z</time>
      </trkpt>
      <trkpt lat="45.12885" lon="5.42982">
        <ele>1204.2</ele>
        <time>2021-07-03T09:44:27Z</time>
      </trkpt>
      <trkpt lat="45.12884" lon="5.42991">
        <ele>1204.6</ele>
        <time>2021-07-03T09:44:31Z</time>
      </trkpt>
      <trkpt lat="45.12882" lon="5.43">
        <ele>1205.2</ele>
        <time>2021-07-03T09:44:35Z</time>
      </trkpt>
      <trkpt lat="45.12881" lon="5.43009">
        <ele>1206</ele>
        <time>2021-07-03T09:44:39Z</time>
      </trkpt>
      <trkpt lat="45.1288" lon="5.43018">
        <ele>1207</ele>
        <time>2021-07-03T09:44:43Z</time>
      </trkpt>
      <trkpt lat="45.12881" lon="5.43027">
        <ele>1207.2</ele>
        <time>2021-07-03T09:44:47Z</time>
      </trkpt>
      <trkpt lat="45.1288" lon="5.43037">
        <ele>1207.8</ele>
        <time>2021-07-03T09:44:51Z</time>
      </trkpt>
      <trkpt lat="45.1288" lon="5.43046">
        <ele>1209.2</ele>
        <time>2021-07-03T09:44:55Z</time>
      </trkpt>
      <trkpt lat="45.12881" lon="5.43056">
        <ele>1209.6</ele>
        <time>2021-07-03T09:44:59Z</time>
      </trkpt>
      <trkpt lat="45.12882" lon="5.43065">
        <ele>1210.2</ele>
        <time>2021-07-03T09:45:03Z</time>
      </trkpt>
      <trkpt lat="45.12881" lon="5.43075">
        <ele>1210.8</ele>
        <time>2021-07-03T09:45:07Z</time>
      </trkpt>
      <trkpt lat="45.12881" lon="5.43084">
        <ele>1210.8</ele>
        <time>2021-07-03T09:45:11Z</time>
      </trkpt>
      <trkpt lat="45.12881" lon="5.43094">
        <ele>1212</ele>
        <time>2021-07-03T09:45:15Z</time>
      </trkpt>
      <trkpt lat="45.1288" lon="5.43101">
        <ele>1212.2</ele>
        <time>2021-07-03T09:45:19Z</time>
      </trkpt>
      <trkpt lat="45.12878" lon="5.43109">
        <ele>1213.2</ele>
        <time>2021-07-03T09:45:23Z</time>
      </trkpt>
      <trkpt lat="45.12878" lon="5.43119">
        <ele>1213.6</ele>
        <time>2021-07-03T09:45:27Z</time>
      </trkpt>
      <trkpt lat="45.12878" lon="5.4313">
        <ele>1213.8</ele>
        <time>2021-07-03T09:45:31Z</time>
      </trkpt>
      <trkpt lat="45.12877" lon="5.43138">
        <ele>1214.6</ele>
        <time>2021-07-03T09:45:35Z</time>
      </trkpt>
      <trkpt lat="45.12875" lon="5.43148">
        <ele>1214.6</ele>
        <time>2021-07-03T09:45:39Z</time>
      </trkpt>
      <trkpt lat="45.12873" lon="5.43157">
        <ele>1215.6</ele>
        <time>2021-07-03T09:45:43Z</time>
      </trkpt>
      <trkpt lat="45.1287" lon="5.43167">
        <ele>1215.8</ele>
        <time>2021-07-03T09:45:47Z</time>
      </trkpt>
      <trkpt lat="45.12863" lon="5.43176">
        <ele>1216.2</ele>
        <time>2021-07-03T09:45:51Z</time>
      </trkpt>
      <trkpt lat="45.12857" lon="5.43186">
        <ele>1216.6</ele>
        <time>2021-07-03T09:45:55Z</time>
      </trkpt>
      <trkpt lat="45.12853" lon="5.43196">
        <ele>1217.6</ele>
        <time>2021-07-03T09:45:59Z</time>
      </trkpt>
      <trkpt lat="45.12852" lon="5.43208">
        <ele>1217.8</ele>
        <time>2021-07-03T09:46:03Z</time>
      </trkpt>
      <trkpt lat="45.12851" lon="5.43218">
        <ele>1218.2</ele>
        <time>2021-07-03T09:46:07Z</time>
      </trkpt>
      <trkpt lat="45.12851" lon="5.43229">
        <ele>1218.2</ele>
        <time>2021-07-03T09:46:11Z</time>
      </trkpt>
      <trkpt lat="45.1285" lon="5.4324">
        <ele>1218.4</ele>
        <time>2021-07-03T09:46:15Z</time>
      </trkpt>
      <trkpt lat="45.12853" lon="5.43248">
        <ele>1219</ele>
        <time>2021-07-03T09:46:19Z</time>
      </trkpt>
      <trkpt lat="45.12858" lon="5.43256">
        <ele>1219</ele>
        <time>2021-07-03T09:46:23Z</time>
      </trkpt>
      <trkpt lat="45.12865" lon="5.43267">
        <ele>1219.4</ele>
        <time>2021-07-03T09:46:27Z</time>
      </trkpt>
      <trkpt lat="45.12872" lon="5.43277">
        <ele>1219.2</ele>
        <time>2021-07-03T09:46:31Z</time>
      </trkpt>
      <trkpt lat="45.1288" lon="5.43291">
        <ele>1218.8</ele>
        <time>2021-07-03T09:46:35Z</time>
      </trkpt>
      <trkpt lat="45.12892" lon="5.43301">
        <ele>1219</ele>
        <time>2021-07-03T09:46:39Z</time>
      </trkpt>
      <trkpt lat="45.12904" lon="5.4331">
        <ele>1219.2</ele>
        <time>2021-07-03T09:46:43Z</time>
      </trkpt>
      <trkpt lat="45.12912" lon="5.43317">
        <ele>1220.2</ele>
        <time>2021-07-03T09:46:47Z</time>
      </trkpt>
      <trkpt lat="45.12921" lon="5.43322">
        <ele>1219.8</ele>
        <time>2021-07-03T09:46:51Z</time>
      </trkpt>
      <trkpt lat="45.12932" lon="5.4333">
        <ele>1219.4</ele>
        <time>2021-07-03T09:46:55Z</time>
      </trkpt>
      <trkpt lat="45.12946" lon="5.43343">
        <ele>1219.4</ele>
        <time>2021-07-03T09:46:59Z</time>
      </trkpt>
      <trkpt lat="45.1296" lon="5.43352">
        <ele>1219</ele>
        <time>2021-07-03T09:47:03Z</time>
      </trkpt>
      <trkpt lat="45.12975" lon="5.43366">
        <ele>1218.8</ele>
        <time>2021-07-03T09:47:07Z</time>
      </trkpt>
      <trkpt lat="45.12991" lon="5.4338">
        <ele>1219.6</ele>
        <time>2021-07-03T09:47:11Z</time>
      </trkpt>
      <trkpt lat="45.13003" lon="5.4339">
        <ele>1219.8</ele>
        <time>2021-07-03T09:47:15Z</time>
      </trkpt>
      <trkpt lat="45.13016" lon="5.434">
        <ele>1219.8</ele>
        <time>2021-07-03T09:47:19Z</time>
      </trkpt>
      <trkpt lat="45.13028" lon="5.43412">
        <ele>1220.4</ele>
        <time>2021-07-03T09:47:23Z</time>
      </trkpt>
      <trkpt lat="45.13035" lon="5.43426">
        <ele>1220.6</ele>
        <time>2021-07-03T09:47:27Z</time>
      </trkpt>
      <trkpt lat="45.13039" lon="5.4344">
        <ele>1220.4</ele>
        <time>2021-07-03T09:47:31Z</time>
      </trkpt>
      <trkpt lat="45.13044" lon="5.43454">
        <ele>1220.8</ele>
        <time>2021-07-03T09:47:35Z</time>
      </trkpt>
      <trkpt lat="45.13055" lon="5.43499">
        <ele>1220.8</ele>
        <time>2021-07-03T09:48:24Z</time>
      </trkpt>
      <trkpt lat="45.13057" lon="5.43516">
        <ele>1220.2</ele>
        <time>2021-07-03T09:48:28Z</time>
      </trkpt>
      <trkpt lat="45.13059" lon="5.43533">
        <ele>1219.8</ele>
        <time>2021-07-03T09:48:32Z</time>
      </trkpt>
      <trkpt lat="45.13061" lon="5.43549">
        <ele>1220</ele>
        <time>2021-07-03T09:48:36Z</time>
      </trkpt>
      <trkpt lat="45.13063" lon="5.43567">
        <ele>1220</ele>
        <time>2021-07-03T09:48:40Z</time>
      </trkpt>
      <trkpt lat="45.13063" lon="5.43586">
        <ele>1220.4</ele>
        <time>2021-07-03T09:48:44Z</time>
      </trkpt>
      <trkpt lat="45.13064" lon="5.43606">
        <ele>1220.8</ele>
        <time>2021-07-03T09:48:48Z</time>
      </trkpt>
      <trkpt lat="45.13064" lon="5.43624">
        <ele>1221</ele>
        <time>2021-07-03T09:48:52Z</time>
      </trkpt>
      <trkpt lat="45.13064" lon="5.43643">
        <ele>1221.4</ele>
        <time>2021-07-03T09:48:56Z</time>
      </trkpt>
      <trkpt lat="45.13064" lon="5.43661">
        <ele>1221.6</ele>
        <time>2021-07-03T09:49:00Z</time>
      </trkpt>
      <trkpt lat="45.13063" lon="5.43679">
        <ele>1222</ele>
        <time>2021-07-03T09:49:04Z</time>
      </trkpt>
      <trkpt lat="45.13059" lon="5.43697">
        <ele>1222.8</ele>
        <time>2021-07-03T09:49:08Z</time>
      </trkpt>
      <trkpt lat="45.13052" lon="5.43709">
        <ele>1223.4</ele>
        <time>2021-07-03T09:49:12Z</time>
      </trkpt>
      <trkpt lat="45.13043" lon="5.43717">
        <ele>1223.8</ele>
        <time>2021-07-03T09:49:16Z</time>
      </trkpt>
      <trkpt lat="45.13035" lon="5.43724">
        <ele>1224.6</ele>
        <time>2021-07-03T09:49:20Z</time>
      </trkpt>
      <trkpt lat="45.13027" lon="5.43726">
        <ele>1225.2</ele>
        <time>2021-07-03T09:49:24Z</time>
      </trkpt>
      <trkpt lat="45.13019" lon="5.43727">
        <ele>1225.8</ele>
        <time>2021-07-03T09:49:28Z</time>
      </trkpt>
      <trkpt lat="45.13012" lon="5.43726">
        <ele>1226</ele>
        <time>2021-07-03T09:49:32Z</time>
      </trkpt>
      <trkpt lat="45.13003" lon="5.43725">
        <ele>1227</ele>
        <time>2021-07-03T09:49:36Z</time>
      </trkpt>
      <trkpt lat="45.12995" lon="5.43725">
        <ele>1227.8</ele>
        <time>2021-07-03T09:49:40Z</time>
      </trkpt>
      <trkpt lat="45.12988" lon="5.43724">
        <ele>1228.6</ele>
        <time>2021-07-03T09:49:44Z</time>
      </trkpt>
      <trkpt lat="45.12979" lon="5.43725">
        <ele>1228.8</ele>
        <time>2021-07-03T09:49:48Z</time>
      </trkpt>
      <trkpt lat="45.12971" lon="5.43726">
        <ele>1229.2</ele>
        <time>2021-07-03T09:49:52Z</time>
      </trkpt>
      <trkpt lat="45.12963" lon="5.43724">
        <ele>1229.8</ele>
        <time>2021-07-03T09:49:56Z</time>
      </trkpt>
      <trkpt lat="45.12956" lon="5.43722">
        <ele>1231</ele>
        <time>2021-07-03T09:50:00Z</time>
      </trkpt>
      <trkpt lat="45.12952" lon="5.43721">
        <ele>1230.8</ele>
        <time>2021-07-03T09:50:04Z</time>
      </trkpt>
      <trkpt lat="45.12945" lon="5.43719">
        <ele>1232</ele>
        <time>2021-07-03T09:50:08Z</time>
      </trkpt>
      <trkpt lat="45.12938" lon="5.43717">
        <ele>1232.6</ele>
        <time>2021-07-03T09:50:12Z</time>
      </trkpt>
      <trkpt lat="45.12934" lon="5.43712">
        <ele>1233</ele>
        <time>2021-07-03T09:50:16Z</time>
      </trkpt>
      <trkpt lat="45.12929" lon="5.43708">
        <ele>1233.4</ele>
        <time>2021-07-03T09:50:20Z</time>
      </trkpt>
      <trkpt lat="45.12924" lon="5.43703">
        <ele>1234.4</ele>
        <time>2021-07-03T09:50:24Z</time>
      </trkpt>
      <trkpt lat="45.12916" lon="5.43696">
        <ele>1234.8</ele>
        <time>2021-07-03T09:50:28Z</time>
      </trkpt>
      <trkpt lat="45.1291" lon="5.4369">
        <ele>1234.6</ele>
        <time>2021-07-03T09:50:32Z</time>
      </trkpt>
      <trkpt lat="45.12904" lon="5.43686">
        <ele>1235.8</ele>
        <time>2021-07-03T09:50:36Z</time>
      </trkpt>
      <trkpt lat="45.129" lon="5.4368">
        <ele>1236.2</ele>
        <time>2021-07-03T09:50:40Z</time>
      </trkpt>
      <trkpt lat="45.12895" lon="5.43674">
        <ele>1236.8</ele>
        <time>2021-07-03T09:50:44Z</time>
      </trkpt>
      <trkpt lat="45.1289" lon="5.43669">
        <ele>1237.6</ele>
        <time>2021-07-03T09:50:48Z</time>
      </trkpt>
      <trkpt lat="45.12885" lon="5.43663">
        <ele>1237.6</ele>
        <time>2021-07-03T09:50:52Z</time>
      </trkpt>
      <trkpt lat="45.12879" lon="5.43655">
        <ele>1238.6</ele>
        <time>2021-07-03T09:50:56Z</time>
      </trkpt>
      <trkpt lat="45.12873" lon="5.43649">
        <ele>1239</ele>
        <time>2021-07-03T09:51:00Z</time>
      </trkpt>
      <trkpt lat="45.12867" lon="5.43644">
        <ele>1239.6</ele>
        <time>2021-07-03T09:51:04Z</time>
      </trkpt>
      <trkpt lat="45.12861" lon="5.43638">
        <ele>1240.4</ele>
        <time>2021-07-03T09:51:08Z</time>
      </trkpt>
      <trkpt lat="45.12855" lon="5.43632">
        <ele>1240.8</ele>
        <time>2021-07-03T09:51:12Z</time>
      </trkpt>
      <trkpt lat="45.12851" lon="5.43629">
        <ele>1241.8</ele>
        <time>2021-07-03T09:51:16Z</time>
      </trkpt>
      <trkpt lat="45.12846" lon="5.43624">
        <ele>1242</ele>
        <time>2021-07-03T09:51:20Z</time>
      </trkpt>
      <trkpt lat="45.12839" lon="5.43619">
        <ele>1243</ele>
        <time>2021-07-03T09:51:24Z</time>
      </trkpt>
      <trkpt lat="45.12833" lon="5.43614">
        <ele>1243.8</ele>
        <time>2021-07-03T09:51:28Z</time>
      </trkpt>
      <trkpt lat="45.12827" lon="5.43613">
        <ele>1244.2</ele>
        <time>2021-07-03T09:51:32Z</time>
      </trkpt>
      <trkpt lat="45.1282" lon="5.43611">
        <ele>1244.8</ele>
        <time>2021-07-03T09:51:36Z</time>
      </trkpt>
      <trkpt lat="45.12812" lon="5.43608">
        <ele>1245.2</ele>
        <time>2021-07-03T09:51:40Z</time>
      </trkpt>
      <trkpt lat="45.12804" lon="5.43607">
        <ele>1246</ele>
        <time>2021-07-03T09:51:44Z</time>
      </trkpt>
      <trkpt lat="45.12798" lon="5.43609">
        <ele>1246.4</ele>
        <time>2021-07-03T09:51:48Z</time>
      </trkpt>
      <trkpt lat="45.12789" lon="5.43612">
        <ele>1247</ele>
        <time>2021-07-03T09:51:52Z</time>
      </trkpt>
      <trkpt lat="45.12782" lon="5.43616">
        <ele>1247.2</ele>
        <time>2021-07-03T09:51:56Z</time>
      </trkpt>
      <trkpt lat="45.12774" lon="5.43617">
        <ele>1248.2</ele>
        <time>2021-07-03T09:52:00Z</time>
      </trkpt>
      <trkpt lat="45.12767" lon="5.43621">
        <ele>1249</ele>
        <time>2021-07-03T09:52:04Z</time>
      </trkpt>
      <trkpt lat="45.12759" lon="5.43623">
        <ele>1249.4</ele>
        <time>2021-07-03T09:52:08Z</time>
      </trkpt>
      <trkpt lat="45.12752" lon="5.43627">
        <ele>1250.6</ele>
        <time>2021-07-03T09:52:12Z</time>
      </trkpt>
      <trkpt lat="45.12745" lon="5.4363">
        <ele>1250.6</ele>
        <time>2021-07-03T09:52:16Z</time>
      </trkpt>
      <trkpt lat="45.12737" lon="5.43634">
        <ele>1251.2</ele>
        <time>2021-07-03T09:52:20Z</time>
      </trkpt>
      <trkpt lat="45.1273" lon="5.43635">
        <ele>1251.4</ele>
        <time>2021-07-03T09:52:24Z</time>
      </trkpt>
      <trkpt lat="45.12722" lon="5.43642">
        <ele>1251.8</ele>
        <time>2021-07-03T09:52:28Z</time>
      </trkpt>
      <trkpt lat="45.12714" lon="5.43644">
        <ele>1252.6</ele>
        <time>2021-07-03T09:52:32Z</time>
      </trkpt>
      <trkpt lat="45.12707" lon="5.43644">
        <ele>1253.4</ele>
        <time>2021-07-03T09:52:36Z</time>
      </trkpt>
      <trkpt lat="45.12699" lon="5.43648">
        <ele>1254</ele>
        <time>2021-07-03T09:52:40Z</time>
      </trkpt>
      <trkpt lat="45.12691" lon="5.43654">
        <ele>1253.8</ele>
        <time>2021-07-03T09:52:44Z</time>
      </trkpt>
      <trkpt lat="45.12683" lon="5.43655">
        <ele>1254.8</ele>
        <time>2021-07-03T09:52:48Z</time>
      </trkpt>
      <trkpt lat="45.12676" lon="5.43656">
        <ele>1255.2</ele>
        <time>2021-07-03T09:52:52Z</time>
      </trkpt>
      <trkpt lat="45.12668" lon="5.43658">
        <ele>1255.2</ele>
        <time>2021-07-03T09:52:56Z</time>
      </trkpt>
      <trkpt lat="45.12661" lon="5.43659">
        <ele>1256</ele>
        <time>2021-07-03T09:53:00Z</time>
      </trkpt>
      <trkpt lat="45.12653" lon="5.4366">
        <ele>1256.6</ele>
        <time>2021-07-03T09:53:04Z</time>
      </trkpt>
      <trkpt lat="45.12646" lon="5.43659">
        <ele>1256.8</ele>
        <time>2021-07-03T09:53:08Z</time>
      </trkpt>
      <trkpt lat="45.12637" lon="5.43661">
        <ele>1257.6</ele>
        <time>2021-07-03T09:53:12Z</time>
      </trkpt>
      <trkpt lat="45.1263" lon="5.43659">
        <ele>1257.8</ele>
        <time>2021-07-03T09:53:16Z</time>
      </trkpt>
      <trkpt lat="45.1262" lon="5.4366">
        <ele>1258.4</ele>
        <time>2021-07-03T09:53:20Z</time>
      </trkpt>
      <trkpt lat="45.12609" lon="5.43664">
        <ele>1258.4</ele>
        <time>2021-07-03T09:53:24Z</time>
      </trkpt>
      <trkpt lat="45.12599" lon="5.43664">
        <ele>1259.4</ele>
        <time>2021-07-03T09:53:28Z</time>
      </trkpt>
      <trkpt lat="45.12588" lon="5.43668">
        <ele>1259.4</ele>
        <time>2021-07-03T09:53:32Z</time>
      </trkpt>
      <trkpt lat="45.12578" lon="5.43666">
        <ele>1259.6</ele>
        <time>2021-07-03T09:53:36Z</time>
      </trkpt>
      <trkpt lat="45.12568" lon="5.43663">
        <ele>1260</ele>
        <time>2021-07-03T09:53:40Z</time>
      </trkpt>
      <trkpt lat="45.12557" lon="5.43663">
        <ele>1260.8</ele>
        <time>2021-07-03T09:53:44Z</time>
      </trkpt>
      <trkpt lat="45.12546" lon="5.43663">
        <ele>1261</ele>
        <time>2021-07-03T09:53:48Z</time>
      </trkpt>
      <trkpt lat="45.12535" lon="5.43669">
        <ele>1261.4</ele>
        <time>2021-07-03T09:53:52Z</time>
      </trkpt>
      <trkpt lat="45.12527" lon="5.43674">
        <ele>1261.8</ele>
        <time>2021-07-03T09:53:56Z</time>
      </trkpt>
      <trkpt lat="45.12519" lon="5.43677">
        <ele>1262.6</ele>
        <time>2021-07-03T09:54:00Z</time>
      </trkpt>
      <trkpt lat="45.12511" lon="5.4368">
        <ele>1263.4</ele>
        <time>2021-07-03T09:54:04Z</time>
      </trkpt>
      <trkpt lat="45.12504" lon="5.43683">
        <ele>1264.2</ele>
        <time>2021-07-03T09:54:08Z</time>
      </trkpt>
      <trkpt lat="45.12496" lon="5.43685">
        <ele>1264.8</ele>
        <time>2021-07-03T09:54:12Z</time>
      </trkpt>
      <trkpt lat="45.12489" lon="5.43686">
        <ele>1265.4</ele>
        <time>2021-07-03T09:54:16Z</time>
      </trkpt>
      <trkpt lat="45.12482" lon="5.43688">
        <ele>1266</ele>
        <time>2021-07-03T09:54:20Z</time>
      </trkpt>
      <trkpt lat="45.12475" lon="5.43687">
        <ele>1266.6</ele>
        <time>2021-07-03T09:54:24Z</time>
      </trkpt>
      <trkpt lat="45.12469" lon="5.43687">
        <ele>1267.2</ele>
        <time>2021-07-03T09:54:28Z</time>
      </trkpt>
      <trkpt lat="45.12462" lon="5.43685">
        <ele>1268</ele>
        <time>2021-07-03T09:54:32Z</time>
      </trkpt>
      <trkpt lat="45.12455" lon="5.43684">
        <ele>1268.8</ele>
        <time>2021-07-03T09:54:36Z</time>
      </trkpt>
      <trkpt lat="45.1245" lon="5.43682">
        <ele>1269.4</ele>
        <time>2021-07-03T09:54:40Z</time>
      </trkpt>
      <trkpt lat="45.12443" lon="5.43681">
        <ele>1269.8</ele>
        <time>2021-07-03T09:54:44Z</time>
      </trkpt>
      <trkpt lat="45.12436" lon="5.43684">
        <ele>1270.6</ele>
        <time>2021-07-03T09:54:48Z</time>
      </trkpt>
      <trkpt lat="45.1243" lon="5.43685">
        <ele>1271.2</ele>
        <time>2021-07-03T09:54:52Z</time>
      </trkpt>
      <trkpt lat="45.12423" lon="5.43688">
        <ele>1271.6</ele>
        <time>2021-07-03T09:54:56Z</time>
      </trkpt>
      <trkpt lat="45.12416" lon="5.4369">
        <ele>1272.4</ele>
        <time>2021-07-03T09:55:00Z</time>
      </trkpt>
      <trkpt lat="45.12412" lon="5.43694">
        <ele>1273</ele>
        <time>2021-07-03T09:55:04Z</time>
      </trkpt>
      <trkpt lat="45.12407" lon="5.43696">
        <ele>1273.8</ele>
        <time>2021-07-03T09:55:08Z</time>
      </trkpt>
      <trkpt lat="45.12399" lon="5.43699">
        <ele>1274.4</ele>
        <time>2021-07-03T09:55:12Z</time>
      </trkpt>
      <trkpt lat="45.12393" lon="5.43703">
        <ele>1274.2</ele>
        <time>2021-07-03T09:55:16Z</time>
      </trkpt>
      <trkpt lat="45.12388" lon="5.43706">
        <ele>1275.2</ele>
        <time>2021-07-03T09:55:20Z</time>
      </trkpt>
      <trkpt lat="45.12382" lon="5.4371">
        <ele>1276.4</ele>
        <time>2021-07-03T09:55:24Z</time>
      </trkpt>
      <trkpt lat="45.12376" lon="5.43713">
        <ele>1277.2</ele>
        <time>2021-07-03T09:55:28Z</time>
      </trkpt>
      <trkpt lat="45.1237" lon="5.43716">
        <ele>1277.6</ele>
        <time>2021-07-03T09:55:32Z</time>
      </trkpt>
      <trkpt lat="45.12364" lon="5.43716">
        <ele>1278.2</ele>
        <time>2021-07-03T09:55:36Z</time>
      </trkpt>
      <trkpt lat="45.12358" lon="5.43715">
        <ele>1278.8</ele>
        <time>2021-07-03T09:55:40Z</time>
      </trkpt>
      <trkpt lat="45.12353" lon="5.43712">
        <ele>1279.6</ele>
        <time>2021-07-03T09:55:44Z</time>
      </trkpt>
      <trkpt lat="45.12347" lon="5.43709">
        <ele>1279.8</ele>
        <time>2021-07-03T09:55:48Z</time>
      </trkpt>
      <trkpt lat="45.12341" lon="5.43707">
        <ele>1280.4</ele>
        <time>2021-07-03T09:55:52Z</time>
      </trkpt>
      <trkpt lat="45.12334" lon="5.43706">
        <ele>1281</ele>
        <time>2021-07-03T09:55:56Z</time>
      </trkpt>
      <trkpt lat="45.12326" lon="5.43707">
        <ele>1281.8</ele>
        <time>2021-07-03T09:56:00Z</time>
      </trkpt>
      <trkpt lat="45.12319" lon="5.43707">
        <ele>1282.4</ele>
        <time>2021-07-03T09:56:04Z</time>
      </trkpt>
      <trkpt lat="45.12312" lon="5.43708">
        <ele>1283.4</ele>
        <time>2021-07-03T09:56:08Z</time>
      </trkpt>
      <trkpt lat="45.12305" lon="5.43709">
        <ele>1284.2</ele>
        <time>2021-07-03T09:56:12Z</time>
      </trkpt>
      <trkpt lat="45.12298" lon="5.4371">
        <ele>1284.4</ele>
        <time>2021-07-03T09:56:16Z</time>
      </trkpt>
      <trkpt lat="45.12292" lon="5.43713">
        <ele>1285</ele>
        <time>2021-07-03T09:56:20Z</time>
      </trkpt>
      <trkpt lat="45.12285" lon="5.43718">
        <ele>1285.6</ele>
        <time>2021-07-03T09:56:24Z</time>
      </trkpt>
      <trkpt lat="45.12278" lon="5.43725">
        <ele>1287.6</ele>
        <time>2021-07-03T09:56:39Z</time>
      </trkpt>
      <trkpt lat="45.12274" lon="5.43731">
        <ele>1287.8</ele>
        <time>2021-07-03T09:56:43Z</time>
      </trkpt>
      <trkpt lat="45.12271" lon="5.43737">
        <ele>1288.4</ele>
        <time>2021-07-03T09:56:47Z</time>
      </trkpt>
      <trkpt lat="45.12268" lon="5.43744">
        <ele>1289.2</ele>
        <time>2021-07-03T09:56:51Z</time>
      </trkpt>
      <trkpt lat="45.12265" lon="5.43751">
        <ele>1289.8</ele>
        <time>2021-07-03T09:56:55Z</time>
      </trkpt>
      <trkpt lat="45.12263" lon="5.43759">
        <ele>1290.4</ele>
        <time>2021-07-03T09:56:59Z</time>
      </trkpt>
      <trkpt lat="45.1226" lon="5.43767">
        <ele>1290.8</ele>
        <time>2021-07-03T09:57:03Z</time>
      </trkpt>
      <trkpt lat="45.12258" lon="5.43775">
        <ele>1291.6</ele>
        <time>2021-07-03T09:57:07Z</time>
      </trkpt>
      <trkpt lat="45.12256" lon="5.43783">
        <ele>1292.2</ele>
        <time>2021-07-03T09:57:11Z</time>
      </trkpt>
      <trkpt lat="45.12254" lon="5.43791">
        <ele>1293.2</ele>
        <time>2021-07-03T09:57:15Z</time>
      </trkpt>
      <trkpt lat="45.12252" lon="5.43799">
        <ele>1293.4</ele>
        <time>2021-07-03T09:57:19Z</time>
      </trkpt>
      <trkpt lat="45.1225" lon="5.43807">
        <ele>1293.8</ele>
        <time>2021-07-03T09:57:23Z</time>
      </trkpt>
      <trkpt lat="45.12246" lon="5.43814">
        <ele>1295</ele>
        <time>2021-07-03T09:57:27Z</time>
      </trkpt>
      <trkpt lat="45.12243" lon="5.43822">
        <ele>1295.2</ele>
        <time>2021-07-03T09:57:31Z</time>
      </trkpt>
      <trkpt lat="45.12239" lon="5.43828">
        <ele>1296.2</ele>
        <time>2021-07-03T09:57:35Z</time>
      </trkpt>
      <trkpt lat="45.12236" lon="5.43836">
        <ele>1296.8</ele>
        <time>2021-07-03T09:57:39Z</time>
      </trkpt>
      <trkpt lat="45.12234" lon="5.43844">
        <ele>1297.2</ele>
        <time>2021-07-03T09:57:43Z</time>
      </trkpt>
      <trkpt lat="45.12233" lon="5.43851">
        <ele>1298.2</ele>
        <time>2021-07-03T09:57:47Z</time>
      </trkpt>
      <trkpt lat="45.12229" lon="5.43859">
        <ele>1298.8</ele>
        <time>2021-07-03T09:57:51Z</time>
      </trkpt>
      <trkpt lat="45.12227" lon="5.43867">
        <ele>1299.4</ele>
        <time>2021-07-03T09:57:55Z</time>
      </trkpt>
      <trkpt lat="45.12223" lon="5.43875">
        <ele>1299.8</ele>
        <time>2021-07-03T09:57:59Z</time>
      </trkpt>
      <trkpt lat="45.12222" lon="5.43885">
        <ele>1300.4</ele>
        <time>2021-07-03T09:58:03Z</time>
      </trkpt>
      <trkpt lat="45.1222" lon="5.43893">
        <ele>1301</ele>
        <time>2021-07-03T09:58:07Z</time>
      </trkpt>
      <trkpt lat="45.12219" lon="5.43902">
        <ele>1302</ele>
        <time>2021-07-03T09:58:11Z</time>
      </trkpt>
      <trkpt lat="45.12218" lon="5.43925">
        <ele>1303</ele>
        <time>2021-07-03T09:59:02Z</time>
      </trkpt>
      <trkpt lat="45.12217" lon="5.43934">
        <ele>1303.6</ele>
        <time>2021-07-03T09:59:06Z</time>
      </trkpt>
      <trkpt lat="45.12218" lon="5.43944">
        <ele>1304.2</ele>
        <time>2021-07-03T09:59:10Z</time>
      </trkpt>
      <trkpt lat="45.1222" lon="5.43953">
        <ele>1304.8</ele>
        <time>2021-07-03T09:59:14Z</time>
      </trkpt>
      <trkpt lat="45.1222" lon="5.43961">
        <ele>1306</ele>
        <time>2021-07-03T09:59:18Z</time>
      </trkpt>
      <trkpt lat="45.12219" lon="5.43967">
        <ele>1306</ele>
        <time>2021-07-03T09:59:22Z</time>
      </trkpt>
      <trkpt lat="45.12218" lon="5.43974">
        <ele>1306.8</ele>
        <time>2021-07-03T09:59:26Z</time>
      </trkpt>
      <trkpt lat="45.12217" lon="5.43982">
        <ele>1307.4</ele>
        <time>2021-07-03T09:59:30Z</time>
      </trkpt>
      <trkpt lat="45.12217" lon="5.43994">
        <ele>1307.4</ele>
        <time>2021-07-03T09:59:34Z</time>
      </trkpt>
      <trkpt lat="45.12216" lon="5.44004">
        <ele>1308.2</ele>
        <time>2021-07-03T09:59:38Z</time>
      </trkpt>
      <trkpt lat="45.12215" lon="5.44012">
        <ele>1309</ele>
        <time>2021-07-03T09:59:42Z</time>
      </trkpt>
      <trkpt lat="45.12214" lon="5.44021">
        <ele>1309.4</ele>
        <time>2021-07-03T09:59:46Z</time>
      </trkpt>
      <trkpt lat="45.12213" lon="5.4403">
        <ele>1309.8</ele>
        <time>2021-07-03T09:59:50Z</time>
      </trkpt>
      <trkpt lat="45.1221" lon="5.44037">
        <ele>1310</ele>
        <time>2021-07-03T09:59:54Z</time>
      </trkpt>
      <trkpt lat="45.12209" lon="5.44047">
        <ele>1311.2</ele>
        <time>2021-07-03T09:59:58Z</time>
      </trkpt>
      <trkpt lat="45.12208" lon="5.44055">
        <ele>1311.6</ele>
        <time>2021-07-03T10:00:02Z</time>
      </trkpt>
      <trkpt lat="45.12207" lon="5.44064">
        <ele>1312.4</ele>
        <time>2021-07-03T10:00:06Z</time>
      </trkpt>
      <trkpt lat="45.12206" lon="5.44074">
        <ele>1312.4</ele>
        <time>2021-07-03T10:00:10Z</time>
      </trkpt>
      <trkpt lat="45.12206" lon="5.44082">
        <ele>1313</ele>
        <time>2021-07-03T10:00:14Z</time>
      </trkpt>
      <trkpt lat="45.12206" lon="5.4409">
        <ele>1313.4</ele>
        <time>2021-07-03T10:00:18Z</time>
      </trkpt>
      <trkpt lat="45.12206" lon="5.44098">
        <ele>1314</ele>
        <time>2021-07-03T10:00:22Z</time>
      </trkpt>
      <trkpt lat="45.12207" lon="5.44106">
        <ele>1314.6</ele>
        <time>2021-07-03T10:00:26Z</time>
      </trkpt>
      <trkpt lat="45.12206" lon="5.44115">
        <ele>1315.8</ele>
        <time>2021-07-03T10:00:30Z</time>
      </trkpt>
      <trkpt lat="45.12207" lon="5.44128">
        <ele>1315.8</ele>
        <time>2021-07-03T10:00:34Z</time>
      </trkpt>
      <trkpt lat="45.12206" lon="5.44139">
        <ele>1316.2</ele>
        <time>2021-07-03T10:00:38Z</time>
      </trkpt>
      <trkpt lat="45.12205" lon="5.44148">
        <ele>1317.2</ele>
        <time>2021-07-03T10:00:42Z</time>
      </trkpt>
      <trkpt lat="45.12203" lon="5.44157">
        <ele>1317.4</ele>
        <time>2021-07-03T10:00:46Z</time>
      </trkpt>
      <trkpt lat="45.122" lon="5.44166">
        <ele>1318.4</ele>
        <time>2021-07-03T10:00:50Z</time>
      </trkpt>
      <trkpt lat="45.12198" lon="5.44175">
        <ele>1319.4</ele>
        <time>2021-07-03T10:00:54Z</time>
      </trkpt>
      <trkpt lat="45.12196" lon="5.44184">
        <ele>1319.6</ele>
        <time>2021-07-03T10:00:58Z</time>
      </trkpt>
      <trkpt lat="45.12194" lon="5.44192">
        <ele>1321.2</ele>
        <time>2021-07-03T10:01:02Z</time>
      </trkpt>
      <trkpt lat="45.1219" lon="5.44199">
        <ele>1321.4</ele>
        <time>2021-07-03T10:01:06Z</time>
      </trkpt>
      <trkpt lat="45.12185" lon="5.44206">
        <ele>1321.6</ele>
        <time>2021-07-03T10:01:10Z</time>
      </trkpt>
      <trkpt lat="45.1218" lon="5.44211">
        <ele>1322.6</ele>
        <time>2021-07-03T10:01:14Z</time>
      </trkpt>
      <trkpt lat="45.12174" lon="5.44217">
        <ele>1322.8</ele>
        <time>2021-07-03T10:01:18Z</time>
      </trkpt>
      <trkpt lat="45.12169" lon="5.44224">
        <ele>1323.2</ele>
        <time>2021-07-03T10:01:22Z</time>
      </trkpt>
      <trkpt lat="45.12163" lon="5.44229">
        <ele>1323.6</ele>
        <time>2021-07-03T10:01:26Z</time>
      </trkpt>
      <trkpt lat="45.12158" lon="5.44235">
        <ele>1324.2</ele>
        <time>2021-07-03T10:01:30Z</time>
      </trkpt>
      <trkpt lat="45.12152" lon="5.44241">
        <ele>1324.4</ele>
        <time>2021-07-03T10:01:34Z</time>
      </trkpt>
      <trkpt lat="45.12146" lon="5.44246">
        <ele>1325</ele>
        <time>2021-07-03T10:01:38Z</time>
      </trkpt>
      <trkpt lat="45.12139" lon="5.44254">
        <ele>1325.2</ele>
        <time>2021-07-03T10:01:42Z</time>
      </trkpt>
      <trkpt lat="45.12133" lon="5.44262">
        <ele>1325.6</ele>
        <time>2021-07-03T10:01:46Z</time>
      </trkpt>
      <trkpt lat="45.12125" lon="5.4427">
        <ele>1325.4</ele>
        <time>2021-07-03T10:01:50Z</time>
      </trkpt>
      <trkpt lat="45.12116" lon="5.44278">
        <ele>1325.8</ele>
        <time>2021-07-03T10:01:54Z</time>
      </trkpt>
      <trkpt lat="45.12107" lon="5.44285">
        <ele>1325</ele>
        <time>2021-07-03T10:01:58Z</time>
      </trkpt>
      <trkpt lat="45.12097" lon="5.44291">
        <ele>1325.2</ele>
        <time>2021-07-03T10:02:02Z</time>
      </trkpt>
      <trkpt lat="45.12082" lon="5.44296">
        <ele>1324.2</ele>
        <time>2021-07-03T10:02:06Z</time>
      </trkpt>
      <trkpt lat="45.12064" lon="5.44295">
        <ele>1323.2</ele>
        <time>2021-07-03T10:02:10Z</time>
      </trkpt>
      <trkpt lat="45.12051" lon="5.44291">
        <ele>1323.6</ele>
        <time>2021-07-03T10:02:14Z</time>
      </trkpt>
      <trkpt lat="45.12033" lon="5.44289">
        <ele>1323.6</ele>
        <time>2021-07-03T10:02:18Z</time>
      </trkpt>
      <trkpt lat="45.12014" lon="5.44285">
        <ele>1324.2</ele>
        <time>2021-07-03T10:02:22Z</time>
      </trkpt>
      <trkpt lat="45.11998" lon="5.44283">
        <ele>1324.4</ele>
        <time>2021-07-03T10:02:26Z</time>
      </trkpt>
      <trkpt lat="45.11983" lon="5.44282">
        <ele>1324.8</ele>
        <time>2021-07-03T10:02:30Z</time>
      </trkpt>
      <trkpt lat="45.11967" lon="5.44278">
        <ele>1324.6</ele>
        <time>2021-07-03T10:02:34Z</time>
      </trkpt>
      <trkpt lat="45.11953" lon="5.44278">
        <ele>1324.6</ele>
        <time>2021-07-03T10:02:38Z</time>
      </trkpt>
      <trkpt lat="45.11938" lon="5.44279">
        <ele>1324.2</ele>
        <time>2021-07-03T10:02:42Z</time>
      </trkpt>
      <trkpt lat="45.11921" lon="5.44278">
        <ele>1324.4</ele>
        <time>2021-07-03T10:02:46Z</time>
      </trkpt>
      <trkpt lat="45.11905" lon="5.44273">
        <ele>1324.4</ele>
        <time>2021-07-03T10:02:50Z</time>
      </trkpt>
      <trkpt lat="45.11889" lon="5.44272">
        <ele>1324.4</ele>
        <time>2021-07-03T10:02:54Z</time>
      </trkpt>
      <trkpt lat="45.11871" lon="5.44268">
        <ele>1323.2</ele>
        <time>2021-07-03T10:02:58Z</time>
      </trkpt>
      <trkpt lat="45.11852" lon="5.44272">
        <ele>1323.2</ele>
        <time>2021-07-03T10:03:02Z</time>
      </trkpt>
      <trkpt lat="45.11834" lon="5.44285">
        <ele>1323</ele>
        <time>2021-07-03T10:03:06Z</time>
      </trkpt>
      <trkpt lat="45.11819" lon="5.44297">
        <ele>1322.8</ele>
        <time>2021-07-03T10:03:10Z</time>
      </trkpt>
      <trkpt lat="45.11807" lon="5.44308">
        <ele>1322.8</ele>
        <time>2021-07-03T10:03:14Z</time>
      </trkpt>
      <trkpt lat="45.11798" lon="5.44326">
        <ele>1323.2</ele>
        <time>2021-07-03T10:03:18Z</time>
      </trkpt>
      <trkpt lat="45.11788" lon="5.4434">
        <ele>1323.2</ele>
        <time>2021-07-03T10:03:22Z</time>
      </trkpt>
      <trkpt lat="45.11773" lon="5.44351">
        <ele>1323.2</ele>
        <time>2021-07-03T10:03:26Z</time>
      </trkpt>
      <trkpt lat="45.1176" lon="5.44363">
        <ele>1324</ele>
        <time>2021-07-03T10:03:30Z</time>
      </trkpt>
      <trkpt lat="45.11744" lon="5.44371">
        <ele>1324.8</ele>
        <time>2021-07-03T10:03:34Z</time>
      </trkpt>
      <trkpt lat="45.1173" lon="5.44379">
        <ele>1325.2</ele>
        <time>2021-07-03T10:03:38Z</time>
      </trkpt>
      <trkpt lat="45.11714" lon="5.44382">
        <ele>1325.2</ele>
        <time>2021-07-03T10:03:42Z</time>
      </trkpt>
      <trkpt lat="45.11699" lon="5.44389">
        <ele>1326</ele>
        <time>2021-07-03T10:03:46Z</time>
      </trkpt>
      <trkpt lat="45.11684" lon="5.44394">
        <ele>1326.6</ele>
        <time>2021-07-03T10:03:50Z</time>
      </trkpt>
      <trkpt lat="45.11669" lon="5.44402">
        <ele>1327.4</ele>
        <time>2021-07-03T10:03:54Z</time>
      </trkpt>
      <trkpt lat="45.11656" lon="5.44405">
        <ele>1327.6</ele>
        <time>2021-07-03T10:03:58Z</time>
      </trkpt>
      <trkpt lat="45.11643" lon="5.44409">
        <ele>1328</ele>
        <time>2021-07-03T10:04:02Z</time>
      </trkpt>
      <trkpt lat="45.11632" lon="5.44413">
        <ele>1328.2</ele>
        <time>2021-07-03T10:04:06Z</time>
      </trkpt>
      <trkpt lat="45.11622" lon="5.44413">
        <ele>1329.4</ele>
        <time>2021-07-03T10:04:10Z</time>
      </trkpt>
      <trkpt lat="45.11613" lon="5.44411">
        <ele>1329.6</ele>
        <time>2021-07-03T10:04:14Z</time>
      </trkpt>
      <trkpt lat="45.11605" lon="5.44407">
        <ele>1330.4</ele>
        <time>2021-07-03T10:04:18Z</time>
      </trkpt>
      <trkpt lat="45.11598" lon="5.44401">
        <ele>1330.6</ele>
        <time>2021-07-03T10:04:22Z</time>
      </trkpt>
      <trkpt lat="45.1159" lon="5.44396">
        <ele>1331.2</ele>
        <time>2021-07-03T10:04:26Z</time>
      </trkpt>
      <trkpt lat="45.11581" lon="5.44393">
        <ele>1331.8</ele>
        <time>2021-07-03T10:04:30Z</time>
      </trkpt>
      <trkpt lat="45.11573" lon="5.44395">
        <ele>1332</ele>
        <time>2021-07-03T10:04:34Z</time>
      </trkpt>
      <trkpt lat="45.11566" lon="5.44401">
        <ele>1333</ele>
        <time>2021-07-03T10:04:38Z</time>
      </trkpt>
      <trkpt lat="45.11566" lon="5.44411">
        <ele>1333.8</ele>
        <time>2021-07-03T10:04:42Z</time>
      </trkpt>
      <trkpt lat="45.11569" lon="5.4442">
        <ele>1334.2</ele>
        <time>2021-07-03T10:04:46Z</time>
      </trkpt>
      <trkpt lat="45.11574" lon="5.44428">
        <ele>1334.8</ele>
        <time>2021-07-03T10:04:50Z</time>
      </trkpt>
      <trkpt lat="45.11579" lon="5.44436">
        <ele>1336</ele>
        <time>2021-07-03T10:04:54Z</time>
      </trkpt>
      <trkpt lat="45.11585" lon="5.44444">
        <ele>1336.2</ele>
        <time>2021-07-03T10:04:58Z</time>
      </trkpt>
      <trkpt lat="45.1159" lon="5.4445">
        <ele>1336.8</ele>
        <time>2021-07-03T10:05:02Z</time>
      </trkpt>
      <trkpt lat="45.11596" lon="5.44456">
        <ele>1337.4</ele>
        <time>2021-07-03T10:05:06Z</time>
      </trkpt>
      <trkpt lat="45.11603" lon="5.44462">
        <ele>1337.6</ele>
        <time>2021-07-03T10:05:10Z</time>
      </trkpt>
      <trkpt lat="45.11609" lon="5.44466">
        <ele>1338.2</ele>
        <time>2021-07-03T10:05:14Z</time>
      </trkpt>
      <trkpt lat="45.11616" lon="5.44472">
        <ele>1338.6</ele>
        <time>2021-07-03T10:05:18Z</time>
      </trkpt>
      <trkpt lat="45.11622" lon="5.44477">
        <ele>1339.6</ele>
        <time>2021-07-03T10:05:22Z</time>
      </trkpt>
      <trkpt lat="45.11628" lon="5.44481">
        <ele>1339.4</ele>
        <time>2021-07-03T10:05:26Z</time>
      </trkpt>
      <trkpt lat="45.11635" lon="5.44485">
        <ele>1340.6</ele>
        <time>2021-07-03T10:05:30Z</time>
      </trkpt>
      <trkpt lat="45.11641" lon="5.44489">
        <ele>1341</ele>
        <time>2021-07-03T10:05:34Z</time>
      </trkpt>
      <trkpt lat="45.11647" lon="5.44493">
        <ele>1341.6</ele>
        <time>2021-07-03T10:05:38Z</time>
      </trkpt>
      <trkpt lat="45.11653" lon="5.44498">
        <ele>1342.4</ele>
        <time>2021-07-03T10:05:42Z</time>
      </trkpt>
      <trkpt lat="45.11659" lon="5.44503">
        <ele>1343</ele>
        <time>2021-07-03T10:05:46Z</time>
      </trkpt>
      <trkpt lat="45.11664" lon="5.44509">
        <ele>1343.2</ele>
        <time>2021-07-03T10:05:50Z</time>
      </trkpt>
      <trkpt lat="45.11669" lon="5.44515">
        <ele>1343.6</ele>
        <time>2021-07-03T10:05:54Z</time>
      </trkpt>
      <trkpt lat="45.11674" lon="5.44521">
        <ele>1344</ele>
        <time>2021-07-03T10:05:58Z</time>
      </trkpt>
      <trkpt lat="45.11678" lon="5.44527">
        <ele>1345</ele>
        <time>2021-07-03T10:06:02Z</time>
      </trkpt>
      <trkpt lat="45.11683" lon="5.44534">
        <ele>1345.2</ele>
        <time>2021-07-03T10:06:06Z</time>
      </trkpt>
      <trkpt lat="45.11688" lon="5.4454">
        <ele>1346.2</ele>
        <time>2021-07-03T10:06:10Z</time>
      </trkpt>
      <trkpt lat="45.11692" lon="5.44547">
        <ele>1346.6</ele>
        <time>2021-07-03T10:06:14Z</time>
      </trkpt>
      <trkpt lat="45.11698" lon="5.44553">
        <ele>1347</ele>
        <time>2021-07-03T10:06:18Z</time>
      </trkpt>
      <trkpt lat="45.11703" lon="5.44558">
        <ele>1347.8</ele>
        <time>2021-07-03T10:06:22Z</time>
      </trkpt>
      <trkpt lat="45.11709" lon="5.44563">
        <ele>1348.4</ele>
        <time>2021-07-03T10:06:26Z</time>
      </trkpt>
      <trkpt lat="45.11714" lon="5.44569">
        <ele>1349.2</ele>
        <time>2021-07-03T10:06:30Z</time>
      </trkpt>
      <trkpt lat="45.1172" lon="5.44576">
        <ele>1349.8</ele>
        <time>2021-07-03T10:06:34Z</time>
      </trkpt>
      <trkpt lat="45.11725" lon="5.44583">
        <ele>1350.4</ele>
        <time>2021-07-03T10:06:38Z</time>
      </trkpt>
      <trkpt lat="45.11729" lon="5.44591">
        <ele>1351.2</ele>
        <time>2021-07-03T10:06:42Z</time>
      </trkpt>
      <trkpt lat="45.11731" lon="5.446">
        <ele>1351.8</ele>
        <time>2021-07-03T10:06:46Z</time>
      </trkpt>
      <trkpt lat="45.11735" lon="5.44608">
        <ele>1352.6</ele>
        <time>2021-07-03T10:06:50Z</time>
      </trkpt>
      <trkpt lat="45.11738" lon="5.44617">
        <ele>1352.8</ele>
        <time>2021-07-03T10:06:54Z</time>
      </trkpt>
      <trkpt lat="45.11739" lon="5.44624">
        <ele>1353.8</ele>
        <time>2021-07-03T10:06:58Z</time>
      </trkpt>
      <trkpt lat="45.11742" lon="5.44633">
        <ele>1354.2</ele>
        <time>2021-07-03T10:07:02Z</time>
      </trkpt>
      <trkpt lat="45.11744" lon="5.44642">
        <ele>1354.8</ele>
        <time>2021-07-03T10:07:06Z</time>
      </trkpt>
      <trkpt lat="45.11746" lon="5.44652">
        <ele>1354.8</ele>
        <time>2021-07-03T10:07:10Z</time>
      </trkpt>
      <trkpt lat="45.11747" lon="5.44662">
        <ele>1355.8</ele>
        <time>2021-07-03T10:07:14Z</time>
      </trkpt>
      <trkpt lat="45.11749" lon="5.44673">
        <ele>1355.6</ele>
        <time>2021-07-03T10:07:18Z</time>
      </trkpt>
      <trkpt lat="45.11752" lon="5.44684">
        <ele>1356.6</ele>
        <time>2021-07-03T10:07:22Z</time>
      </trkpt>
      <trkpt lat="45.11753" lon="5.44698">
        <ele>1356</ele>
        <time>2021-07-03T10:07:26Z</time>
      </trkpt>
      <trkpt lat="45.11753" lon="5.44713">
        <ele>1356.8</ele>
        <time>2021-07-03T10:07:30Z</time>
      </trkpt>
      <trkpt lat="45.11751" lon="5.44727">
        <ele>1356.6</ele>
        <time>2021-07-03T10:07:34Z</time>
      </trkpt>
      <trkpt lat="45.11747" lon="5.44742">
        <ele>1356.2</ele>
        <time>2021-07-03T10:07:38Z</time>
      </trkpt>
      <trkpt lat="45.11742" lon="5.44756">
        <ele>1356.6</ele>
        <time>2021-07-03T10:07:42Z</time>
      </trkpt>
      <trkpt lat="45.11738" lon="5.44769">
        <ele>1356.6</ele>
        <time>2021-07-03T10:07:46Z</time>
      </trkpt>
      <trkpt lat="45.1173" lon="5.4478">
        <ele>1356.4</ele>
        <time>2021-07-03T10:07:50Z</time>
      </trkpt>
      <trkpt lat="45.11725" lon="5.44792">
        <ele>1357</ele>
        <time>2021-07-03T10:07:54Z</time>
      </trkpt>
      <trkpt lat="45.11719" lon="5.44803">
        <ele>1357.2</ele>
        <time>2021-07-03T10:07:58Z</time>
      </trkpt>
      <trkpt lat="45.11714" lon="5.44811">
        <ele>1357.4</ele>
        <time>2021-07-03T10:08:02Z</time>
      </trkpt>
      <trkpt lat="45.11709" lon="5.4482">
        <ele>1357.2</ele>
        <time>2021-07-03T10:08:06Z</time>
      </trkpt>
      <trkpt lat="45.11709" lon="5.4482">
        <ele>1357.2</ele>
        <time>2021-07-03T10:08:10Z</time>
      </trkpt>
      <trkpt lat="45.1171" lon="5.4484">
        <ele>1355.6</ele>
        <time>2021-07-03T10:10:30Z</time>
      </trkpt>
      <trkpt lat="45.11715" lon="5.44855">
        <ele>1353.4</ele>
        <time>2021-07-03T10:10:34Z</time>
      </trkpt>
      <trkpt lat="45.11716" lon="5.44881">
        <ele>1352</ele>
        <time>2021-07-03T10:10:38Z</time>
      </trkpt>
      <trkpt lat="45.11715" lon="5.44904">
        <ele>1349.2</ele>
        <time>2021-07-03T10:10:42Z</time>
      </trkpt>
      <trkpt lat="45.11705" lon="5.44923">
        <ele>1347.2</ele>
        <time>2021-07-03T10:10:46Z</time>
      </trkpt>
      <trkpt lat="45.1171" lon="5.44951">
        <ele>1344</ele>
        <time>2021-07-03T10:10:50Z</time>
      </trkpt>
      <trkpt lat="45.11728" lon="5.44986">
        <ele>1339.6</ele>
        <time>2021-07-03T10:10:54Z</time>
      </trkpt>
      <trkpt lat="45.11757" lon="5.4502">
        <ele>1336.2</ele>
        <time>2021-07-03T10:10:58Z</time>
      </trkpt>
      <trkpt lat="45.11793" lon="5.45058">
        <ele>1331.8</ele>
        <time>2021-07-03T10:11:02Z</time>
      </trkpt>
      <trkpt lat="45.11837" lon="5.45087">
        <ele>1327.6</ele>
        <time>2021-07-03T10:11:06Z</time>
      </trkpt>
      <trkpt lat="45.11883" lon="5.45114">
        <ele>1324</ele>
        <time>2021-07-03T10:11:10Z</time>
      </trkpt>
      <trkpt lat="45.11919" lon="5.45152">
        <ele>1319.8</ele>
        <time>2021-07-03T10:11:14Z</time>
      </trkpt>
      <trkpt lat="45.11959" lon="5.45179">
        <ele>1318.2</ele>
        <time>2021-07-03T10:11:18Z</time>
      </trkpt>
      <trkpt lat="45.11999" lon="5.45202">
        <ele>1312.2</ele>
        <time>2021-07-03T10:11:22Z</time>
      </trkpt>
      <trkpt lat="45.12038" lon="5.4522">
        <ele>1310.6</ele>
        <time>2021-07-03T10:11:26Z</time>
      </trkpt>
      <trkpt lat="45.12077" lon="5.45232">
        <ele>1306</ele>
        <time>2021-07-03T10:11:30Z</time>
      </trkpt>
      <trkpt lat="45.12116" lon="5.45245">
        <ele>1303.4</ele>
        <time>2021-07-03T10:11:34Z</time>
      </trkpt>
      <trkpt lat="45.12154" lon="5.4526">
        <ele>1300.2</ele>
        <time>2021-07-03T10:11:38Z</time>
      </trkpt>
      <trkpt lat="45.12194" lon="5.45275">
        <ele>1297.6</ele>
        <time>2021-07-03T10:11:42Z</time>
      </trkpt>
      <trkpt lat="45.12235" lon="5.45289">
        <ele>1293.4</ele>
        <time>2021-07-03T10:11:46Z</time>
      </trkpt>
      <trkpt lat="45.12276" lon="5.45305">
        <ele>1289.4</ele>
        <time>2021-07-03T10:11:50Z</time>
      </trkpt>
      <trkpt lat="45.12316" lon="5.45323">
        <ele>1285.4</ele>
        <time>2021-07-03T10:11:54Z</time>
      </trkpt>
      <trkpt lat="45.1236" lon="5.45347">
        <ele>1281.2</ele>
        <time>2021-07-03T10:11:58Z</time>
      </trkpt>
      <trkpt lat="45.12406" lon="5.4537">
        <ele>1276.8</ele>
        <time>2021-07-03T10:12:02Z</time>
      </trkpt>
      <trkpt lat="45.12454" lon="5.45391">
        <ele>1273.2</ele>
        <time>2021-07-03T10:12:06Z</time>
      </trkpt>
      <trkpt lat="45.12499" lon="5.45416">
        <ele>1270</ele>
        <time>2021-07-03T10:12:10Z</time>
      </trkpt>
      <trkpt lat="45.12545" lon="5.4544">
        <ele>1267.6</ele>
        <time>2021-07-03T10:12:14Z</time>
      </trkpt>
      <trkpt lat="45.1259" lon="5.45462">
        <ele>1262</ele>
        <time>2021-07-03T10:12:18Z</time>
      </trkpt>
      <trkpt lat="45.12632" lon="5.45483">
        <ele>1259</ele>
        <time>2021-07-03T10:12:22Z</time>
      </trkpt>
      <trkpt lat="45.12671" lon="5.45507">
        <ele>1256</ele>
        <time>2021-07-03T10:12:26Z</time>
      </trkpt>
      <trkpt lat="45.12706" lon="5.45536">
        <ele>1254.2</ele>
        <time>2021-07-03T10:12:30Z</time>
      </trkpt>
      <trkpt lat="45.1274" lon="5.45573">
        <ele>1249</ele>
        <time>2021-07-03T10:12:34Z</time>
      </trkpt>
      <trkpt lat="45.12772" lon="5.45611">
        <ele>1245.4</ele>
        <time>2021-07-03T10:12:38Z</time>
      </trkpt>
      <trkpt lat="45.12812" lon="5.45633">
        <ele>1242.6</ele>
        <time>2021-07-03T10:12:42Z</time>
      </trkpt>
      <trkpt lat="45.12853" lon="5.45653">
        <ele>1239.2</ele>
        <time>2021-07-03T10:12:46Z</time>
      </trkpt>
      <trkpt lat="45.12894" lon="5.45673">
        <ele>1234.4</ele>
        <time>2021-07-03T10:12:50Z</time>
      </trkpt>
      <trkpt lat="45.12935" lon="5.45694">
        <ele>1231.2</ele>
        <time>2021-07-03T10:12:54Z</time>
      </trkpt>
      <trkpt lat="45.12976" lon="5.45717">
        <ele>1227.2</ele>
        <time>2021-07-03T10:12:58Z</time>
      </trkpt>
      <trkpt lat="45.13013" lon="5.45748">
        <ele>1223.2</ele>
        <time>2021-07-03T10:13:02Z</time>
      </trkpt>
      <trkpt lat="45.13042" lon="5.45792">
        <ele>1221</ele>
        <time>2021-07-03T10:13:06Z</time>
      </trkpt>
      <trkpt lat="45.13053" lon="5.45844">
        <ele>1219</ele>
        <time>2021-07-03T10:13:10Z</time>
      </trkpt>
      <trkpt lat="45.1304" lon="5.45895">
        <ele>1214.8</ele>
        <time>2021-07-03T10:13:14Z</time>
      </trkpt>
      <trkpt lat="45.13034" lon="5.45954">
        <ele>1211.8</ele>
        <time>2021-07-03T10:13:18Z</time>
      </trkpt>
      <trkpt lat="45.13029" lon="5.46009">
        <ele>1207.8</ele>
        <time>2021-07-03T10:13:22Z</time>
      </trkpt>
      <trkpt lat="45.13041" lon="5.4606">
        <ele>1204.8</ele>
        <time>2021-07-03T10:13:26Z</time>
      </trkpt>
      <trkpt lat="45.1306" lon="5.46106">
        <ele>1200.8</ele>
        <time>2021-07-03T10:13:30Z</time>
      </trkpt>
      <trkpt lat="45.13094" lon="5.46145">
        <ele>1197</ele>
        <time>2021-07-03T10:13:34Z</time>
      </trkpt>
      <trkpt lat="45.13134" lon="5.46185">
        <ele>1191.6</ele>
        <time>2021-07-03T10:13:38Z</time>
      </trkpt>
      <trkpt lat="45.13173" lon="5.46231">
        <ele>1189.4</ele>
        <time>2021-07-03T10:13:42Z</time>
      </trkpt>
      <trkpt lat="45.1321" lon="5.46275">
        <ele>1187.2</ele>
        <time>2021-07-03T10:13:46Z</time>
      </trkpt>
      <trkpt lat="45.13247" lon="5.46322">
        <ele>1183.8</ele>
        <time>2021-07-03T10:13:50Z</time>
      </trkpt>
      <trkpt lat="45.13283" lon="5.46361">
        <ele>1182.4</ele>
        <time>2021-07-03T10:13:54Z</time>
      </trkpt>
      <trkpt lat="45.13319" lon="5.46396">
        <ele>1179.2</ele>
        <time>2021-07-03T10:13:58Z</time>
      </trkpt>
      <trkpt lat="45.1336" lon="5.46424">
        <ele>1177.8</ele>
        <time>2021-07-03T10:14:02Z</time>
      </trkpt>
      <trkpt lat="45.13403" lon="5.46441">
        <ele>1176.8</ele>
        <time>2021-07-03T10:14:06Z</time>
      </trkpt>
      <trkpt lat="45.13445" lon="5.46463">
        <ele>1174.8</ele>
        <time>2021-07-03T10:14:10Z</time>
      </trkpt>
      <trkpt lat="45.13484" lon="5.46489">
        <ele>1173.2</ele>
        <time>2021-07-03T10:14:14Z</time>
      </trkpt>
      <trkpt lat="45.13516" lon="5.46513">
        <ele>1170</ele>
        <time>2021-07-03T10:14:18Z</time>
      </trkpt>
      <trkpt lat="45.13551" lon="5.46542">
        <ele>1168</ele>
        <time>2021-07-03T10:14:22Z</time>
      </trkpt>
      <trkpt lat="45.13583" lon="5.46588">
        <ele>1160.6</ele>
        <time>2021-07-03T10:14:26Z</time>
      </trkpt>
      <trkpt lat="45.13623" lon="5.46627">
        <ele>1159.4</ele>
        <time>2021-07-03T10:14:30Z</time>
      </trkpt>
      <trkpt lat="45.13654" lon="5.46673">
        <ele>1154.8</ele>
        <time>2021-07-03T10:14:34Z</time>
      </trkpt>
      <trkpt lat="45.13676" lon="5.46724">
        <ele>1152</ele>
        <time>2021-07-03T10:14:38Z</time>
      </trkpt>
      <trkpt lat="45.13691" lon="5.46779">
        <ele>1148.8</ele>
        <time>2021-07-03T10:14:42Z</time>
      </trkpt>
      <trkpt lat="45.13702" lon="5.46833">
        <ele>1145.4</ele>
        <time>2021-07-03T10:14:46Z</time>
      </trkpt>
      <trkpt lat="45.1371" lon="5.46885">
        <ele>1142.2</ele>
        <time>2021-07-03T10:14:50Z</time>
      </trkpt>
      <trkpt lat="45.1372" lon="5.46923">
        <ele>1139.2</ele>
        <time>2021-07-03T10:14:54Z</time>
      </trkpt>
      <trkpt lat="45.13746" lon="5.46954">
        <ele>1136.6</ele>
        <time>2021-07-03T10:14:58Z</time>
      </trkpt>
      <trkpt lat="45.1376" lon="5.46995">
        <ele>1135</ele>
        <time>2021-07-03T10:15:02Z</time>
      </trkpt>
      <trkpt lat="45.13761" lon="5.47029">
        <ele>1130.8</ele>
        <time>2021-07-03T10:15:06Z</time>
      </trkpt>
      <trkpt lat="45.13731" lon="5.47038">
        <ele>1126.6</ele>
        <time>2021-07-03T10:15:10Z</time>
      </trkpt>
      <trkpt lat="45.13701" lon="5.47053">
        <ele>1122.6</ele>
        <time>2021-07-03T10:15:14Z</time>
      </trkpt>
      <trkpt lat="45.13665" lon="5.47049">
        <ele>1117.4</ele>
        <time>2021-07-03T10:15:18Z</time>
      </trkpt>
      <trkpt lat="45.13633" lon="5.47037">
        <ele>1113.6</ele>
        <time>2021-07-03T10:15:22Z</time>
      </trkpt>
      <trkpt lat="45.13594" lon="5.47043">
        <ele>1109.8</ele>
        <time>2021-07-03T10:15:26Z</time>
      </trkpt>
      <trkpt lat="45.13555" lon="5.47058">
        <ele>1106.2</ele>
        <time>2021-07-03T10:15:30Z</time>
      </trkpt>
      <trkpt lat="45.13516" lon="5.47104">
        <ele>1102</ele>
        <time>2021-07-03T10:15:34Z</time>
      </trkpt>
      <trkpt lat="45.1347" lon="5.47133">
        <ele>1098.4</ele>
        <time>2021-07-03T10:15:38Z</time>
      </trkpt>
      <trkpt lat="45.13432" lon="5.47156">
        <ele>1096</ele>
        <time>2021-07-03T10:15:42Z</time>
      </trkpt>
      <trkpt lat="45.13411" lon="5.47184">
        <ele>1093.8</ele>
        <time>2021-07-03T10:15:46Z</time>
      </trkpt>
      <trkpt lat="45.13414" lon="5.4722">
        <ele>1093.4</ele>
        <time>2021-07-03T10:15:50Z</time>
      </trkpt>
      <trkpt lat="45.13428" lon="5.4724">
        <ele>1090.2</ele>
        <time>2021-07-03T10:15:54Z</time>
      </trkpt>
      <trkpt lat="45.13448" lon="5.4726">
        <ele>1088.6</ele>
        <time>2021-07-03T10:15:58Z</time>
      </trkpt>
      <trkpt lat="45.13468" lon="5.47289">
        <ele>1085.8</ele>
        <time>2021-07-03T10:16:02Z</time>
      </trkpt>
      <trkpt lat="45.13495" lon="5.4732">
        <ele>1081.2</ele>
        <time>2021-07-03T10:16:06Z</time>
      </trkpt>
      <trkpt lat="45.13525" lon="5.47357">
        <ele>1078.8</ele>
        <time>2021-07-03T10:16:10Z</time>
      </trkpt>
      <trkpt lat="45.13555" lon="5.47402">
        <ele>1074.6</ele>
        <time>2021-07-03T10:16:14Z</time>
      </trkpt>
      <trkpt lat="45.13585" lon="5.47436">
        <ele>1071.8</ele>
        <time>2021-07-03T10:16:18Z</time>
      </trkpt>
      <trkpt lat="45.13622" lon="5.47464">
        <ele>1067.8</ele>
        <time>2021-07-03T10:16:22Z</time>
      </trkpt>
      <trkpt lat="45.13665" lon="5.47494">
        <ele>1064.4</ele>
        <time>2021-07-03T10:16:26Z</time>
      </trkpt>
      <trkpt lat="45.13704" lon="5.47523">
        <ele>1061.2</ele>
        <time>2021-07-03T10:16:30Z</time>
      </trkpt>
      <trkpt lat="45.13741" lon="5.47546">
        <ele>1057</ele>
        <time>2021-07-03T10:16:34Z</time>
      </trkpt>
      <trkpt lat="45.13779" lon="5.4758">
        <ele>1054</ele>
        <time>2021-07-03T10:16:38Z</time>
      </trkpt>
      <trkpt lat="45.1382" lon="5.47606">
        <ele>1051.8</ele>
        <time>2021-07-03T10:16:42Z</time>
      </trkpt>
      <trkpt lat="45.1386" lon="5.4763">
        <ele>1044.8</ele>
        <time>2021-07-03T10:16:46Z</time>
      </trkpt>
      <trkpt lat="45.13897" lon="5.47663">
        <ele>1043.4</ele>
        <time>2021-07-03T10:16:50Z</time>
      </trkpt>
      <trkpt lat="45.13949" lon="5.47683">
        <ele>1039.4</ele>
        <time>2021-07-03T10:16:54Z</time>
      </trkpt>
      <trkpt lat="45.13999" lon="5.47704">
        <ele>1035.4</ele>
        <time>2021-07-03T10:16:58Z</time>
      </trkpt>
      <trkpt lat="45.14049" lon="5.47724">
        <ele>1031.6</ele>
        <time>2021-07-03T10:17:02Z</time>
      </trkpt>
      <trkpt lat="45.14098" lon="5.47753">
        <ele>1028</ele>
        <time>2021-07-03T10:17:06Z</time>
      </trkpt>
      <trkpt lat="45.14149" lon="5.47778">
        <ele>1024</ele>
        <time>2021-07-03T10:17:10Z</time>
      </trkpt>
      <trkpt lat="45.14195" lon="5.47799">
        <ele>1020.4</ele>
        <time>2021-07-03T10:17:14Z</time>
      </trkpt>
      <trkpt lat="45.14236" lon="5.47831">
        <ele>1018.6</ele>
        <time>2021-07-03T10:17:18Z</time>
      </trkpt>
      <trkpt lat="45.14267" lon="5.47884">
        <ele>1019</ele>
        <time>2021-07-03T10:17:22Z</time>
      </trkpt>
      <trkpt lat="45.14298" lon="5.47921">
        <ele>1019.6</ele>
        <time>2021-07-03T10:17:26Z</time>
      </trkpt>
      <trkpt lat="45.14326" lon="5.47942">
        <ele>1019</ele>
        <time>2021-07-03T10:17:30Z</time>
      </trkpt>
      <trkpt lat="45.14354" lon="5.47952">
        <ele>1018.4</ele>
        <time>2021-07-03T10:17:34Z</time>
      </trkpt>
      <trkpt lat="45.14378" lon="5.47957">
        <ele>1018</ele>
        <time>2021-07-03T10:17:38Z</time>
      </trkpt>
      <trkpt lat="45.14394" lon="5.47966">
        <ele>1017.4</ele>
        <time>2021-07-03T10:17:42Z</time>
      </trkpt>
      <trkpt lat="45.14413" lon="5.47973">
        <ele>1017</ele>
        <time>2021-07-03T10:17:46Z</time>
      </trkpt>
      <trkpt lat="45.14432" lon="5.47972">
        <ele>1016.4</ele>
        <time>2021-07-03T10:17:50Z</time>
      </trkpt>
      <trkpt lat="45.14447" lon="5.4797">
        <ele>1015.6</ele>
        <time>2021-07-03T10:17:54Z</time>
      </trkpt>
      <trkpt lat="45.14464" lon="5.4797">
        <ele>1015</ele>
        <time>2021-07-03T10:17:58Z</time>
      </trkpt>
      <trkpt lat="45.14479" lon="5.47969">
        <ele>1014.8</ele>
        <time>2021-07-03T10:18:02Z</time>
      </trkpt>
      <trkpt lat="45.1449" lon="5.47969">
        <ele>1014.8</ele>
        <time>2021-07-03T10:18:06Z</time>
      </trkpt>
      <trkpt lat="45.14497" lon="5.47971">
        <ele>1014.6</ele>
        <time>2021-07-03T10:18:10Z</time>
      </trkpt>
      <trkpt lat="45.14499" lon="5.47967">
        <ele>1015</ele>
        <time>2021-07-03T10:18:14Z</time>
      </trkpt>
      <trkpt lat="45.14489" lon="5.4797">
        <ele>1014.6</ele>
        <time>2021-07-03T10:18:18Z</time>
      </trkpt>
      <trkpt lat="45.14476" lon="5.47971">
        <ele>1015.6</ele>
        <time>2021-07-03T10:18:22Z</time>
      </trkpt>
      <trkpt lat="45.14463" lon="5.4797">
        <ele>1015.6</ele>
        <time>2021-07-03T10:18:26Z</time>
      </trkpt>
      <trkpt lat="45.1445" lon="5.47968">
        <ele>1016</ele>
        <time>2021-07-03T10:18:30Z</time>
      </trkpt>
      <trkpt lat="45.14436" lon="5.47967">
        <ele>1016.2</ele>
        <time>2021-07-03T10:18:34Z</time>
      </trkpt>
      <trkpt lat="45.14423" lon="5.47966">
        <ele>1017</ele>
        <time>2021-07-03T10:18:38Z</time>
      </trkpt>
      <trkpt lat="45.1441" lon="5.47966">
        <ele>1017.2</ele>
        <time>2021-07-03T10:18:42Z</time>
      </trkpt>
      <trkpt lat="45.14397" lon="5.47967">
        <ele>1017</ele>
        <time>2021-07-03T10:18:46Z</time>
      </trkpt>
      <trkpt lat="45.14384" lon="5.47966">
        <ele>1017.4</ele>
        <time>2021-07-03T10:18:50Z</time>
      </trkpt>
      <trkpt lat="45.14373" lon="5.47967">
        <ele>1017.6</ele>
        <time>2021-07-03T10:18:54Z</time>
      </trkpt>
      <trkpt lat="45.14366" lon="5.47968">
        <ele>1017.8</ele>
        <time>2021-07-03T10:18:58Z</time>
      </trkpt>
      <trkpt lat="45.1436" lon="5.4797">
        <ele>1017.2</ele>
        <time>2021-07-03T10:19:02Z</time>
      </trkpt>
      <trkpt lat="45.1435" lon="5.47972">
        <ele>1016.2</ele>
        <time>2021-07-03T10:19:06Z</time>
      </trkpt>
      <trkpt lat="45.14336" lon="5.47974">
        <ele>1015.4</ele>
        <time>2021-07-03T10:19:10Z</time>
      </trkpt>
      <trkpt lat="45.14322" lon="5.47977">
        <ele>1014.8</ele>
        <time>2021-07-03T10:19:14Z</time>
      </trkpt>
      <trkpt lat="45.14313" lon="5.47979">
        <ele>1014.4</ele>
        <time>2021-07-03T10:19:18Z</time>
      </trkpt>
      <trkpt lat="45.14305" lon="5.4798">
        <ele>1014.2</ele>
        <time>2021-07-03T10:19:22Z</time>
      </trkpt>
      <trkpt lat="45.14304" lon="5.47985">
        <ele>1014.6</ele>
        <time>2021-07-03T10:19:26Z</time>
      </trkpt>
      <trkpt lat="45.14312" lon="5.47984">
        <ele>1015.6</ele>
        <time>2021-07-03T10:19:30Z</time>
      </trkpt>
      <trkpt lat="45.14322" lon="5.47982">
        <ele>1015.4</ele>
        <time>2021-07-03T10:19:34Z</time>
      </trkpt>
      <trkpt lat="45.14332" lon="5.4798">
        <ele>1016.8</ele>
        <time>2021-07-03T10:19:38Z</time>
      </trkpt>
      <trkpt lat="45.14343" lon="5.47977">
        <ele>1017.6</ele>
        <time>2021-07-03T10:19:42Z</time>
      </trkpt>
      <trkpt lat="45.14354" lon="5.47974">
        <ele>1018.6</ele>
        <time>2021-07-03T10:19:46Z</time>
      </trkpt>
      <trkpt lat="45.14364" lon="5.47973">
        <ele>1018.6</ele>
        <time>2021-07-03T10:19:50Z</time>
      </trkpt>
      <trkpt lat="45.14376" lon="5.47972">
        <ele>1018</ele>
        <time>2021-07-03T10:19:54Z</time>
      </trkpt>
      <trkpt lat="45.14387" lon="5.47975">
        <ele>1017.2</ele>
        <time>2021-07-03T10:19:58Z</time>
      </trkpt>
      <trkpt lat="45.14398" lon="5.47988">
        <ele>1017.6</ele>
        <time>2021-07-03T10:20:02Z</time>
      </trkpt>
      <trkpt lat="45.14405" lon="5.47999">
        <ele>1017.8</ele>
        <time>2021-07-03T10:20:06Z</time>
      </trkpt>
      <trkpt lat="45.1442" lon="5.47988">
        <ele>1019.6</ele>
        <time>2021-07-03T10:46:01Z</time>
      </trkpt>
      <trkpt lat="45.1443" lon="5.47976">
        <ele>1018.8</ele>
        <time>2021-07-03T10:46:05Z</time>
      </trkpt>
      <trkpt lat="45.14444" lon="5.47972">
        <ele>1018.4</ele>
        <time>2021-07-03T10:46:09Z</time>
      </trkpt>
      <trkpt lat="45.14459" lon="5.4797">
        <ele>1018.2</ele>
        <time>2021-07-03T10:46:13Z</time>
      </trkpt>
      <trkpt lat="45.14476" lon="5.47969">
        <ele>1017.4</ele>
        <time>2021-07-03T10:46:17Z</time>
      </trkpt>
      <trkpt lat="45.14494" lon="5.47969">
        <ele>1017</ele>
        <time>2021-07-03T10:46:21Z</time>
      </trkpt>
      <trkpt lat="45.14512" lon="5.47972">
        <ele>1016.8</ele>
        <time>2021-07-03T10:46:25Z</time>
      </trkpt>
      <trkpt lat="45.14531" lon="5.47974">
        <ele>1016.2</ele>
        <time>2021-07-03T10:46:29Z</time>
      </trkpt>
      <trkpt lat="45.1455" lon="5.47978">
        <ele>1015.4</ele>
        <time>2021-07-03T10:46:33Z</time>
      </trkpt>
      <trkpt lat="45.1457" lon="5.47983">
        <ele>1015.2</ele>
        <time>2021-07-03T10:46:37Z</time>
      </trkpt>
      <trkpt lat="45.14592" lon="5.47988">
        <ele>1014</ele>
        <time>2021-07-03T10:46:41Z</time>
      </trkpt>
      <trkpt lat="45.14613" lon="5.47992">
        <ele>1013.4</ele>
        <time>2021-07-03T10:46:45Z</time>
      </trkpt>
      <trkpt lat="45.14635" lon="5.47995">
        <ele>1013.4</ele>
        <time>2021-07-03T10:46:49Z</time>
      </trkpt>
      <trkpt lat="45.14658" lon="5.47997">
        <ele>1012.6</ele>
        <time>2021-07-03T10:46:53Z</time>
      </trkpt>
      <trkpt lat="45.1468" lon="5.47998">
        <ele>1011.4</ele>
        <time>2021-07-03T10:46:57Z</time>
      </trkpt>
      <trkpt lat="45.14703" lon="5.48002">
        <ele>1010.6</ele>
        <time>2021-07-03T10:47:01Z</time>
      </trkpt>
      <trkpt lat="45.14726" lon="5.4801">
        <ele>1010.2</ele>
        <time>2021-07-03T10:47:05Z</time>
      </trkpt>
      <trkpt lat="45.1475" lon="5.48019">
        <ele>1008.8</ele>
        <time>2021-07-03T10:47:09Z</time>
      </trkpt>
      <trkpt lat="45.14777" lon="5.48031">
        <ele>1006.4</ele>
        <time>2021-07-03T10:47:13Z</time>
      </trkpt>
      <trkpt lat="45.14807" lon="5.48046">
        <ele>1003.8</ele>
        <time>2021-07-03T10:47:17Z</time>
      </trkpt>
      <trkpt lat="45.14841" lon="5.4806">
        <ele>1001.8</ele>
        <time>2021-07-03T10:47:21Z</time>
      </trkpt>
      <trkpt lat="45.14875" lon="5.48072">
        <ele>1001.2</ele>
        <time>2021-07-03T10:47:25Z</time>
      </trkpt>
      <trkpt lat="45.14909" lon="5.4809">
        <ele>1000.2</ele>
        <time>2021-07-03T10:47:29Z</time>
      </trkpt>
      <trkpt lat="45.14942" lon="5.48106">
        <ele>998.8</ele>
        <time>2021-07-03T10:47:33Z</time>
      </trkpt>
      <trkpt lat="45.14975" lon="5.48123">
        <ele>997</ele>
        <time>2021-07-03T10:47:37Z</time>
      </trkpt>
      <trkpt lat="45.15008" lon="5.4814">
        <ele>994.6</ele>
        <time>2021-07-03T10:47:41Z</time>
      </trkpt>
      <trkpt lat="45.15043" lon="5.48158">
        <ele>993</ele>
        <time>2021-07-03T10:47:45Z</time>
      </trkpt>
      <trkpt lat="45.15079" lon="5.48181">
        <ele>992.6</ele>
        <time>2021-07-03T10:47:49Z</time>
      </trkpt>
      <trkpt lat="45.15112" lon="5.48201">
        <ele>992.2</ele>
        <time>2021-07-03T10:47:53Z</time>
      </trkpt>
      <trkpt lat="45.15142" lon="5.48217">
        <ele>991.2</ele>
        <time>2021-07-03T10:47:57Z</time>
      </trkpt>
      <trkpt lat="45.15168" lon="5.48227">
        <ele>990.8</ele>
        <time>2021-07-03T10:48:01Z</time>
      </trkpt>
      <trkpt lat="45.15195" lon="5.4824">
        <ele>990.8</ele>
        <time>2021-07-03T10:48:05Z</time>
      </trkpt>
      <trkpt lat="45.15217" lon="5.48251">
        <ele>989.6</ele>
        <time>2021-07-03T10:48:09Z</time>
      </trkpt>
      <trkpt lat="45.15253" lon="5.48265">
        <ele>988.4</ele>
        <time>2021-07-03T10:48:13Z</time>
      </trkpt>
      <trkpt lat="45.15284" lon="5.48276">
        <ele>987.8</ele>
        <time>2021-07-03T10:48:17Z</time>
      </trkpt>
      <trkpt lat="45.15314" lon="5.4829">
        <ele>986.8</ele>
        <time>2021-07-03T10:48:21Z</time>
      </trkpt>
      <trkpt lat="45.15344" lon="5.48306">
        <ele>985</ele>
        <time>2021-07-03T10:48:25Z</time>
      </trkpt>
      <trkpt lat="45.15375" lon="5.48322">
        <ele>983.2</ele>
        <time>2021-07-03T10:48:29Z</time>
      </trkpt>
      <trkpt lat="45.15408" lon="5.48341">
        <ele>979.6</ele>
        <time>2021-07-03T10:48:33Z</time>
      </trkpt>
      <trkpt lat="45.15446" lon="5.48363">
        <ele>977</ele>
        <time>2021-07-03T10:48:37Z</time>
      </trkpt>
      <trkpt lat="45.15485" lon="5.48383">
        <ele>974.4</ele>
        <time>2021-07-03T10:48:41Z</time>
      </trkpt>
      <trkpt lat="45.15525" lon="5.48398">
        <ele>973.8</ele>
        <time>2021-07-03T10:48:45Z</time>
      </trkpt>
      <trkpt lat="45.15563" lon="5.48411">
        <ele>973</ele>
        <time>2021-07-03T10:48:49Z</time>
      </trkpt>
      <trkpt lat="45.15601" lon="5.48425">
        <ele>972.2</ele>
        <time>2021-07-03T10:48:53Z</time>
      </trkpt>
      <trkpt lat="45.15634" lon="5.48437">
        <ele>972.2</ele>
        <time>2021-07-03T10:48:57Z</time>
      </trkpt>
      <trkpt lat="45.15663" lon="5.48445">
        <ele>972.2</ele>
        <time>2021-07-03T10:49:01Z</time>
      </trkpt>
      <trkpt lat="45.1569" lon="5.48451">
        <ele>972</ele>
        <time>2021-07-03T10:49:05Z</time>
      </trkpt>
      <trkpt lat="45.15717" lon="5.48459">
        <ele>972.2</ele>
        <time>2021-07-03T10:49:09Z</time>
      </trkpt>
      <trkpt lat="45.15742" lon="5.48468">
        <ele>971.2</ele>
        <time>2021-07-03T10:49:13Z</time>
      </trkpt>
      <trkpt lat="45.15769" lon="5.4848">
        <ele>970.6</ele>
        <time>2021-07-03T10:49:17Z</time>
      </trkpt>
      <trkpt lat="45.15798" lon="5.48493">
        <ele>968.6</ele>
        <time>2021-07-03T10:49:21Z</time>
      </trkpt>
      <trkpt lat="45.15828" lon="5.48507">
        <ele>968.6</ele>
        <time>2021-07-03T10:49:25Z</time>
      </trkpt>
      <trkpt lat="45.15857" lon="5.48519">
        <ele>968.8</ele>
        <time>2021-07-03T10:49:29Z</time>
      </trkpt>
      <trkpt lat="45.15883" lon="5.48531">
        <ele>969</ele>
        <time>2021-07-03T10:49:33Z</time>
      </trkpt>
      <trkpt lat="45.15908" lon="5.48542">
        <ele>969</ele>
        <time>2021-07-03T10:49:37Z</time>
      </trkpt>
      <trkpt lat="45.15932" lon="5.48551">
        <ele>968.8</ele>
        <time>2021-07-03T10:49:41Z</time>
      </trkpt>
      <trkpt lat="45.15956" lon="5.48559">
        <ele>968.6</ele>
        <time>2021-07-03T10:49:45Z</time>
      </trkpt>
      <trkpt lat="45.15981" lon="5.48568">
        <ele>968.4</ele>
        <time>2021-07-03T10:49:49Z</time>
      </trkpt>
      <trkpt lat="45.16003" lon="5.48573">
        <ele>968</ele>
        <time>2021-07-03T10:49:53Z</time>
      </trkpt>
      <trkpt lat="45.16028" lon="5.48579">
        <ele>967.8</ele>
        <time>2021-07-03T10:49:57Z</time>
      </trkpt>
      <trkpt lat="45.16053" lon="5.48585">
        <ele>967.8</ele>
        <time>2021-07-03T10:50:01Z</time>
      </trkpt>
      <trkpt lat="45.16078" lon="5.48593">
        <ele>967</ele>
        <time>2021-07-03T10:50:05Z</time>
      </trkpt>
      <trkpt lat="45.16103" lon="5.48605">
        <ele>964.8</ele>
        <time>2021-07-03T10:50:09Z</time>
      </trkpt>
      <trkpt lat="45.16132" lon="5.48621">
        <ele>963</ele>
        <time>2021-07-03T10:50:13Z</time>
      </trkpt>
      <trkpt lat="45.16163" lon="5.48637">
        <ele>960.8</ele>
        <time>2021-07-03T10:50:17Z</time>
      </trkpt>
      <trkpt lat="45.16198" lon="5.48657">
        <ele>957.6</ele>
        <time>2021-07-03T10:50:21Z</time>
      </trkpt>
      <trkpt lat="45.16235" lon="5.48677">
        <ele>954.8</ele>
        <time>2021-07-03T10:50:25Z</time>
      </trkpt>
      <trkpt lat="45.16275" lon="5.48696">
        <ele>953.4</ele>
        <time>2021-07-03T10:50:29Z</time>
      </trkpt>
      <trkpt lat="45.16315" lon="5.48713">
        <ele>951.6</ele>
        <time>2021-07-03T10:50:33Z</time>
      </trkpt>
      <trkpt lat="45.16355" lon="5.48731">
        <ele>950</ele>
        <time>2021-07-03T10:50:37Z</time>
      </trkpt>
      <trkpt lat="45.16393" lon="5.48746">
        <ele>949.4</ele>
        <time>2021-07-03T10:50:41Z</time>
      </trkpt>
      <trkpt lat="45.16428" lon="5.48764">
        <ele>949</ele>
        <time>2021-07-03T10:50:45Z</time>
      </trkpt>
      <trkpt lat="45.16463" lon="5.48777">
        <ele>948.8</ele>
        <time>2021-07-03T10:50:49Z</time>
      </trkpt>
      <trkpt lat="45.16494" lon="5.48788">
        <ele>948.4</ele>
        <time>2021-07-03T10:50:53Z</time>
      </trkpt>
      <trkpt lat="45.16524" lon="5.488">
        <ele>948.2</ele>
        <time>2021-07-03T10:50:57Z</time>
      </trkpt>
      <trkpt lat="45.16552" lon="5.48812">
        <ele>947.6</ele>
        <time>2021-07-03T10:51:01Z</time>
      </trkpt>
      <trkpt lat="45.16579" lon="5.48827">
        <ele>947</ele>
        <time>2021-07-03T10:51:05Z</time>
      </trkpt>
      <trkpt lat="45.16607" lon="5.48841">
        <ele>946.4</ele>
        <time>2021-07-03T10:51:09Z</time>
      </trkpt>
      <trkpt lat="45.16635" lon="5.48859">
        <ele>946</ele>
        <time>2021-07-03T10:51:13Z</time>
      </trkpt>
      <trkpt lat="45.16661" lon="5.48876">
        <ele>945.6</ele>
        <time>2021-07-03T10:51:17Z</time>
      </trkpt>
      <trkpt lat="45.16688" lon="5.48892">
        <ele>945</ele>
        <time>2021-07-03T10:51:21Z</time>
      </trkpt>
      <trkpt lat="45.16714" lon="5.48905">
        <ele>945</ele>
        <time>2021-07-03T10:51:25Z</time>
      </trkpt>
      <trkpt lat="45.1674" lon="5.4892">
        <ele>944.4</ele>
        <time>2021-07-03T10:51:29Z</time>
      </trkpt>
      <trkpt lat="45.16764" lon="5.48931">
        <ele>944</ele>
        <time>2021-07-03T10:51:33Z</time>
      </trkpt>
      <trkpt lat="45.16788" lon="5.48943">
        <ele>943.4</ele>
        <time>2021-07-03T10:51:37Z</time>
      </trkpt>
      <trkpt lat="45.16814" lon="5.48961">
        <ele>941.6</ele>
        <time>2021-07-03T10:51:41Z</time>
      </trkpt>
      <trkpt lat="45.16841" lon="5.48987">
        <ele>938.4</ele>
        <time>2021-07-03T10:51:45Z</time>
      </trkpt>
      <trkpt lat="45.16874" lon="5.4902">
        <ele>933.8</ele>
        <time>2021-07-03T10:51:49Z</time>
      </trkpt>
      <trkpt lat="45.16912" lon="5.49052">
        <ele>930.4</ele>
        <time>2021-07-03T10:51:53Z</time>
      </trkpt>
      <trkpt lat="45.16949" lon="5.49086">
        <ele>925</ele>
        <time>2021-07-03T10:51:57Z</time>
      </trkpt>
      <trkpt lat="45.16988" lon="5.49126">
        <ele>919.8</ele>
        <time>2021-07-03T10:52:01Z</time>
      </trkpt>
      <trkpt lat="45.17029" lon="5.49169">
        <ele>914.6</ele>
        <time>2021-07-03T10:52:05Z</time>
      </trkpt>
      <trkpt lat="45.17072" lon="5.49215">
        <ele>909.6</ele>
        <time>2021-07-03T10:52:09Z</time>
      </trkpt>
      <trkpt lat="45.17117" lon="5.49258">
        <ele>903.8</ele>
        <time>2021-07-03T10:52:13Z</time>
      </trkpt>
      <trkpt lat="45.17162" lon="5.49298">
        <ele>899.2</ele>
        <time>2021-07-03T10:52:17Z</time>
      </trkpt>
      <trkpt lat="45.17209" lon="5.49343">
        <ele>893.4</ele>
        <time>2021-07-03T10:52:21Z</time>
      </trkpt>
      <trkpt lat="45.17257" lon="5.49393">
        <ele>887</ele>
        <time>2021-07-03T10:52:25Z</time>
      </trkpt>
      <trkpt lat="45.17306" lon="5.49439">
        <ele>881.4</ele>
        <time>2021-07-03T10:52:29Z</time>
      </trkpt>
      <trkpt lat="45.17354" lon="5.49485">
        <ele>875.8</ele>
        <time>2021-07-03T10:52:33Z</time>
      </trkpt>
      <trkpt lat="45.17404" lon="5.49529">
        <ele>869.8</ele>
        <time>2021-07-03T10:52:37Z</time>
      </trkpt>
      <trkpt lat="45.1745" lon="5.49571">
        <ele>864.2</ele>
        <time>2021-07-03T10:52:41Z</time>
      </trkpt>
      <trkpt lat="45.17501" lon="5.49617">
        <ele>859</ele>
        <time>2021-07-03T10:52:45Z</time>
      </trkpt>
      <trkpt lat="45.1755" lon="5.49661">
        <ele>853.6</ele>
        <time>2021-07-03T10:52:49Z</time>
      </trkpt>
      <trkpt lat="45.176" lon="5.49701">
        <ele>848.4</ele>
        <time>2021-07-03T10:52:53Z</time>
      </trkpt>
      <trkpt lat="45.17646" lon="5.49744">
        <ele>844.2</ele>
        <time>2021-07-03T10:52:57Z</time>
      </trkpt>
      <trkpt lat="45.17678" lon="5.49778">
        <ele>841.2</ele>
        <time>2021-07-03T10:53:01Z</time>
      </trkpt>
      <trkpt lat="45.17702" lon="5.49796">
        <ele>838</ele>
        <time>2021-07-03T10:53:05Z</time>
      </trkpt>
      <trkpt lat="45.1773" lon="5.49792">
        <ele>836.4</ele>
        <time>2021-07-03T10:53:09Z</time>
      </trkpt>
      <trkpt lat="45.17757" lon="5.49767">
        <ele>836</ele>
        <time>2021-07-03T10:53:13Z</time>
      </trkpt>
      <trkpt lat="45.17781" lon="5.49744">
        <ele>834.2</ele>
        <time>2021-07-03T10:53:17Z</time>
      </trkpt>
      <trkpt lat="45.17804" lon="5.49726">
        <ele>832.2</ele>
        <time>2021-07-03T10:53:21Z</time>
      </trkpt>
      <trkpt lat="45.17837" lon="5.49734">
        <ele>830.6</ele>
        <time>2021-07-03T10:53:25Z</time>
      </trkpt>
      <trkpt lat="45.17852" lon="5.49736">
        <ele>830</ele>
        <time>2021-07-03T10:53:29Z</time>
      </trkpt>
      <trkpt lat="45.1785" lon="5.49733">
        <ele>826</ele>
        <time>2021-07-03T10:54:21Z</time>
      </trkpt>
      <trkpt lat="45.17871" lon="5.49698">
        <ele>824.8</ele>
        <time>2021-07-03T10:54:25Z</time>
      </trkpt>
      <trkpt lat="45.17905" lon="5.49649">
        <ele>822.2</ele>
        <time>2021-07-03T10:54:57Z</time>
      </trkpt>
      <trkpt lat="45.17906" lon="5.49627">
        <ele>821</ele>
        <time>2021-07-03T10:55:01Z</time>
      </trkpt>
      <trkpt lat="45.17912" lon="5.49619">
        <ele>820.6</ele>
        <time>2021-07-03T10:55:05Z</time>
      </trkpt>
      <trkpt lat="45.17914" lon="5.49616">
        <ele>818.6</ele>
        <time>2021-07-03T10:55:09Z</time>
      </trkpt>
      <trkpt lat="45.17916" lon="5.49607">
        <ele>817.4</ele>
        <time>2021-07-03T10:55:13Z</time>
      </trkpt>
      <trkpt lat="45.17918" lon="5.49604">
        <ele>815.6</ele>
        <time>2021-07-03T10:55:17Z</time>
      </trkpt>
      <trkpt lat="45.17918" lon="5.49604">
        <ele>771.8</ele>
        <time>2021-07-03T10:57:53Z</time>
      </trkpt>
      <trkpt lat="45.17526" lon="5.49186">
        <ele>771.8</ele>
        <time>2021-07-03T10:57:57Z</time>
      </trkpt>
      <trkpt lat="45.17531" lon="5.49211">
        <ele>767.4</ele>
        <time>2021-07-03T10:59:29Z</time>
      </trkpt>
      <trkpt lat="45.17515" lon="5.4919">
        <ele>764.8</ele>
        <time>2021-07-03T10:59:33Z</time>
      </trkpt>
      <trkpt lat="45.17498" lon="5.49174">
        <ele>761.6</ele>
        <time>2021-07-03T10:59:37Z</time>
      </trkpt>
      <trkpt lat="45.17488" lon="5.49167">
        <ele>757.2</ele>
        <time>2021-07-03T10:59:41Z</time>
      </trkpt>
      <trkpt lat="45.17451" lon="5.49121">
        <ele>753</ele>
        <time>2021-07-03T10:59:45Z</time>
      </trkpt>
      <trkpt lat="45.17446" lon="5.49077">
        <ele>750.2</ele>
        <time>2021-07-03T10:59:49Z</time>
      </trkpt>
      <trkpt lat="45.17457" lon="5.4904">
        <ele>746.2</ele>
        <time>2021-07-03T10:59:53Z</time>
      </trkpt>
      <trkpt lat="45.1746" lon="5.49">
        <ele>742.2</ele>
        <time>2021-07-03T10:59:57Z</time>
      </trkpt>
      <trkpt lat="45.17459" lon="5.48949">
        <ele>738.2</ele>
        <time>2021-07-03T11:00:01Z</time>
      </trkpt>
      <trkpt lat="45.17464" lon="5.48905">
        <ele>732.8</ele>
        <time>2021-07-03T11:00:05Z</time>
      </trkpt>
      <trkpt lat="45.17487" lon="5.4886">
        <ele>728.4</ele>
        <time>2021-07-03T11:00:09Z</time>
      </trkpt>
      <trkpt lat="45.175" lon="5.48808">
        <ele>724.8</ele>
        <time>2021-07-03T11:00:13Z</time>
      </trkpt>
      <trkpt lat="45.17502" lon="5.48771">
        <ele>722.4</ele>
        <time>2021-07-03T11:00:17Z</time>
      </trkpt>
      <trkpt lat="45.17497" lon="5.48752">
        <ele>720.6</ele>
        <time>2021-07-03T11:00:21Z</time>
      </trkpt>
      <trkpt lat="45.17512" lon="5.48719">
        <ele>717.8</ele>
        <time>2021-07-03T11:00:25Z</time>
      </trkpt>
      <trkpt lat="45.1754" lon="5.48696">
        <ele>713.4</ele>
        <time>2021-07-03T11:00:29Z</time>
      </trkpt>
      <trkpt lat="45.17554" lon="5.48652">
        <ele>708.8</ele>
        <time>2021-07-03T11:00:33Z</time>
      </trkpt>
      <trkpt lat="45.17561" lon="5.48595">
        <ele>703.2</ele>
        <time>2021-07-03T11:00:37Z</time>
      </trkpt>
      <trkpt lat="45.17573" lon="5.48532">
        <ele>698.6</ele>
        <time>2021-07-03T11:00:41Z</time>
      </trkpt>
      <trkpt lat="45.17583" lon="5.4848">
        <ele>694.6</ele>
        <time>2021-07-03T11:00:45Z</time>
      </trkpt>
      <trkpt lat="45.17607" lon="5.48447">
        <ele>690.4</ele>
        <time>2021-07-03T11:00:49Z</time>
      </trkpt>
      <trkpt lat="45.17636" lon="5.48411">
        <ele>685.8</ele>
        <time>2021-07-03T11:00:53Z</time>
      </trkpt>
      <trkpt lat="45.17664" lon="5.48374">
        <ele>682.8</ele>
        <time>2021-07-03T11:00:57Z</time>
      </trkpt>
      <trkpt lat="45.17697" lon="5.48366">
        <ele>678.8</ele>
        <time>2021-07-03T11:01:01Z</time>
      </trkpt>
      <trkpt lat="45.17736" lon="5.48381">
        <ele>674.8</ele>
        <time>2021-07-03T11:01:05Z</time>
      </trkpt>
      <trkpt lat="45.17777" lon="5.48396">
        <ele>672</ele>
        <time>2021-07-03T11:01:09Z</time>
      </trkpt>
      <trkpt lat="45.17794" lon="5.48415">
        <ele>669.2</ele>
        <time>2021-07-03T11:01:13Z</time>
      </trkpt>
      <trkpt lat="45.17791" lon="5.48442">
        <ele>666.4</ele>
        <time>2021-07-03T11:01:17Z</time>
      </trkpt>
      <trkpt lat="45.17787" lon="5.48462">
        <ele>663.4</ele>
        <time>2021-07-03T11:01:21Z</time>
      </trkpt>
      <trkpt lat="45.1776" lon="5.4846">
        <ele>659.6</ele>
        <time>2021-07-03T11:01:25Z</time>
      </trkpt>
      <trkpt lat="45.17731" lon="5.4845">
        <ele>656.4</ele>
        <time>2021-07-03T11:01:29Z</time>
      </trkpt>
      <trkpt lat="45.17705" lon="5.48444">
        <ele>653</ele>
        <time>2021-07-03T11:01:33Z</time>
      </trkpt>
      <trkpt lat="45.17686" lon="5.48478">
        <ele>649.2</ele>
        <time>2021-07-03T11:01:37Z</time>
      </trkpt>
      <trkpt lat="45.17675" lon="5.48533">
        <ele>645.2</ele>
        <time>2021-07-03T11:01:41Z</time>
      </trkpt>
      <trkpt lat="45.17671" lon="5.48592">
        <ele>640.8</ele>
        <time>2021-07-03T11:01:45Z</time>
      </trkpt>
      <trkpt lat="45.17663" lon="5.48653">
        <ele>637.6</ele>
        <time>2021-07-03T11:01:49Z</time>
      </trkpt>
      <trkpt lat="45.17644" lon="5.48693">
        <ele>634.4</ele>
        <time>2021-07-03T11:01:53Z</time>
      </trkpt>
      <trkpt lat="45.17634" lon="5.48731">
        <ele>632.6</ele>
        <time>2021-07-03T11:01:57Z</time>
      </trkpt>
      <trkpt lat="45.17643" lon="5.48767">
        <ele>628.8</ele>
        <time>2021-07-03T11:02:01Z</time>
      </trkpt>
      <trkpt lat="45.17646" lon="5.48813">
        <ele>625.2</ele>
        <time>2021-07-03T11:02:05Z</time>
      </trkpt>
      <trkpt lat="45.17641" lon="5.48857">
        <ele>622</ele>
        <time>2021-07-03T11:02:09Z</time>
      </trkpt>
      <trkpt lat="45.17639" lon="5.48904">
        <ele>618.6</ele>
        <time>2021-07-03T11:02:13Z</time>
      </trkpt>
      <trkpt lat="45.17651" lon="5.48956">
        <ele>613.8</ele>
        <time>2021-07-03T11:02:17Z</time>
      </trkpt>
      <trkpt lat="45.17674" lon="5.49006">
        <ele>609.6</ele>
        <time>2021-07-03T11:02:21Z</time>
      </trkpt>
      <trkpt lat="45.17704" lon="5.49042">
        <ele>606.4</ele>
        <time>2021-07-03T11:02:25Z</time>
      </trkpt>
      <trkpt lat="45.17728" lon="5.49078">
        <ele>603.4</ele>
        <time>2021-07-03T11:02:29Z</time>
      </trkpt>
      <trkpt lat="45.17739" lon="5.49125">
        <ele>600.4</ele>
        <time>2021-07-03T11:02:33Z</time>
      </trkpt>
      <trkpt lat="45.17753" lon="5.49163">
        <ele>596</ele>
        <time>2021-07-03T11:02:37Z</time>
      </trkpt>
      <trkpt lat="45.17775" lon="5.49204">
        <ele>592.6</ele>
        <time>2021-07-03T11:02:41Z</time>
      </trkpt>
      <trkpt lat="45.17797" lon="5.49245">
        <ele>590.8</ele>
        <time>2021-07-03T11:02:45Z</time>
      </trkpt>
      <trkpt lat="45.17801" lon="5.49285">
        <ele>588.4</ele>
        <time>2021-07-03T11:02:49Z</time>
      </trkpt>
      <trkpt lat="45.17809" lon="5.4932">
        <ele>586.2</ele>
        <time>2021-07-03T11:02:53Z</time>
      </trkpt>
      <trkpt lat="45.17828" lon="5.49356">
        <ele>584.4</ele>
        <time>2021-07-03T11:02:57Z</time>
      </trkpt>
      <trkpt lat="45.17862" lon="5.49368">
        <ele>584.4</ele>
        <time>2021-07-03T11:03:01Z</time>
      </trkpt>
      <trkpt lat="45.17879" lon="5.49361">
        <ele>584.2</ele>
        <time>2021-07-03T11:03:05Z</time>
      </trkpt>
      <trkpt lat="45.17903" lon="5.49364">
        <ele>584</ele>
        <time>2021-07-03T11:04:23Z</time>
      </trkpt>
      <trkpt lat="45.1791" lon="5.49354">
        <ele>583.6</ele>
        <time>2021-07-03T11:04:27Z</time>
      </trkpt>
      <trkpt lat="45.17913" lon="5.49333">
        <ele>583</ele>
        <time>2021-07-03T11:04:31Z</time>
      </trkpt>
      <trkpt lat="45.1792" lon="5.4931">
        <ele>581</ele>
        <time>2021-07-03T11:04:35Z</time>
      </trkpt>
      <trkpt lat="45.17931" lon="5.49281">
        <ele>578.6</ele>
        <time>2021-07-03T11:04:39Z</time>
      </trkpt>
      <trkpt lat="45.17948" lon="5.49245">
        <ele>575.8</ele>
        <time>2021-07-03T11:04:43Z</time>
      </trkpt>
      <trkpt lat="45.17967" lon="5.49202">
        <ele>572.8</ele>
        <time>2021-07-03T11:04:47Z</time>
      </trkpt>
      <trkpt lat="45.17985" lon="5.49163">
        <ele>569.4</ele>
        <time>2021-07-03T11:04:51Z</time>
      </trkpt>
      <trkpt lat="45.18008" lon="5.49124">
        <ele>565.2</ele>
        <time>2021-07-03T11:04:55Z</time>
      </trkpt>
      <trkpt lat="45.1802" lon="5.49084">
        <ele>563</ele>
        <time>2021-07-03T11:04:59Z</time>
      </trkpt>
      <trkpt lat="45.18027" lon="5.49039">
        <ele>560</ele>
        <time>2021-07-03T11:05:03Z</time>
      </trkpt>
      <trkpt lat="45.18039" lon="5.49016">
        <ele>557.4</ele>
        <time>2021-07-03T11:05:07Z</time>
      </trkpt>
      <trkpt lat="45.18036" lon="5.48976">
        <ele>554.6</ele>
        <time>2021-07-03T11:05:11Z</time>
      </trkpt>
      <trkpt lat="45.18018" lon="5.4894">
        <ele>551.8</ele>
        <time>2021-07-03T11:05:15Z</time>
      </trkpt>
      <trkpt lat="45.18009" lon="5.48893">
        <ele>549.6</ele>
        <time>2021-07-03T11:05:19Z</time>
      </trkpt>
      <trkpt lat="45.18021" lon="5.48863">
        <ele>547.2</ele>
        <time>2021-07-03T11:05:23Z</time>
      </trkpt>
      <trkpt lat="45.18042" lon="5.48877">
        <ele>544.2</ele>
        <time>2021-07-03T11:05:27Z</time>
      </trkpt>
      <trkpt lat="45.18058" lon="5.48907">
        <ele>541.4</ele>
        <time>2021-07-03T11:05:31Z</time>
      </trkpt>
      <trkpt lat="45.18079" lon="5.48934">
        <ele>538.2</ele>
        <time>2021-07-03T11:05:35Z</time>
      </trkpt>
      <trkpt lat="45.18113" lon="5.48946">
        <ele>535.2</ele>
        <time>2021-07-03T11:05:39Z</time>
      </trkpt>
      <trkpt lat="45.18149" lon="5.48944">
        <ele>531</ele>
        <time>2021-07-03T11:05:43Z</time>
      </trkpt>
      <trkpt lat="45.18171" lon="5.48906">
        <ele>528.2</ele>
        <time>2021-07-03T11:05:47Z</time>
      </trkpt>
      <trkpt lat="45.18196" lon="5.48875">
        <ele>524.8</ele>
        <time>2021-07-03T11:05:51Z</time>
      </trkpt>
      <trkpt lat="45.18227" lon="5.48855">
        <ele>522</ele>
        <time>2021-07-03T11:05:55Z</time>
      </trkpt>
      <trkpt lat="45.18254" lon="5.48819">
        <ele>519.2</ele>
        <time>2021-07-03T11:05:59Z</time>
      </trkpt>
      <trkpt lat="45.18287" lon="5.4878">
        <ele>515.6</ele>
        <time>2021-07-03T11:06:03Z</time>
      </trkpt>
      <trkpt lat="45.18316" lon="5.48737">
        <ele>512.2</ele>
        <time>2021-07-03T11:06:07Z</time>
      </trkpt>
      <trkpt lat="45.18341" lon="5.48693">
        <ele>510.4</ele>
        <time>2021-07-03T11:06:11Z</time>
      </trkpt>
      <trkpt lat="45.18355" lon="5.48671">
        <ele>509</ele>
        <time>2021-07-03T11:06:15Z</time>
      </trkpt>
      <trkpt lat="45.18355" lon="5.48641">
        <ele>506.8</ele>
        <time>2021-07-03T11:06:19Z</time>
      </trkpt>
      <trkpt lat="45.18356" lon="5.48619">
        <ele>506.2</ele>
        <time>2021-07-03T11:06:23Z</time>
      </trkpt>
      <trkpt lat="45.18356" lon="5.48605">
        <ele>505.8</ele>
        <time>2021-07-03T11:06:27Z</time>
      </trkpt>
      <trkpt lat="45.18374" lon="5.48577">
        <ele>504.4</ele>
        <time>2021-07-03T11:07:32Z</time>
      </trkpt>
      <trkpt lat="45.18395" lon="5.48574">
        <ele>503.6</ele>
        <time>2021-07-03T11:07:36Z</time>
      </trkpt>
      <trkpt lat="45.18424" lon="5.48582">
        <ele>501.2</ele>
        <time>2021-07-03T11:07:40Z</time>
      </trkpt>
      <trkpt lat="45.18452" lon="5.48598">
        <ele>498.4</ele>
        <time>2021-07-03T11:07:44Z</time>
      </trkpt>
      <trkpt lat="45.18479" lon="5.48592">
        <ele>497</ele>
        <time>2021-07-03T11:07:48Z</time>
      </trkpt>
      <trkpt lat="45.18497" lon="5.48554">
        <ele>493.6</ele>
        <time>2021-07-03T11:07:52Z</time>
      </trkpt>
      <trkpt lat="45.18523" lon="5.48542">
        <ele>490.8</ele>
        <time>2021-07-03T11:07:56Z</time>
      </trkpt>
      <trkpt lat="45.18557" lon="5.48551">
        <ele>488.2</ele>
        <time>2021-07-03T11:08:00Z</time>
      </trkpt>
      <trkpt lat="45.18593" lon="5.48555">
        <ele>484.6</ele>
        <time>2021-07-03T11:08:04Z</time>
      </trkpt>
      <trkpt lat="45.18627" lon="5.4855">
        <ele>481.6</ele>
        <time>2021-07-03T11:08:08Z</time>
      </trkpt>
      <trkpt lat="45.18666" lon="5.48553">
        <ele>478.4</ele>
        <time>2021-07-03T11:08:12Z</time>
      </trkpt>
      <trkpt lat="45.18707" lon="5.48547">
        <ele>475.2</ele>
        <time>2021-07-03T11:08:16Z</time>
      </trkpt>
      <trkpt lat="45.18748" lon="5.48536">
        <ele>471.6</ele>
        <time>2021-07-03T11:08:20Z</time>
      </trkpt>
      <trkpt lat="45.18787" lon="5.48502">
        <ele>469.2</ele>
        <time>2021-07-03T11:08:24Z</time>
      </trkpt>
      <trkpt lat="45.18819" lon="5.48479">
        <ele>466</ele>
        <time>2021-07-03T11:08:28Z</time>
      </trkpt>
      <trkpt lat="45.18849" lon="5.48483">
        <ele>463.4</ele>
        <time>2021-07-03T11:08:32Z</time>
      </trkpt>
      <trkpt lat="45.18873" lon="5.485">
        <ele>460.2</ele>
        <time>2021-07-03T11:08:36Z</time>
      </trkpt>
      <trkpt lat="45.18889" lon="5.48516">
        <ele>457.6</ele>
        <time>2021-07-03T11:08:40Z</time>
      </trkpt>
      <trkpt lat="45.1891" lon="5.48528">
        <ele>454</ele>
        <time>2021-07-03T11:08:44Z</time>
      </trkpt>
      <trkpt lat="45.18919" lon="5.48529">
        <ele>452.8</ele>
        <time>2021-07-03T11:08:48Z</time>
      </trkpt>
      <trkpt lat="45.18937" lon="5.48513">
        <ele>451.4</ele>
        <time>2021-07-03T11:09:17Z</time>
      </trkpt>
      <trkpt lat="45.18931" lon="5.48506">
        <ele>448.8</ele>
        <time>2021-07-03T11:09:21Z</time>
      </trkpt>
      <trkpt lat="45.18921" lon="5.48497">
        <ele>446.4</ele>
        <time>2021-07-03T11:09:25Z</time>
      </trkpt>
      <trkpt lat="45.18907" lon="5.48484">
        <ele>446.8</ele>
        <time>2021-07-03T11:09:29Z</time>
      </trkpt>
      <trkpt lat="45.18896" lon="5.48469">
        <ele>444.2</ele>
        <time>2021-07-03T11:09:33Z</time>
      </trkpt>
      <trkpt lat="45.18884" lon="5.48456">
        <ele>440.8</ele>
        <time>2021-07-03T11:09:37Z</time>
      </trkpt>
      <trkpt lat="45.18871" lon="5.48435">
        <ele>438</ele>
        <time>2021-07-03T11:09:41Z</time>
      </trkpt>
      <trkpt lat="45.18852" lon="5.48412">
        <ele>436</ele>
        <time>2021-07-03T11:09:45Z</time>
      </trkpt>
      <trkpt lat="45.18834" lon="5.48382">
        <ele>431.6</ele>
        <time>2021-07-03T11:09:49Z</time>
      </trkpt>
      <trkpt lat="45.18809" lon="5.48349">
        <ele>429.2</ele>
        <time>2021-07-03T11:09:53Z</time>
      </trkpt>
      <trkpt lat="45.18784" lon="5.48324">
        <ele>427.8</ele>
        <time>2021-07-03T11:09:57Z</time>
      </trkpt>
      <trkpt lat="45.1876" lon="5.48306">
        <ele>424.6</ele>
        <time>2021-07-03T11:10:01Z</time>
      </trkpt>
      <trkpt lat="45.18754" lon="5.48287">
        <ele>421.8</ele>
        <time>2021-07-03T11:10:05Z</time>
      </trkpt>
      <trkpt lat="45.18748" lon="5.48262">
        <ele>417.6</ele>
        <time>2021-07-03T11:10:09Z</time>
      </trkpt>
      <trkpt lat="45.18735" lon="5.48245">
        <ele>415.2</ele>
        <time>2021-07-03T11:10:13Z</time>
      </trkpt>
      <trkpt lat="45.18736" lon="5.48237">
        <ele>413.8</ele>
        <time>2021-07-03T11:10:17Z</time>
      </trkpt>
      <trkpt lat="45.18757" lon="5.48222">
        <ele>411.2</ele>
        <time>2021-07-03T11:10:35Z</time>
      </trkpt>
      <trkpt lat="45.18786" lon="5.48235">
        <ele>405.8</ele>
        <time>2021-07-03T11:10:39Z</time>
      </trkpt>
      <trkpt lat="45.18806" lon="5.48246">
        <ele>401.2</ele>
        <time>2021-07-03T11:10:43Z</time>
      </trkpt>
      <trkpt lat="45.18825" lon="5.48254">
        <ele>397.2</ele>
        <time>2021-07-03T11:10:47Z</time>
      </trkpt>
      <trkpt lat="45.18834" lon="5.48269">
        <ele>391</ele>
        <time>2021-07-03T11:10:51Z</time>
      </trkpt>
      <trkpt lat="45.18852" lon="5.4828">
        <ele>386.2</ele>
        <time>2021-07-03T11:10:55Z</time>
      </trkpt>
      <trkpt lat="45.18865" lon="5.48287">
        <ele>382.2</ele>
        <time>2021-07-03T11:10:59Z</time>
      </trkpt>
      <trkpt lat="45.18875" lon="5.48307">
        <ele>378.2</ele>
        <time>2021-07-03T11:11:03Z</time>
      </trkpt>
      <trkpt lat="45.18888" lon="5.48316">
        <ele>375.8</ele>
        <time>2021-07-03T11:11:07Z</time>
      </trkpt>
      <trkpt lat="45.18902" lon="5.48324">
        <ele>370.4</ele>
        <time>2021-07-03T11:11:11Z</time>
      </trkpt>
      <trkpt lat="45.1892" lon="5.48334">
        <ele>364.4</ele>
        <time>2021-07-03T11:11:15Z</time>
      </trkpt>
      <trkpt lat="45.18934" lon="5.48349">
        <ele>362.2</ele>
        <time>2021-07-03T11:11:19Z</time>
      </trkpt>
      <trkpt lat="45.18951" lon="5.48361">
        <ele>358.6</ele>
        <time>2021-07-03T11:11:23Z</time>
      </trkpt>
      <trkpt lat="45.18972" lon="5.48369">
        <ele>355.4</ele>
        <time>2021-07-03T11:11:27Z</time>
      </trkpt>
      <trkpt lat="45.18982" lon="5.48374">
        <ele>351.8</ele>
        <time>2021-07-03T11:11:31Z</time>
      </trkpt>
      <trkpt lat="45.18982" lon="5.48374">
        <ele>343.8</ele>
        <time>2021-07-03T11:11:35Z</time>
      </trkpt>
      <trkpt lat="45.1902" lon="5.48389">
        <ele>339.2</ele>
        <time>2021-07-03T11:11:39Z</time>
      </trkpt>
      <trkpt lat="45.19049" lon="5.48398">
        <ele>335</ele>
        <time>2021-07-03T11:11:43Z</time>
      </trkpt>
      <trkpt lat="45.19245" lon="5.48423">
        <ele>324.6</ele>
        <time>2021-07-03T11:11:53Z</time>
      </trkpt>
      <trkpt lat="45.1926" lon="5.48416">
        <ele>320.8</ele>
        <time>2021-07-03T11:11:57Z</time>
      </trkpt>
      <trkpt lat="45.19272" lon="5.48403">
        <ele>317.4</ele>
        <time>2021-07-03T11:12:01Z</time>
      </trkpt>
      <trkpt lat="45.19285" lon="5.484">
        <ele>313.4</ele>
        <time>2021-07-03T11:12:05Z</time>
      </trkpt>
      <trkpt lat="45.19294" lon="5.48404">
        <ele>310.4</ele>
        <time>2021-07-03T11:12:09Z</time>
      </trkpt>
      <trkpt lat="45.19307" lon="5.48402">
        <ele>307.6</ele>
        <time>2021-07-03T11:12:13Z</time>
      </trkpt>
      <trkpt lat="45.19334" lon="5.48408">
        <ele>307</ele>
        <time>2021-07-03T11:12:17Z</time>
      </trkpt>
      <trkpt lat="45.19359" lon="5.48413">
        <ele>300.4</ele>
        <time>2021-07-03T11:12:21Z</time>
      </trkpt>
      <trkpt lat="45.19388" lon="5.48426">
        <ele>298.2</ele>
        <time>2021-07-03T11:12:25Z</time>
      </trkpt>
      <trkpt lat="45.19427" lon="5.48429">
        <ele>295.2</ele>
        <time>2021-07-03T11:12:29Z</time>
      </trkpt>
      <trkpt lat="45.19461" lon="5.48427">
        <ele>290.8</ele>
        <time>2021-07-03T11:12:33Z</time>
      </trkpt>
      <trkpt lat="45.19489" lon="5.4843">
        <ele>285.8</ele>
        <time>2021-07-03T11:12:37Z</time>
      </trkpt>
      <trkpt lat="45.19515" lon="5.48433">
        <ele>280.8</ele>
        <time>2021-07-03T11:12:41Z</time>
      </trkpt>
      <trkpt lat="45.19543" lon="5.48439">
        <ele>276.2</ele>
        <time>2021-07-03T11:12:45Z</time>
      </trkpt>
      <trkpt lat="45.19569" lon="5.48433">
        <ele>273</ele>
        <time>2021-07-03T11:12:49Z</time>
      </trkpt>
      <trkpt lat="45.19587" lon="5.48436">
        <ele>271</ele>
        <time>2021-07-03T11:12:53Z</time>
      </trkpt>
      <trkpt lat="45.19604" lon="5.48437">
        <ele>266.2</ele>
        <time>2021-07-03T11:12:57Z</time>
      </trkpt>
      <trkpt lat="45.19633" lon="5.48431">
        <ele>261.8</ele>
        <time>2021-07-03T11:13:01Z</time>
      </trkpt>
      <trkpt lat="45.19649" lon="5.48428">
        <ele>261.8</ele>
        <time>2021-07-03T11:13:05Z</time>
      </trkpt>
      <trkpt lat="45.19673" lon="5.48411">
        <ele>259</ele>
        <time>2021-07-03T11:13:13Z</time>
      </trkpt>
      <trkpt lat="45.19697" lon="5.48404">
        <ele>255.6</ele>
        <time>2021-07-03T11:13:17Z</time>
      </trkpt>
      <trkpt lat="45.19728" lon="5.48419">
        <ele>252.4</ele>
        <time>2021-07-03T11:13:21Z</time>
      </trkpt>
      <trkpt lat="45.19757" lon="5.48445">
        <ele>251.8</ele>
        <time>2021-07-03T11:13:25Z</time>
      </trkpt>
      <trkpt lat="45.19778" lon="5.48469">
        <ele>251.4</ele>
        <time>2021-07-03T11:13:29Z</time>
      </trkpt>
      <trkpt lat="45.19802" lon="5.48463">
        <ele>250.2</ele>
        <time>2021-07-03T11:13:33Z</time>
      </trkpt>
      <trkpt lat="45.19822" lon="5.48443">
        <ele>251</ele>
        <time>2021-07-03T11:13:37Z</time>
      </trkpt>
      <trkpt lat="45.1984" lon="5.48427">
        <ele>250.8</ele>
        <time>2021-07-03T11:13:41Z</time>
      </trkpt>
      <trkpt lat="45.19858" lon="5.48409">
        <ele>249.8</ele>
        <time>2021-07-03T11:13:45Z</time>
      </trkpt>
      <trkpt lat="45.19883" lon="5.4841">
        <ele>249.4</ele>
        <time>2021-07-03T11:13:49Z</time>
      </trkpt>
      <trkpt lat="45.19904" lon="5.4842">
        <ele>249</ele>
        <time>2021-07-03T11:13:53Z</time>
      </trkpt>
      <trkpt lat="45.19923" lon="5.48434">
        <ele>248.4</ele>
        <time>2021-07-03T11:13:57Z</time>
      </trkpt>
      <trkpt lat="45.19944" lon="5.48446">
        <ele>247.4</ele>
        <time>2021-07-03T11:14:01Z</time>
      </trkpt>
      <trkpt lat="45.19964" lon="5.48458">
        <ele>246.8</ele>
        <time>2021-07-03T11:14:05Z</time>
      </trkpt>
      <trkpt lat="45.19981" lon="5.48468">
        <ele>245.4</ele>
        <time>2021-07-03T11:14:09Z</time>
      </trkpt>
      <trkpt lat="45.19999" lon="5.48456">
        <ele>244</ele>
        <time>2021-07-03T11:14:13Z</time>
      </trkpt>
      <trkpt lat="45.20017" lon="5.48437">
        <ele>242.6</ele>
        <time>2021-07-03T11:14:17Z</time>
      </trkpt>
      <trkpt lat="45.20037" lon="5.48423">
        <ele>241.8</ele>
        <time>2021-07-03T11:14:21Z</time>
      </trkpt>
      <trkpt lat="45.20059" lon="5.48427">
        <ele>240.4</ele>
        <time>2021-07-03T11:14:25Z</time>
      </trkpt>
      <trkpt lat="45.20077" lon="5.48433">
        <ele>239.2</ele>
        <time>2021-07-03T11:14:29Z</time>
      </trkpt>
      <trkpt lat="45.20094" lon="5.48453">
        <ele>238.4</ele>
        <time>2021-07-03T11:14:33Z</time>
      </trkpt>
      <trkpt lat="45.20109" lon="5.48478">
        <ele>238.4</ele>
        <time>2021-07-03T11:14:37Z</time>
      </trkpt>
      <trkpt lat="45.20128" lon="5.48502">
        <ele>235.2</ele>
        <time>2021-07-03T11:14:41Z</time>
      </trkpt>
      <trkpt lat="45.2015" lon="5.48529">
        <ele>232.8</ele>
        <time>2021-07-03T11:14:45Z</time>
      </trkpt>
      <trkpt lat="45.20184" lon="5.48538">
        <ele>229.4</ele>
        <time>2021-07-03T11:14:49Z</time>
      </trkpt>
      <trkpt lat="45.20217" lon="5.48553">
        <ele>229.2</ele>
        <time>2021-07-03T11:14:53Z</time>
      </trkpt>
      <trkpt lat="45.20243" lon="5.4857">
        <ele>229.4</ele>
        <time>2021-07-03T11:14:57Z</time>
      </trkpt>
      <trkpt lat="45.20267" lon="5.48586">
        <ele>229.2</ele>
        <time>2021-07-03T11:15:01Z</time>
      </trkpt>
      <trkpt lat="45.20291" lon="5.48605">
        <ele>228.4</ele>
        <time>2021-07-03T11:15:05Z</time>
      </trkpt>
      <trkpt lat="45.20312" lon="5.48624">
        <ele>228.6</ele>
        <time>2021-07-03T11:15:09Z</time>
      </trkpt>
      <trkpt lat="45.20333" lon="5.48638">
        <ele>229</ele>
        <time>2021-07-03T11:15:13Z</time>
      </trkpt>
      <trkpt lat="45.20348" lon="5.4865">
        <ele>228.2</ele>
        <time>2021-07-03T11:15:17Z</time>
      </trkpt>
      <trkpt lat="45.20364" lon="5.48658">
        <ele>228.4</ele>
        <time>2021-07-03T11:15:21Z</time>
      </trkpt>
      <trkpt lat="45.20387" lon="5.48668">
        <ele>227</ele>
        <time>2021-07-03T11:15:25Z</time>
      </trkpt>
      <trkpt lat="45.20413" lon="5.48665">
        <ele>226.4</ele>
        <time>2021-07-03T11:15:29Z</time>
      </trkpt>
      <trkpt lat="45.20442" lon="5.48662">
        <ele>222.8</ele>
        <time>2021-07-03T11:15:33Z</time>
      </trkpt>
      <trkpt lat="45.20471" lon="5.48665">
        <ele>220.6</ele>
        <time>2021-07-03T11:15:37Z</time>
      </trkpt>
      <trkpt lat="45.20484" lon="5.48656">
        <ele>220</ele>
        <time>2021-07-03T11:15:41Z</time>
      </trkpt>
      <trkpt lat="45.20479" lon="5.48636">
        <ele>217.8</ele>
        <time>2021-07-03T11:15:45Z</time>
      </trkpt>
      <trkpt lat="45.20472" lon="5.48606">
        <ele>216.8</ele>
        <time>2021-07-03T11:15:49Z</time>
      </trkpt>
      <trkpt lat="45.20459" lon="5.48569">
        <ele>213.8</ele>
        <time>2021-07-03T11:15:53Z</time>
      </trkpt>
      <trkpt lat="45.20439" lon="5.48531">
        <ele>210.4</ele>
        <time>2021-07-03T11:15:57Z</time>
      </trkpt>
      <trkpt lat="45.20407" lon="5.48497">
        <ele>207</ele>
        <time>2021-07-03T11:16:01Z</time>
      </trkpt>
      <trkpt lat="45.20371" lon="5.48467">
        <ele>203.4</ele>
        <time>2021-07-03T11:16:05Z</time>
      </trkpt>
      <trkpt lat="45.20337" lon="5.48432">
        <ele>199</ele>
        <time>2021-07-03T11:16:09Z</time>
      </trkpt>
      <trkpt lat="45.20299" lon="5.48398">
        <ele>196</ele>
        <time>2021-07-03T11:16:13Z</time>
      </trkpt>
      <trkpt lat="45.20265" lon="5.48359">
        <ele>191</ele>
        <time>2021-07-03T11:16:17Z</time>
      </trkpt>
      <trkpt lat="45.20227" lon="5.48311">
        <ele>187.4</ele>
        <time>2021-07-03T11:16:21Z</time>
      </trkpt>
      <trkpt lat="45.20199" lon="5.48256">
        <ele>184.8</ele>
        <time>2021-07-03T11:16:25Z</time>
      </trkpt>
      <trkpt lat="45.2018" lon="5.48208">
        <ele>182.4</ele>
        <time>2021-07-03T11:16:29Z</time>
      </trkpt>
      <trkpt lat="45.20166" lon="5.48174">
        <ele>179.8</ele>
        <time>2021-07-03T11:16:33Z</time>
      </trkpt>
      <trkpt lat="45.20148" lon="5.48143">
        <ele>178.2</ele>
        <time>2021-07-03T11:16:37Z</time>
      </trkpt>
      <trkpt lat="45.20127" lon="5.48114">
        <ele>175.4</ele>
        <time>2021-07-03T11:16:41Z</time>
      </trkpt>
      <trkpt lat="45.20123" lon="5.48071">
        <ele>175</ele>
        <time>2021-07-03T11:16:45Z</time>
      </trkpt>
      <trkpt lat="45.20131" lon="5.48035">
        <ele>174.4</ele>
        <time>2021-07-03T11:16:49Z</time>
      </trkpt>
      <trkpt lat="45.20138" lon="5.48002">
        <ele>174.4</ele>
        <time>2021-07-03T11:16:53Z</time>
      </trkpt>
      <trkpt lat="45.20142" lon="5.47964">
        <ele>174.8</ele>
        <time>2021-07-03T11:16:57Z</time>
      </trkpt>
      <trkpt lat="45.20146" lon="5.47934">
        <ele>174.8</ele>
        <time>2021-07-03T11:17:01Z</time>
      </trkpt>
      <trkpt lat="45.20149" lon="5.47902">
        <ele>175</ele>
        <time>2021-07-03T11:17:05Z</time>
      </trkpt>
      <trkpt lat="45.20152" lon="5.4787">
        <ele>175</ele>
        <time>2021-07-03T11:17:09Z</time>
      </trkpt>
      <trkpt lat="45.20155" lon="5.47838">
        <ele>175.2</ele>
        <time>2021-07-03T11:17:13Z</time>
      </trkpt>
      <trkpt lat="45.2016" lon="5.4781">
        <ele>174.8</ele>
        <time>2021-07-03T11:17:17Z</time>
      </trkpt>
      <trkpt lat="45.20167" lon="5.47787">
        <ele>174.2</ele>
        <time>2021-07-03T11:17:21Z</time>
      </trkpt>
      <trkpt lat="45.20174" lon="5.47768">
        <ele>175</ele>
        <time>2021-07-03T11:17:25Z</time>
      </trkpt>
      <trkpt lat="45.2018" lon="5.47746">
        <ele>175.2</ele>
        <time>2021-07-03T11:17:29Z</time>
      </trkpt>
      <trkpt lat="45.20186" lon="5.47721">
        <ele>174.4</ele>
        <time>2021-07-03T11:17:33Z</time>
      </trkpt>
      <trkpt lat="45.2019" lon="5.47693">
        <ele>175</ele>
        <time>2021-07-03T11:17:37Z</time>
      </trkpt>
      <trkpt lat="45.20193" lon="5.47661">
        <ele>174.4</ele>
        <time>2021-07-03T11:17:41Z</time>
      </trkpt>
      <trkpt lat="45.20196" lon="5.47635">
        <ele>174.6</ele>
        <time>2021-07-03T11:17:45Z</time>
      </trkpt>
      <trkpt lat="45.20197" lon="5.47604">
        <ele>174.4</ele>
        <time>2021-07-03T11:17:49Z</time>
      </trkpt>
      <trkpt lat="45.202" lon="5.47568">
        <ele>174</ele>
        <time>2021-07-03T11:17:53Z</time>
      </trkpt>
      <trkpt lat="45.20206" lon="5.47536">
        <ele>174</ele>
        <time>2021-07-03T11:17:57Z</time>
      </trkpt>
      <trkpt lat="45.20216" lon="5.47503">
        <ele>173</ele>
        <time>2021-07-03T11:18:01Z</time>
      </trkpt>
      <trkpt lat="45.20226" lon="5.4747">
        <ele>172.2</ele>
        <time>2021-07-03T11:18:05Z</time>
      </trkpt>
      <trkpt lat="45.20238" lon="5.47439">
        <ele>172.2</ele>
        <time>2021-07-03T11:18:09Z</time>
      </trkpt>
      <trkpt lat="45.2025" lon="5.4741">
        <ele>171</ele>
        <time>2021-07-03T11:18:13Z</time>
      </trkpt>
      <trkpt lat="45.20266" lon="5.47382">
        <ele>171.2</ele>
        <time>2021-07-03T11:18:17Z</time>
      </trkpt>
      <trkpt lat="45.20282" lon="5.47349">
        <ele>170.4</ele>
        <time>2021-07-03T11:18:21Z</time>
      </trkpt>
      <trkpt lat="45.20297" lon="5.47318">
        <ele>170.6</ele>
        <time>2021-07-03T11:18:25Z</time>
      </trkpt>
      <trkpt lat="45.20313" lon="5.47292">
        <ele>169.8</ele>
        <time>2021-07-03T11:18:29Z</time>
      </trkpt>
      <trkpt lat="45.2033" lon="5.47267">
        <ele>169.6</ele>
        <time>2021-07-03T11:18:33Z</time>
      </trkpt>
      <trkpt lat="45.20347" lon="5.47241">
        <ele>169.2</ele>
        <time>2021-07-03T11:18:37Z</time>
      </trkpt>
      <trkpt lat="45.20366" lon="5.47216">
        <ele>168.4</ele>
        <time>2021-07-03T11:18:41Z</time>
      </trkpt>
      <trkpt lat="45.20387" lon="5.47194">
        <ele>167.8</ele>
        <time>2021-07-03T11:18:45Z</time>
      </trkpt>
      <trkpt lat="45.20407" lon="5.47175">
        <ele>167.4</ele>
        <time>2021-07-03T11:18:49Z</time>
      </trkpt>
      <trkpt lat="45.20422" lon="5.47165">
        <ele>167.4</ele>
        <time>2021-07-03T11:18:53Z</time>
      </trkpt>
      <trkpt lat="45.20428" lon="5.47164">
        <ele>167.2</ele>
        <time>2021-07-03T11:18:57Z</time>
      </trkpt>
      <trkpt lat="45.20436" lon="5.47157">
        <ele>167.4</ele>
        <time>2021-07-03T11:19:01Z</time>
      </trkpt>
      <trkpt lat="45.20445" lon="5.4714">
        <ele>167.6</ele>
        <time>2021-07-03T11:19:05Z</time>
      </trkpt>
      <trkpt lat="45.20459" lon="5.47123">
        <ele>167.4</ele>
        <time>2021-07-03T11:19:09Z</time>
      </trkpt>
      <trkpt lat="45.20475" lon="5.47106">
        <ele>167.2</ele>
        <time>2021-07-03T11:19:13Z</time>
      </trkpt>
      <trkpt lat="45.20492" lon="5.47088">
        <ele>167.4</ele>
        <time>2021-07-03T11:19:17Z</time>
      </trkpt>
      <trkpt lat="45.20509" lon="5.4707">
        <ele>167.2</ele>
        <time>2021-07-03T11:19:21Z</time>
      </trkpt>
      <trkpt lat="45.20527" lon="5.47051">
        <ele>166.8</ele>
        <time>2021-07-03T11:19:25Z</time>
      </trkpt>
      <trkpt lat="45.20545" lon="5.47033">
        <ele>166.8</ele>
        <time>2021-07-03T11:19:29Z</time>
      </trkpt>
      <trkpt lat="45.20563" lon="5.47014">
        <ele>166.6</ele>
        <time>2021-07-03T11:19:33Z</time>
      </trkpt>
      <trkpt lat="45.2058" lon="5.46996">
        <ele>166.6</ele>
        <time>2021-07-03T11:19:37Z</time>
      </trkpt>
      <trkpt lat="45.20596" lon="5.46977">
        <ele>166.8</ele>
        <time>2021-07-03T11:19:41Z</time>
      </trkpt>
      <trkpt lat="45.20612" lon="5.46958">
        <ele>166.2</ele>
        <time>2021-07-03T11:19:45Z</time>
      </trkpt>
      <trkpt lat="45.20628" lon="5.4694">
        <ele>166</ele>
        <time>2021-07-03T11:19:49Z</time>
      </trkpt>
      <trkpt lat="45.20644" lon="5.46921">
        <ele>166.2</ele>
        <time>2021-07-03T11:19:53Z</time>
      </trkpt>
      <trkpt lat="45.20661" lon="5.46901">
        <ele>165.6</ele>
        <time>2021-07-03T11:19:57Z</time>
      </trkpt>
      <trkpt lat="45.20678" lon="5.4688">
        <ele>165.2</ele>
        <time>2021-07-03T11:20:01Z</time>
      </trkpt>
      <trkpt lat="45.20695" lon="5.46857">
        <ele>165</ele>
        <time>2021-07-03T11:20:05Z</time>
      </trkpt>
      <trkpt lat="45.20713" lon="5.46835">
        <ele>163</ele>
        <time>2021-07-03T11:20:09Z</time>
      </trkpt>
      <trkpt lat="45.20733" lon="5.46809">
        <ele>161.4</ele>
        <time>2021-07-03T11:20:13Z</time>
      </trkpt>
      <trkpt lat="45.20752" lon="5.46783">
        <ele>161</ele>
        <time>2021-07-03T11:20:17Z</time>
      </trkpt>
      <trkpt lat="45.20756" lon="5.46753">
        <ele>160.4</ele>
        <time>2021-07-03T11:20:21Z</time>
      </trkpt>
      <trkpt lat="45.20741" lon="5.46722">
        <ele>159</ele>
        <time>2021-07-03T11:20:25Z</time>
      </trkpt>
      <trkpt lat="45.20728" lon="5.467">
        <ele>159.4</ele>
        <time>2021-07-03T11:20:29Z</time>
      </trkpt>
      <trkpt lat="45.2072" lon="5.46685">
        <ele>159.8</ele>
        <time>2021-07-03T11:20:33Z</time>
      </trkpt>
      <trkpt lat="45.20711" lon="5.4667">
        <ele>159.6</ele>
        <time>2021-07-03T11:20:37Z</time>
      </trkpt>
      <trkpt lat="45.207" lon="5.46652">
        <ele>159.2</ele>
        <time>2021-07-03T11:20:41Z</time>
      </trkpt>
      <trkpt lat="45.2069" lon="5.46635">
        <ele>159.8</ele>
        <time>2021-07-03T11:20:45Z</time>
      </trkpt>
      <trkpt lat="45.20681" lon="5.46621">
        <ele>160.4</ele>
        <time>2021-07-03T11:20:49Z</time>
      </trkpt>
      <trkpt lat="45.20673" lon="5.46611">
        <ele>160.4</ele>
        <time>2021-07-03T11:20:53Z</time>
      </trkpt>
      <trkpt lat="45.20676" lon="5.46621">
        <ele>160</ele>
        <time>2021-07-03T11:20:57Z</time>
      </trkpt>
      <trkpt lat="45.20685" lon="5.46635">
        <ele>160</ele>
        <time>2021-07-03T11:21:01Z</time>
      </trkpt>
      <trkpt lat="45.20697" lon="5.46653">
        <ele>160</ele>
        <time>2021-07-03T11:21:05Z</time>
      </trkpt>
      <trkpt lat="45.2071" lon="5.46671">
        <ele>159.8</ele>
        <time>2021-07-03T11:21:09Z</time>
      </trkpt>
      <trkpt lat="45.20718" lon="5.46687">
        <ele>159.4</ele>
        <time>2021-07-03T11:21:13Z</time>
      </trkpt>
    </trkseg>
  </trk>
</gpx>